<?xml version="1.0" encoding="UTF-8" standalone="no" ?>
<gpx xmlns="http://www.topografix.com/GPX/1/1" xmlns:xsi="http://www.w3.org/2001/XMLSchema-instance" xsi:schemaLocation="http://www.topografix.com/GPX/1/1 http://www.topografix.com/GPX/1/1/gpx.xsd" version="1.1" creator="VisuGPX - https://www.visugpx.com">
  <metadata>
    <name>Dent du pra </name>
  </metadata>
  <trk>
    <name><![CDATA[Dent du pra _1]]></name>
    <trkseg>
      <trkpt lat="45.23527" lon="5.98574">
        <ele>1197.2</ele>
        <time>2021-12-19T07:31:05Z</time>
      </trkpt>
      <trkpt lat="45.23525" lon="5.98574">
        <ele>1197.2</ele>
        <time>2021-12-19T07:31:26Z</time>
      </trkpt>
      <trkpt lat="45.23522" lon="5.98586">
        <ele>1197.2</ele>
        <time>2021-12-19T07:31:42Z</time>
      </trkpt>
      <trkpt lat="45.23521" lon="5.98588">
        <ele>1197.2</ele>
        <time>2021-12-19T07:31:43Z</time>
      </trkpt>
      <trkpt lat="45.23511" lon="5.98609">
        <ele>1198.2</ele>
        <time>2021-12-19T07:31:54Z</time>
      </trkpt>
      <trkpt lat="45.23511" lon="5.98611">
        <ele>1198.2</ele>
        <time>2021-12-19T07:31:55Z</time>
      </trkpt>
      <trkpt lat="45.23509" lon="5.98614">
        <ele>1198.6</ele>
        <time>2021-12-19T07:31:58Z</time>
      </trkpt>
      <trkpt lat="45.23505" lon="5.98618">
        <ele>1199.2</ele>
        <time>2021-12-19T07:32:02Z</time>
      </trkpt>
      <trkpt lat="45.23501" lon="5.98622">
        <ele>1200</ele>
        <time>2021-12-19T07:32:07Z</time>
      </trkpt>
      <trkpt lat="45.23499" lon="5.98625">
        <ele>1200.2</ele>
        <time>2021-12-19T07:32:09Z</time>
      </trkpt>
      <trkpt lat="45.23493" lon="5.98633">
        <ele>1201.4</ele>
        <time>2021-12-19T07:32:17Z</time>
      </trkpt>
      <trkpt lat="45.23491" lon="5.98636">
        <ele>1201.8</ele>
        <time>2021-12-19T07:32:19Z</time>
      </trkpt>
      <trkpt lat="45.2349" lon="5.98637">
        <ele>1201.8</ele>
        <time>2021-12-19T07:32:20Z</time>
      </trkpt>
      <trkpt lat="45.23487" lon="5.98643">
        <ele>1202.6</ele>
        <time>2021-12-19T07:32:25Z</time>
      </trkpt>
      <trkpt lat="45.23484" lon="5.98648">
        <ele>1203.2</ele>
        <time>2021-12-19T07:32:29Z</time>
      </trkpt>
      <trkpt lat="45.23481" lon="5.98653">
        <ele>1203.8</ele>
        <time>2021-12-19T07:32:33Z</time>
      </trkpt>
      <trkpt lat="45.23478" lon="5.98659">
        <ele>1204.4</ele>
        <time>2021-12-19T07:32:38Z</time>
      </trkpt>
      <trkpt lat="45.23476" lon="5.98663">
        <ele>1205</ele>
        <time>2021-12-19T07:32:42Z</time>
      </trkpt>
      <trkpt lat="45.2347" lon="5.98669">
        <ele>1205.4</ele>
        <time>2021-12-19T07:32:48Z</time>
      </trkpt>
      <trkpt lat="45.2347" lon="5.9867">
        <ele>1205.2</ele>
        <time>2021-12-19T07:32:55Z</time>
      </trkpt>
      <trkpt lat="45.23469" lon="5.9867">
        <ele>1205.4</ele>
        <time>2021-12-19T07:32:57Z</time>
      </trkpt>
      <trkpt lat="45.2347" lon="5.9867">
        <ele>1205.6</ele>
        <time>2021-12-19T07:33:02Z</time>
      </trkpt>
      <trkpt lat="45.23467" lon="5.98672">
        <ele>1205.8</ele>
        <time>2021-12-19T07:33:28Z</time>
      </trkpt>
      <trkpt lat="45.23466" lon="5.98672">
        <ele>1205.8</ele>
        <time>2021-12-19T07:33:37Z</time>
      </trkpt>
      <trkpt lat="45.23466" lon="5.98672">
        <ele>1206</ele>
        <time>2021-12-19T07:33:39Z</time>
      </trkpt>
      <trkpt lat="45.23465" lon="5.98681">
        <ele>1207</ele>
        <time>2021-12-19T07:33:51Z</time>
      </trkpt>
      <trkpt lat="45.23463" lon="5.98684">
        <ele>1207</ele>
        <time>2021-12-19T07:33:53Z</time>
      </trkpt>
      <trkpt lat="45.23458" lon="5.98691">
        <ele>1207.4</ele>
        <time>2021-12-19T07:33:58Z</time>
      </trkpt>
      <trkpt lat="45.23457" lon="5.98693">
        <ele>1207.6</ele>
        <time>2021-12-19T07:33:59Z</time>
      </trkpt>
      <trkpt lat="45.23454" lon="5.98699">
        <ele>1208</ele>
        <time>2021-12-19T07:34:04Z</time>
      </trkpt>
      <trkpt lat="45.23453" lon="5.98701">
        <ele>1208.6</ele>
        <time>2021-12-19T07:34:06Z</time>
      </trkpt>
      <trkpt lat="45.23449" lon="5.98708">
        <ele>1209.2</ele>
        <time>2021-12-19T07:34:11Z</time>
      </trkpt>
      <trkpt lat="45.23445" lon="5.98714">
        <ele>1209.8</ele>
        <time>2021-12-19T07:34:16Z</time>
      </trkpt>
      <trkpt lat="45.23443" lon="5.98717">
        <ele>1210.4</ele>
        <time>2021-12-19T07:34:19Z</time>
      </trkpt>
      <trkpt lat="45.23438" lon="5.98727">
        <ele>1211.6</ele>
        <time>2021-12-19T07:34:26Z</time>
      </trkpt>
      <trkpt lat="45.23437" lon="5.98728">
        <ele>1211.8</ele>
        <time>2021-12-19T07:34:27Z</time>
      </trkpt>
      <trkpt lat="45.23432" lon="5.98736">
        <ele>1212.8</ele>
        <time>2021-12-19T07:34:33Z</time>
      </trkpt>
      <trkpt lat="45.23429" lon="5.98742">
        <ele>1213.2</ele>
        <time>2021-12-19T07:34:37Z</time>
      </trkpt>
      <trkpt lat="45.23427" lon="5.98747">
        <ele>1213.8</ele>
        <time>2021-12-19T07:34:41Z</time>
      </trkpt>
      <trkpt lat="45.23423" lon="5.98753">
        <ele>1214.2</ele>
        <time>2021-12-19T07:34:45Z</time>
      </trkpt>
      <trkpt lat="45.23422" lon="5.98754">
        <ele>1214.4</ele>
        <time>2021-12-19T07:34:46Z</time>
      </trkpt>
      <trkpt lat="45.2342" lon="5.98755">
        <ele>1214.8</ele>
        <time>2021-12-19T07:34:48Z</time>
      </trkpt>
      <trkpt lat="45.23415" lon="5.9876">
        <ele>1215.6</ele>
        <time>2021-12-19T07:34:54Z</time>
      </trkpt>
      <trkpt lat="45.23414" lon="5.98761">
        <ele>1215.8</ele>
        <time>2021-12-19T07:34:55Z</time>
      </trkpt>
      <trkpt lat="45.23406" lon="5.98765">
        <ele>1216.8</ele>
        <time>2021-12-19T07:35:01Z</time>
      </trkpt>
      <trkpt lat="45.23405" lon="5.98766">
        <ele>1217</ele>
        <time>2021-12-19T07:35:02Z</time>
      </trkpt>
      <trkpt lat="45.23399" lon="5.98774">
        <ele>1218.2</ele>
        <time>2021-12-19T07:35:09Z</time>
      </trkpt>
      <trkpt lat="45.23395" lon="5.98778">
        <ele>1218.8</ele>
        <time>2021-12-19T07:35:13Z</time>
      </trkpt>
      <trkpt lat="45.23391" lon="5.98782">
        <ele>1219.2</ele>
        <time>2021-12-19T07:35:17Z</time>
      </trkpt>
      <trkpt lat="45.23387" lon="5.98785">
        <ele>1219.8</ele>
        <time>2021-12-19T07:35:20Z</time>
      </trkpt>
      <trkpt lat="45.23386" lon="5.98786">
        <ele>1220</ele>
        <time>2021-12-19T07:35:21Z</time>
      </trkpt>
      <trkpt lat="45.23381" lon="5.98789">
        <ele>1220.2</ele>
        <time>2021-12-19T07:35:25Z</time>
      </trkpt>
      <trkpt lat="45.23375" lon="5.98793">
        <ele>1221</ele>
        <time>2021-12-19T07:35:30Z</time>
      </trkpt>
      <trkpt lat="45.23372" lon="5.98794">
        <ele>1221.4</ele>
        <time>2021-12-19T07:35:32Z</time>
      </trkpt>
      <trkpt lat="45.23366" lon="5.98799">
        <ele>1222.2</ele>
        <time>2021-12-19T07:35:38Z</time>
      </trkpt>
      <trkpt lat="45.23364" lon="5.98801">
        <ele>1222.6</ele>
        <time>2021-12-19T07:35:40Z</time>
      </trkpt>
      <trkpt lat="45.23357" lon="5.98807">
        <ele>1223.6</ele>
        <time>2021-12-19T07:35:46Z</time>
      </trkpt>
      <trkpt lat="45.23356" lon="5.98807">
        <ele>1223.8</ele>
        <time>2021-12-19T07:35:47Z</time>
      </trkpt>
      <trkpt lat="45.2335" lon="5.98813">
        <ele>1224.8</ele>
        <time>2021-12-19T07:35:54Z</time>
      </trkpt>
      <trkpt lat="45.23341" lon="5.98819">
        <ele>1225.8</ele>
        <time>2021-12-19T07:36:02Z</time>
      </trkpt>
      <trkpt lat="45.23339" lon="5.98821">
        <ele>1226.2</ele>
        <time>2021-12-19T07:36:04Z</time>
      </trkpt>
      <trkpt lat="45.23332" lon="5.98825">
        <ele>1226.8</ele>
        <time>2021-12-19T07:36:10Z</time>
      </trkpt>
      <trkpt lat="45.23331" lon="5.98826">
        <ele>1227</ele>
        <time>2021-12-19T07:36:11Z</time>
      </trkpt>
      <trkpt lat="45.23327" lon="5.98828">
        <ele>1227.4</ele>
        <time>2021-12-19T07:36:14Z</time>
      </trkpt>
      <trkpt lat="45.23323" lon="5.98832">
        <ele>1228</ele>
        <time>2021-12-19T07:36:18Z</time>
      </trkpt>
      <trkpt lat="45.23318" lon="5.98837">
        <ele>1228.4</ele>
        <time>2021-12-19T07:36:21Z</time>
      </trkpt>
      <trkpt lat="45.23313" lon="5.98842">
        <ele>1229</ele>
        <time>2021-12-19T07:36:25Z</time>
      </trkpt>
      <trkpt lat="45.23305" lon="5.98849">
        <ele>1230</ele>
        <time>2021-12-19T07:36:33Z</time>
      </trkpt>
      <trkpt lat="45.23296" lon="5.98855">
        <ele>1231</ele>
        <time>2021-12-19T07:36:42Z</time>
      </trkpt>
      <trkpt lat="45.23287" lon="5.98862">
        <ele>1232.2</ele>
        <time>2021-12-19T07:36:50Z</time>
      </trkpt>
      <trkpt lat="45.23285" lon="5.98863">
        <ele>1232.4</ele>
        <time>2021-12-19T07:36:52Z</time>
      </trkpt>
      <trkpt lat="45.23279" lon="5.98867">
        <ele>1233.2</ele>
        <time>2021-12-19T07:36:58Z</time>
      </trkpt>
      <trkpt lat="45.23274" lon="5.98869">
        <ele>1233.8</ele>
        <time>2021-12-19T07:37:02Z</time>
      </trkpt>
      <trkpt lat="45.23269" lon="5.9887">
        <ele>1234.4</ele>
        <time>2021-12-19T07:37:06Z</time>
      </trkpt>
      <trkpt lat="45.2326" lon="5.98875">
        <ele>1235</ele>
        <time>2021-12-19T07:37:13Z</time>
      </trkpt>
      <trkpt lat="45.23257" lon="5.98874">
        <ele>1235.4</ele>
        <time>2021-12-19T07:37:15Z</time>
      </trkpt>
      <trkpt lat="45.23248" lon="5.98878">
        <ele>1236.2</ele>
        <time>2021-12-19T07:37:22Z</time>
      </trkpt>
      <trkpt lat="45.23244" lon="5.98881">
        <ele>1236.6</ele>
        <time>2021-12-19T07:37:26Z</time>
      </trkpt>
      <trkpt lat="45.23237" lon="5.98885">
        <ele>1237.4</ele>
        <time>2021-12-19T07:37:32Z</time>
      </trkpt>
      <trkpt lat="45.23234" lon="5.98887">
        <ele>1237.6</ele>
        <time>2021-12-19T07:37:35Z</time>
      </trkpt>
      <trkpt lat="45.23226" lon="5.98891">
        <ele>1238.6</ele>
        <time>2021-12-19T07:37:42Z</time>
      </trkpt>
      <trkpt lat="45.23225" lon="5.98891">
        <ele>1238.8</ele>
        <time>2021-12-19T07:37:43Z</time>
      </trkpt>
      <trkpt lat="45.2322" lon="5.98892">
        <ele>1239.8</ele>
        <time>2021-12-19T07:37:49Z</time>
      </trkpt>
      <trkpt lat="45.23215" lon="5.98894">
        <ele>1240.4</ele>
        <time>2021-12-19T07:37:54Z</time>
      </trkpt>
      <trkpt lat="45.23212" lon="5.98898">
        <ele>1240.8</ele>
        <time>2021-12-19T07:37:58Z</time>
      </trkpt>
      <trkpt lat="45.23208" lon="5.98901">
        <ele>1241.2</ele>
        <time>2021-12-19T07:38:02Z</time>
      </trkpt>
      <trkpt lat="45.23207" lon="5.98903">
        <ele>1241.6</ele>
        <time>2021-12-19T07:38:04Z</time>
      </trkpt>
      <trkpt lat="45.23207" lon="5.98904">
        <ele>1241.8</ele>
        <time>2021-12-19T07:38:05Z</time>
      </trkpt>
      <trkpt lat="45.23203" lon="5.98909">
        <ele>1242.8</ele>
        <time>2021-12-19T07:38:11Z</time>
      </trkpt>
      <trkpt lat="45.232" lon="5.98912">
        <ele>1243.2</ele>
        <time>2021-12-19T07:38:14Z</time>
      </trkpt>
      <trkpt lat="45.23196" lon="5.98919">
        <ele>1244</ele>
        <time>2021-12-19T07:38:20Z</time>
      </trkpt>
      <trkpt lat="45.23191" lon="5.98929">
        <ele>1245.2</ele>
        <time>2021-12-19T07:38:27Z</time>
      </trkpt>
      <trkpt lat="45.23185" lon="5.98941">
        <ele>1246.2</ele>
        <time>2021-12-19T07:38:36Z</time>
      </trkpt>
      <trkpt lat="45.23184" lon="5.98945">
        <ele>1246.6</ele>
        <time>2021-12-19T07:38:39Z</time>
      </trkpt>
      <trkpt lat="45.23181" lon="5.98952">
        <ele>1247.2</ele>
        <time>2021-12-19T07:38:44Z</time>
      </trkpt>
      <trkpt lat="45.23177" lon="5.9896">
        <ele>1247.8</ele>
        <time>2021-12-19T07:38:50Z</time>
      </trkpt>
      <trkpt lat="45.23175" lon="5.98964">
        <ele>1248.4</ele>
        <time>2021-12-19T07:38:53Z</time>
      </trkpt>
      <trkpt lat="45.2317" lon="5.98973">
        <ele>1249.4</ele>
        <time>2021-12-19T07:39:00Z</time>
      </trkpt>
      <trkpt lat="45.23164" lon="5.98982">
        <ele>1250.4</ele>
        <time>2021-12-19T07:39:06Z</time>
      </trkpt>
      <trkpt lat="45.23161" lon="5.9899">
        <ele>1251.2</ele>
        <time>2021-12-19T07:39:12Z</time>
      </trkpt>
      <trkpt lat="45.2316" lon="5.98991">
        <ele>1251.4</ele>
        <time>2021-12-19T07:39:13Z</time>
      </trkpt>
      <trkpt lat="45.23159" lon="5.98992">
        <ele>1251.6</ele>
        <time>2021-12-19T07:39:14Z</time>
      </trkpt>
      <trkpt lat="45.23157" lon="5.98998">
        <ele>1252</ele>
        <time>2021-12-19T07:39:18Z</time>
      </trkpt>
      <trkpt lat="45.23155" lon="5.99004">
        <ele>1252.6</ele>
        <time>2021-12-19T07:39:22Z</time>
      </trkpt>
      <trkpt lat="45.23152" lon="5.9901">
        <ele>1253.4</ele>
        <time>2021-12-19T07:39:27Z</time>
      </trkpt>
      <trkpt lat="45.23151" lon="5.99016">
        <ele>1253.8</ele>
        <time>2021-12-19T07:39:30Z</time>
      </trkpt>
      <trkpt lat="45.23148" lon="5.99025">
        <ele>1254.6</ele>
        <time>2021-12-19T07:39:36Z</time>
      </trkpt>
      <trkpt lat="45.23147" lon="5.99029">
        <ele>1255</ele>
        <time>2021-12-19T07:39:38Z</time>
      </trkpt>
      <trkpt lat="45.23145" lon="5.99038">
        <ele>1255.6</ele>
        <time>2021-12-19T07:39:44Z</time>
      </trkpt>
      <trkpt lat="45.23143" lon="5.99044">
        <ele>1256</ele>
        <time>2021-12-19T07:39:47Z</time>
      </trkpt>
      <trkpt lat="45.23141" lon="5.99052">
        <ele>1256.8</ele>
        <time>2021-12-19T07:39:52Z</time>
      </trkpt>
      <trkpt lat="45.2314" lon="5.99055">
        <ele>1257.2</ele>
        <time>2021-12-19T07:39:54Z</time>
      </trkpt>
      <trkpt lat="45.23138" lon="5.99064">
        <ele>1257.6</ele>
        <time>2021-12-19T07:40:00Z</time>
      </trkpt>
      <trkpt lat="45.23137" lon="5.99065">
        <ele>1257.8</ele>
        <time>2021-12-19T07:40:01Z</time>
      </trkpt>
      <trkpt lat="45.23136" lon="5.99071">
        <ele>1258.2</ele>
        <time>2021-12-19T07:40:04Z</time>
      </trkpt>
      <trkpt lat="45.2313" lon="5.9908">
        <ele>1259.2</ele>
        <time>2021-12-19T07:40:11Z</time>
      </trkpt>
      <trkpt lat="45.2313" lon="5.99081">
        <ele>1259.4</ele>
        <time>2021-12-19T07:40:12Z</time>
      </trkpt>
      <trkpt lat="45.2312" lon="5.99091">
        <ele>1260.4</ele>
        <time>2021-12-19T07:40:21Z</time>
      </trkpt>
      <trkpt lat="45.23111" lon="5.99098">
        <ele>1261.6</ele>
        <time>2021-12-19T07:40:29Z</time>
      </trkpt>
      <trkpt lat="45.23108" lon="5.99098">
        <ele>1261.8</ele>
        <time>2021-12-19T07:40:31Z</time>
      </trkpt>
      <trkpt lat="45.23101" lon="5.99101">
        <ele>1262.6</ele>
        <time>2021-12-19T07:40:37Z</time>
      </trkpt>
      <trkpt lat="45.231" lon="5.99102">
        <ele>1262.8</ele>
        <time>2021-12-19T07:40:38Z</time>
      </trkpt>
      <trkpt lat="45.23098" lon="5.99103">
        <ele>1263</ele>
        <time>2021-12-19T07:40:39Z</time>
      </trkpt>
      <trkpt lat="45.23093" lon="5.99107">
        <ele>1263.6</ele>
        <time>2021-12-19T07:40:44Z</time>
      </trkpt>
      <trkpt lat="45.2309" lon="5.99108">
        <ele>1263.8</ele>
        <time>2021-12-19T07:40:46Z</time>
      </trkpt>
      <trkpt lat="45.23083" lon="5.99111">
        <ele>1264.6</ele>
        <time>2021-12-19T07:40:52Z</time>
      </trkpt>
      <trkpt lat="45.2308" lon="5.99112">
        <ele>1265</ele>
        <time>2021-12-19T07:40:55Z</time>
      </trkpt>
      <trkpt lat="45.23075" lon="5.99115">
        <ele>1265.8</ele>
        <time>2021-12-19T07:41:00Z</time>
      </trkpt>
      <trkpt lat="45.23071" lon="5.99117">
        <ele>1266.2</ele>
        <time>2021-12-19T07:41:03Z</time>
      </trkpt>
      <trkpt lat="45.23069" lon="5.99118">
        <ele>1266.4</ele>
        <time>2021-12-19T07:41:05Z</time>
      </trkpt>
      <trkpt lat="45.23067" lon="5.99119">
        <ele>1266.6</ele>
        <time>2021-12-19T07:41:07Z</time>
      </trkpt>
      <trkpt lat="45.23064" lon="5.99119">
        <ele>1266.8</ele>
        <time>2021-12-19T07:41:09Z</time>
      </trkpt>
      <trkpt lat="45.23063" lon="5.9912">
        <ele>1266.8</ele>
        <time>2021-12-19T07:41:10Z</time>
      </trkpt>
      <trkpt lat="45.2306" lon="5.9912">
        <ele>1267.4</ele>
        <time>2021-12-19T07:41:13Z</time>
      </trkpt>
      <trkpt lat="45.23059" lon="5.99123">
        <ele>1267.4</ele>
        <time>2021-12-19T07:41:15Z</time>
      </trkpt>
      <trkpt lat="45.23057" lon="5.99123">
        <ele>1267.6</ele>
        <time>2021-12-19T07:41:16Z</time>
      </trkpt>
      <trkpt lat="45.23055" lon="5.99126">
        <ele>1268</ele>
        <time>2021-12-19T07:41:18Z</time>
      </trkpt>
      <trkpt lat="45.23053" lon="5.99127">
        <ele>1268.4</ele>
        <time>2021-12-19T07:41:20Z</time>
      </trkpt>
      <trkpt lat="45.2305" lon="5.9913">
        <ele>1268.8</ele>
        <time>2021-12-19T07:41:23Z</time>
      </trkpt>
      <trkpt lat="45.23049" lon="5.9913">
        <ele>1269</ele>
        <time>2021-12-19T07:41:24Z</time>
      </trkpt>
      <trkpt lat="45.23048" lon="5.9913">
        <ele>1269.2</ele>
        <time>2021-12-19T07:41:25Z</time>
      </trkpt>
      <trkpt lat="45.23047" lon="5.9913">
        <ele>1269.2</ele>
        <time>2021-12-19T07:41:26Z</time>
      </trkpt>
      <trkpt lat="45.23046" lon="5.99131">
        <ele>1269.4</ele>
        <time>2021-12-19T07:41:27Z</time>
      </trkpt>
      <trkpt lat="45.2304" lon="5.99132">
        <ele>1270</ele>
        <time>2021-12-19T07:41:31Z</time>
      </trkpt>
      <trkpt lat="45.23039" lon="5.99132">
        <ele>1270.2</ele>
        <time>2021-12-19T07:41:32Z</time>
      </trkpt>
      <trkpt lat="45.23037" lon="5.99134">
        <ele>1270.4</ele>
        <time>2021-12-19T07:41:34Z</time>
      </trkpt>
      <trkpt lat="45.2303" lon="5.99135">
        <ele>1271</ele>
        <time>2021-12-19T07:41:39Z</time>
      </trkpt>
      <trkpt lat="45.23026" lon="5.99136">
        <ele>1271.2</ele>
        <time>2021-12-19T07:41:41Z</time>
      </trkpt>
      <trkpt lat="45.23023" lon="5.99137">
        <ele>1271.6</ele>
        <time>2021-12-19T07:41:43Z</time>
      </trkpt>
      <trkpt lat="45.23021" lon="5.99139">
        <ele>1271.8</ele>
        <time>2021-12-19T07:41:45Z</time>
      </trkpt>
      <trkpt lat="45.2302" lon="5.9914">
        <ele>1272</ele>
        <time>2021-12-19T07:41:46Z</time>
      </trkpt>
      <trkpt lat="45.23019" lon="5.9914">
        <ele>1272</ele>
        <time>2021-12-19T07:41:47Z</time>
      </trkpt>
      <trkpt lat="45.23017" lon="5.9914">
        <ele>1272.2</ele>
        <time>2021-12-19T07:41:49Z</time>
      </trkpt>
      <trkpt lat="45.23014" lon="5.99142">
        <ele>1272.8</ele>
        <time>2021-12-19T07:41:52Z</time>
      </trkpt>
      <trkpt lat="45.23012" lon="5.99144">
        <ele>1273</ele>
        <time>2021-12-19T07:41:54Z</time>
      </trkpt>
      <trkpt lat="45.2301" lon="5.99145">
        <ele>1273.4</ele>
        <time>2021-12-19T07:41:56Z</time>
      </trkpt>
      <trkpt lat="45.23009" lon="5.99145">
        <ele>1273.4</ele>
        <time>2021-12-19T07:41:57Z</time>
      </trkpt>
      <trkpt lat="45.23008" lon="5.99146">
        <ele>1273.6</ele>
        <time>2021-12-19T07:41:58Z</time>
      </trkpt>
      <trkpt lat="45.23003" lon="5.99148">
        <ele>1274.4</ele>
        <time>2021-12-19T07:42:03Z</time>
      </trkpt>
      <trkpt lat="45.23001" lon="5.99149">
        <ele>1274.6</ele>
        <time>2021-12-19T07:42:05Z</time>
      </trkpt>
      <trkpt lat="45.22997" lon="5.99149">
        <ele>1274.8</ele>
        <time>2021-12-19T07:42:07Z</time>
      </trkpt>
      <trkpt lat="45.22994" lon="5.9915">
        <ele>1275</ele>
        <time>2021-12-19T07:42:09Z</time>
      </trkpt>
      <trkpt lat="45.22992" lon="5.9915">
        <ele>1275.2</ele>
        <time>2021-12-19T07:42:10Z</time>
      </trkpt>
      <trkpt lat="45.2299" lon="5.9915">
        <ele>1275.4</ele>
        <time>2021-12-19T07:42:12Z</time>
      </trkpt>
      <trkpt lat="45.22986" lon="5.99149">
        <ele>1276</ele>
        <time>2021-12-19T07:42:15Z</time>
      </trkpt>
      <trkpt lat="45.22984" lon="5.99151">
        <ele>1276.2</ele>
        <time>2021-12-19T07:42:17Z</time>
      </trkpt>
      <trkpt lat="45.22982" lon="5.99152">
        <ele>1276.6</ele>
        <time>2021-12-19T07:42:19Z</time>
      </trkpt>
      <trkpt lat="45.2298" lon="5.99152">
        <ele>1276.8</ele>
        <time>2021-12-19T07:42:21Z</time>
      </trkpt>
      <trkpt lat="45.22979" lon="5.99154">
        <ele>1277</ele>
        <time>2021-12-19T07:42:22Z</time>
      </trkpt>
      <trkpt lat="45.22975" lon="5.99157">
        <ele>1277.4</ele>
        <time>2021-12-19T07:42:26Z</time>
      </trkpt>
      <trkpt lat="45.22972" lon="5.99159">
        <ele>1277.4</ele>
        <time>2021-12-19T07:42:28Z</time>
      </trkpt>
      <trkpt lat="45.22972" lon="5.99159">
        <ele>1277.6</ele>
        <time>2021-12-19T07:42:29Z</time>
      </trkpt>
      <trkpt lat="45.22966" lon="5.99159">
        <ele>1278.2</ele>
        <time>2021-12-19T07:42:34Z</time>
      </trkpt>
      <trkpt lat="45.22962" lon="5.99162">
        <ele>1278.6</ele>
        <time>2021-12-19T07:42:37Z</time>
      </trkpt>
      <trkpt lat="45.2296" lon="5.99162">
        <ele>1278.6</ele>
        <time>2021-12-19T07:42:38Z</time>
      </trkpt>
      <trkpt lat="45.22957" lon="5.99162">
        <ele>1278.8</ele>
        <time>2021-12-19T07:42:40Z</time>
      </trkpt>
      <trkpt lat="45.22951" lon="5.99164">
        <ele>1279.6</ele>
        <time>2021-12-19T07:42:45Z</time>
      </trkpt>
      <trkpt lat="45.22944" lon="5.99163">
        <ele>1280.8</ele>
        <time>2021-12-19T07:42:51Z</time>
      </trkpt>
      <trkpt lat="45.22943" lon="5.99163">
        <ele>1280.8</ele>
        <time>2021-12-19T07:42:52Z</time>
      </trkpt>
      <trkpt lat="45.22941" lon="5.99163">
        <ele>1281.2</ele>
        <time>2021-12-19T07:42:54Z</time>
      </trkpt>
      <trkpt lat="45.22937" lon="5.99163">
        <ele>1281.6</ele>
        <time>2021-12-19T07:42:57Z</time>
      </trkpt>
      <trkpt lat="45.22936" lon="5.99163">
        <ele>1281.8</ele>
        <time>2021-12-19T07:42:58Z</time>
      </trkpt>
      <trkpt lat="45.22928" lon="5.99162">
        <ele>1282.6</ele>
        <time>2021-12-19T07:43:05Z</time>
      </trkpt>
      <trkpt lat="45.22926" lon="5.99163">
        <ele>1282.8</ele>
        <time>2021-12-19T07:43:07Z</time>
      </trkpt>
      <trkpt lat="45.2292" lon="5.99164">
        <ele>1283.4</ele>
        <time>2021-12-19T07:43:12Z</time>
      </trkpt>
      <trkpt lat="45.22918" lon="5.99164">
        <ele>1283.8</ele>
        <time>2021-12-19T07:43:14Z</time>
      </trkpt>
      <trkpt lat="45.22917" lon="5.99164">
        <ele>1283.8</ele>
        <time>2021-12-19T07:43:15Z</time>
      </trkpt>
      <trkpt lat="45.22912" lon="5.99168">
        <ele>1284.6</ele>
        <time>2021-12-19T07:43:21Z</time>
      </trkpt>
      <trkpt lat="45.2291" lon="5.9917">
        <ele>1285</ele>
        <time>2021-12-19T07:43:23Z</time>
      </trkpt>
      <trkpt lat="45.22906" lon="5.99174">
        <ele>1285.4</ele>
        <time>2021-12-19T07:43:27Z</time>
      </trkpt>
      <trkpt lat="45.22901" lon="5.9918">
        <ele>1286</ele>
        <time>2021-12-19T07:43:31Z</time>
      </trkpt>
      <trkpt lat="45.22899" lon="5.99182">
        <ele>1286.2</ele>
        <time>2021-12-19T07:43:33Z</time>
      </trkpt>
      <trkpt lat="45.22894" lon="5.99189">
        <ele>1287</ele>
        <time>2021-12-19T07:43:38Z</time>
      </trkpt>
      <trkpt lat="45.22891" lon="5.99195">
        <ele>1287.6</ele>
        <time>2021-12-19T07:43:42Z</time>
      </trkpt>
      <trkpt lat="45.22887" lon="5.992">
        <ele>1288</ele>
        <time>2021-12-19T07:43:46Z</time>
      </trkpt>
      <trkpt lat="45.22881" lon="5.99209">
        <ele>1288.8</ele>
        <time>2021-12-19T07:43:53Z</time>
      </trkpt>
      <trkpt lat="45.2288" lon="5.99211">
        <ele>1289.2</ele>
        <time>2021-12-19T07:43:55Z</time>
      </trkpt>
      <trkpt lat="45.22871" lon="5.9922">
        <ele>1290.2</ele>
        <time>2021-12-19T07:44:03Z</time>
      </trkpt>
      <trkpt lat="45.22869" lon="5.99222">
        <ele>1290.6</ele>
        <time>2021-12-19T07:44:05Z</time>
      </trkpt>
      <trkpt lat="45.22862" lon="5.99226">
        <ele>1291.4</ele>
        <time>2021-12-19T07:44:11Z</time>
      </trkpt>
      <trkpt lat="45.22859" lon="5.99229">
        <ele>1291.8</ele>
        <time>2021-12-19T07:44:14Z</time>
      </trkpt>
      <trkpt lat="45.22858" lon="5.99231">
        <ele>1291.8</ele>
        <time>2021-12-19T07:44:15Z</time>
      </trkpt>
      <trkpt lat="45.22856" lon="5.99239">
        <ele>1292.4</ele>
        <time>2021-12-19T07:44:19Z</time>
      </trkpt>
      <trkpt lat="45.22855" lon="5.9924">
        <ele>1292.4</ele>
        <time>2021-12-19T07:44:20Z</time>
      </trkpt>
      <trkpt lat="45.2285" lon="5.99246">
        <ele>1293.2</ele>
        <time>2021-12-19T07:44:25Z</time>
      </trkpt>
      <trkpt lat="45.22849" lon="5.9925">
        <ele>1293.6</ele>
        <time>2021-12-19T07:44:27Z</time>
      </trkpt>
      <trkpt lat="45.22848" lon="5.99251">
        <ele>1293.8</ele>
        <time>2021-12-19T07:44:28Z</time>
      </trkpt>
      <trkpt lat="45.22843" lon="5.99253">
        <ele>1294.2</ele>
        <time>2021-12-19T07:44:32Z</time>
      </trkpt>
      <trkpt lat="45.22838" lon="5.99257">
        <ele>1294.8</ele>
        <time>2021-12-19T07:44:36Z</time>
      </trkpt>
      <trkpt lat="45.22834" lon="5.99259">
        <ele>1295.2</ele>
        <time>2021-12-19T07:44:39Z</time>
      </trkpt>
      <trkpt lat="45.22833" lon="5.99259">
        <ele>1295.2</ele>
        <time>2021-12-19T07:44:40Z</time>
      </trkpt>
      <trkpt lat="45.22831" lon="5.99261">
        <ele>1295.4</ele>
        <time>2021-12-19T07:44:42Z</time>
      </trkpt>
      <trkpt lat="45.22827" lon="5.99263">
        <ele>1295.8</ele>
        <time>2021-12-19T07:44:45Z</time>
      </trkpt>
      <trkpt lat="45.22827" lon="5.99264">
        <ele>1295.8</ele>
        <time>2021-12-19T07:44:46Z</time>
      </trkpt>
      <trkpt lat="45.22825" lon="5.99266">
        <ele>1296</ele>
        <time>2021-12-19T07:44:48Z</time>
      </trkpt>
      <trkpt lat="45.22823" lon="5.99268">
        <ele>1296.2</ele>
        <time>2021-12-19T07:44:50Z</time>
      </trkpt>
      <trkpt lat="45.22822" lon="5.99269">
        <ele>1296.2</ele>
        <time>2021-12-19T07:44:51Z</time>
      </trkpt>
      <trkpt lat="45.22819" lon="5.99271">
        <ele>1296.4</ele>
        <time>2021-12-19T07:44:53Z</time>
      </trkpt>
      <trkpt lat="45.22817" lon="5.99273">
        <ele>1296.8</ele>
        <time>2021-12-19T07:44:55Z</time>
      </trkpt>
      <trkpt lat="45.22815" lon="5.99275">
        <ele>1297</ele>
        <time>2021-12-19T07:44:57Z</time>
      </trkpt>
      <trkpt lat="45.22813" lon="5.99276">
        <ele>1297.2</ele>
        <time>2021-12-19T07:44:59Z</time>
      </trkpt>
      <trkpt lat="45.22809" lon="5.99275">
        <ele>1297.8</ele>
        <time>2021-12-19T07:45:02Z</time>
      </trkpt>
      <trkpt lat="45.22807" lon="5.99276">
        <ele>1297.8</ele>
        <time>2021-12-19T07:45:03Z</time>
      </trkpt>
      <trkpt lat="45.22802" lon="5.99281">
        <ele>1298.6</ele>
        <time>2021-12-19T07:45:08Z</time>
      </trkpt>
      <trkpt lat="45.22799" lon="5.99284">
        <ele>1299</ele>
        <time>2021-12-19T07:45:11Z</time>
      </trkpt>
      <trkpt lat="45.22798" lon="5.99288">
        <ele>1299.6</ele>
        <time>2021-12-19T07:45:14Z</time>
      </trkpt>
      <trkpt lat="45.22797" lon="5.99289">
        <ele>1299.6</ele>
        <time>2021-12-19T07:45:15Z</time>
      </trkpt>
      <trkpt lat="45.22791" lon="5.99295">
        <ele>1300.2</ele>
        <time>2021-12-19T07:45:20Z</time>
      </trkpt>
      <trkpt lat="45.22784" lon="5.99299">
        <ele>1301</ele>
        <time>2021-12-19T07:45:26Z</time>
      </trkpt>
      <trkpt lat="45.22783" lon="5.993">
        <ele>1301.2</ele>
        <time>2021-12-19T07:45:27Z</time>
      </trkpt>
      <trkpt lat="45.22781" lon="5.99301">
        <ele>1301.2</ele>
        <time>2021-12-19T07:45:28Z</time>
      </trkpt>
      <trkpt lat="45.2278" lon="5.99301">
        <ele>1301.4</ele>
        <time>2021-12-19T07:45:29Z</time>
      </trkpt>
      <trkpt lat="45.22776" lon="5.99302">
        <ele>1301.6</ele>
        <time>2021-12-19T07:45:32Z</time>
      </trkpt>
      <trkpt lat="45.22773" lon="5.99304">
        <ele>1302</ele>
        <time>2021-12-19T07:45:34Z</time>
      </trkpt>
      <trkpt lat="45.22771" lon="5.99306">
        <ele>1302.2</ele>
        <time>2021-12-19T07:45:36Z</time>
      </trkpt>
      <trkpt lat="45.22771" lon="5.99308">
        <ele>1302.2</ele>
        <time>2021-12-19T07:45:37Z</time>
      </trkpt>
      <trkpt lat="45.22769" lon="5.9931">
        <ele>1302.4</ele>
        <time>2021-12-19T07:45:39Z</time>
      </trkpt>
      <trkpt lat="45.22767" lon="5.99312">
        <ele>1302.8</ele>
        <time>2021-12-19T07:45:41Z</time>
      </trkpt>
      <trkpt lat="45.22764" lon="5.99315">
        <ele>1303.2</ele>
        <time>2021-12-19T07:45:44Z</time>
      </trkpt>
      <trkpt lat="45.22759" lon="5.99318">
        <ele>1303.6</ele>
        <time>2021-12-19T07:45:48Z</time>
      </trkpt>
      <trkpt lat="45.22758" lon="5.99319">
        <ele>1303.6</ele>
        <time>2021-12-19T07:45:49Z</time>
      </trkpt>
      <trkpt lat="45.22754" lon="5.99328">
        <ele>1304.2</ele>
        <time>2021-12-19T07:45:54Z</time>
      </trkpt>
      <trkpt lat="45.22753" lon="5.99329">
        <ele>1304.4</ele>
        <time>2021-12-19T07:45:55Z</time>
      </trkpt>
      <trkpt lat="45.22752" lon="5.99333">
        <ele>1304.6</ele>
        <time>2021-12-19T07:45:57Z</time>
      </trkpt>
      <trkpt lat="45.22748" lon="5.99336">
        <ele>1305</ele>
        <time>2021-12-19T07:46:00Z</time>
      </trkpt>
      <trkpt lat="45.22746" lon="5.99336">
        <ele>1305.4</ele>
        <time>2021-12-19T07:46:02Z</time>
      </trkpt>
      <trkpt lat="45.22745" lon="5.99337">
        <ele>1305.4</ele>
        <time>2021-12-19T07:46:03Z</time>
      </trkpt>
      <trkpt lat="45.22742" lon="5.99342">
        <ele>1305.8</ele>
        <time>2021-12-19T07:46:06Z</time>
      </trkpt>
      <trkpt lat="45.22741" lon="5.99343">
        <ele>1306</ele>
        <time>2021-12-19T07:46:07Z</time>
      </trkpt>
      <trkpt lat="45.22739" lon="5.99346">
        <ele>1306.2</ele>
        <time>2021-12-19T07:46:10Z</time>
      </trkpt>
      <trkpt lat="45.22738" lon="5.99347">
        <ele>1306.4</ele>
        <time>2021-12-19T07:46:11Z</time>
      </trkpt>
      <trkpt lat="45.22737" lon="5.99347">
        <ele>1306.6</ele>
        <time>2021-12-19T07:46:12Z</time>
      </trkpt>
      <trkpt lat="45.22735" lon="5.99349">
        <ele>1306.8</ele>
        <time>2021-12-19T07:46:14Z</time>
      </trkpt>
      <trkpt lat="45.22732" lon="5.99352">
        <ele>1307.2</ele>
        <time>2021-12-19T07:46:17Z</time>
      </trkpt>
      <trkpt lat="45.22729" lon="5.99354">
        <ele>1307.4</ele>
        <time>2021-12-19T07:46:19Z</time>
      </trkpt>
      <trkpt lat="45.22726" lon="5.99355">
        <ele>1307.6</ele>
        <time>2021-12-19T07:46:21Z</time>
      </trkpt>
      <trkpt lat="45.22725" lon="5.99356">
        <ele>1307.8</ele>
        <time>2021-12-19T07:46:22Z</time>
      </trkpt>
      <trkpt lat="45.22724" lon="5.99359">
        <ele>1308.2</ele>
        <time>2021-12-19T07:46:24Z</time>
      </trkpt>
      <trkpt lat="45.22721" lon="5.99364">
        <ele>1308.4</ele>
        <time>2021-12-19T07:46:27Z</time>
      </trkpt>
      <trkpt lat="45.22719" lon="5.99367">
        <ele>1308.6</ele>
        <time>2021-12-19T07:46:29Z</time>
      </trkpt>
      <trkpt lat="45.22719" lon="5.99369">
        <ele>1308.8</ele>
        <time>2021-12-19T07:46:30Z</time>
      </trkpt>
      <trkpt lat="45.22716" lon="5.99374">
        <ele>1309.2</ele>
        <time>2021-12-19T07:46:33Z</time>
      </trkpt>
      <trkpt lat="45.22713" lon="5.99374">
        <ele>1309.4</ele>
        <time>2021-12-19T07:46:35Z</time>
      </trkpt>
      <trkpt lat="45.22709" lon="5.99375">
        <ele>1309.6</ele>
        <time>2021-12-19T07:46:37Z</time>
      </trkpt>
      <trkpt lat="45.22706" lon="5.99377">
        <ele>1310</ele>
        <time>2021-12-19T07:46:39Z</time>
      </trkpt>
      <trkpt lat="45.22701" lon="5.99383">
        <ele>1310.8</ele>
        <time>2021-12-19T07:46:44Z</time>
      </trkpt>
      <trkpt lat="45.22698" lon="5.99385">
        <ele>1311</ele>
        <time>2021-12-19T07:46:46Z</time>
      </trkpt>
      <trkpt lat="45.22691" lon="5.99392">
        <ele>1311.8</ele>
        <time>2021-12-19T07:46:53Z</time>
      </trkpt>
      <trkpt lat="45.2269" lon="5.99393">
        <ele>1311.8</ele>
        <time>2021-12-19T07:46:54Z</time>
      </trkpt>
      <trkpt lat="45.22683" lon="5.99399">
        <ele>1312.6</ele>
        <time>2021-12-19T07:46:59Z</time>
      </trkpt>
      <trkpt lat="45.22681" lon="5.99401">
        <ele>1312.8</ele>
        <time>2021-12-19T07:47:01Z</time>
      </trkpt>
      <trkpt lat="45.2268" lon="5.99402">
        <ele>1312.8</ele>
        <time>2021-12-19T07:47:02Z</time>
      </trkpt>
      <trkpt lat="45.22675" lon="5.99405">
        <ele>1313.6</ele>
        <time>2021-12-19T07:47:07Z</time>
      </trkpt>
      <trkpt lat="45.22674" lon="5.99406">
        <ele>1313.6</ele>
        <time>2021-12-19T07:47:08Z</time>
      </trkpt>
      <trkpt lat="45.22672" lon="5.99408">
        <ele>1314</ele>
        <time>2021-12-19T07:47:10Z</time>
      </trkpt>
      <trkpt lat="45.22666" lon="5.99416">
        <ele>1314.8</ele>
        <time>2021-12-19T07:47:15Z</time>
      </trkpt>
      <trkpt lat="45.22661" lon="5.99418">
        <ele>1315.2</ele>
        <time>2021-12-19T07:47:18Z</time>
      </trkpt>
      <trkpt lat="45.22658" lon="5.9942">
        <ele>1315.6</ele>
        <time>2021-12-19T07:47:21Z</time>
      </trkpt>
      <trkpt lat="45.22654" lon="5.99423">
        <ele>1316.2</ele>
        <time>2021-12-19T07:47:25Z</time>
      </trkpt>
      <trkpt lat="45.22649" lon="5.99425">
        <ele>1317</ele>
        <time>2021-12-19T07:47:30Z</time>
      </trkpt>
      <trkpt lat="45.22648" lon="5.99426">
        <ele>1317.2</ele>
        <time>2021-12-19T07:47:31Z</time>
      </trkpt>
      <trkpt lat="45.22646" lon="5.99428">
        <ele>1317.2</ele>
        <time>2021-12-19T07:47:32Z</time>
      </trkpt>
      <trkpt lat="45.2264" lon="5.99433">
        <ele>1318</ele>
        <time>2021-12-19T07:47:37Z</time>
      </trkpt>
      <trkpt lat="45.22638" lon="5.99434">
        <ele>1318.4</ele>
        <time>2021-12-19T07:47:39Z</time>
      </trkpt>
      <trkpt lat="45.22632" lon="5.99437">
        <ele>1319</ele>
        <time>2021-12-19T07:47:44Z</time>
      </trkpt>
      <trkpt lat="45.22627" lon="5.99441">
        <ele>1319.4</ele>
        <time>2021-12-19T07:47:48Z</time>
      </trkpt>
      <trkpt lat="45.22624" lon="5.99444">
        <ele>1319.8</ele>
        <time>2021-12-19T07:47:51Z</time>
      </trkpt>
      <trkpt lat="45.22621" lon="5.99449">
        <ele>1320.4</ele>
        <time>2021-12-19T07:47:55Z</time>
      </trkpt>
      <trkpt lat="45.22618" lon="5.99454">
        <ele>1321</ele>
        <time>2021-12-19T07:47:59Z</time>
      </trkpt>
      <trkpt lat="45.22617" lon="5.99458">
        <ele>1321.6</ele>
        <time>2021-12-19T07:48:02Z</time>
      </trkpt>
      <trkpt lat="45.22613" lon="5.99462">
        <ele>1322.2</ele>
        <time>2021-12-19T07:48:05Z</time>
      </trkpt>
      <trkpt lat="45.22611" lon="5.99465">
        <ele>1322.4</ele>
        <time>2021-12-19T07:48:07Z</time>
      </trkpt>
      <trkpt lat="45.22611" lon="5.99467">
        <ele>1322.6</ele>
        <time>2021-12-19T07:48:08Z</time>
      </trkpt>
      <trkpt lat="45.22604" lon="5.99479">
        <ele>1323.4</ele>
        <time>2021-12-19T07:48:16Z</time>
      </trkpt>
      <trkpt lat="45.22603" lon="5.9948">
        <ele>1323.6</ele>
        <time>2021-12-19T07:48:17Z</time>
      </trkpt>
      <trkpt lat="45.22598" lon="5.99486">
        <ele>1324.4</ele>
        <time>2021-12-19T07:48:23Z</time>
      </trkpt>
      <trkpt lat="45.22597" lon="5.99488">
        <ele>1324.6</ele>
        <time>2021-12-19T07:48:24Z</time>
      </trkpt>
      <trkpt lat="45.22597" lon="5.99489">
        <ele>1324.8</ele>
        <time>2021-12-19T07:48:25Z</time>
      </trkpt>
      <trkpt lat="45.22594" lon="5.99494">
        <ele>1325.2</ele>
        <time>2021-12-19T07:48:29Z</time>
      </trkpt>
      <trkpt lat="45.22591" lon="5.99499">
        <ele>1326</ele>
        <time>2021-12-19T07:48:33Z</time>
      </trkpt>
      <trkpt lat="45.22587" lon="5.99504">
        <ele>1326.6</ele>
        <time>2021-12-19T07:48:37Z</time>
      </trkpt>
      <trkpt lat="45.22582" lon="5.99508">
        <ele>1327</ele>
        <time>2021-12-19T07:48:40Z</time>
      </trkpt>
      <trkpt lat="45.22576" lon="5.99514">
        <ele>1328</ele>
        <time>2021-12-19T07:48:46Z</time>
      </trkpt>
      <trkpt lat="45.22576" lon="5.99515">
        <ele>1328</ele>
        <time>2021-12-19T07:48:47Z</time>
      </trkpt>
      <trkpt lat="45.22571" lon="5.9952">
        <ele>1328.8</ele>
        <time>2021-12-19T07:48:52Z</time>
      </trkpt>
      <trkpt lat="45.2257" lon="5.99521">
        <ele>1329</ele>
        <time>2021-12-19T07:48:53Z</time>
      </trkpt>
      <trkpt lat="45.22567" lon="5.99529">
        <ele>1330</ele>
        <time>2021-12-19T07:48:59Z</time>
      </trkpt>
      <trkpt lat="45.22566" lon="5.99531">
        <ele>1330.2</ele>
        <time>2021-12-19T07:49:00Z</time>
      </trkpt>
      <trkpt lat="45.2256" lon="5.99536">
        <ele>1331.2</ele>
        <time>2021-12-19T07:49:06Z</time>
      </trkpt>
      <trkpt lat="45.22559" lon="5.99537">
        <ele>1331.4</ele>
        <time>2021-12-19T07:49:07Z</time>
      </trkpt>
      <trkpt lat="45.22552" lon="5.99543">
        <ele>1332.2</ele>
        <time>2021-12-19T07:49:13Z</time>
      </trkpt>
      <trkpt lat="45.2255" lon="5.99547">
        <ele>1332.4</ele>
        <time>2021-12-19T07:49:15Z</time>
      </trkpt>
      <trkpt lat="45.22546" lon="5.99552">
        <ele>1333.2</ele>
        <time>2021-12-19T07:49:19Z</time>
      </trkpt>
      <trkpt lat="45.22544" lon="5.99553">
        <ele>1333.2</ele>
        <time>2021-12-19T07:49:20Z</time>
      </trkpt>
      <trkpt lat="45.22541" lon="5.99556">
        <ele>1333.4</ele>
        <time>2021-12-19T07:49:22Z</time>
      </trkpt>
      <trkpt lat="45.22537" lon="5.9956">
        <ele>1334.2</ele>
        <time>2021-12-19T07:49:26Z</time>
      </trkpt>
      <trkpt lat="45.22536" lon="5.99562">
        <ele>1334.4</ele>
        <time>2021-12-19T07:49:28Z</time>
      </trkpt>
      <trkpt lat="45.22535" lon="5.99563">
        <ele>1334.6</ele>
        <time>2021-12-19T07:49:29Z</time>
      </trkpt>
      <trkpt lat="45.22531" lon="5.99568">
        <ele>1335</ele>
        <time>2021-12-19T07:49:33Z</time>
      </trkpt>
      <trkpt lat="45.2253" lon="5.99569">
        <ele>1335.2</ele>
        <time>2021-12-19T07:49:34Z</time>
      </trkpt>
      <trkpt lat="45.22525" lon="5.99579">
        <ele>1335.6</ele>
        <time>2021-12-19T07:49:40Z</time>
      </trkpt>
      <trkpt lat="45.22522" lon="5.99584">
        <ele>1336.2</ele>
        <time>2021-12-19T07:49:43Z</time>
      </trkpt>
      <trkpt lat="45.22518" lon="5.99591">
        <ele>1336.6</ele>
        <time>2021-12-19T07:49:48Z</time>
      </trkpt>
      <trkpt lat="45.22518" lon="5.99594">
        <ele>1336.8</ele>
        <time>2021-12-19T07:49:49Z</time>
      </trkpt>
      <trkpt lat="45.22517" lon="5.99595">
        <ele>1336.8</ele>
        <time>2021-12-19T07:49:50Z</time>
      </trkpt>
      <trkpt lat="45.22515" lon="5.99598">
        <ele>1337.2</ele>
        <time>2021-12-19T07:49:52Z</time>
      </trkpt>
      <trkpt lat="45.22512" lon="5.99602">
        <ele>1337.6</ele>
        <time>2021-12-19T07:49:55Z</time>
      </trkpt>
      <trkpt lat="45.22512" lon="5.99603">
        <ele>1337.8</ele>
        <time>2021-12-19T07:49:56Z</time>
      </trkpt>
      <trkpt lat="45.22512" lon="5.99606">
        <ele>1338.2</ele>
        <time>2021-12-19T07:49:58Z</time>
      </trkpt>
      <trkpt lat="45.22512" lon="5.99609">
        <ele>1338.6</ele>
        <time>2021-12-19T07:50:00Z</time>
      </trkpt>
      <trkpt lat="45.22512" lon="5.99613">
        <ele>1338.8</ele>
        <time>2021-12-19T07:50:02Z</time>
      </trkpt>
      <trkpt lat="45.22511" lon="5.9962">
        <ele>1339.2</ele>
        <time>2021-12-19T07:50:06Z</time>
      </trkpt>
      <trkpt lat="45.2251" lon="5.99627">
        <ele>1340</ele>
        <time>2021-12-19T07:50:10Z</time>
      </trkpt>
      <trkpt lat="45.22511" lon="5.99636">
        <ele>1340.6</ele>
        <time>2021-12-19T07:50:14Z</time>
      </trkpt>
      <trkpt lat="45.22514" lon="5.99643">
        <ele>1341.2</ele>
        <time>2021-12-19T07:50:19Z</time>
      </trkpt>
      <trkpt lat="45.22514" lon="5.99645">
        <ele>1341.2</ele>
        <time>2021-12-19T07:50:20Z</time>
      </trkpt>
      <trkpt lat="45.22513" lon="5.99653">
        <ele>1342.2</ele>
        <time>2021-12-19T07:50:25Z</time>
      </trkpt>
      <trkpt lat="45.22512" lon="5.99656">
        <ele>1342.4</ele>
        <time>2021-12-19T07:50:26Z</time>
      </trkpt>
      <trkpt lat="45.22511" lon="5.99658">
        <ele>1342.4</ele>
        <time>2021-12-19T07:50:27Z</time>
      </trkpt>
      <trkpt lat="45.2251" lon="5.99664">
        <ele>1343</ele>
        <time>2021-12-19T07:50:31Z</time>
      </trkpt>
      <trkpt lat="45.22509" lon="5.99672">
        <ele>1343.2</ele>
        <time>2021-12-19T07:50:34Z</time>
      </trkpt>
      <trkpt lat="45.2251" lon="5.99675">
        <ele>1343.4</ele>
        <time>2021-12-19T07:50:36Z</time>
      </trkpt>
      <trkpt lat="45.22511" lon="5.99679">
        <ele>1343.6</ele>
        <time>2021-12-19T07:50:38Z</time>
      </trkpt>
      <trkpt lat="45.22511" lon="5.99681">
        <ele>1343.8</ele>
        <time>2021-12-19T07:50:39Z</time>
      </trkpt>
      <trkpt lat="45.2251" lon="5.99684">
        <ele>1344</ele>
        <time>2021-12-19T07:50:41Z</time>
      </trkpt>
      <trkpt lat="45.22508" lon="5.99689">
        <ele>1344.4</ele>
        <time>2021-12-19T07:50:43Z</time>
      </trkpt>
      <trkpt lat="45.22506" lon="5.99701">
        <ele>1345</ele>
        <time>2021-12-19T07:50:48Z</time>
      </trkpt>
      <trkpt lat="45.22506" lon="5.99703">
        <ele>1345</ele>
        <time>2021-12-19T07:50:49Z</time>
      </trkpt>
      <trkpt lat="45.22504" lon="5.99707">
        <ele>1345.6</ele>
        <time>2021-12-19T07:50:52Z</time>
      </trkpt>
      <trkpt lat="45.22504" lon="5.99709">
        <ele>1345.6</ele>
        <time>2021-12-19T07:50:53Z</time>
      </trkpt>
      <trkpt lat="45.22505" lon="5.99712">
        <ele>1345.8</ele>
        <time>2021-12-19T07:50:55Z</time>
      </trkpt>
      <trkpt lat="45.22506" lon="5.99714">
        <ele>1345.8</ele>
        <time>2021-12-19T07:50:56Z</time>
      </trkpt>
      <trkpt lat="45.22505" lon="5.99727">
        <ele>1346.6</ele>
        <time>2021-12-19T07:51:02Z</time>
      </trkpt>
      <trkpt lat="45.22505" lon="5.99729">
        <ele>1346.6</ele>
        <time>2021-12-19T07:51:03Z</time>
      </trkpt>
      <trkpt lat="45.22505" lon="5.99743">
        <ele>1347.6</ele>
        <time>2021-12-19T07:51:11Z</time>
      </trkpt>
      <trkpt lat="45.22504" lon="5.9975">
        <ele>1348</ele>
        <time>2021-12-19T07:51:14Z</time>
      </trkpt>
      <trkpt lat="45.22502" lon="5.99758">
        <ele>1348.2</ele>
        <time>2021-12-19T07:51:17Z</time>
      </trkpt>
      <trkpt lat="45.22502" lon="5.99766">
        <ele>1348.4</ele>
        <time>2021-12-19T07:51:20Z</time>
      </trkpt>
      <trkpt lat="45.22501" lon="5.99773">
        <ele>1348.6</ele>
        <time>2021-12-19T07:51:23Z</time>
      </trkpt>
      <trkpt lat="45.22501" lon="5.99776">
        <ele>1348.8</ele>
        <time>2021-12-19T07:51:25Z</time>
      </trkpt>
      <trkpt lat="45.22501" lon="5.99783">
        <ele>1349.2</ele>
        <time>2021-12-19T07:51:31Z</time>
      </trkpt>
      <trkpt lat="45.22501" lon="5.99792">
        <ele>1349.8</ele>
        <time>2021-12-19T07:51:35Z</time>
      </trkpt>
      <trkpt lat="45.22499" lon="5.99794">
        <ele>1350</ele>
        <time>2021-12-19T07:51:37Z</time>
      </trkpt>
      <trkpt lat="45.22495" lon="5.99796">
        <ele>1350.2</ele>
        <time>2021-12-19T07:51:40Z</time>
      </trkpt>
      <trkpt lat="45.22493" lon="5.99799">
        <ele>1350.4</ele>
        <time>2021-12-19T07:51:42Z</time>
      </trkpt>
      <trkpt lat="45.22491" lon="5.99803">
        <ele>1350.6</ele>
        <time>2021-12-19T07:51:45Z</time>
      </trkpt>
      <trkpt lat="45.2249" lon="5.99807">
        <ele>1351</ele>
        <time>2021-12-19T07:51:47Z</time>
      </trkpt>
      <trkpt lat="45.22489" lon="5.99813">
        <ele>1351.2</ele>
        <time>2021-12-19T07:51:50Z</time>
      </trkpt>
      <trkpt lat="45.22485" lon="5.99817">
        <ele>1351.8</ele>
        <time>2021-12-19T07:51:54Z</time>
      </trkpt>
      <trkpt lat="45.22483" lon="5.99818">
        <ele>1351.8</ele>
        <time>2021-12-19T07:51:55Z</time>
      </trkpt>
      <trkpt lat="45.22477" lon="5.99824">
        <ele>1352.2</ele>
        <time>2021-12-19T07:51:59Z</time>
      </trkpt>
      <trkpt lat="45.2247" lon="5.99827">
        <ele>1352.6</ele>
        <time>2021-12-19T07:52:03Z</time>
      </trkpt>
      <trkpt lat="45.22465" lon="5.9983">
        <ele>1353.2</ele>
        <time>2021-12-19T07:52:08Z</time>
      </trkpt>
      <trkpt lat="45.22458" lon="5.99837">
        <ele>1353.4</ele>
        <time>2021-12-19T07:52:12Z</time>
      </trkpt>
      <trkpt lat="45.22449" lon="5.9985">
        <ele>1354</ele>
        <time>2021-12-19T07:52:19Z</time>
      </trkpt>
      <trkpt lat="45.22447" lon="5.99857">
        <ele>1354.2</ele>
        <time>2021-12-19T07:52:23Z</time>
      </trkpt>
      <trkpt lat="45.22447" lon="5.99865">
        <ele>1354.6</ele>
        <time>2021-12-19T07:52:27Z</time>
      </trkpt>
      <trkpt lat="45.2245" lon="5.99874">
        <ele>1355.2</ele>
        <time>2021-12-19T07:52:33Z</time>
      </trkpt>
      <trkpt lat="45.22451" lon="5.99877">
        <ele>1355.2</ele>
        <time>2021-12-19T07:52:35Z</time>
      </trkpt>
      <trkpt lat="45.22454" lon="5.99882">
        <ele>1356</ele>
        <time>2021-12-19T07:52:38Z</time>
      </trkpt>
      <trkpt lat="45.22453" lon="5.99888">
        <ele>1356.4</ele>
        <time>2021-12-19T07:52:41Z</time>
      </trkpt>
      <trkpt lat="45.22454" lon="5.9989">
        <ele>1356.4</ele>
        <time>2021-12-19T07:52:43Z</time>
      </trkpt>
      <trkpt lat="45.22454" lon="5.99893">
        <ele>1357</ele>
        <time>2021-12-19T07:52:46Z</time>
      </trkpt>
      <trkpt lat="45.22455" lon="5.99895">
        <ele>1357.4</ele>
        <time>2021-12-19T07:52:47Z</time>
      </trkpt>
      <trkpt lat="45.22455" lon="5.99899">
        <ele>1358.4</ele>
        <time>2021-12-19T07:52:50Z</time>
      </trkpt>
      <trkpt lat="45.22455" lon="5.999">
        <ele>1358.8</ele>
        <time>2021-12-19T07:52:51Z</time>
      </trkpt>
      <trkpt lat="45.22458" lon="5.99905">
        <ele>1359.8</ele>
        <time>2021-12-19T07:52:55Z</time>
      </trkpt>
      <trkpt lat="45.22458" lon="5.99906">
        <ele>1360</ele>
        <time>2021-12-19T07:52:56Z</time>
      </trkpt>
      <trkpt lat="45.22457" lon="5.9991">
        <ele>1361</ele>
        <time>2021-12-19T07:52:59Z</time>
      </trkpt>
      <trkpt lat="45.22459" lon="5.99913">
        <ele>1361.8</ele>
        <time>2021-12-19T07:53:03Z</time>
      </trkpt>
      <trkpt lat="45.2246" lon="5.99914">
        <ele>1362.2</ele>
        <time>2021-12-19T07:53:04Z</time>
      </trkpt>
      <trkpt lat="45.22463" lon="5.99919">
        <ele>1363.4</ele>
        <time>2021-12-19T07:53:09Z</time>
      </trkpt>
      <trkpt lat="45.22463" lon="5.99921">
        <ele>1363.8</ele>
        <time>2021-12-19T07:53:10Z</time>
      </trkpt>
      <trkpt lat="45.22462" lon="5.99923">
        <ele>1364.6</ele>
        <time>2021-12-19T07:53:13Z</time>
      </trkpt>
      <trkpt lat="45.22462" lon="5.99924">
        <ele>1365</ele>
        <time>2021-12-19T07:53:15Z</time>
      </trkpt>
      <trkpt lat="45.22463" lon="5.99928">
        <ele>1365.8</ele>
        <time>2021-12-19T07:53:18Z</time>
      </trkpt>
      <trkpt lat="45.22462" lon="5.99933">
        <ele>1366.6</ele>
        <time>2021-12-19T07:53:21Z</time>
      </trkpt>
      <trkpt lat="45.22463" lon="5.99935">
        <ele>1367</ele>
        <time>2021-12-19T07:53:23Z</time>
      </trkpt>
      <trkpt lat="45.22461" lon="5.99941">
        <ele>1368.2</ele>
        <time>2021-12-19T07:53:28Z</time>
      </trkpt>
      <trkpt lat="45.22461" lon="5.99949">
        <ele>1369.4</ele>
        <time>2021-12-19T07:53:33Z</time>
      </trkpt>
      <trkpt lat="45.2246" lon="5.99953">
        <ele>1369.8</ele>
        <time>2021-12-19T07:53:35Z</time>
      </trkpt>
      <trkpt lat="45.22458" lon="5.9996">
        <ele>1370.4</ele>
        <time>2021-12-19T07:53:39Z</time>
      </trkpt>
      <trkpt lat="45.22455" lon="5.99964">
        <ele>1371.4</ele>
        <time>2021-12-19T07:53:43Z</time>
      </trkpt>
      <trkpt lat="45.22454" lon="5.99965">
        <ele>1371.6</ele>
        <time>2021-12-19T07:53:44Z</time>
      </trkpt>
      <trkpt lat="45.22453" lon="5.99969">
        <ele>1372.8</ele>
        <time>2021-12-19T07:53:48Z</time>
      </trkpt>
      <trkpt lat="45.22451" lon="5.99974">
        <ele>1373.6</ele>
        <time>2021-12-19T07:53:53Z</time>
      </trkpt>
      <trkpt lat="45.2245" lon="5.99977">
        <ele>1374</ele>
        <time>2021-12-19T07:53:55Z</time>
      </trkpt>
      <trkpt lat="45.2245" lon="5.99984">
        <ele>1375</ele>
        <time>2021-12-19T07:53:59Z</time>
      </trkpt>
      <trkpt lat="45.22449" lon="5.99988">
        <ele>1375.6</ele>
        <time>2021-12-19T07:54:02Z</time>
      </trkpt>
      <trkpt lat="45.22448" lon="5.99989">
        <ele>1376.2</ele>
        <time>2021-12-19T07:54:04Z</time>
      </trkpt>
      <trkpt lat="45.22448" lon="5.9999">
        <ele>1376.4</ele>
        <time>2021-12-19T07:54:05Z</time>
      </trkpt>
      <trkpt lat="45.22446" lon="5.99997">
        <ele>1377.2</ele>
        <time>2021-12-19T07:54:09Z</time>
      </trkpt>
      <trkpt lat="45.22445" lon="5.99999">
        <ele>1377.6</ele>
        <time>2021-12-19T07:54:11Z</time>
      </trkpt>
      <trkpt lat="45.22444" lon="6.00004">
        <ele>1378.2</ele>
        <time>2021-12-19T07:54:14Z</time>
      </trkpt>
      <trkpt lat="45.22443" lon="6.00005">
        <ele>1378.4</ele>
        <time>2021-12-19T07:54:16Z</time>
      </trkpt>
      <trkpt lat="45.22443" lon="6.00009">
        <ele>1379.4</ele>
        <time>2021-12-19T07:54:19Z</time>
      </trkpt>
      <trkpt lat="45.22443" lon="6.00013">
        <ele>1380.4</ele>
        <time>2021-12-19T07:54:22Z</time>
      </trkpt>
      <trkpt lat="45.22443" lon="6.00015">
        <ele>1381.4</ele>
        <time>2021-12-19T07:54:26Z</time>
      </trkpt>
      <trkpt lat="45.22444" lon="6.00017">
        <ele>1382.2</ele>
        <time>2021-12-19T07:54:28Z</time>
      </trkpt>
      <trkpt lat="45.22445" lon="6.00017">
        <ele>1382.4</ele>
        <time>2021-12-19T07:54:29Z</time>
      </trkpt>
      <trkpt lat="45.22445" lon="6.0002">
        <ele>1383.2</ele>
        <time>2021-12-19T07:54:32Z</time>
      </trkpt>
      <trkpt lat="45.22444" lon="6.00021">
        <ele>1383.4</ele>
        <time>2021-12-19T07:54:33Z</time>
      </trkpt>
      <trkpt lat="45.22444" lon="6.00021">
        <ele>1383.8</ele>
        <time>2021-12-19T07:54:34Z</time>
      </trkpt>
      <trkpt lat="45.22445" lon="6.00023">
        <ele>1385</ele>
        <time>2021-12-19T07:54:38Z</time>
      </trkpt>
      <trkpt lat="45.22446" lon="6.00027">
        <ele>1386</ele>
        <time>2021-12-19T07:54:42Z</time>
      </trkpt>
      <trkpt lat="45.22446" lon="6.00031">
        <ele>1387</ele>
        <time>2021-12-19T07:54:45Z</time>
      </trkpt>
      <trkpt lat="45.22446" lon="6.00035">
        <ele>1388.2</ele>
        <time>2021-12-19T07:54:50Z</time>
      </trkpt>
      <trkpt lat="45.22443" lon="6.00039">
        <ele>1389.2</ele>
        <time>2021-12-19T07:54:54Z</time>
      </trkpt>
      <trkpt lat="45.22444" lon="6.0004">
        <ele>1389.4</ele>
        <time>2021-12-19T07:54:55Z</time>
      </trkpt>
      <trkpt lat="45.22446" lon="6.00039">
        <ele>1390.4</ele>
        <time>2021-12-19T07:55:00Z</time>
      </trkpt>
      <trkpt lat="45.22447" lon="6.00038">
        <ele>1391.2</ele>
        <time>2021-12-19T07:55:04Z</time>
      </trkpt>
      <trkpt lat="45.22447" lon="6.00038">
        <ele>1391.4</ele>
        <time>2021-12-19T07:55:05Z</time>
      </trkpt>
      <trkpt lat="45.22453" lon="6.00036">
        <ele>1392.2</ele>
        <time>2021-12-19T07:55:10Z</time>
      </trkpt>
      <trkpt lat="45.22454" lon="6.00035">
        <ele>1392.6</ele>
        <time>2021-12-19T07:55:11Z</time>
      </trkpt>
      <trkpt lat="45.22455" lon="6.00035">
        <ele>1393.4</ele>
        <time>2021-12-19T07:55:15Z</time>
      </trkpt>
      <trkpt lat="45.22455" lon="6.00036">
        <ele>1393.6</ele>
        <time>2021-12-19T07:55:16Z</time>
      </trkpt>
      <trkpt lat="45.22457" lon="6.00039">
        <ele>1394.8</ele>
        <time>2021-12-19T07:55:20Z</time>
      </trkpt>
      <trkpt lat="45.22457" lon="6.0004">
        <ele>1395</ele>
        <time>2021-12-19T07:55:21Z</time>
      </trkpt>
      <trkpt lat="45.22457" lon="6.00042">
        <ele>1395.8</ele>
        <time>2021-12-19T07:55:24Z</time>
      </trkpt>
      <trkpt lat="45.22459" lon="6.00044">
        <ele>1396.6</ele>
        <time>2021-12-19T07:55:27Z</time>
      </trkpt>
      <trkpt lat="45.22461" lon="6.00044">
        <ele>1397</ele>
        <time>2021-12-19T07:55:29Z</time>
      </trkpt>
      <trkpt lat="45.22462" lon="6.00039">
        <ele>1398</ele>
        <time>2021-12-19T07:55:33Z</time>
      </trkpt>
      <trkpt lat="45.22463" lon="6.00039">
        <ele>1398.4</ele>
        <time>2021-12-19T07:55:35Z</time>
      </trkpt>
      <trkpt lat="45.22464" lon="6.00041">
        <ele>1398.8</ele>
        <time>2021-12-19T07:55:38Z</time>
      </trkpt>
      <trkpt lat="45.22464" lon="6.00045">
        <ele>1399</ele>
        <time>2021-12-19T07:55:45Z</time>
      </trkpt>
      <trkpt lat="45.22465" lon="6.00045">
        <ele>1399.2</ele>
        <time>2021-12-19T07:55:46Z</time>
      </trkpt>
      <trkpt lat="45.22464" lon="6.00045">
        <ele>1399</ele>
        <time>2021-12-19T07:55:54Z</time>
      </trkpt>
      <trkpt lat="45.22464" lon="6.00045">
        <ele>1399</ele>
        <time>2021-12-19T07:56:00Z</time>
      </trkpt>
      <trkpt lat="45.22462" lon="6.00057">
        <ele>1400</ele>
        <time>2021-12-19T07:56:31Z</time>
      </trkpt>
      <trkpt lat="45.22461" lon="6.00059">
        <ele>1400.2</ele>
        <time>2021-12-19T07:56:32Z</time>
      </trkpt>
      <trkpt lat="45.22454" lon="6.00065">
        <ele>1401.4</ele>
        <time>2021-12-19T07:56:37Z</time>
      </trkpt>
      <trkpt lat="45.2245" lon="6.00071">
        <ele>1402.4</ele>
        <time>2021-12-19T07:56:42Z</time>
      </trkpt>
      <trkpt lat="45.22449" lon="6.00073">
        <ele>1402.8</ele>
        <time>2021-12-19T07:56:44Z</time>
      </trkpt>
      <trkpt lat="45.22446" lon="6.00076">
        <ele>1403.4</ele>
        <time>2021-12-19T07:56:47Z</time>
      </trkpt>
      <trkpt lat="45.22443" lon="6.00081">
        <ele>1403.8</ele>
        <time>2021-12-19T07:56:50Z</time>
      </trkpt>
      <trkpt lat="45.2244" lon="6.00087">
        <ele>1404.4</ele>
        <time>2021-12-19T07:56:53Z</time>
      </trkpt>
      <trkpt lat="45.22438" lon="6.0009">
        <ele>1404.8</ele>
        <time>2021-12-19T07:56:55Z</time>
      </trkpt>
      <trkpt lat="45.22436" lon="6.00091">
        <ele>1405.2</ele>
        <time>2021-12-19T07:56:57Z</time>
      </trkpt>
      <trkpt lat="45.22435" lon="6.00093">
        <ele>1405.4</ele>
        <time>2021-12-19T07:56:58Z</time>
      </trkpt>
      <trkpt lat="45.22432" lon="6.00103">
        <ele>1406.6</ele>
        <time>2021-12-19T07:57:03Z</time>
      </trkpt>
      <trkpt lat="45.22426" lon="6.00108">
        <ele>1407.6</ele>
        <time>2021-12-19T07:57:08Z</time>
      </trkpt>
      <trkpt lat="45.22423" lon="6.0011">
        <ele>1408</ele>
        <time>2021-12-19T07:57:10Z</time>
      </trkpt>
      <trkpt lat="45.22421" lon="6.00112">
        <ele>1408.4</ele>
        <time>2021-12-19T07:57:12Z</time>
      </trkpt>
      <trkpt lat="45.22418" lon="6.00114">
        <ele>1408.6</ele>
        <time>2021-12-19T07:57:14Z</time>
      </trkpt>
      <trkpt lat="45.22417" lon="6.00115">
        <ele>1408.8</ele>
        <time>2021-12-19T07:57:15Z</time>
      </trkpt>
      <trkpt lat="45.22413" lon="6.00121">
        <ele>1409.8</ele>
        <time>2021-12-19T07:57:20Z</time>
      </trkpt>
      <trkpt lat="45.22411" lon="6.00123">
        <ele>1410</ele>
        <time>2021-12-19T07:57:22Z</time>
      </trkpt>
      <trkpt lat="45.22406" lon="6.00129">
        <ele>1410.8</ele>
        <time>2021-12-19T07:57:26Z</time>
      </trkpt>
      <trkpt lat="45.22405" lon="6.00131">
        <ele>1411.2</ele>
        <time>2021-12-19T07:57:28Z</time>
      </trkpt>
      <trkpt lat="45.22398" lon="6.00137">
        <ele>1412</ele>
        <time>2021-12-19T07:57:33Z</time>
      </trkpt>
      <trkpt lat="45.22397" lon="6.00138">
        <ele>1412.2</ele>
        <time>2021-12-19T07:57:34Z</time>
      </trkpt>
      <trkpt lat="45.22396" lon="6.00139">
        <ele>1412.2</ele>
        <time>2021-12-19T07:57:35Z</time>
      </trkpt>
      <trkpt lat="45.22392" lon="6.00141">
        <ele>1413</ele>
        <time>2021-12-19T07:57:39Z</time>
      </trkpt>
      <trkpt lat="45.22386" lon="6.00143">
        <ele>1413.6</ele>
        <time>2021-12-19T07:57:44Z</time>
      </trkpt>
      <trkpt lat="45.22382" lon="6.00144">
        <ele>1414.2</ele>
        <time>2021-12-19T07:57:47Z</time>
      </trkpt>
      <trkpt lat="45.22374" lon="6.00151">
        <ele>1414.8</ele>
        <time>2021-12-19T07:57:51Z</time>
      </trkpt>
      <trkpt lat="45.22371" lon="6.00155">
        <ele>1415</ele>
        <time>2021-12-19T07:57:53Z</time>
      </trkpt>
      <trkpt lat="45.22368" lon="6.00156">
        <ele>1415.2</ele>
        <time>2021-12-19T07:57:55Z</time>
      </trkpt>
      <trkpt lat="45.22367" lon="6.00156">
        <ele>1415.2</ele>
        <time>2021-12-19T07:57:56Z</time>
      </trkpt>
      <trkpt lat="45.22365" lon="6.00157">
        <ele>1415.6</ele>
        <time>2021-12-19T07:57:58Z</time>
      </trkpt>
      <trkpt lat="45.22362" lon="6.0016">
        <ele>1416.2</ele>
        <time>2021-12-19T07:58:01Z</time>
      </trkpt>
      <trkpt lat="45.22361" lon="6.00161">
        <ele>1416.4</ele>
        <time>2021-12-19T07:58:02Z</time>
      </trkpt>
      <trkpt lat="45.22355" lon="6.00169">
        <ele>1417.2</ele>
        <time>2021-12-19T07:58:09Z</time>
      </trkpt>
      <trkpt lat="45.22354" lon="6.0017">
        <ele>1417.4</ele>
        <time>2021-12-19T07:58:10Z</time>
      </trkpt>
      <trkpt lat="45.22347" lon="6.00175">
        <ele>1418.4</ele>
        <time>2021-12-19T07:58:18Z</time>
      </trkpt>
      <trkpt lat="45.22346" lon="6.00176">
        <ele>1418.6</ele>
        <time>2021-12-19T07:58:19Z</time>
      </trkpt>
      <trkpt lat="45.2234" lon="6.00184">
        <ele>1419.4</ele>
        <time>2021-12-19T07:58:26Z</time>
      </trkpt>
      <trkpt lat="45.22338" lon="6.00188">
        <ele>1419.6</ele>
        <time>2021-12-19T07:58:28Z</time>
      </trkpt>
      <trkpt lat="45.22332" lon="6.00197">
        <ele>1420.6</ele>
        <time>2021-12-19T07:58:34Z</time>
      </trkpt>
      <trkpt lat="45.2233" lon="6.00199">
        <ele>1420.8</ele>
        <time>2021-12-19T07:58:35Z</time>
      </trkpt>
      <trkpt lat="45.22325" lon="6.00203">
        <ele>1421.8</ele>
        <time>2021-12-19T07:58:40Z</time>
      </trkpt>
      <trkpt lat="45.22319" lon="6.00205">
        <ele>1422.4</ele>
        <time>2021-12-19T07:58:44Z</time>
      </trkpt>
      <trkpt lat="45.22317" lon="6.00206">
        <ele>1422.8</ele>
        <time>2021-12-19T07:58:46Z</time>
      </trkpt>
      <trkpt lat="45.22315" lon="6.00207">
        <ele>1423</ele>
        <time>2021-12-19T07:58:48Z</time>
      </trkpt>
      <trkpt lat="45.22312" lon="6.00208">
        <ele>1423.8</ele>
        <time>2021-12-19T07:58:51Z</time>
      </trkpt>
      <trkpt lat="45.22311" lon="6.00208">
        <ele>1424</ele>
        <time>2021-12-19T07:58:52Z</time>
      </trkpt>
      <trkpt lat="45.2231" lon="6.00208">
        <ele>1424.2</ele>
        <time>2021-12-19T07:58:53Z</time>
      </trkpt>
      <trkpt lat="45.22305" lon="6.0021">
        <ele>1425.2</ele>
        <time>2021-12-19T07:58:57Z</time>
      </trkpt>
      <trkpt lat="45.22305" lon="6.00211">
        <ele>1425.6</ele>
        <time>2021-12-19T07:58:58Z</time>
      </trkpt>
      <trkpt lat="45.22306" lon="6.00217">
        <ele>1426.2</ele>
        <time>2021-12-19T07:59:01Z</time>
      </trkpt>
      <trkpt lat="45.22306" lon="6.0022">
        <ele>1427</ele>
        <time>2021-12-19T07:59:03Z</time>
      </trkpt>
      <trkpt lat="45.22306" lon="6.00222">
        <ele>1427.2</ele>
        <time>2021-12-19T07:59:04Z</time>
      </trkpt>
      <trkpt lat="45.22306" lon="6.00223">
        <ele>1427.6</ele>
        <time>2021-12-19T07:59:05Z</time>
      </trkpt>
      <trkpt lat="45.22307" lon="6.00227">
        <ele>1428.6</ele>
        <time>2021-12-19T07:59:08Z</time>
      </trkpt>
      <trkpt lat="45.22306" lon="6.00231">
        <ele>1429</ele>
        <time>2021-12-19T07:59:10Z</time>
      </trkpt>
      <trkpt lat="45.22305" lon="6.00233">
        <ele>1429.6</ele>
        <time>2021-12-19T07:59:12Z</time>
      </trkpt>
      <trkpt lat="45.22305" lon="6.00237">
        <ele>1430.8</ele>
        <time>2021-12-19T07:59:15Z</time>
      </trkpt>
      <trkpt lat="45.22306" lon="6.00239">
        <ele>1431.4</ele>
        <time>2021-12-19T07:59:17Z</time>
      </trkpt>
      <trkpt lat="45.22307" lon="6.0024">
        <ele>1431.8</ele>
        <time>2021-12-19T07:59:19Z</time>
      </trkpt>
      <trkpt lat="45.22308" lon="6.00242">
        <ele>1432.2</ele>
        <time>2021-12-19T07:59:20Z</time>
      </trkpt>
      <trkpt lat="45.22309" lon="6.00244">
        <ele>1433</ele>
        <time>2021-12-19T07:59:23Z</time>
      </trkpt>
      <trkpt lat="45.22311" lon="6.00249">
        <ele>1434.2</ele>
        <time>2021-12-19T07:59:27Z</time>
      </trkpt>
      <trkpt lat="45.22313" lon="6.00251">
        <ele>1434.8</ele>
        <time>2021-12-19T07:59:29Z</time>
      </trkpt>
      <trkpt lat="45.22316" lon="6.00254">
        <ele>1435.8</ele>
        <time>2021-12-19T07:59:32Z</time>
      </trkpt>
      <trkpt lat="45.22322" lon="6.0026">
        <ele>1436.8</ele>
        <time>2021-12-19T07:59:37Z</time>
      </trkpt>
      <trkpt lat="45.22322" lon="6.00261">
        <ele>1437.4</ele>
        <time>2021-12-19T07:59:38Z</time>
      </trkpt>
      <trkpt lat="45.22323" lon="6.00266">
        <ele>1438</ele>
        <time>2021-12-19T07:59:41Z</time>
      </trkpt>
      <trkpt lat="45.22325" lon="6.0027">
        <ele>1438.8</ele>
        <time>2021-12-19T07:59:44Z</time>
      </trkpt>
      <trkpt lat="45.22325" lon="6.00273">
        <ele>1439.2</ele>
        <time>2021-12-19T07:59:46Z</time>
      </trkpt>
      <trkpt lat="45.22327" lon="6.00281">
        <ele>1440.4</ele>
        <time>2021-12-19T07:59:51Z</time>
      </trkpt>
      <trkpt lat="45.22326" lon="6.00285">
        <ele>1441.2</ele>
        <time>2021-12-19T07:59:54Z</time>
      </trkpt>
      <trkpt lat="45.22327" lon="6.00288">
        <ele>1441.6</ele>
        <time>2021-12-19T07:59:56Z</time>
      </trkpt>
      <trkpt lat="45.22327" lon="6.00292">
        <ele>1442</ele>
        <time>2021-12-19T07:59:59Z</time>
      </trkpt>
      <trkpt lat="45.22328" lon="6.00297">
        <ele>1442.8</ele>
        <time>2021-12-19T08:00:02Z</time>
      </trkpt>
      <trkpt lat="45.22327" lon="6.003">
        <ele>1443.2</ele>
        <time>2021-12-19T08:00:04Z</time>
      </trkpt>
      <trkpt lat="45.22326" lon="6.00306">
        <ele>1443.8</ele>
        <time>2021-12-19T08:00:08Z</time>
      </trkpt>
      <trkpt lat="45.22323" lon="6.00311">
        <ele>1444.8</ele>
        <time>2021-12-19T08:00:12Z</time>
      </trkpt>
      <trkpt lat="45.22322" lon="6.00315">
        <ele>1445</ele>
        <time>2021-12-19T08:00:14Z</time>
      </trkpt>
      <trkpt lat="45.22322" lon="6.00322">
        <ele>1446</ele>
        <time>2021-12-19T08:00:18Z</time>
      </trkpt>
      <trkpt lat="45.22322" lon="6.00328">
        <ele>1446.6</ele>
        <time>2021-12-19T08:00:22Z</time>
      </trkpt>
      <trkpt lat="45.22323" lon="6.0033">
        <ele>1447</ele>
        <time>2021-12-19T08:00:23Z</time>
      </trkpt>
      <trkpt lat="45.22323" lon="6.00331">
        <ele>1447.4</ele>
        <time>2021-12-19T08:00:24Z</time>
      </trkpt>
      <trkpt lat="45.22322" lon="6.00333">
        <ele>1447.6</ele>
        <time>2021-12-19T08:00:25Z</time>
      </trkpt>
      <trkpt lat="45.22319" lon="6.00337">
        <ele>1448.2</ele>
        <time>2021-12-19T08:00:27Z</time>
      </trkpt>
      <trkpt lat="45.22313" lon="6.00347">
        <ele>1449.2</ele>
        <time>2021-12-19T08:00:33Z</time>
      </trkpt>
      <trkpt lat="45.22312" lon="6.0035">
        <ele>1449.6</ele>
        <time>2021-12-19T08:00:36Z</time>
      </trkpt>
      <trkpt lat="45.22311" lon="6.00354">
        <ele>1450.6</ele>
        <time>2021-12-19T08:00:39Z</time>
      </trkpt>
      <trkpt lat="45.22312" lon="6.00358">
        <ele>1451.6</ele>
        <time>2021-12-19T08:00:42Z</time>
      </trkpt>
      <trkpt lat="45.22311" lon="6.00368">
        <ele>1453</ele>
        <time>2021-12-19T08:00:48Z</time>
      </trkpt>
      <trkpt lat="45.22309" lon="6.00372">
        <ele>1454</ele>
        <time>2021-12-19T08:00:51Z</time>
      </trkpt>
      <trkpt lat="45.22308" lon="6.00377">
        <ele>1454.8</ele>
        <time>2021-12-19T08:00:53Z</time>
      </trkpt>
      <trkpt lat="45.22307" lon="6.00377">
        <ele>1455</ele>
        <time>2021-12-19T08:00:54Z</time>
      </trkpt>
      <trkpt lat="45.22302" lon="6.00386">
        <ele>1456.2</ele>
        <time>2021-12-19T08:01:00Z</time>
      </trkpt>
      <trkpt lat="45.22301" lon="6.00388">
        <ele>1456.4</ele>
        <time>2021-12-19T08:01:01Z</time>
      </trkpt>
      <trkpt lat="45.22299" lon="6.00392">
        <ele>1457.6</ele>
        <time>2021-12-19T08:01:04Z</time>
      </trkpt>
      <trkpt lat="45.22297" lon="6.00396">
        <ele>1458.6</ele>
        <time>2021-12-19T08:01:07Z</time>
      </trkpt>
      <trkpt lat="45.22294" lon="6.00402">
        <ele>1459</ele>
        <time>2021-12-19T08:01:10Z</time>
      </trkpt>
      <trkpt lat="45.22292" lon="6.00405">
        <ele>1459.6</ele>
        <time>2021-12-19T08:01:12Z</time>
      </trkpt>
      <trkpt lat="45.22286" lon="6.00409">
        <ele>1460.2</ele>
        <time>2021-12-19T08:01:16Z</time>
      </trkpt>
      <trkpt lat="45.22284" lon="6.0041">
        <ele>1460.8</ele>
        <time>2021-12-19T08:01:19Z</time>
      </trkpt>
      <trkpt lat="45.22282" lon="6.00411">
        <ele>1461.2</ele>
        <time>2021-12-19T08:01:21Z</time>
      </trkpt>
      <trkpt lat="45.22281" lon="6.00413">
        <ele>1462</ele>
        <time>2021-12-19T08:01:23Z</time>
      </trkpt>
      <trkpt lat="45.22281" lon="6.00413">
        <ele>1463.2</ele>
        <time>2021-12-19T08:01:25Z</time>
      </trkpt>
      <trkpt lat="45.22281" lon="6.00414">
        <ele>1464.4</ele>
        <time>2021-12-19T08:01:29Z</time>
      </trkpt>
      <trkpt lat="45.22279" lon="6.00417">
        <ele>1465.2</ele>
        <time>2021-12-19T08:01:32Z</time>
      </trkpt>
      <trkpt lat="45.22278" lon="6.00416">
        <ele>1465.4</ele>
        <time>2021-12-19T08:01:33Z</time>
      </trkpt>
      <trkpt lat="45.22277" lon="6.00419">
        <ele>1466.6</ele>
        <time>2021-12-19T08:01:36Z</time>
      </trkpt>
      <trkpt lat="45.22275" lon="6.00422">
        <ele>1467.6</ele>
        <time>2021-12-19T08:01:39Z</time>
      </trkpt>
      <trkpt lat="45.22276" lon="6.00425">
        <ele>1468.8</ele>
        <time>2021-12-19T08:01:42Z</time>
      </trkpt>
      <trkpt lat="45.22276" lon="6.00429">
        <ele>1470</ele>
        <time>2021-12-19T08:01:46Z</time>
      </trkpt>
      <trkpt lat="45.22274" lon="6.00432">
        <ele>1470.8</ele>
        <time>2021-12-19T08:01:50Z</time>
      </trkpt>
      <trkpt lat="45.22271" lon="6.00435">
        <ele>1471.2</ele>
        <time>2021-12-19T08:01:53Z</time>
      </trkpt>
      <trkpt lat="45.2227" lon="6.00436">
        <ele>1472.4</ele>
        <time>2021-12-19T08:01:56Z</time>
      </trkpt>
      <trkpt lat="45.2227" lon="6.00437">
        <ele>1472.8</ele>
        <time>2021-12-19T08:01:57Z</time>
      </trkpt>
      <trkpt lat="45.22269" lon="6.00438">
        <ele>1473.4</ele>
        <time>2021-12-19T08:01:59Z</time>
      </trkpt>
      <trkpt lat="45.22268" lon="6.0044">
        <ele>1473.8</ele>
        <time>2021-12-19T08:02:01Z</time>
      </trkpt>
      <trkpt lat="45.22265" lon="6.00441">
        <ele>1474</ele>
        <time>2021-12-19T08:02:03Z</time>
      </trkpt>
      <trkpt lat="45.22261" lon="6.00441">
        <ele>1474.6</ele>
        <time>2021-12-19T08:02:05Z</time>
      </trkpt>
      <trkpt lat="45.22255" lon="6.00442">
        <ele>1475.8</ele>
        <time>2021-12-19T08:02:11Z</time>
      </trkpt>
      <trkpt lat="45.2225" lon="6.00441">
        <ele>1477.2</ele>
        <time>2021-12-19T08:02:16Z</time>
      </trkpt>
      <trkpt lat="45.22248" lon="6.00441">
        <ele>1478</ele>
        <time>2021-12-19T08:02:19Z</time>
      </trkpt>
      <trkpt lat="45.22247" lon="6.00442">
        <ele>1478.2</ele>
        <time>2021-12-19T08:02:20Z</time>
      </trkpt>
      <trkpt lat="45.22244" lon="6.00441">
        <ele>1479.2</ele>
        <time>2021-12-19T08:02:24Z</time>
      </trkpt>
      <trkpt lat="45.22242" lon="6.00441">
        <ele>1480</ele>
        <time>2021-12-19T08:02:26Z</time>
      </trkpt>
      <trkpt lat="45.22241" lon="6.00441">
        <ele>1480.4</ele>
        <time>2021-12-19T08:02:27Z</time>
      </trkpt>
      <trkpt lat="45.22238" lon="6.00441">
        <ele>1481.2</ele>
        <time>2021-12-19T08:02:31Z</time>
      </trkpt>
      <trkpt lat="45.22237" lon="6.00441">
        <ele>1481.6</ele>
        <time>2021-12-19T08:02:32Z</time>
      </trkpt>
      <trkpt lat="45.22234" lon="6.00442">
        <ele>1482.6</ele>
        <time>2021-12-19T08:02:36Z</time>
      </trkpt>
      <trkpt lat="45.22233" lon="6.00443">
        <ele>1482.8</ele>
        <time>2021-12-19T08:02:37Z</time>
      </trkpt>
      <trkpt lat="45.22232" lon="6.00445">
        <ele>1484</ele>
        <time>2021-12-19T08:02:40Z</time>
      </trkpt>
      <trkpt lat="45.22232" lon="6.00446">
        <ele>1484.6</ele>
        <time>2021-12-19T08:02:42Z</time>
      </trkpt>
      <trkpt lat="45.22233" lon="6.00447">
        <ele>1485.2</ele>
        <time>2021-12-19T08:02:43Z</time>
      </trkpt>
      <trkpt lat="45.22233" lon="6.00449">
        <ele>1485.6</ele>
        <time>2021-12-19T08:02:45Z</time>
      </trkpt>
      <trkpt lat="45.22232" lon="6.0045">
        <ele>1486.2</ele>
        <time>2021-12-19T08:02:48Z</time>
      </trkpt>
      <trkpt lat="45.22232" lon="6.00453">
        <ele>1487.2</ele>
        <time>2021-12-19T08:02:51Z</time>
      </trkpt>
      <trkpt lat="45.22232" lon="6.00455">
        <ele>1488.6</ele>
        <time>2021-12-19T08:02:54Z</time>
      </trkpt>
      <trkpt lat="45.22234" lon="6.00458">
        <ele>1489.4</ele>
        <time>2021-12-19T08:02:58Z</time>
      </trkpt>
      <trkpt lat="45.22234" lon="6.0046">
        <ele>1489.6</ele>
        <time>2021-12-19T08:02:59Z</time>
      </trkpt>
      <trkpt lat="45.22236" lon="6.00464">
        <ele>1490.8</ele>
        <time>2021-12-19T08:03:03Z</time>
      </trkpt>
      <trkpt lat="45.22236" lon="6.00467">
        <ele>1491.4</ele>
        <time>2021-12-19T08:03:05Z</time>
      </trkpt>
      <trkpt lat="45.22237" lon="6.00468">
        <ele>1492</ele>
        <time>2021-12-19T08:03:06Z</time>
      </trkpt>
      <trkpt lat="45.22238" lon="6.00469">
        <ele>1492.4</ele>
        <time>2021-12-19T08:03:08Z</time>
      </trkpt>
      <trkpt lat="45.22238" lon="6.00473">
        <ele>1493</ele>
        <time>2021-12-19T08:03:11Z</time>
      </trkpt>
      <trkpt lat="45.22238" lon="6.00474">
        <ele>1493.2</ele>
        <time>2021-12-19T08:03:12Z</time>
      </trkpt>
      <trkpt lat="45.22238" lon="6.00477">
        <ele>1494.2</ele>
        <time>2021-12-19T08:03:14Z</time>
      </trkpt>
      <trkpt lat="45.22237" lon="6.00482">
        <ele>1495</ele>
        <time>2021-12-19T08:03:18Z</time>
      </trkpt>
      <trkpt lat="45.22237" lon="6.00483">
        <ele>1495.4</ele>
        <time>2021-12-19T08:03:19Z</time>
      </trkpt>
      <trkpt lat="45.22237" lon="6.00486">
        <ele>1496</ele>
        <time>2021-12-19T08:03:22Z</time>
      </trkpt>
      <trkpt lat="45.22238" lon="6.0049">
        <ele>1496.6</ele>
        <time>2021-12-19T08:03:25Z</time>
      </trkpt>
      <trkpt lat="45.22239" lon="6.00496">
        <ele>1497.8</ele>
        <time>2021-12-19T08:03:30Z</time>
      </trkpt>
      <trkpt lat="45.2224" lon="6.00497">
        <ele>1498</ele>
        <time>2021-12-19T08:03:31Z</time>
      </trkpt>
      <trkpt lat="45.22241" lon="6.00502">
        <ele>1499</ele>
        <time>2021-12-19T08:03:35Z</time>
      </trkpt>
      <trkpt lat="45.22242" lon="6.00506">
        <ele>1499.4</ele>
        <time>2021-12-19T08:03:38Z</time>
      </trkpt>
      <trkpt lat="45.22242" lon="6.00507">
        <ele>1500</ele>
        <time>2021-12-19T08:03:39Z</time>
      </trkpt>
      <trkpt lat="45.22241" lon="6.00514">
        <ele>1500.8</ele>
        <time>2021-12-19T08:03:45Z</time>
      </trkpt>
      <trkpt lat="45.2224" lon="6.00514">
        <ele>1501.2</ele>
        <time>2021-12-19T08:03:46Z</time>
      </trkpt>
      <trkpt lat="45.22228" lon="6.00517">
        <ele>1501.8</ele>
        <time>2021-12-19T08:03:53Z</time>
      </trkpt>
      <trkpt lat="45.22223" lon="6.00517">
        <ele>1502.4</ele>
        <time>2021-12-19T08:03:56Z</time>
      </trkpt>
      <trkpt lat="45.22217" lon="6.00516">
        <ele>1503.6</ele>
        <time>2021-12-19T08:04:01Z</time>
      </trkpt>
      <trkpt lat="45.22214" lon="6.00515">
        <ele>1504</ele>
        <time>2021-12-19T08:04:03Z</time>
      </trkpt>
      <trkpt lat="45.22211" lon="6.00512">
        <ele>1504.6</ele>
        <time>2021-12-19T08:04:06Z</time>
      </trkpt>
      <trkpt lat="45.22205" lon="6.00507">
        <ele>1505.4</ele>
        <time>2021-12-19T08:04:11Z</time>
      </trkpt>
      <trkpt lat="45.22204" lon="6.00506">
        <ele>1505.6</ele>
        <time>2021-12-19T08:04:12Z</time>
      </trkpt>
      <trkpt lat="45.222" lon="6.005">
        <ele>1506.8</ele>
        <time>2021-12-19T08:04:16Z</time>
      </trkpt>
      <trkpt lat="45.22197" lon="6.00496">
        <ele>1507.6</ele>
        <time>2021-12-19T08:04:19Z</time>
      </trkpt>
      <trkpt lat="45.22196" lon="6.00496">
        <ele>1508</ele>
        <time>2021-12-19T08:04:20Z</time>
      </trkpt>
      <trkpt lat="45.22194" lon="6.005">
        <ele>1509</ele>
        <time>2021-12-19T08:04:23Z</time>
      </trkpt>
      <trkpt lat="45.22195" lon="6.005">
        <ele>1509.4</ele>
        <time>2021-12-19T08:04:24Z</time>
      </trkpt>
      <trkpt lat="45.22197" lon="6.00503">
        <ele>1510.6</ele>
        <time>2021-12-19T08:04:27Z</time>
      </trkpt>
      <trkpt lat="45.22197" lon="6.00508">
        <ele>1511.8</ele>
        <time>2021-12-19T08:04:32Z</time>
      </trkpt>
      <trkpt lat="45.22196" lon="6.0051">
        <ele>1512</ele>
        <time>2021-12-19T08:04:33Z</time>
      </trkpt>
      <trkpt lat="45.22195" lon="6.00512">
        <ele>1512.2</ele>
        <time>2021-12-19T08:04:34Z</time>
      </trkpt>
      <trkpt lat="45.22195" lon="6.00515">
        <ele>1512.8</ele>
        <time>2021-12-19T08:04:36Z</time>
      </trkpt>
      <trkpt lat="45.22195" lon="6.00519">
        <ele>1513.4</ele>
        <time>2021-12-19T08:04:39Z</time>
      </trkpt>
      <trkpt lat="45.22195" lon="6.0052">
        <ele>1513.8</ele>
        <time>2021-12-19T08:04:40Z</time>
      </trkpt>
      <trkpt lat="45.22195" lon="6.00523">
        <ele>1514.6</ele>
        <time>2021-12-19T08:04:42Z</time>
      </trkpt>
      <trkpt lat="45.22195" lon="6.00525">
        <ele>1515</ele>
        <time>2021-12-19T08:04:44Z</time>
      </trkpt>
      <trkpt lat="45.22195" lon="6.00527">
        <ele>1515.4</ele>
        <time>2021-12-19T08:04:45Z</time>
      </trkpt>
      <trkpt lat="45.22196" lon="6.0053">
        <ele>1516</ele>
        <time>2021-12-19T08:04:47Z</time>
      </trkpt>
      <trkpt lat="45.222" lon="6.00536">
        <ele>1517.2</ele>
        <time>2021-12-19T08:04:51Z</time>
      </trkpt>
      <trkpt lat="45.222" lon="6.0054">
        <ele>1517.8</ele>
        <time>2021-12-19T08:04:54Z</time>
      </trkpt>
      <trkpt lat="45.22201" lon="6.00545">
        <ele>1518.4</ele>
        <time>2021-12-19T08:04:57Z</time>
      </trkpt>
      <trkpt lat="45.22202" lon="6.0055">
        <ele>1519.6</ele>
        <time>2021-12-19T08:05:01Z</time>
      </trkpt>
      <trkpt lat="45.22202" lon="6.00554">
        <ele>1520.2</ele>
        <time>2021-12-19T08:05:03Z</time>
      </trkpt>
      <trkpt lat="45.22202" lon="6.00557">
        <ele>1520.8</ele>
        <time>2021-12-19T08:05:05Z</time>
      </trkpt>
      <trkpt lat="45.222" lon="6.00564">
        <ele>1521.8</ele>
        <time>2021-12-19T08:05:10Z</time>
      </trkpt>
      <trkpt lat="45.22199" lon="6.00569">
        <ele>1522.6</ele>
        <time>2021-12-19T08:05:14Z</time>
      </trkpt>
      <trkpt lat="45.22199" lon="6.00571">
        <ele>1522.8</ele>
        <time>2021-12-19T08:05:16Z</time>
      </trkpt>
      <trkpt lat="45.22197" lon="6.00578">
        <ele>1524</ele>
        <time>2021-12-19T08:05:22Z</time>
      </trkpt>
      <trkpt lat="45.22197" lon="6.00579">
        <ele>1524</ele>
        <time>2021-12-19T08:05:23Z</time>
      </trkpt>
      <trkpt lat="45.22196" lon="6.00587">
        <ele>1524.6</ele>
        <time>2021-12-19T08:05:29Z</time>
      </trkpt>
      <trkpt lat="45.22196" lon="6.0059">
        <ele>1524.8</ele>
        <time>2021-12-19T08:05:31Z</time>
      </trkpt>
      <trkpt lat="45.22195" lon="6.00591">
        <ele>1525</ele>
        <time>2021-12-19T08:05:33Z</time>
      </trkpt>
      <trkpt lat="45.22194" lon="6.00595">
        <ele>1525.4</ele>
        <time>2021-12-19T08:05:37Z</time>
      </trkpt>
      <trkpt lat="45.22195" lon="6.00601">
        <ele>1526</ele>
        <time>2021-12-19T08:05:40Z</time>
      </trkpt>
      <trkpt lat="45.22197" lon="6.00607">
        <ele>1526.4</ele>
        <time>2021-12-19T08:05:44Z</time>
      </trkpt>
      <trkpt lat="45.22198" lon="6.00608">
        <ele>1526.6</ele>
        <time>2021-12-19T08:05:45Z</time>
      </trkpt>
      <trkpt lat="45.222" lon="6.00611">
        <ele>1527</ele>
        <time>2021-12-19T08:05:47Z</time>
      </trkpt>
      <trkpt lat="45.22201" lon="6.00612">
        <ele>1527.2</ele>
        <time>2021-12-19T08:05:48Z</time>
      </trkpt>
      <trkpt lat="45.22202" lon="6.00616">
        <ele>1527.4</ele>
        <time>2021-12-19T08:05:50Z</time>
      </trkpt>
      <trkpt lat="45.22204" lon="6.00621">
        <ele>1528.2</ele>
        <time>2021-12-19T08:05:54Z</time>
      </trkpt>
      <trkpt lat="45.22204" lon="6.00623">
        <ele>1528.2</ele>
        <time>2021-12-19T08:05:55Z</time>
      </trkpt>
      <trkpt lat="45.22204" lon="6.00624">
        <ele>1528.6</ele>
        <time>2021-12-19T08:05:56Z</time>
      </trkpt>
      <trkpt lat="45.22204" lon="6.00629">
        <ele>1529.4</ele>
        <time>2021-12-19T08:06:00Z</time>
      </trkpt>
      <trkpt lat="45.22204" lon="6.00632">
        <ele>1530</ele>
        <time>2021-12-19T08:06:02Z</time>
      </trkpt>
      <trkpt lat="45.22204" lon="6.00636">
        <ele>1530.6</ele>
        <time>2021-12-19T08:06:05Z</time>
      </trkpt>
      <trkpt lat="45.22202" lon="6.00638">
        <ele>1530.8</ele>
        <time>2021-12-19T08:06:08Z</time>
      </trkpt>
      <trkpt lat="45.222" lon="6.00641">
        <ele>1531</ele>
        <time>2021-12-19T08:06:10Z</time>
      </trkpt>
      <trkpt lat="45.22201" lon="6.00643">
        <ele>1531.4</ele>
        <time>2021-12-19T08:06:12Z</time>
      </trkpt>
      <trkpt lat="45.22201" lon="6.00645">
        <ele>1531.6</ele>
        <time>2021-12-19T08:06:13Z</time>
      </trkpt>
      <trkpt lat="45.22199" lon="6.00653">
        <ele>1532.4</ele>
        <time>2021-12-19T08:06:18Z</time>
      </trkpt>
      <trkpt lat="45.22198" lon="6.00655">
        <ele>1532.6</ele>
        <time>2021-12-19T08:06:19Z</time>
      </trkpt>
      <trkpt lat="45.22198" lon="6.0066">
        <ele>1533.6</ele>
        <time>2021-12-19T08:06:23Z</time>
      </trkpt>
      <trkpt lat="45.22198" lon="6.00663">
        <ele>1534.2</ele>
        <time>2021-12-19T08:06:25Z</time>
      </trkpt>
      <trkpt lat="45.22198" lon="6.00668">
        <ele>1534.8</ele>
        <time>2021-12-19T08:06:28Z</time>
      </trkpt>
      <trkpt lat="45.22198" lon="6.00676">
        <ele>1536</ele>
        <time>2021-12-19T08:06:33Z</time>
      </trkpt>
      <trkpt lat="45.22198" lon="6.00678">
        <ele>1536.4</ele>
        <time>2021-12-19T08:06:35Z</time>
      </trkpt>
      <trkpt lat="45.22198" lon="6.00681">
        <ele>1537</ele>
        <time>2021-12-19T08:06:38Z</time>
      </trkpt>
      <trkpt lat="45.22197" lon="6.00684">
        <ele>1537.6</ele>
        <time>2021-12-19T08:06:41Z</time>
      </trkpt>
      <trkpt lat="45.22197" lon="6.00685">
        <ele>1538.2</ele>
        <time>2021-12-19T08:06:43Z</time>
      </trkpt>
      <trkpt lat="45.22197" lon="6.00689">
        <ele>1538.8</ele>
        <time>2021-12-19T08:06:46Z</time>
      </trkpt>
      <trkpt lat="45.22197" lon="6.0069">
        <ele>1539.2</ele>
        <time>2021-12-19T08:06:47Z</time>
      </trkpt>
      <trkpt lat="45.22196" lon="6.00696">
        <ele>1540.4</ele>
        <time>2021-12-19T08:06:52Z</time>
      </trkpt>
      <trkpt lat="45.22196" lon="6.00697">
        <ele>1540.4</ele>
        <time>2021-12-19T08:06:53Z</time>
      </trkpt>
      <trkpt lat="45.22196" lon="6.00701">
        <ele>1541.4</ele>
        <time>2021-12-19T08:06:56Z</time>
      </trkpt>
      <trkpt lat="45.22196" lon="6.00706">
        <ele>1542.6</ele>
        <time>2021-12-19T08:07:01Z</time>
      </trkpt>
      <trkpt lat="45.22197" lon="6.00709">
        <ele>1543.6</ele>
        <time>2021-12-19T08:07:04Z</time>
      </trkpt>
      <trkpt lat="45.22198" lon="6.00715">
        <ele>1544.6</ele>
        <time>2021-12-19T08:07:09Z</time>
      </trkpt>
      <trkpt lat="45.22197" lon="6.00716">
        <ele>1544.8</ele>
        <time>2021-12-19T08:07:10Z</time>
      </trkpt>
      <trkpt lat="45.22198" lon="6.00722">
        <ele>1546</ele>
        <time>2021-12-19T08:07:15Z</time>
      </trkpt>
      <trkpt lat="45.22198" lon="6.00723">
        <ele>1546</ele>
        <time>2021-12-19T08:07:16Z</time>
      </trkpt>
      <trkpt lat="45.22198" lon="6.00729">
        <ele>1547</ele>
        <time>2021-12-19T08:07:21Z</time>
      </trkpt>
      <trkpt lat="45.22198" lon="6.00733">
        <ele>1548.2</ele>
        <time>2021-12-19T08:07:25Z</time>
      </trkpt>
      <trkpt lat="45.22198" lon="6.00734">
        <ele>1548.4</ele>
        <time>2021-12-19T08:07:26Z</time>
      </trkpt>
      <trkpt lat="45.22197" lon="6.0074">
        <ele>1549.2</ele>
        <time>2021-12-19T08:07:30Z</time>
      </trkpt>
      <trkpt lat="45.22196" lon="6.00745">
        <ele>1550.4</ele>
        <time>2021-12-19T08:07:35Z</time>
      </trkpt>
      <trkpt lat="45.22196" lon="6.00746">
        <ele>1550.6</ele>
        <time>2021-12-19T08:07:36Z</time>
      </trkpt>
      <trkpt lat="45.22196" lon="6.00752">
        <ele>1551.4</ele>
        <time>2021-12-19T08:07:41Z</time>
      </trkpt>
      <trkpt lat="45.22197" lon="6.00757">
        <ele>1551.8</ele>
        <time>2021-12-19T08:07:44Z</time>
      </trkpt>
      <trkpt lat="45.22197" lon="6.00762">
        <ele>1552.4</ele>
        <time>2021-12-19T08:07:47Z</time>
      </trkpt>
      <trkpt lat="45.22198" lon="6.00766">
        <ele>1553.6</ele>
        <time>2021-12-19T08:07:52Z</time>
      </trkpt>
      <trkpt lat="45.22199" lon="6.00771">
        <ele>1554.6</ele>
        <time>2021-12-19T08:07:57Z</time>
      </trkpt>
      <trkpt lat="45.222" lon="6.00776">
        <ele>1555.4</ele>
        <time>2021-12-19T08:08:01Z</time>
      </trkpt>
      <trkpt lat="45.22201" lon="6.00778">
        <ele>1555.8</ele>
        <time>2021-12-19T08:08:03Z</time>
      </trkpt>
      <trkpt lat="45.22204" lon="6.00787">
        <ele>1556.8</ele>
        <time>2021-12-19T08:08:10Z</time>
      </trkpt>
      <trkpt lat="45.2221" lon="6.00797">
        <ele>1558</ele>
        <time>2021-12-19T08:08:17Z</time>
      </trkpt>
      <trkpt lat="45.2221" lon="6.00798">
        <ele>1558.2</ele>
        <time>2021-12-19T08:08:18Z</time>
      </trkpt>
      <trkpt lat="45.22212" lon="6.00801">
        <ele>1559.2</ele>
        <time>2021-12-19T08:08:22Z</time>
      </trkpt>
      <trkpt lat="45.22214" lon="6.00803">
        <ele>1560.2</ele>
        <time>2021-12-19T08:08:25Z</time>
      </trkpt>
      <trkpt lat="45.22214" lon="6.00804">
        <ele>1560.4</ele>
        <time>2021-12-19T08:08:26Z</time>
      </trkpt>
      <trkpt lat="45.22215" lon="6.00808">
        <ele>1561.4</ele>
        <time>2021-12-19T08:08:31Z</time>
      </trkpt>
      <trkpt lat="45.22215" lon="6.0081">
        <ele>1561.6</ele>
        <time>2021-12-19T08:08:32Z</time>
      </trkpt>
      <trkpt lat="45.22217" lon="6.00812">
        <ele>1562.4</ele>
        <time>2021-12-19T08:08:35Z</time>
      </trkpt>
      <trkpt lat="45.2222" lon="6.00819">
        <ele>1563.2</ele>
        <time>2021-12-19T08:08:41Z</time>
      </trkpt>
      <trkpt lat="45.22221" lon="6.0082">
        <ele>1563.6</ele>
        <time>2021-12-19T08:08:42Z</time>
      </trkpt>
      <trkpt lat="45.22223" lon="6.00823">
        <ele>1564.6</ele>
        <time>2021-12-19T08:08:45Z</time>
      </trkpt>
      <trkpt lat="45.22226" lon="6.00829">
        <ele>1565.8</ele>
        <time>2021-12-19T08:08:49Z</time>
      </trkpt>
      <trkpt lat="45.22227" lon="6.00831">
        <ele>1566.2</ele>
        <time>2021-12-19T08:08:50Z</time>
      </trkpt>
      <trkpt lat="45.22229" lon="6.00836">
        <ele>1567</ele>
        <time>2021-12-19T08:08:54Z</time>
      </trkpt>
      <trkpt lat="45.2223" lon="6.00837">
        <ele>1567.2</ele>
        <time>2021-12-19T08:08:55Z</time>
      </trkpt>
      <trkpt lat="45.2223" lon="6.00839">
        <ele>1568</ele>
        <time>2021-12-19T08:08:57Z</time>
      </trkpt>
      <trkpt lat="45.22232" lon="6.00842">
        <ele>1568.6</ele>
        <time>2021-12-19T08:08:59Z</time>
      </trkpt>
      <trkpt lat="45.22233" lon="6.00845">
        <ele>1569.4</ele>
        <time>2021-12-19T08:09:02Z</time>
      </trkpt>
      <trkpt lat="45.22233" lon="6.00846">
        <ele>1569.6</ele>
        <time>2021-12-19T08:09:03Z</time>
      </trkpt>
      <trkpt lat="45.22236" lon="6.00849">
        <ele>1570.2</ele>
        <time>2021-12-19T08:09:05Z</time>
      </trkpt>
      <trkpt lat="45.22237" lon="6.00851">
        <ele>1570.4</ele>
        <time>2021-12-19T08:09:06Z</time>
      </trkpt>
      <trkpt lat="45.22237" lon="6.00854">
        <ele>1571.2</ele>
        <time>2021-12-19T08:09:09Z</time>
      </trkpt>
      <trkpt lat="45.22238" lon="6.00858">
        <ele>1571.6</ele>
        <time>2021-12-19T08:09:12Z</time>
      </trkpt>
      <trkpt lat="45.22239" lon="6.00863">
        <ele>1572.8</ele>
        <time>2021-12-19T08:09:16Z</time>
      </trkpt>
      <trkpt lat="45.2224" lon="6.00864">
        <ele>1573</ele>
        <time>2021-12-19T08:09:17Z</time>
      </trkpt>
      <trkpt lat="45.22244" lon="6.00869">
        <ele>1574</ele>
        <time>2021-12-19T08:09:21Z</time>
      </trkpt>
      <trkpt lat="45.22245" lon="6.00871">
        <ele>1574.6</ele>
        <time>2021-12-19T08:09:23Z</time>
      </trkpt>
      <trkpt lat="45.22245" lon="6.00872">
        <ele>1575</ele>
        <time>2021-12-19T08:09:24Z</time>
      </trkpt>
      <trkpt lat="45.22247" lon="6.00878">
        <ele>1576</ele>
        <time>2021-12-19T08:09:28Z</time>
      </trkpt>
      <trkpt lat="45.2225" lon="6.00886">
        <ele>1577.2</ele>
        <time>2021-12-19T08:09:32Z</time>
      </trkpt>
      <trkpt lat="45.22251" lon="6.00892">
        <ele>1578.2</ele>
        <time>2021-12-19T08:09:36Z</time>
      </trkpt>
      <trkpt lat="45.22251" lon="6.00894">
        <ele>1578.6</ele>
        <time>2021-12-19T08:09:37Z</time>
      </trkpt>
      <trkpt lat="45.22249" lon="6.00897">
        <ele>1579.4</ele>
        <time>2021-12-19T08:09:39Z</time>
      </trkpt>
      <trkpt lat="45.22248" lon="6.00902">
        <ele>1580.4</ele>
        <time>2021-12-19T08:09:43Z</time>
      </trkpt>
      <trkpt lat="45.22249" lon="6.00903">
        <ele>1581.2</ele>
        <time>2021-12-19T08:09:45Z</time>
      </trkpt>
      <trkpt lat="45.2225" lon="6.00904">
        <ele>1581.6</ele>
        <time>2021-12-19T08:09:46Z</time>
      </trkpt>
      <trkpt lat="45.2225" lon="6.00908">
        <ele>1582.8</ele>
        <time>2021-12-19T08:09:49Z</time>
      </trkpt>
      <trkpt lat="45.2225" lon="6.00911">
        <ele>1583.2</ele>
        <time>2021-12-19T08:09:51Z</time>
      </trkpt>
      <trkpt lat="45.2225" lon="6.00913">
        <ele>1584.2</ele>
        <time>2021-12-19T08:09:53Z</time>
      </trkpt>
      <trkpt lat="45.22248" lon="6.00916">
        <ele>1585.2</ele>
        <time>2021-12-19T08:09:57Z</time>
      </trkpt>
      <trkpt lat="45.22248" lon="6.00917">
        <ele>1585.4</ele>
        <time>2021-12-19T08:09:58Z</time>
      </trkpt>
      <trkpt lat="45.22247" lon="6.00919">
        <ele>1586.4</ele>
        <time>2021-12-19T08:10:00Z</time>
      </trkpt>
      <trkpt lat="45.22247" lon="6.00922">
        <ele>1587.4</ele>
        <time>2021-12-19T08:10:04Z</time>
      </trkpt>
      <trkpt lat="45.22244" lon="6.00923">
        <ele>1588</ele>
        <time>2021-12-19T08:10:06Z</time>
      </trkpt>
      <trkpt lat="45.22243" lon="6.00924">
        <ele>1588.4</ele>
        <time>2021-12-19T08:10:08Z</time>
      </trkpt>
      <trkpt lat="45.22236" lon="6.00927">
        <ele>1589.6</ele>
        <time>2021-12-19T08:10:12Z</time>
      </trkpt>
      <trkpt lat="45.22232" lon="6.00928">
        <ele>1590.8</ele>
        <time>2021-12-19T08:10:16Z</time>
      </trkpt>
      <trkpt lat="45.22231" lon="6.0093">
        <ele>1591.4</ele>
        <time>2021-12-19T08:10:19Z</time>
      </trkpt>
      <trkpt lat="45.2223" lon="6.00931">
        <ele>1592.2</ele>
        <time>2021-12-19T08:10:21Z</time>
      </trkpt>
      <trkpt lat="45.22232" lon="6.00936">
        <ele>1593.2</ele>
        <time>2021-12-19T08:10:25Z</time>
      </trkpt>
      <trkpt lat="45.22232" lon="6.00937">
        <ele>1593.4</ele>
        <time>2021-12-19T08:10:26Z</time>
      </trkpt>
      <trkpt lat="45.22234" lon="6.00941">
        <ele>1594.8</ele>
        <time>2021-12-19T08:10:30Z</time>
      </trkpt>
      <trkpt lat="45.22234" lon="6.00945">
        <ele>1595.6</ele>
        <time>2021-12-19T08:10:33Z</time>
      </trkpt>
      <trkpt lat="45.22234" lon="6.00946">
        <ele>1596</ele>
        <time>2021-12-19T08:10:34Z</time>
      </trkpt>
      <trkpt lat="45.22236" lon="6.00951">
        <ele>1597.2</ele>
        <time>2021-12-19T08:10:38Z</time>
      </trkpt>
      <trkpt lat="45.22236" lon="6.00952">
        <ele>1597.4</ele>
        <time>2021-12-19T08:10:39Z</time>
      </trkpt>
      <trkpt lat="45.22234" lon="6.00956">
        <ele>1598.4</ele>
        <time>2021-12-19T08:10:42Z</time>
      </trkpt>
      <trkpt lat="45.22234" lon="6.00958">
        <ele>1599.2</ele>
        <time>2021-12-19T08:10:45Z</time>
      </trkpt>
      <trkpt lat="45.22234" lon="6.0096">
        <ele>1600</ele>
        <time>2021-12-19T08:10:47Z</time>
      </trkpt>
      <trkpt lat="45.22233" lon="6.00966">
        <ele>1601</ele>
        <time>2021-12-19T08:10:51Z</time>
      </trkpt>
      <trkpt lat="45.22233" lon="6.00974">
        <ele>1602</ele>
        <time>2021-12-19T08:10:56Z</time>
      </trkpt>
      <trkpt lat="45.22232" lon="6.00975">
        <ele>1602.2</ele>
        <time>2021-12-19T08:10:57Z</time>
      </trkpt>
      <trkpt lat="45.22232" lon="6.00977">
        <ele>1602.6</ele>
        <time>2021-12-19T08:10:58Z</time>
      </trkpt>
      <trkpt lat="45.22231" lon="6.0098">
        <ele>1603.2</ele>
        <time>2021-12-19T08:11:00Z</time>
      </trkpt>
      <trkpt lat="45.22231" lon="6.00986">
        <ele>1604.4</ele>
        <time>2021-12-19T08:11:05Z</time>
      </trkpt>
      <trkpt lat="45.22232" lon="6.00987">
        <ele>1604.6</ele>
        <time>2021-12-19T08:11:06Z</time>
      </trkpt>
      <trkpt lat="45.22233" lon="6.00995">
        <ele>1605.6</ele>
        <time>2021-12-19T08:11:11Z</time>
      </trkpt>
      <trkpt lat="45.22233" lon="6.00997">
        <ele>1605.8</ele>
        <time>2021-12-19T08:11:12Z</time>
      </trkpt>
      <trkpt lat="45.22235" lon="6.01004">
        <ele>1606.6</ele>
        <time>2021-12-19T08:11:16Z</time>
      </trkpt>
      <trkpt lat="45.22236" lon="6.01013">
        <ele>1607.8</ele>
        <time>2021-12-19T08:11:21Z</time>
      </trkpt>
      <trkpt lat="45.22237" lon="6.01016">
        <ele>1608.2</ele>
        <time>2021-12-19T08:11:23Z</time>
      </trkpt>
      <trkpt lat="45.22236" lon="6.01023">
        <ele>1609</ele>
        <time>2021-12-19T08:11:27Z</time>
      </trkpt>
      <trkpt lat="45.22236" lon="6.01025">
        <ele>1609.2</ele>
        <time>2021-12-19T08:11:28Z</time>
      </trkpt>
      <trkpt lat="45.22236" lon="6.01028">
        <ele>1610.2</ele>
        <time>2021-12-19T08:11:31Z</time>
      </trkpt>
      <trkpt lat="45.22234" lon="6.01036">
        <ele>1611.4</ele>
        <time>2021-12-19T08:11:36Z</time>
      </trkpt>
      <trkpt lat="45.22234" lon="6.0104">
        <ele>1611.8</ele>
        <time>2021-12-19T08:11:38Z</time>
      </trkpt>
      <trkpt lat="45.22235" lon="6.01043">
        <ele>1612.2</ele>
        <time>2021-12-19T08:11:40Z</time>
      </trkpt>
      <trkpt lat="45.22235" lon="6.01045">
        <ele>1612.6</ele>
        <time>2021-12-19T08:11:41Z</time>
      </trkpt>
      <trkpt lat="45.22236" lon="6.0105">
        <ele>1613.2</ele>
        <time>2021-12-19T08:11:44Z</time>
      </trkpt>
      <trkpt lat="45.22237" lon="6.01055">
        <ele>1613.6</ele>
        <time>2021-12-19T08:11:47Z</time>
      </trkpt>
      <trkpt lat="45.22234" lon="6.01062">
        <ele>1614.8</ele>
        <time>2021-12-19T08:11:51Z</time>
      </trkpt>
      <trkpt lat="45.22234" lon="6.01063">
        <ele>1615</ele>
        <time>2021-12-19T08:11:52Z</time>
      </trkpt>
      <trkpt lat="45.22233" lon="6.01068">
        <ele>1615.8</ele>
        <time>2021-12-19T08:11:55Z</time>
      </trkpt>
      <trkpt lat="45.22234" lon="6.0107">
        <ele>1616</ele>
        <time>2021-12-19T08:11:56Z</time>
      </trkpt>
      <trkpt lat="45.22233" lon="6.01074">
        <ele>1616.4</ele>
        <time>2021-12-19T08:11:59Z</time>
      </trkpt>
      <trkpt lat="45.22233" lon="6.01078">
        <ele>1616.8</ele>
        <time>2021-12-19T08:12:01Z</time>
      </trkpt>
      <trkpt lat="45.22233" lon="6.01084">
        <ele>1617.8</ele>
        <time>2021-12-19T08:12:05Z</time>
      </trkpt>
      <trkpt lat="45.22233" lon="6.01085">
        <ele>1618.2</ele>
        <time>2021-12-19T08:12:06Z</time>
      </trkpt>
      <trkpt lat="45.22233" lon="6.01087">
        <ele>1618.4</ele>
        <time>2021-12-19T08:12:07Z</time>
      </trkpt>
      <trkpt lat="45.22233" lon="6.01089">
        <ele>1619.2</ele>
        <time>2021-12-19T08:12:09Z</time>
      </trkpt>
      <trkpt lat="45.22235" lon="6.01094">
        <ele>1620.2</ele>
        <time>2021-12-19T08:12:13Z</time>
      </trkpt>
      <trkpt lat="45.2224" lon="6.01104">
        <ele>1621.6</ele>
        <time>2021-12-19T08:12:19Z</time>
      </trkpt>
      <trkpt lat="45.22241" lon="6.01109">
        <ele>1622.8</ele>
        <time>2021-12-19T08:12:22Z</time>
      </trkpt>
      <trkpt lat="45.22242" lon="6.01112">
        <ele>1623.2</ele>
        <time>2021-12-19T08:12:24Z</time>
      </trkpt>
      <trkpt lat="45.22241" lon="6.01116">
        <ele>1623.8</ele>
        <time>2021-12-19T08:12:27Z</time>
      </trkpt>
      <trkpt lat="45.22243" lon="6.01123">
        <ele>1624.8</ele>
        <time>2021-12-19T08:12:31Z</time>
      </trkpt>
      <trkpt lat="45.22243" lon="6.01125">
        <ele>1625</ele>
        <time>2021-12-19T08:12:32Z</time>
      </trkpt>
      <trkpt lat="45.22245" lon="6.01133">
        <ele>1626.2</ele>
        <time>2021-12-19T08:12:37Z</time>
      </trkpt>
      <trkpt lat="45.22247" lon="6.01139">
        <ele>1627.2</ele>
        <time>2021-12-19T08:12:41Z</time>
      </trkpt>
      <trkpt lat="45.22248" lon="6.01146">
        <ele>1628.2</ele>
        <time>2021-12-19T08:12:46Z</time>
      </trkpt>
      <trkpt lat="45.22248" lon="6.01147">
        <ele>1628.4</ele>
        <time>2021-12-19T08:12:47Z</time>
      </trkpt>
      <trkpt lat="45.22249" lon="6.01151">
        <ele>1628.8</ele>
        <time>2021-12-19T08:12:50Z</time>
      </trkpt>
      <trkpt lat="45.2225" lon="6.01154">
        <ele>1629.6</ele>
        <time>2021-12-19T08:12:53Z</time>
      </trkpt>
      <trkpt lat="45.22253" lon="6.0116">
        <ele>1631</ele>
        <time>2021-12-19T08:12:57Z</time>
      </trkpt>
      <trkpt lat="45.22254" lon="6.01163">
        <ele>1631.4</ele>
        <time>2021-12-19T08:12:59Z</time>
      </trkpt>
      <trkpt lat="45.22254" lon="6.01166">
        <ele>1632.2</ele>
        <time>2021-12-19T08:13:02Z</time>
      </trkpt>
      <trkpt lat="45.22255" lon="6.01169">
        <ele>1632.6</ele>
        <time>2021-12-19T08:13:05Z</time>
      </trkpt>
      <trkpt lat="45.22256" lon="6.01172">
        <ele>1633.4</ele>
        <time>2021-12-19T08:13:07Z</time>
      </trkpt>
      <trkpt lat="45.22257" lon="6.01173">
        <ele>1633.8</ele>
        <time>2021-12-19T08:13:09Z</time>
      </trkpt>
      <trkpt lat="45.22257" lon="6.01175">
        <ele>1634.2</ele>
        <time>2021-12-19T08:13:12Z</time>
      </trkpt>
      <trkpt lat="45.22257" lon="6.01176">
        <ele>1634.4</ele>
        <time>2021-12-19T08:13:13Z</time>
      </trkpt>
      <trkpt lat="45.22259" lon="6.01183">
        <ele>1635.6</ele>
        <time>2021-12-19T08:13:18Z</time>
      </trkpt>
      <trkpt lat="45.22259" lon="6.01191">
        <ele>1636.6</ele>
        <time>2021-12-19T08:13:24Z</time>
      </trkpt>
      <trkpt lat="45.22259" lon="6.01192">
        <ele>1636.8</ele>
        <time>2021-12-19T08:13:25Z</time>
      </trkpt>
      <trkpt lat="45.22259" lon="6.01202">
        <ele>1637.8</ele>
        <time>2021-12-19T08:13:30Z</time>
      </trkpt>
      <trkpt lat="45.22258" lon="6.01205">
        <ele>1638.2</ele>
        <time>2021-12-19T08:13:33Z</time>
      </trkpt>
      <trkpt lat="45.22256" lon="6.01209">
        <ele>1639</ele>
        <time>2021-12-19T08:13:36Z</time>
      </trkpt>
      <trkpt lat="45.22252" lon="6.01213">
        <ele>1640.2</ele>
        <time>2021-12-19T08:13:40Z</time>
      </trkpt>
      <trkpt lat="45.22246" lon="6.01218">
        <ele>1641.4</ele>
        <time>2021-12-19T08:13:45Z</time>
      </trkpt>
      <trkpt lat="45.22244" lon="6.0122">
        <ele>1641.6</ele>
        <time>2021-12-19T08:13:47Z</time>
      </trkpt>
      <trkpt lat="45.22243" lon="6.01225">
        <ele>1642.6</ele>
        <time>2021-12-19T08:13:50Z</time>
      </trkpt>
      <trkpt lat="45.22241" lon="6.01232">
        <ele>1643.8</ele>
        <time>2021-12-19T08:13:54Z</time>
      </trkpt>
      <trkpt lat="45.2224" lon="6.01234">
        <ele>1644.2</ele>
        <time>2021-12-19T08:13:56Z</time>
      </trkpt>
      <trkpt lat="45.22239" lon="6.01238">
        <ele>1644.8</ele>
        <time>2021-12-19T08:13:58Z</time>
      </trkpt>
      <trkpt lat="45.22239" lon="6.01244">
        <ele>1646</ele>
        <time>2021-12-19T08:14:02Z</time>
      </trkpt>
      <trkpt lat="45.22239" lon="6.01252">
        <ele>1647</ele>
        <time>2021-12-19T08:14:06Z</time>
      </trkpt>
      <trkpt lat="45.22237" lon="6.01257">
        <ele>1648.2</ele>
        <time>2021-12-19T08:14:09Z</time>
      </trkpt>
      <trkpt lat="45.22236" lon="6.01261">
        <ele>1648.6</ele>
        <time>2021-12-19T08:14:11Z</time>
      </trkpt>
      <trkpt lat="45.22235" lon="6.01264">
        <ele>1649.6</ele>
        <time>2021-12-19T08:14:13Z</time>
      </trkpt>
      <trkpt lat="45.22235" lon="6.01266">
        <ele>1650.4</ele>
        <time>2021-12-19T08:14:15Z</time>
      </trkpt>
      <trkpt lat="45.22235" lon="6.01268">
        <ele>1650.6</ele>
        <time>2021-12-19T08:14:16Z</time>
      </trkpt>
      <trkpt lat="45.22234" lon="6.01273">
        <ele>1651.2</ele>
        <time>2021-12-19T08:14:19Z</time>
      </trkpt>
      <trkpt lat="45.22234" lon="6.01275">
        <ele>1651.8</ele>
        <time>2021-12-19T08:14:21Z</time>
      </trkpt>
      <trkpt lat="45.22236" lon="6.01279">
        <ele>1653</ele>
        <time>2021-12-19T08:14:24Z</time>
      </trkpt>
      <trkpt lat="45.22236" lon="6.01284">
        <ele>1654.2</ele>
        <time>2021-12-19T08:14:27Z</time>
      </trkpt>
      <trkpt lat="45.22237" lon="6.01285">
        <ele>1654.6</ele>
        <time>2021-12-19T08:14:28Z</time>
      </trkpt>
      <trkpt lat="45.22237" lon="6.0129">
        <ele>1655.4</ele>
        <time>2021-12-19T08:14:31Z</time>
      </trkpt>
      <trkpt lat="45.22239" lon="6.01295">
        <ele>1656.6</ele>
        <time>2021-12-19T08:14:35Z</time>
      </trkpt>
      <trkpt lat="45.2224" lon="6.01297">
        <ele>1657</ele>
        <time>2021-12-19T08:14:36Z</time>
      </trkpt>
      <trkpt lat="45.22241" lon="6.01298">
        <ele>1657</ele>
        <time>2021-12-19T08:14:37Z</time>
      </trkpt>
      <trkpt lat="45.22242" lon="6.01299">
        <ele>1657.8</ele>
        <time>2021-12-19T08:14:39Z</time>
      </trkpt>
      <trkpt lat="45.22244" lon="6.013">
        <ele>1658.2</ele>
        <time>2021-12-19T08:14:41Z</time>
      </trkpt>
      <trkpt lat="45.22246" lon="6.01301">
        <ele>1659</ele>
        <time>2021-12-19T08:14:43Z</time>
      </trkpt>
      <trkpt lat="45.22248" lon="6.01304">
        <ele>1660</ele>
        <time>2021-12-19T08:14:46Z</time>
      </trkpt>
      <trkpt lat="45.22249" lon="6.01305">
        <ele>1660.6</ele>
        <time>2021-12-19T08:14:48Z</time>
      </trkpt>
      <trkpt lat="45.2225" lon="6.01306">
        <ele>1660.8</ele>
        <time>2021-12-19T08:14:49Z</time>
      </trkpt>
      <trkpt lat="45.22251" lon="6.01307">
        <ele>1661.2</ele>
        <time>2021-12-19T08:14:50Z</time>
      </trkpt>
      <trkpt lat="45.22253" lon="6.01306">
        <ele>1662.2</ele>
        <time>2021-12-19T08:14:54Z</time>
      </trkpt>
      <trkpt lat="45.22254" lon="6.01305">
        <ele>1662.8</ele>
        <time>2021-12-19T08:14:56Z</time>
      </trkpt>
      <trkpt lat="45.22256" lon="6.01299">
        <ele>1663.4</ele>
        <time>2021-12-19T08:14:59Z</time>
      </trkpt>
      <trkpt lat="45.22257" lon="6.01296">
        <ele>1664.4</ele>
        <time>2021-12-19T08:15:02Z</time>
      </trkpt>
      <trkpt lat="45.22257" lon="6.01296">
        <ele>1664.6</ele>
        <time>2021-12-19T08:15:03Z</time>
      </trkpt>
      <trkpt lat="45.22258" lon="6.01295">
        <ele>1664.8</ele>
        <time>2021-12-19T08:15:04Z</time>
      </trkpt>
      <trkpt lat="45.22259" lon="6.01295">
        <ele>1664.8</ele>
        <time>2021-12-19T08:15:05Z</time>
      </trkpt>
      <trkpt lat="45.22263" lon="6.01297">
        <ele>1665.8</ele>
        <time>2021-12-19T08:15:08Z</time>
      </trkpt>
      <trkpt lat="45.22265" lon="6.01298">
        <ele>1666.2</ele>
        <time>2021-12-19T08:15:10Z</time>
      </trkpt>
      <trkpt lat="45.22267" lon="6.01299">
        <ele>1666.8</ele>
        <time>2021-12-19T08:15:12Z</time>
      </trkpt>
      <trkpt lat="45.22272" lon="6.01299">
        <ele>1667.6</ele>
        <time>2021-12-19T08:15:16Z</time>
      </trkpt>
      <trkpt lat="45.22275" lon="6.01299">
        <ele>1668.2</ele>
        <time>2021-12-19T08:15:18Z</time>
      </trkpt>
      <trkpt lat="45.22279" lon="6.01299">
        <ele>1669.2</ele>
        <time>2021-12-19T08:15:23Z</time>
      </trkpt>
      <trkpt lat="45.2228" lon="6.01302">
        <ele>1669.6</ele>
        <time>2021-12-19T08:15:25Z</time>
      </trkpt>
      <trkpt lat="45.2228" lon="6.01308">
        <ele>1670.6</ele>
        <time>2021-12-19T08:15:28Z</time>
      </trkpt>
      <trkpt lat="45.22279" lon="6.01308">
        <ele>1671</ele>
        <time>2021-12-19T08:15:29Z</time>
      </trkpt>
      <trkpt lat="45.22279" lon="6.01309">
        <ele>1671.2</ele>
        <time>2021-12-19T08:15:30Z</time>
      </trkpt>
      <trkpt lat="45.22278" lon="6.01313">
        <ele>1671.6</ele>
        <time>2021-12-19T08:15:32Z</time>
      </trkpt>
      <trkpt lat="45.22278" lon="6.01317">
        <ele>1672.8</ele>
        <time>2021-12-19T08:15:35Z</time>
      </trkpt>
      <trkpt lat="45.22277" lon="6.01321">
        <ele>1673.2</ele>
        <time>2021-12-19T08:15:37Z</time>
      </trkpt>
      <trkpt lat="45.22278" lon="6.01327">
        <ele>1674</ele>
        <time>2021-12-19T08:15:40Z</time>
      </trkpt>
      <trkpt lat="45.22279" lon="6.01333">
        <ele>1674.8</ele>
        <time>2021-12-19T08:15:44Z</time>
      </trkpt>
      <trkpt lat="45.22278" lon="6.01334">
        <ele>1675.2</ele>
        <time>2021-12-19T08:15:45Z</time>
      </trkpt>
      <trkpt lat="45.22278" lon="6.01336">
        <ele>1675.6</ele>
        <time>2021-12-19T08:15:46Z</time>
      </trkpt>
      <trkpt lat="45.22276" lon="6.01341">
        <ele>1676.2</ele>
        <time>2021-12-19T08:15:50Z</time>
      </trkpt>
      <trkpt lat="45.22276" lon="6.01342">
        <ele>1676.4</ele>
        <time>2021-12-19T08:15:51Z</time>
      </trkpt>
      <trkpt lat="45.22274" lon="6.01354">
        <ele>1677.2</ele>
        <time>2021-12-19T08:15:57Z</time>
      </trkpt>
      <trkpt lat="45.22273" lon="6.01359">
        <ele>1677.6</ele>
        <time>2021-12-19T08:15:59Z</time>
      </trkpt>
      <trkpt lat="45.22269" lon="6.01364">
        <ele>1678.2</ele>
        <time>2021-12-19T08:16:03Z</time>
      </trkpt>
      <trkpt lat="45.22265" lon="6.01369">
        <ele>1679.4</ele>
        <time>2021-12-19T08:16:07Z</time>
      </trkpt>
      <trkpt lat="45.22261" lon="6.01375">
        <ele>1680.4</ele>
        <time>2021-12-19T08:16:12Z</time>
      </trkpt>
      <trkpt lat="45.22261" lon="6.01375">
        <ele>1680.8</ele>
        <time>2021-12-19T08:16:13Z</time>
      </trkpt>
      <trkpt lat="45.22258" lon="6.01377">
        <ele>1681.4</ele>
        <time>2021-12-19T08:16:16Z</time>
      </trkpt>
      <trkpt lat="45.22255" lon="6.01378">
        <ele>1681.8</ele>
        <time>2021-12-19T08:16:18Z</time>
      </trkpt>
      <trkpt lat="45.22253" lon="6.01379">
        <ele>1682.6</ele>
        <time>2021-12-19T08:16:20Z</time>
      </trkpt>
      <trkpt lat="45.22249" lon="6.01382">
        <ele>1683.8</ele>
        <time>2021-12-19T08:16:25Z</time>
      </trkpt>
      <trkpt lat="45.22241" lon="6.01387">
        <ele>1684.8</ele>
        <time>2021-12-19T08:16:31Z</time>
      </trkpt>
      <trkpt lat="45.22239" lon="6.01389">
        <ele>1685.2</ele>
        <time>2021-12-19T08:16:33Z</time>
      </trkpt>
      <trkpt lat="45.22238" lon="6.01391">
        <ele>1685.4</ele>
        <time>2021-12-19T08:16:35Z</time>
      </trkpt>
      <trkpt lat="45.22238" lon="6.01394">
        <ele>1686</ele>
        <time>2021-12-19T08:16:37Z</time>
      </trkpt>
      <trkpt lat="45.22237" lon="6.01395">
        <ele>1686.4</ele>
        <time>2021-12-19T08:16:38Z</time>
      </trkpt>
      <trkpt lat="45.22235" lon="6.014">
        <ele>1687</ele>
        <time>2021-12-19T08:16:41Z</time>
      </trkpt>
      <trkpt lat="45.22234" lon="6.01406">
        <ele>1688</ele>
        <time>2021-12-19T08:16:45Z</time>
      </trkpt>
      <trkpt lat="45.22232" lon="6.01412">
        <ele>1689.4</ele>
        <time>2021-12-19T08:16:49Z</time>
      </trkpt>
      <trkpt lat="45.22231" lon="6.01416">
        <ele>1690</ele>
        <time>2021-12-19T08:16:52Z</time>
      </trkpt>
      <trkpt lat="45.2223" lon="6.01419">
        <ele>1690.6</ele>
        <time>2021-12-19T08:16:54Z</time>
      </trkpt>
      <trkpt lat="45.22231" lon="6.0142">
        <ele>1690.8</ele>
        <time>2021-12-19T08:16:55Z</time>
      </trkpt>
      <trkpt lat="45.22231" lon="6.01426">
        <ele>1691.8</ele>
        <time>2021-12-19T08:16:58Z</time>
      </trkpt>
      <trkpt lat="45.22231" lon="6.01429">
        <ele>1692</ele>
        <time>2021-12-19T08:17:00Z</time>
      </trkpt>
      <trkpt lat="45.22233" lon="6.01437">
        <ele>1692.8</ele>
        <time>2021-12-19T08:17:05Z</time>
      </trkpt>
      <trkpt lat="45.22233" lon="6.01438">
        <ele>1692.8</ele>
        <time>2021-12-19T08:17:06Z</time>
      </trkpt>
      <trkpt lat="45.22234" lon="6.0144">
        <ele>1692.8</ele>
        <time>2021-12-19T08:17:07Z</time>
      </trkpt>
      <trkpt lat="45.22235" lon="6.01448">
        <ele>1693</ele>
        <time>2021-12-19T08:17:11Z</time>
      </trkpt>
      <trkpt lat="45.22235" lon="6.01451">
        <ele>1693</ele>
        <time>2021-12-19T08:17:13Z</time>
      </trkpt>
      <trkpt lat="45.22235" lon="6.01457">
        <ele>1693.4</ele>
        <time>2021-12-19T08:17:17Z</time>
      </trkpt>
      <trkpt lat="45.22235" lon="6.01463">
        <ele>1693.8</ele>
        <time>2021-12-19T08:17:20Z</time>
      </trkpt>
      <trkpt lat="45.22235" lon="6.01465">
        <ele>1693.8</ele>
        <time>2021-12-19T08:17:21Z</time>
      </trkpt>
      <trkpt lat="45.22235" lon="6.01467">
        <ele>1694</ele>
        <time>2021-12-19T08:17:22Z</time>
      </trkpt>
      <trkpt lat="45.22237" lon="6.01471">
        <ele>1694.4</ele>
        <time>2021-12-19T08:17:25Z</time>
      </trkpt>
      <trkpt lat="45.22237" lon="6.01477">
        <ele>1694.8</ele>
        <time>2021-12-19T08:17:30Z</time>
      </trkpt>
      <trkpt lat="45.22237" lon="6.0148">
        <ele>1695</ele>
        <time>2021-12-19T08:17:31Z</time>
      </trkpt>
      <trkpt lat="45.22238" lon="6.01488">
        <ele>1695.2</ele>
        <time>2021-12-19T08:17:35Z</time>
      </trkpt>
      <trkpt lat="45.22241" lon="6.01497">
        <ele>1695.4</ele>
        <time>2021-12-19T08:17:39Z</time>
      </trkpt>
      <trkpt lat="45.22243" lon="6.01511">
        <ele>1695.6</ele>
        <time>2021-12-19T08:17:45Z</time>
      </trkpt>
      <trkpt lat="45.22247" lon="6.0153">
        <ele>1695.4</ele>
        <time>2021-12-19T08:17:54Z</time>
      </trkpt>
      <trkpt lat="45.22252" lon="6.01546">
        <ele>1695.6</ele>
        <time>2021-12-19T08:18:02Z</time>
      </trkpt>
      <trkpt lat="45.22252" lon="6.01548">
        <ele>1695.6</ele>
        <time>2021-12-19T08:18:03Z</time>
      </trkpt>
      <trkpt lat="45.22254" lon="6.01555">
        <ele>1695.6</ele>
        <time>2021-12-19T08:18:07Z</time>
      </trkpt>
      <trkpt lat="45.22254" lon="6.01565">
        <ele>1695.8</ele>
        <time>2021-12-19T08:18:13Z</time>
      </trkpt>
      <trkpt lat="45.22255" lon="6.01566">
        <ele>1695.8</ele>
        <time>2021-12-19T08:18:14Z</time>
      </trkpt>
      <trkpt lat="45.22256" lon="6.01575">
        <ele>1696</ele>
        <time>2021-12-19T08:18:19Z</time>
      </trkpt>
      <trkpt lat="45.22257" lon="6.01577">
        <ele>1696</ele>
        <time>2021-12-19T08:18:20Z</time>
      </trkpt>
      <trkpt lat="45.22259" lon="6.01597">
        <ele>1696.6</ele>
        <time>2021-12-19T08:18:28Z</time>
      </trkpt>
      <trkpt lat="45.22259" lon="6.01617">
        <ele>1696.2</ele>
        <time>2021-12-19T08:18:36Z</time>
      </trkpt>
      <trkpt lat="45.2226" lon="6.01634">
        <ele>1695.8</ele>
        <time>2021-12-19T08:18:43Z</time>
      </trkpt>
      <trkpt lat="45.22261" lon="6.01647">
        <ele>1695</ele>
        <time>2021-12-19T08:18:47Z</time>
      </trkpt>
      <trkpt lat="45.22262" lon="6.01659">
        <ele>1694.4</ele>
        <time>2021-12-19T08:18:51Z</time>
      </trkpt>
      <trkpt lat="45.22263" lon="6.01671">
        <ele>1693.8</ele>
        <time>2021-12-19T08:18:55Z</time>
      </trkpt>
      <trkpt lat="45.22262" lon="6.01682">
        <ele>1693.4</ele>
        <time>2021-12-19T08:18:59Z</time>
      </trkpt>
      <trkpt lat="45.22264" lon="6.01697">
        <ele>1692.8</ele>
        <time>2021-12-19T08:19:05Z</time>
      </trkpt>
      <trkpt lat="45.22265" lon="6.0171">
        <ele>1692.8</ele>
        <time>2021-12-19T08:19:11Z</time>
      </trkpt>
      <trkpt lat="45.22265" lon="6.0173">
        <ele>1692.8</ele>
        <time>2021-12-19T08:19:19Z</time>
      </trkpt>
      <trkpt lat="45.22264" lon="6.01749">
        <ele>1692</ele>
        <time>2021-12-19T08:19:27Z</time>
      </trkpt>
      <trkpt lat="45.22264" lon="6.01753">
        <ele>1692.4</ele>
        <time>2021-12-19T08:19:30Z</time>
      </trkpt>
      <trkpt lat="45.22264" lon="6.01758">
        <ele>1692.8</ele>
        <time>2021-12-19T08:19:33Z</time>
      </trkpt>
      <trkpt lat="45.22265" lon="6.01761">
        <ele>1693</ele>
        <time>2021-12-19T08:19:35Z</time>
      </trkpt>
      <trkpt lat="45.22265" lon="6.01768">
        <ele>1693.4</ele>
        <time>2021-12-19T08:19:39Z</time>
      </trkpt>
      <trkpt lat="45.22264" lon="6.0177">
        <ele>1694</ele>
        <time>2021-12-19T08:19:41Z</time>
      </trkpt>
      <trkpt lat="45.22265" lon="6.01773">
        <ele>1695.2</ele>
        <time>2021-12-19T08:19:44Z</time>
      </trkpt>
      <trkpt lat="45.22266" lon="6.01775">
        <ele>1695.8</ele>
        <time>2021-12-19T08:19:46Z</time>
      </trkpt>
      <trkpt lat="45.22267" lon="6.01777">
        <ele>1696.4</ele>
        <time>2021-12-19T08:19:48Z</time>
      </trkpt>
      <trkpt lat="45.22269" lon="6.01781">
        <ele>1697.6</ele>
        <time>2021-12-19T08:19:52Z</time>
      </trkpt>
      <trkpt lat="45.22269" lon="6.01782">
        <ele>1697.8</ele>
        <time>2021-12-19T08:19:53Z</time>
      </trkpt>
      <trkpt lat="45.2227" lon="6.01785">
        <ele>1698.6</ele>
        <time>2021-12-19T08:19:56Z</time>
      </trkpt>
      <trkpt lat="45.22272" lon="6.01792">
        <ele>1699.8</ele>
        <time>2021-12-19T08:20:01Z</time>
      </trkpt>
      <trkpt lat="45.22273" lon="6.01797">
        <ele>1700.8</ele>
        <time>2021-12-19T08:20:05Z</time>
      </trkpt>
      <trkpt lat="45.22272" lon="6.018">
        <ele>1701.4</ele>
        <time>2021-12-19T08:20:07Z</time>
      </trkpt>
      <trkpt lat="45.22271" lon="6.01802">
        <ele>1702.2</ele>
        <time>2021-12-19T08:20:09Z</time>
      </trkpt>
      <trkpt lat="45.22271" lon="6.01804">
        <ele>1702.2</ele>
        <time>2021-12-19T08:20:10Z</time>
      </trkpt>
      <trkpt lat="45.22271" lon="6.01808">
        <ele>1703.2</ele>
        <time>2021-12-19T08:20:13Z</time>
      </trkpt>
      <trkpt lat="45.2227" lon="6.01815">
        <ele>1704.2</ele>
        <time>2021-12-19T08:20:18Z</time>
      </trkpt>
      <trkpt lat="45.2227" lon="6.01819">
        <ele>1705.6</ele>
        <time>2021-12-19T08:20:22Z</time>
      </trkpt>
      <trkpt lat="45.22269" lon="6.01822">
        <ele>1706.4</ele>
        <time>2021-12-19T08:20:24Z</time>
      </trkpt>
      <trkpt lat="45.22268" lon="6.01823">
        <ele>1706.8</ele>
        <time>2021-12-19T08:20:26Z</time>
      </trkpt>
      <trkpt lat="45.22265" lon="6.01825">
        <ele>1708</ele>
        <time>2021-12-19T08:20:30Z</time>
      </trkpt>
      <trkpt lat="45.22265" lon="6.01826">
        <ele>1708.2</ele>
        <time>2021-12-19T08:20:31Z</time>
      </trkpt>
      <trkpt lat="45.22263" lon="6.01828">
        <ele>1709.2</ele>
        <time>2021-12-19T08:20:34Z</time>
      </trkpt>
      <trkpt lat="45.22262" lon="6.01831">
        <ele>1709.6</ele>
        <time>2021-12-19T08:20:37Z</time>
      </trkpt>
      <trkpt lat="45.22261" lon="6.01834">
        <ele>1710</ele>
        <time>2021-12-19T08:20:39Z</time>
      </trkpt>
      <trkpt lat="45.2226" lon="6.01837">
        <ele>1710.2</ele>
        <time>2021-12-19T08:20:41Z</time>
      </trkpt>
      <trkpt lat="45.22257" lon="6.01844">
        <ele>1710.8</ele>
        <time>2021-12-19T08:20:46Z</time>
      </trkpt>
      <trkpt lat="45.22256" lon="6.0185">
        <ele>1711.2</ele>
        <time>2021-12-19T08:20:50Z</time>
      </trkpt>
      <trkpt lat="45.22256" lon="6.01857">
        <ele>1711.4</ele>
        <time>2021-12-19T08:20:54Z</time>
      </trkpt>
      <trkpt lat="45.22257" lon="6.01875">
        <ele>1712.2</ele>
        <time>2021-12-19T08:21:04Z</time>
      </trkpt>
      <trkpt lat="45.22257" lon="6.01879">
        <ele>1712.4</ele>
        <time>2021-12-19T08:21:06Z</time>
      </trkpt>
      <trkpt lat="45.22255" lon="6.01891">
        <ele>1713</ele>
        <time>2021-12-19T08:21:13Z</time>
      </trkpt>
      <trkpt lat="45.22255" lon="6.01896">
        <ele>1713.4</ele>
        <time>2021-12-19T08:21:16Z</time>
      </trkpt>
      <trkpt lat="45.22254" lon="6.01911">
        <ele>1714.2</ele>
        <time>2021-12-19T08:21:24Z</time>
      </trkpt>
      <trkpt lat="45.22254" lon="6.01913">
        <ele>1714.4</ele>
        <time>2021-12-19T08:21:25Z</time>
      </trkpt>
      <trkpt lat="45.22253" lon="6.01925">
        <ele>1715.2</ele>
        <time>2021-12-19T08:21:32Z</time>
      </trkpt>
      <trkpt lat="45.22253" lon="6.01929">
        <ele>1715.4</ele>
        <time>2021-12-19T08:21:34Z</time>
      </trkpt>
      <trkpt lat="45.22252" lon="6.0194">
        <ele>1716.2</ele>
        <time>2021-12-19T08:21:40Z</time>
      </trkpt>
      <trkpt lat="45.22251" lon="6.01946">
        <ele>1716.2</ele>
        <time>2021-12-19T08:21:43Z</time>
      </trkpt>
      <trkpt lat="45.22251" lon="6.01948">
        <ele>1716.6</ele>
        <time>2021-12-19T08:21:44Z</time>
      </trkpt>
      <trkpt lat="45.22249" lon="6.01963">
        <ele>1717.4</ele>
        <time>2021-12-19T08:21:52Z</time>
      </trkpt>
      <trkpt lat="45.22247" lon="6.01975">
        <ele>1717.4</ele>
        <time>2021-12-19T08:21:58Z</time>
      </trkpt>
      <trkpt lat="45.22248" lon="6.01977">
        <ele>1717.4</ele>
        <time>2021-12-19T08:21:59Z</time>
      </trkpt>
      <trkpt lat="45.22248" lon="6.01979">
        <ele>1717.8</ele>
        <time>2021-12-19T08:22:00Z</time>
      </trkpt>
      <trkpt lat="45.22249" lon="6.01988">
        <ele>1719</ele>
        <time>2021-12-19T08:22:06Z</time>
      </trkpt>
      <trkpt lat="45.2225" lon="6.01991">
        <ele>1719.2</ele>
        <time>2021-12-19T08:22:08Z</time>
      </trkpt>
      <trkpt lat="45.22251" lon="6.01992">
        <ele>1719.4</ele>
        <time>2021-12-19T08:22:09Z</time>
      </trkpt>
      <trkpt lat="45.22252" lon="6.01994">
        <ele>1719.6</ele>
        <time>2021-12-19T08:22:10Z</time>
      </trkpt>
      <trkpt lat="45.22252" lon="6.01997">
        <ele>1720</ele>
        <time>2021-12-19T08:22:12Z</time>
      </trkpt>
      <trkpt lat="45.22253" lon="6.01999">
        <ele>1720.6</ele>
        <time>2021-12-19T08:22:13Z</time>
      </trkpt>
      <trkpt lat="45.22253" lon="6.02001">
        <ele>1720.8</ele>
        <time>2021-12-19T08:22:14Z</time>
      </trkpt>
      <trkpt lat="45.22254" lon="6.02004">
        <ele>1721.2</ele>
        <time>2021-12-19T08:22:16Z</time>
      </trkpt>
      <trkpt lat="45.22255" lon="6.02011">
        <ele>1722.4</ele>
        <time>2021-12-19T08:22:20Z</time>
      </trkpt>
      <trkpt lat="45.22255" lon="6.02013">
        <ele>1722.8</ele>
        <time>2021-12-19T08:22:22Z</time>
      </trkpt>
      <trkpt lat="45.22255" lon="6.02017">
        <ele>1723.6</ele>
        <time>2021-12-19T08:22:25Z</time>
      </trkpt>
      <trkpt lat="45.22254" lon="6.02023">
        <ele>1724.6</ele>
        <time>2021-12-19T08:22:29Z</time>
      </trkpt>
      <trkpt lat="45.22254" lon="6.02025">
        <ele>1724.8</ele>
        <time>2021-12-19T08:22:30Z</time>
      </trkpt>
      <trkpt lat="45.22254" lon="6.02028">
        <ele>1725.2</ele>
        <time>2021-12-19T08:22:32Z</time>
      </trkpt>
      <trkpt lat="45.22255" lon="6.02031">
        <ele>1725.8</ele>
        <time>2021-12-19T08:22:35Z</time>
      </trkpt>
      <trkpt lat="45.22256" lon="6.02035">
        <ele>1726.6</ele>
        <time>2021-12-19T08:22:37Z</time>
      </trkpt>
      <trkpt lat="45.22256" lon="6.02036">
        <ele>1726.8</ele>
        <time>2021-12-19T08:22:38Z</time>
      </trkpt>
      <trkpt lat="45.22256" lon="6.02044">
        <ele>1728.2</ele>
        <time>2021-12-19T08:22:43Z</time>
      </trkpt>
      <trkpt lat="45.22255" lon="6.02048">
        <ele>1728.6</ele>
        <time>2021-12-19T08:22:46Z</time>
      </trkpt>
      <trkpt lat="45.22255" lon="6.0205">
        <ele>1728.8</ele>
        <time>2021-12-19T08:22:48Z</time>
      </trkpt>
      <trkpt lat="45.22255" lon="6.02051">
        <ele>1729.2</ele>
        <time>2021-12-19T08:22:49Z</time>
      </trkpt>
      <trkpt lat="45.22254" lon="6.02059">
        <ele>1730.2</ele>
        <time>2021-12-19T08:22:53Z</time>
      </trkpt>
      <trkpt lat="45.22252" lon="6.02064">
        <ele>1731.4</ele>
        <time>2021-12-19T08:22:57Z</time>
      </trkpt>
      <trkpt lat="45.2225" lon="6.02072">
        <ele>1732.8</ele>
        <time>2021-12-19T08:23:02Z</time>
      </trkpt>
      <trkpt lat="45.22249" lon="6.02078">
        <ele>1734</ele>
        <time>2021-12-19T08:23:07Z</time>
      </trkpt>
      <trkpt lat="45.22249" lon="6.02081">
        <ele>1735</ele>
        <time>2021-12-19T08:23:10Z</time>
      </trkpt>
      <trkpt lat="45.22249" lon="6.02082">
        <ele>1735.4</ele>
        <time>2021-12-19T08:23:11Z</time>
      </trkpt>
      <trkpt lat="45.22249" lon="6.02084">
        <ele>1736.2</ele>
        <time>2021-12-19T08:23:13Z</time>
      </trkpt>
      <trkpt lat="45.22249" lon="6.02087">
        <ele>1736.8</ele>
        <time>2021-12-19T08:23:16Z</time>
      </trkpt>
      <trkpt lat="45.22249" lon="6.02092">
        <ele>1737.2</ele>
        <time>2021-12-19T08:23:19Z</time>
      </trkpt>
      <trkpt lat="45.22249" lon="6.02094">
        <ele>1737.6</ele>
        <time>2021-12-19T08:23:21Z</time>
      </trkpt>
      <trkpt lat="45.2225" lon="6.02098">
        <ele>1738.2</ele>
        <time>2021-12-19T08:23:23Z</time>
      </trkpt>
      <trkpt lat="45.2225" lon="6.02099">
        <ele>1738.6</ele>
        <time>2021-12-19T08:23:24Z</time>
      </trkpt>
      <trkpt lat="45.22251" lon="6.02104">
        <ele>1739.2</ele>
        <time>2021-12-19T08:23:27Z</time>
      </trkpt>
      <trkpt lat="45.22251" lon="6.02112">
        <ele>1740.2</ele>
        <time>2021-12-19T08:23:33Z</time>
      </trkpt>
      <trkpt lat="45.22251" lon="6.02116">
        <ele>1740.6</ele>
        <time>2021-12-19T08:23:35Z</time>
      </trkpt>
      <trkpt lat="45.22254" lon="6.02117">
        <ele>1741</ele>
        <time>2021-12-19T08:23:40Z</time>
      </trkpt>
      <trkpt lat="45.22254" lon="6.02118">
        <ele>1740.6</ele>
        <time>2021-12-19T08:23:52Z</time>
      </trkpt>
      <trkpt lat="45.22253" lon="6.02125">
        <ele>1740.6</ele>
        <time>2021-12-19T08:24:47Z</time>
      </trkpt>
      <trkpt lat="45.22249" lon="6.02147">
        <ele>1741.4</ele>
        <time>2021-12-19T08:24:57Z</time>
      </trkpt>
      <trkpt lat="45.22248" lon="6.0215">
        <ele>1741.8</ele>
        <time>2021-12-19T08:24:59Z</time>
      </trkpt>
      <trkpt lat="45.22246" lon="6.02157">
        <ele>1742.8</ele>
        <time>2021-12-19T08:25:04Z</time>
      </trkpt>
      <trkpt lat="45.22245" lon="6.0216">
        <ele>1743.2</ele>
        <time>2021-12-19T08:25:06Z</time>
      </trkpt>
      <trkpt lat="45.22244" lon="6.02163">
        <ele>1743.8</ele>
        <time>2021-12-19T08:25:08Z</time>
      </trkpt>
      <trkpt lat="45.22246" lon="6.02169">
        <ele>1744.4</ele>
        <time>2021-12-19T08:25:12Z</time>
      </trkpt>
      <trkpt lat="45.22247" lon="6.0217">
        <ele>1744.6</ele>
        <time>2021-12-19T08:25:13Z</time>
      </trkpt>
      <trkpt lat="45.22248" lon="6.02171">
        <ele>1744.8</ele>
        <time>2021-12-19T08:25:14Z</time>
      </trkpt>
      <trkpt lat="45.22254" lon="6.02172">
        <ele>1745.6</ele>
        <time>2021-12-19T08:25:21Z</time>
      </trkpt>
      <trkpt lat="45.22255" lon="6.02171">
        <ele>1745.8</ele>
        <time>2021-12-19T08:25:22Z</time>
      </trkpt>
      <trkpt lat="45.22261" lon="6.02172">
        <ele>1747</ele>
        <time>2021-12-19T08:25:27Z</time>
      </trkpt>
      <trkpt lat="45.22264" lon="6.02172">
        <ele>1747.4</ele>
        <time>2021-12-19T08:25:29Z</time>
      </trkpt>
      <trkpt lat="45.2227" lon="6.0217">
        <ele>1748</ele>
        <time>2021-12-19T08:25:35Z</time>
      </trkpt>
      <trkpt lat="45.22273" lon="6.0217">
        <ele>1748.4</ele>
        <time>2021-12-19T08:25:37Z</time>
      </trkpt>
      <trkpt lat="45.22276" lon="6.0217">
        <ele>1748.8</ele>
        <time>2021-12-19T08:25:40Z</time>
      </trkpt>
      <trkpt lat="45.22279" lon="6.0217">
        <ele>1749.2</ele>
        <time>2021-12-19T08:25:43Z</time>
      </trkpt>
      <trkpt lat="45.22285" lon="6.02169">
        <ele>1750.4</ele>
        <time>2021-12-19T08:25:48Z</time>
      </trkpt>
      <trkpt lat="45.22287" lon="6.02169">
        <ele>1750.6</ele>
        <time>2021-12-19T08:25:50Z</time>
      </trkpt>
      <trkpt lat="45.22292" lon="6.02168">
        <ele>1751.4</ele>
        <time>2021-12-19T08:25:54Z</time>
      </trkpt>
      <trkpt lat="45.223" lon="6.02169">
        <ele>1752.2</ele>
        <time>2021-12-19T08:26:01Z</time>
      </trkpt>
      <trkpt lat="45.223" lon="6.02169">
        <ele>1752.6</ele>
        <time>2021-12-19T08:26:02Z</time>
      </trkpt>
      <trkpt lat="45.22304" lon="6.02173">
        <ele>1754</ele>
        <time>2021-12-19T08:26:08Z</time>
      </trkpt>
      <trkpt lat="45.22305" lon="6.02173">
        <ele>1754.2</ele>
        <time>2021-12-19T08:26:09Z</time>
      </trkpt>
      <trkpt lat="45.22309" lon="6.02178">
        <ele>1754.8</ele>
        <time>2021-12-19T08:26:14Z</time>
      </trkpt>
      <trkpt lat="45.2231" lon="6.02179">
        <ele>1755</ele>
        <time>2021-12-19T08:26:15Z</time>
      </trkpt>
      <trkpt lat="45.22312" lon="6.02183">
        <ele>1755.8</ele>
        <time>2021-12-19T08:26:18Z</time>
      </trkpt>
      <trkpt lat="45.22312" lon="6.02184">
        <ele>1756.2</ele>
        <time>2021-12-19T08:26:19Z</time>
      </trkpt>
      <trkpt lat="45.22316" lon="6.02189">
        <ele>1757.2</ele>
        <time>2021-12-19T08:26:24Z</time>
      </trkpt>
      <trkpt lat="45.22319" lon="6.02193">
        <ele>1757.8</ele>
        <time>2021-12-19T08:26:27Z</time>
      </trkpt>
      <trkpt lat="45.2232" lon="6.02195">
        <ele>1758.4</ele>
        <time>2021-12-19T08:26:29Z</time>
      </trkpt>
      <trkpt lat="45.22323" lon="6.02201">
        <ele>1759</ele>
        <time>2021-12-19T08:26:33Z</time>
      </trkpt>
      <trkpt lat="45.22325" lon="6.02204">
        <ele>1759.4</ele>
        <time>2021-12-19T08:26:36Z</time>
      </trkpt>
      <trkpt lat="45.22328" lon="6.02211">
        <ele>1760.4</ele>
        <time>2021-12-19T08:26:41Z</time>
      </trkpt>
      <trkpt lat="45.2233" lon="6.02216">
        <ele>1761.4</ele>
        <time>2021-12-19T08:26:45Z</time>
      </trkpt>
      <trkpt lat="45.22333" lon="6.0222">
        <ele>1762.4</ele>
        <time>2021-12-19T08:26:49Z</time>
      </trkpt>
      <trkpt lat="45.22333" lon="6.02221">
        <ele>1762.4</ele>
        <time>2021-12-19T08:26:50Z</time>
      </trkpt>
      <trkpt lat="45.22334" lon="6.02223">
        <ele>1762.6</ele>
        <time>2021-12-19T08:26:51Z</time>
      </trkpt>
      <trkpt lat="45.22336" lon="6.02225">
        <ele>1763.6</ele>
        <time>2021-12-19T08:26:54Z</time>
      </trkpt>
      <trkpt lat="45.22338" lon="6.02229">
        <ele>1764.4</ele>
        <time>2021-12-19T08:26:58Z</time>
      </trkpt>
      <trkpt lat="45.22338" lon="6.0223">
        <ele>1764.6</ele>
        <time>2021-12-19T08:26:59Z</time>
      </trkpt>
      <trkpt lat="45.22341" lon="6.02234">
        <ele>1765.8</ele>
        <time>2021-12-19T08:27:04Z</time>
      </trkpt>
      <trkpt lat="45.22344" lon="6.02238">
        <ele>1766.4</ele>
        <time>2021-12-19T08:27:08Z</time>
      </trkpt>
      <trkpt lat="45.22344" lon="6.0224">
        <ele>1767.2</ele>
        <time>2021-12-19T08:27:10Z</time>
      </trkpt>
      <trkpt lat="45.22347" lon="6.02244">
        <ele>1768.4</ele>
        <time>2021-12-19T08:27:15Z</time>
      </trkpt>
      <trkpt lat="45.2235" lon="6.02248">
        <ele>1768.8</ele>
        <time>2021-12-19T08:27:18Z</time>
      </trkpt>
      <trkpt lat="45.22352" lon="6.02251">
        <ele>1769.6</ele>
        <time>2021-12-19T08:27:22Z</time>
      </trkpt>
      <trkpt lat="45.22354" lon="6.02253">
        <ele>1770.4</ele>
        <time>2021-12-19T08:27:25Z</time>
      </trkpt>
      <trkpt lat="45.22355" lon="6.02253">
        <ele>1770.6</ele>
        <time>2021-12-19T08:27:26Z</time>
      </trkpt>
      <trkpt lat="45.22358" lon="6.02256">
        <ele>1772</ele>
        <time>2021-12-19T08:27:31Z</time>
      </trkpt>
      <trkpt lat="45.2236" lon="6.02256">
        <ele>1772.8</ele>
        <time>2021-12-19T08:27:34Z</time>
      </trkpt>
      <trkpt lat="45.22361" lon="6.02257">
        <ele>1773.2</ele>
        <time>2021-12-19T08:27:35Z</time>
      </trkpt>
      <trkpt lat="45.22364" lon="6.02261">
        <ele>1774.2</ele>
        <time>2021-12-19T08:27:39Z</time>
      </trkpt>
      <trkpt lat="45.22367" lon="6.02262">
        <ele>1774.6</ele>
        <time>2021-12-19T08:27:41Z</time>
      </trkpt>
      <trkpt lat="45.2237" lon="6.02266">
        <ele>1775.2</ele>
        <time>2021-12-19T08:27:46Z</time>
      </trkpt>
      <trkpt lat="45.22372" lon="6.02267">
        <ele>1775.6</ele>
        <time>2021-12-19T08:27:48Z</time>
      </trkpt>
      <trkpt lat="45.22373" lon="6.02269">
        <ele>1776.4</ele>
        <time>2021-12-19T08:27:50Z</time>
      </trkpt>
      <trkpt lat="45.22374" lon="6.02271">
        <ele>1777.6</ele>
        <time>2021-12-19T08:27:53Z</time>
      </trkpt>
      <trkpt lat="45.22375" lon="6.02272">
        <ele>1778.2</ele>
        <time>2021-12-19T08:27:55Z</time>
      </trkpt>
      <trkpt lat="45.22376" lon="6.02274">
        <ele>1778.6</ele>
        <time>2021-12-19T08:27:58Z</time>
      </trkpt>
      <trkpt lat="45.22377" lon="6.02276">
        <ele>1779.8</ele>
        <time>2021-12-19T08:28:02Z</time>
      </trkpt>
      <trkpt lat="45.2238" lon="6.02281">
        <ele>1781</ele>
        <time>2021-12-19T08:28:07Z</time>
      </trkpt>
      <trkpt lat="45.22381" lon="6.02283">
        <ele>1781.6</ele>
        <time>2021-12-19T08:28:10Z</time>
      </trkpt>
      <trkpt lat="45.22381" lon="6.02285">
        <ele>1782</ele>
        <time>2021-12-19T08:28:12Z</time>
      </trkpt>
      <trkpt lat="45.22383" lon="6.02289">
        <ele>1783.2</ele>
        <time>2021-12-19T08:28:15Z</time>
      </trkpt>
      <trkpt lat="45.22384" lon="6.02293">
        <ele>1784.4</ele>
        <time>2021-12-19T08:28:19Z</time>
      </trkpt>
      <trkpt lat="45.22385" lon="6.02296">
        <ele>1784.8</ele>
        <time>2021-12-19T08:28:22Z</time>
      </trkpt>
      <trkpt lat="45.22386" lon="6.02299">
        <ele>1785.6</ele>
        <time>2021-12-19T08:28:25Z</time>
      </trkpt>
      <trkpt lat="45.22387" lon="6.02303">
        <ele>1786.6</ele>
        <time>2021-12-19T08:28:28Z</time>
      </trkpt>
      <trkpt lat="45.22387" lon="6.02306">
        <ele>1787</ele>
        <time>2021-12-19T08:28:30Z</time>
      </trkpt>
      <trkpt lat="45.22388" lon="6.02309">
        <ele>1787.6</ele>
        <time>2021-12-19T08:28:33Z</time>
      </trkpt>
      <trkpt lat="45.22389" lon="6.02312">
        <ele>1788.8</ele>
        <time>2021-12-19T08:28:36Z</time>
      </trkpt>
      <trkpt lat="45.2239" lon="6.02315">
        <ele>1789.2</ele>
        <time>2021-12-19T08:28:39Z</time>
      </trkpt>
      <trkpt lat="45.22391" lon="6.02318">
        <ele>1789.8</ele>
        <time>2021-12-19T08:28:41Z</time>
      </trkpt>
      <trkpt lat="45.2239" lon="6.02322">
        <ele>1791.2</ele>
        <time>2021-12-19T08:28:45Z</time>
      </trkpt>
      <trkpt lat="45.22391" lon="6.02326">
        <ele>1792</ele>
        <time>2021-12-19T08:28:48Z</time>
      </trkpt>
      <trkpt lat="45.22391" lon="6.02328">
        <ele>1792.4</ele>
        <time>2021-12-19T08:28:50Z</time>
      </trkpt>
      <trkpt lat="45.22392" lon="6.02332">
        <ele>1793.2</ele>
        <time>2021-12-19T08:28:54Z</time>
      </trkpt>
      <trkpt lat="45.22392" lon="6.02332">
        <ele>1793.6</ele>
        <time>2021-12-19T08:28:55Z</time>
      </trkpt>
      <trkpt lat="45.22392" lon="6.02335">
        <ele>1794.8</ele>
        <time>2021-12-19T08:28:59Z</time>
      </trkpt>
      <trkpt lat="45.22393" lon="6.02336">
        <ele>1795.4</ele>
        <time>2021-12-19T08:29:01Z</time>
      </trkpt>
      <trkpt lat="45.22393" lon="6.02338">
        <ele>1795.8</ele>
        <time>2021-12-19T08:29:03Z</time>
      </trkpt>
      <trkpt lat="45.22395" lon="6.02341">
        <ele>1796.8</ele>
        <time>2021-12-19T08:29:08Z</time>
      </trkpt>
      <trkpt lat="45.22396" lon="6.02341">
        <ele>1797.4</ele>
        <time>2021-12-19T08:29:09Z</time>
      </trkpt>
      <trkpt lat="45.22397" lon="6.02344">
        <ele>1798</ele>
        <time>2021-12-19T08:29:12Z</time>
      </trkpt>
      <trkpt lat="45.22398" lon="6.02348">
        <ele>1798.8</ele>
        <time>2021-12-19T08:29:16Z</time>
      </trkpt>
      <trkpt lat="45.22398" lon="6.02349">
        <ele>1799.2</ele>
        <time>2021-12-19T08:29:17Z</time>
      </trkpt>
      <trkpt lat="45.22399" lon="6.02353">
        <ele>1800.4</ele>
        <time>2021-12-19T08:29:21Z</time>
      </trkpt>
      <trkpt lat="45.224" lon="6.02355">
        <ele>1801.4</ele>
        <time>2021-12-19T08:29:24Z</time>
      </trkpt>
      <trkpt lat="45.224" lon="6.02356">
        <ele>1801.6</ele>
        <time>2021-12-19T08:29:25Z</time>
      </trkpt>
      <trkpt lat="45.22401" lon="6.02358">
        <ele>1802.8</ele>
        <time>2021-12-19T08:29:28Z</time>
      </trkpt>
      <trkpt lat="45.22403" lon="6.02361">
        <ele>1803.4</ele>
        <time>2021-12-19T08:29:32Z</time>
      </trkpt>
      <trkpt lat="45.22403" lon="6.02362">
        <ele>1803.6</ele>
        <time>2021-12-19T08:29:33Z</time>
      </trkpt>
      <trkpt lat="45.22403" lon="6.02363">
        <ele>1803.8</ele>
        <time>2021-12-19T08:29:34Z</time>
      </trkpt>
      <trkpt lat="45.22404" lon="6.02368">
        <ele>1804.8</ele>
        <time>2021-12-19T08:29:39Z</time>
      </trkpt>
      <trkpt lat="45.22405" lon="6.0237">
        <ele>1805.2</ele>
        <time>2021-12-19T08:29:41Z</time>
      </trkpt>
      <trkpt lat="45.22405" lon="6.02374">
        <ele>1805.8</ele>
        <time>2021-12-19T08:29:45Z</time>
      </trkpt>
      <trkpt lat="45.22406" lon="6.02378">
        <ele>1806.4</ele>
        <time>2021-12-19T08:29:48Z</time>
      </trkpt>
      <trkpt lat="45.22407" lon="6.0238">
        <ele>1807</ele>
        <time>2021-12-19T08:29:50Z</time>
      </trkpt>
      <trkpt lat="45.22409" lon="6.02381">
        <ele>1808.2</ele>
        <time>2021-12-19T08:29:53Z</time>
      </trkpt>
      <trkpt lat="45.22409" lon="6.02381">
        <ele>1808.4</ele>
        <time>2021-12-19T08:29:54Z</time>
      </trkpt>
      <trkpt lat="45.22411" lon="6.02381">
        <ele>1809.4</ele>
        <time>2021-12-19T08:29:56Z</time>
      </trkpt>
      <trkpt lat="45.22414" lon="6.02381">
        <ele>1810.4</ele>
        <time>2021-12-19T08:30:00Z</time>
      </trkpt>
      <trkpt lat="45.22416" lon="6.0238">
        <ele>1811</ele>
        <time>2021-12-19T08:30:02Z</time>
      </trkpt>
      <trkpt lat="45.22416" lon="6.0238">
        <ele>1811.4</ele>
        <time>2021-12-19T08:30:03Z</time>
      </trkpt>
      <trkpt lat="45.22419" lon="6.0238">
        <ele>1812</ele>
        <time>2021-12-19T08:30:06Z</time>
      </trkpt>
      <trkpt lat="45.22421" lon="6.02381">
        <ele>1812.8</ele>
        <time>2021-12-19T08:30:09Z</time>
      </trkpt>
      <trkpt lat="45.22424" lon="6.02383">
        <ele>1813.8</ele>
        <time>2021-12-19T08:30:13Z</time>
      </trkpt>
      <trkpt lat="45.22427" lon="6.02385">
        <ele>1814.4</ele>
        <time>2021-12-19T08:30:17Z</time>
      </trkpt>
      <trkpt lat="45.22428" lon="6.02386">
        <ele>1814.8</ele>
        <time>2021-12-19T08:30:18Z</time>
      </trkpt>
      <trkpt lat="45.2243" lon="6.02391">
        <ele>1815.6</ele>
        <time>2021-12-19T08:30:24Z</time>
      </trkpt>
      <trkpt lat="45.2243" lon="6.02392">
        <ele>1816</ele>
        <time>2021-12-19T08:30:26Z</time>
      </trkpt>
      <trkpt lat="45.22432" lon="6.02394">
        <ele>1817</ele>
        <time>2021-12-19T08:30:29Z</time>
      </trkpt>
      <trkpt lat="45.22433" lon="6.02395">
        <ele>1817.8</ele>
        <time>2021-12-19T08:30:31Z</time>
      </trkpt>
      <trkpt lat="45.22434" lon="6.02395">
        <ele>1818.2</ele>
        <time>2021-12-19T08:30:32Z</time>
      </trkpt>
      <trkpt lat="45.22436" lon="6.02397">
        <ele>1819.2</ele>
        <time>2021-12-19T08:30:37Z</time>
      </trkpt>
      <trkpt lat="45.22438" lon="6.02399">
        <ele>1820.4</ele>
        <time>2021-12-19T08:30:42Z</time>
      </trkpt>
      <trkpt lat="45.22439" lon="6.024">
        <ele>1821</ele>
        <time>2021-12-19T08:30:44Z</time>
      </trkpt>
      <trkpt lat="45.2244" lon="6.02402">
        <ele>1821.6</ele>
        <time>2021-12-19T08:30:47Z</time>
      </trkpt>
      <trkpt lat="45.22443" lon="6.02402">
        <ele>1822.6</ele>
        <time>2021-12-19T08:30:51Z</time>
      </trkpt>
      <trkpt lat="45.22446" lon="6.02403">
        <ele>1823.6</ele>
        <time>2021-12-19T08:30:56Z</time>
      </trkpt>
      <trkpt lat="45.22449" lon="6.02403">
        <ele>1824.2</ele>
        <time>2021-12-19T08:31:00Z</time>
      </trkpt>
      <trkpt lat="45.2245" lon="6.02404">
        <ele>1825</ele>
        <time>2021-12-19T08:31:02Z</time>
      </trkpt>
      <trkpt lat="45.22454" lon="6.02407">
        <ele>1826</ele>
        <time>2021-12-19T08:31:09Z</time>
      </trkpt>
      <trkpt lat="45.22455" lon="6.02408">
        <ele>1826.4</ele>
        <time>2021-12-19T08:31:10Z</time>
      </trkpt>
      <trkpt lat="45.22456" lon="6.02411">
        <ele>1827.6</ele>
        <time>2021-12-19T08:31:13Z</time>
      </trkpt>
      <trkpt lat="45.22458" lon="6.02415">
        <ele>1828.2</ele>
        <time>2021-12-19T08:31:17Z</time>
      </trkpt>
      <trkpt lat="45.22459" lon="6.02418">
        <ele>1828.6</ele>
        <time>2021-12-19T08:31:20Z</time>
      </trkpt>
      <trkpt lat="45.2246" lon="6.02421">
        <ele>1829</ele>
        <time>2021-12-19T08:31:22Z</time>
      </trkpt>
      <trkpt lat="45.22461" lon="6.02425">
        <ele>1829.8</ele>
        <time>2021-12-19T08:31:26Z</time>
      </trkpt>
      <trkpt lat="45.22462" lon="6.0243">
        <ele>1831.2</ele>
        <time>2021-12-19T08:31:30Z</time>
      </trkpt>
      <trkpt lat="45.22463" lon="6.02432">
        <ele>1832.2</ele>
        <time>2021-12-19T08:31:33Z</time>
      </trkpt>
      <trkpt lat="45.22463" lon="6.02433">
        <ele>1832.4</ele>
        <time>2021-12-19T08:31:34Z</time>
      </trkpt>
      <trkpt lat="45.22463" lon="6.02436">
        <ele>1833.6</ele>
        <time>2021-12-19T08:31:38Z</time>
      </trkpt>
      <trkpt lat="45.22463" lon="6.02438">
        <ele>1834</ele>
        <time>2021-12-19T08:31:41Z</time>
      </trkpt>
      <trkpt lat="45.22463" lon="6.02441">
        <ele>1834.6</ele>
        <time>2021-12-19T08:31:45Z</time>
      </trkpt>
      <trkpt lat="45.22462" lon="6.02443">
        <ele>1835</ele>
        <time>2021-12-19T08:31:47Z</time>
      </trkpt>
      <trkpt lat="45.22461" lon="6.02447">
        <ele>1835.6</ele>
        <time>2021-12-19T08:31:51Z</time>
      </trkpt>
      <trkpt lat="45.2246" lon="6.02454">
        <ele>1836.8</ele>
        <time>2021-12-19T08:31:56Z</time>
      </trkpt>
      <trkpt lat="45.2246" lon="6.02456">
        <ele>1837.2</ele>
        <time>2021-12-19T08:31:58Z</time>
      </trkpt>
      <trkpt lat="45.2246" lon="6.02459">
        <ele>1837.8</ele>
        <time>2021-12-19T08:32:01Z</time>
      </trkpt>
      <trkpt lat="45.2246" lon="6.02463">
        <ele>1838.4</ele>
        <time>2021-12-19T08:32:04Z</time>
      </trkpt>
      <trkpt lat="45.22461" lon="6.02466">
        <ele>1838.8</ele>
        <time>2021-12-19T08:32:07Z</time>
      </trkpt>
      <trkpt lat="45.22461" lon="6.02468">
        <ele>1839</ele>
        <time>2021-12-19T08:32:08Z</time>
      </trkpt>
      <trkpt lat="45.22462" lon="6.02474">
        <ele>1840.2</ele>
        <time>2021-12-19T08:32:13Z</time>
      </trkpt>
      <trkpt lat="45.22462" lon="6.02476">
        <ele>1840.8</ele>
        <time>2021-12-19T08:32:15Z</time>
      </trkpt>
      <trkpt lat="45.22463" lon="6.0248">
        <ele>1841.4</ele>
        <time>2021-12-19T08:32:18Z</time>
      </trkpt>
      <trkpt lat="45.22464" lon="6.02484">
        <ele>1842.4</ele>
        <time>2021-12-19T08:32:22Z</time>
      </trkpt>
      <trkpt lat="45.22468" lon="6.02491">
        <ele>1843.6</ele>
        <time>2021-12-19T08:32:29Z</time>
      </trkpt>
      <trkpt lat="45.22468" lon="6.02493">
        <ele>1844</ele>
        <time>2021-12-19T08:32:31Z</time>
      </trkpt>
      <trkpt lat="45.2247" lon="6.02497">
        <ele>1844.4</ele>
        <time>2021-12-19T08:32:34Z</time>
      </trkpt>
      <trkpt lat="45.2247" lon="6.02499">
        <ele>1844.8</ele>
        <time>2021-12-19T08:32:35Z</time>
      </trkpt>
      <trkpt lat="45.2247" lon="6.025">
        <ele>1844.8</ele>
        <time>2021-12-19T08:32:36Z</time>
      </trkpt>
      <trkpt lat="45.22469" lon="6.02501">
        <ele>1845</ele>
        <time>2021-12-19T08:32:37Z</time>
      </trkpt>
      <trkpt lat="45.2247" lon="6.02502">
        <ele>1845.4</ele>
        <time>2021-12-19T08:32:38Z</time>
      </trkpt>
      <trkpt lat="45.22471" lon="6.02504">
        <ele>1846</ele>
        <time>2021-12-19T08:32:40Z</time>
      </trkpt>
      <trkpt lat="45.22472" lon="6.02508">
        <ele>1846.6</ele>
        <time>2021-12-19T08:32:43Z</time>
      </trkpt>
      <trkpt lat="45.22473" lon="6.0251">
        <ele>1847</ele>
        <time>2021-12-19T08:32:45Z</time>
      </trkpt>
      <trkpt lat="45.22476" lon="6.02521">
        <ele>1848</ele>
        <time>2021-12-19T08:32:53Z</time>
      </trkpt>
      <trkpt lat="45.22476" lon="6.02522">
        <ele>1848.2</ele>
        <time>2021-12-19T08:32:54Z</time>
      </trkpt>
      <trkpt lat="45.22478" lon="6.02527">
        <ele>1849.2</ele>
        <time>2021-12-19T08:32:59Z</time>
      </trkpt>
      <trkpt lat="45.22478" lon="6.0253">
        <ele>1849.8</ele>
        <time>2021-12-19T08:33:01Z</time>
      </trkpt>
      <trkpt lat="45.2248" lon="6.02533">
        <ele>1850.4</ele>
        <time>2021-12-19T08:33:04Z</time>
      </trkpt>
      <trkpt lat="45.22481" lon="6.02537">
        <ele>1851.4</ele>
        <time>2021-12-19T08:33:08Z</time>
      </trkpt>
      <trkpt lat="45.22482" lon="6.02538">
        <ele>1851.8</ele>
        <time>2021-12-19T08:33:10Z</time>
      </trkpt>
      <trkpt lat="45.22483" lon="6.02541">
        <ele>1852.8</ele>
        <time>2021-12-19T08:33:12Z</time>
      </trkpt>
      <trkpt lat="45.22484" lon="6.02545">
        <ele>1853.8</ele>
        <time>2021-12-19T08:33:16Z</time>
      </trkpt>
      <trkpt lat="45.22484" lon="6.02546">
        <ele>1854</ele>
        <time>2021-12-19T08:33:17Z</time>
      </trkpt>
      <trkpt lat="45.22487" lon="6.02554">
        <ele>1855.2</ele>
        <time>2021-12-19T08:33:25Z</time>
      </trkpt>
      <trkpt lat="45.2249" lon="6.02556">
        <ele>1856.6</ele>
        <time>2021-12-19T08:33:29Z</time>
      </trkpt>
      <trkpt lat="45.22492" lon="6.02563">
        <ele>1857.8</ele>
        <time>2021-12-19T08:33:35Z</time>
      </trkpt>
      <trkpt lat="45.22492" lon="6.02564">
        <ele>1858</ele>
        <time>2021-12-19T08:33:36Z</time>
      </trkpt>
      <trkpt lat="45.22493" lon="6.02566">
        <ele>1858.8</ele>
        <time>2021-12-19T08:33:39Z</time>
      </trkpt>
      <trkpt lat="45.22494" lon="6.02566">
        <ele>1859.4</ele>
        <time>2021-12-19T08:33:41Z</time>
      </trkpt>
      <trkpt lat="45.22496" lon="6.02565">
        <ele>1860</ele>
        <time>2021-12-19T08:33:45Z</time>
      </trkpt>
      <trkpt lat="45.22498" lon="6.02565">
        <ele>1861.2</ele>
        <time>2021-12-19T08:33:48Z</time>
      </trkpt>
      <trkpt lat="45.225" lon="6.02564">
        <ele>1862.4</ele>
        <time>2021-12-19T08:33:52Z</time>
      </trkpt>
      <trkpt lat="45.22503" lon="6.02566">
        <ele>1863</ele>
        <time>2021-12-19T08:33:56Z</time>
      </trkpt>
      <trkpt lat="45.22504" lon="6.02568">
        <ele>1863.6</ele>
        <time>2021-12-19T08:33:58Z</time>
      </trkpt>
      <trkpt lat="45.22506" lon="6.0257">
        <ele>1864.8</ele>
        <time>2021-12-19T08:34:02Z</time>
      </trkpt>
      <trkpt lat="45.22507" lon="6.02572">
        <ele>1865.4</ele>
        <time>2021-12-19T08:34:05Z</time>
      </trkpt>
      <trkpt lat="45.22508" lon="6.02574">
        <ele>1865.8</ele>
        <time>2021-12-19T08:34:07Z</time>
      </trkpt>
      <trkpt lat="45.2251" lon="6.02578">
        <ele>1867</ele>
        <time>2021-12-19T08:34:12Z</time>
      </trkpt>
      <trkpt lat="45.22511" lon="6.02579">
        <ele>1867.2</ele>
        <time>2021-12-19T08:34:13Z</time>
      </trkpt>
      <trkpt lat="45.22513" lon="6.02586">
        <ele>1868.2</ele>
        <time>2021-12-19T08:34:18Z</time>
      </trkpt>
      <trkpt lat="45.22514" lon="6.02589">
        <ele>1868.6</ele>
        <time>2021-12-19T08:34:21Z</time>
      </trkpt>
      <trkpt lat="45.22514" lon="6.0259">
        <ele>1868.8</ele>
        <time>2021-12-19T08:34:22Z</time>
      </trkpt>
      <trkpt lat="45.22515" lon="6.02593">
        <ele>1869.2</ele>
        <time>2021-12-19T08:34:25Z</time>
      </trkpt>
      <trkpt lat="45.22517" lon="6.02596">
        <ele>1870</ele>
        <time>2021-12-19T08:34:28Z</time>
      </trkpt>
      <trkpt lat="45.22518" lon="6.02597">
        <ele>1870.4</ele>
        <time>2021-12-19T08:34:30Z</time>
      </trkpt>
      <trkpt lat="45.2252" lon="6.02599">
        <ele>1871.6</ele>
        <time>2021-12-19T08:34:34Z</time>
      </trkpt>
      <trkpt lat="45.22521" lon="6.02599">
        <ele>1872</ele>
        <time>2021-12-19T08:34:36Z</time>
      </trkpt>
      <trkpt lat="45.22524" lon="6.02599">
        <ele>1872.8</ele>
        <time>2021-12-19T08:34:39Z</time>
      </trkpt>
      <trkpt lat="45.22528" lon="6.02602">
        <ele>1874</ele>
        <time>2021-12-19T08:34:45Z</time>
      </trkpt>
      <trkpt lat="45.2253" lon="6.02607">
        <ele>1875</ele>
        <time>2021-12-19T08:34:50Z</time>
      </trkpt>
      <trkpt lat="45.22533" lon="6.02609">
        <ele>1875.6</ele>
        <time>2021-12-19T08:34:53Z</time>
      </trkpt>
      <trkpt lat="45.22535" lon="6.02612">
        <ele>1876.4</ele>
        <time>2021-12-19T08:34:57Z</time>
      </trkpt>
      <trkpt lat="45.22537" lon="6.02611">
        <ele>1877.6</ele>
        <time>2021-12-19T08:35:01Z</time>
      </trkpt>
      <trkpt lat="45.22538" lon="6.02611">
        <ele>1877.6</ele>
        <time>2021-12-19T08:35:02Z</time>
      </trkpt>
      <trkpt lat="45.22541" lon="6.02612">
        <ele>1878.8</ele>
        <time>2021-12-19T08:35:06Z</time>
      </trkpt>
      <trkpt lat="45.22545" lon="6.02614">
        <ele>1880</ele>
        <time>2021-12-19T08:35:11Z</time>
      </trkpt>
      <trkpt lat="45.22547" lon="6.02622">
        <ele>1881</ele>
        <time>2021-12-19T08:35:18Z</time>
      </trkpt>
      <trkpt lat="45.22547" lon="6.02625">
        <ele>1881.6</ele>
        <time>2021-12-19T08:35:20Z</time>
      </trkpt>
      <trkpt lat="45.22547" lon="6.02628">
        <ele>1882.2</ele>
        <time>2021-12-19T08:35:22Z</time>
      </trkpt>
      <trkpt lat="45.22547" lon="6.0263">
        <ele>1882.6</ele>
        <time>2021-12-19T08:35:25Z</time>
      </trkpt>
      <trkpt lat="45.22547" lon="6.02633">
        <ele>1882.8</ele>
        <time>2021-12-19T08:35:27Z</time>
      </trkpt>
      <trkpt lat="45.22548" lon="6.02636">
        <ele>1883.2</ele>
        <time>2021-12-19T08:35:29Z</time>
      </trkpt>
      <trkpt lat="45.2255" lon="6.0264">
        <ele>1884.2</ele>
        <time>2021-12-19T08:35:33Z</time>
      </trkpt>
      <trkpt lat="45.22551" lon="6.02641">
        <ele>1884.6</ele>
        <time>2021-12-19T08:35:35Z</time>
      </trkpt>
      <trkpt lat="45.22553" lon="6.02643">
        <ele>1885.8</ele>
        <time>2021-12-19T08:35:38Z</time>
      </trkpt>
      <trkpt lat="45.22555" lon="6.02644">
        <ele>1886.6</ele>
        <time>2021-12-19T08:35:41Z</time>
      </trkpt>
      <trkpt lat="45.22557" lon="6.02644">
        <ele>1886.8</ele>
        <time>2021-12-19T08:35:43Z</time>
      </trkpt>
      <trkpt lat="45.2256" lon="6.02646">
        <ele>1887.8</ele>
        <time>2021-12-19T08:35:48Z</time>
      </trkpt>
      <trkpt lat="45.22562" lon="6.02646">
        <ele>1888.4</ele>
        <time>2021-12-19T08:35:50Z</time>
      </trkpt>
      <trkpt lat="45.22563" lon="6.02647">
        <ele>1889</ele>
        <time>2021-12-19T08:35:52Z</time>
      </trkpt>
      <trkpt lat="45.22567" lon="6.02648">
        <ele>1890</ele>
        <time>2021-12-19T08:35:57Z</time>
      </trkpt>
      <trkpt lat="45.22568" lon="6.02648">
        <ele>1890.4</ele>
        <time>2021-12-19T08:35:59Z</time>
      </trkpt>
      <trkpt lat="45.22571" lon="6.02649">
        <ele>1891.2</ele>
        <time>2021-12-19T08:36:02Z</time>
      </trkpt>
      <trkpt lat="45.22575" lon="6.02653">
        <ele>1892.2</ele>
        <time>2021-12-19T08:36:08Z</time>
      </trkpt>
      <trkpt lat="45.22578" lon="6.02657">
        <ele>1892.8</ele>
        <time>2021-12-19T08:36:11Z</time>
      </trkpt>
      <trkpt lat="45.2258" lon="6.02658">
        <ele>1893</ele>
        <time>2021-12-19T08:36:13Z</time>
      </trkpt>
      <trkpt lat="45.22581" lon="6.0266">
        <ele>1893.4</ele>
        <time>2021-12-19T08:36:15Z</time>
      </trkpt>
      <trkpt lat="45.22585" lon="6.02666">
        <ele>1894.4</ele>
        <time>2021-12-19T08:36:20Z</time>
      </trkpt>
      <trkpt lat="45.22586" lon="6.02668">
        <ele>1894.6</ele>
        <time>2021-12-19T08:36:21Z</time>
      </trkpt>
      <trkpt lat="45.22591" lon="6.02677">
        <ele>1895.4</ele>
        <time>2021-12-19T08:36:29Z</time>
      </trkpt>
      <trkpt lat="45.22592" lon="6.02678">
        <ele>1895.4</ele>
        <time>2021-12-19T08:36:30Z</time>
      </trkpt>
      <trkpt lat="45.22594" lon="6.02684">
        <ele>1896.4</ele>
        <time>2021-12-19T08:36:35Z</time>
      </trkpt>
      <trkpt lat="45.22596" lon="6.02689">
        <ele>1896.6</ele>
        <time>2021-12-19T08:36:38Z</time>
      </trkpt>
      <trkpt lat="45.22599" lon="6.02694">
        <ele>1897.8</ele>
        <time>2021-12-19T08:36:42Z</time>
      </trkpt>
      <trkpt lat="45.22601" lon="6.027">
        <ele>1898.4</ele>
        <time>2021-12-19T08:36:48Z</time>
      </trkpt>
      <trkpt lat="45.22602" lon="6.02704">
        <ele>1898.6</ele>
        <time>2021-12-19T08:36:51Z</time>
      </trkpt>
      <trkpt lat="45.22603" lon="6.02711">
        <ele>1898.6</ele>
        <time>2021-12-19T08:36:55Z</time>
      </trkpt>
      <trkpt lat="45.22604" lon="6.02714">
        <ele>1899</ele>
        <time>2021-12-19T08:36:58Z</time>
      </trkpt>
      <trkpt lat="45.22606" lon="6.02718">
        <ele>1900</ele>
        <time>2021-12-19T08:37:03Z</time>
      </trkpt>
      <trkpt lat="45.22606" lon="6.02719">
        <ele>1900.2</ele>
        <time>2021-12-19T08:37:04Z</time>
      </trkpt>
      <trkpt lat="45.22609" lon="6.02724">
        <ele>1901</ele>
        <time>2021-12-19T08:37:10Z</time>
      </trkpt>
      <trkpt lat="45.22608" lon="6.02725">
        <ele>1901.4</ele>
        <time>2021-12-19T08:37:12Z</time>
      </trkpt>
      <trkpt lat="45.22605" lon="6.02729">
        <ele>1902.2</ele>
        <time>2021-12-19T08:37:18Z</time>
      </trkpt>
      <trkpt lat="45.22603" lon="6.02732">
        <ele>1903.2</ele>
        <time>2021-12-19T08:37:21Z</time>
      </trkpt>
      <trkpt lat="45.22602" lon="6.02733">
        <ele>1903.6</ele>
        <time>2021-12-19T08:37:22Z</time>
      </trkpt>
      <trkpt lat="45.22599" lon="6.02735">
        <ele>1904.8</ele>
        <time>2021-12-19T08:37:27Z</time>
      </trkpt>
      <trkpt lat="45.22597" lon="6.02739">
        <ele>1905.8</ele>
        <time>2021-12-19T08:37:31Z</time>
      </trkpt>
      <trkpt lat="45.22596" lon="6.0274">
        <ele>1906.2</ele>
        <time>2021-12-19T08:37:33Z</time>
      </trkpt>
      <trkpt lat="45.22594" lon="6.02742">
        <ele>1906.8</ele>
        <time>2021-12-19T08:37:37Z</time>
      </trkpt>
      <trkpt lat="45.22592" lon="6.02744">
        <ele>1908</ele>
        <time>2021-12-19T08:37:40Z</time>
      </trkpt>
      <trkpt lat="45.22592" lon="6.02745">
        <ele>1908.2</ele>
        <time>2021-12-19T08:37:41Z</time>
      </trkpt>
      <trkpt lat="45.2259" lon="6.02747">
        <ele>1909.2</ele>
        <time>2021-12-19T08:37:44Z</time>
      </trkpt>
      <trkpt lat="45.22588" lon="6.0275">
        <ele>1910.2</ele>
        <time>2021-12-19T08:37:50Z</time>
      </trkpt>
      <trkpt lat="45.22587" lon="6.0275">
        <ele>1910.4</ele>
        <time>2021-12-19T08:37:51Z</time>
      </trkpt>
      <trkpt lat="45.22586" lon="6.02751">
        <ele>1911</ele>
        <time>2021-12-19T08:37:53Z</time>
      </trkpt>
      <trkpt lat="45.22585" lon="6.02752">
        <ele>1911.4</ele>
        <time>2021-12-19T08:37:54Z</time>
      </trkpt>
      <trkpt lat="45.22583" lon="6.02755">
        <ele>1912.4</ele>
        <time>2021-12-19T08:37:58Z</time>
      </trkpt>
      <trkpt lat="45.22582" lon="6.02756">
        <ele>1913.4</ele>
        <time>2021-12-19T08:38:01Z</time>
      </trkpt>
      <trkpt lat="45.22582" lon="6.02756">
        <ele>1913.6</ele>
        <time>2021-12-19T08:38:02Z</time>
      </trkpt>
      <trkpt lat="45.22579" lon="6.0276">
        <ele>1914.6</ele>
        <time>2021-12-19T08:38:08Z</time>
      </trkpt>
      <trkpt lat="45.22577" lon="6.02762">
        <ele>1915.6</ele>
        <time>2021-12-19T08:38:13Z</time>
      </trkpt>
      <trkpt lat="45.22575" lon="6.02764">
        <ele>1916</ele>
        <time>2021-12-19T08:38:16Z</time>
      </trkpt>
      <trkpt lat="45.22574" lon="6.02765">
        <ele>1916.6</ele>
        <time>2021-12-19T08:38:19Z</time>
      </trkpt>
      <trkpt lat="45.22572" lon="6.02766">
        <ele>1917.6</ele>
        <time>2021-12-19T08:38:22Z</time>
      </trkpt>
      <trkpt lat="45.2257" lon="6.02769">
        <ele>1918.2</ele>
        <time>2021-12-19T08:38:27Z</time>
      </trkpt>
      <trkpt lat="45.22569" lon="6.0277">
        <ele>1918.8</ele>
        <time>2021-12-19T08:38:29Z</time>
      </trkpt>
      <trkpt lat="45.22569" lon="6.0277">
        <ele>1919</ele>
        <time>2021-12-19T08:38:30Z</time>
      </trkpt>
      <trkpt lat="45.22568" lon="6.02772">
        <ele>1920</ele>
        <time>2021-12-19T08:38:33Z</time>
      </trkpt>
      <trkpt lat="45.22567" lon="6.02772">
        <ele>1920.2</ele>
        <time>2021-12-19T08:38:34Z</time>
      </trkpt>
      <trkpt lat="45.22563" lon="6.02776">
        <ele>1921</ele>
        <time>2021-12-19T08:38:40Z</time>
      </trkpt>
      <trkpt lat="45.22562" lon="6.02778">
        <ele>1921.4</ele>
        <time>2021-12-19T08:38:42Z</time>
      </trkpt>
      <trkpt lat="45.22561" lon="6.02778">
        <ele>1922.2</ele>
        <time>2021-12-19T08:38:45Z</time>
      </trkpt>
      <trkpt lat="45.2256" lon="6.02778">
        <ele>1923</ele>
        <time>2021-12-19T08:38:49Z</time>
      </trkpt>
      <trkpt lat="45.22558" lon="6.0278">
        <ele>1923.4</ele>
        <time>2021-12-19T08:38:51Z</time>
      </trkpt>
      <trkpt lat="45.22557" lon="6.02781">
        <ele>1924.4</ele>
        <time>2021-12-19T08:38:56Z</time>
      </trkpt>
      <trkpt lat="45.22556" lon="6.02782">
        <ele>1924.6</ele>
        <time>2021-12-19T08:38:57Z</time>
      </trkpt>
      <trkpt lat="45.22554" lon="6.02784">
        <ele>1925.4</ele>
        <time>2021-12-19T08:39:01Z</time>
      </trkpt>
      <trkpt lat="45.22552" lon="6.02786">
        <ele>1926.4</ele>
        <time>2021-12-19T08:39:06Z</time>
      </trkpt>
      <trkpt lat="45.22549" lon="6.0279">
        <ele>1927.6</ele>
        <time>2021-12-19T08:39:12Z</time>
      </trkpt>
      <trkpt lat="45.22549" lon="6.0279">
        <ele>1928.2</ele>
        <time>2021-12-19T08:39:14Z</time>
      </trkpt>
      <trkpt lat="45.22549" lon="6.02789">
        <ele>1928.6</ele>
        <time>2021-12-19T08:39:17Z</time>
      </trkpt>
      <trkpt lat="45.2255" lon="6.02789">
        <ele>1928.8</ele>
        <time>2021-12-19T08:39:21Z</time>
      </trkpt>
      <trkpt lat="45.22553" lon="6.0279">
        <ele>1929.6</ele>
        <time>2021-12-19T08:39:26Z</time>
      </trkpt>
      <trkpt lat="45.22554" lon="6.0279">
        <ele>1930.6</ele>
        <time>2021-12-19T08:39:30Z</time>
      </trkpt>
      <trkpt lat="45.22556" lon="6.0279">
        <ele>1931.2</ele>
        <time>2021-12-19T08:39:33Z</time>
      </trkpt>
      <trkpt lat="45.22557" lon="6.0279">
        <ele>1931.6</ele>
        <time>2021-12-19T08:39:35Z</time>
      </trkpt>
      <trkpt lat="45.22562" lon="6.0279">
        <ele>1932.8</ele>
        <time>2021-12-19T08:39:43Z</time>
      </trkpt>
      <trkpt lat="45.22566" lon="6.02791">
        <ele>1934</ele>
        <time>2021-12-19T08:39:49Z</time>
      </trkpt>
      <trkpt lat="45.22567" lon="6.02791">
        <ele>1934.2</ele>
        <time>2021-12-19T08:39:50Z</time>
      </trkpt>
      <trkpt lat="45.22567" lon="6.0279">
        <ele>1934.4</ele>
        <time>2021-12-19T08:39:51Z</time>
      </trkpt>
      <trkpt lat="45.22569" lon="6.0279">
        <ele>1935</ele>
        <time>2021-12-19T08:39:54Z</time>
      </trkpt>
      <trkpt lat="45.22572" lon="6.02791">
        <ele>1935.8</ele>
        <time>2021-12-19T08:39:59Z</time>
      </trkpt>
      <trkpt lat="45.22573" lon="6.02791">
        <ele>1936.2</ele>
        <time>2021-12-19T08:40:00Z</time>
      </trkpt>
      <trkpt lat="45.22577" lon="6.02791">
        <ele>1937.2</ele>
        <time>2021-12-19T08:40:05Z</time>
      </trkpt>
      <trkpt lat="45.2258" lon="6.02791">
        <ele>1938</ele>
        <time>2021-12-19T08:40:09Z</time>
      </trkpt>
      <trkpt lat="45.22581" lon="6.02791">
        <ele>1938.2</ele>
        <time>2021-12-19T08:40:11Z</time>
      </trkpt>
      <trkpt lat="45.22585" lon="6.02791">
        <ele>1939.4</ele>
        <time>2021-12-19T08:40:17Z</time>
      </trkpt>
      <trkpt lat="45.22586" lon="6.02792">
        <ele>1939.6</ele>
        <time>2021-12-19T08:40:18Z</time>
      </trkpt>
      <trkpt lat="45.22591" lon="6.02792">
        <ele>1940.4</ele>
        <time>2021-12-19T08:40:25Z</time>
      </trkpt>
      <trkpt lat="45.22592" lon="6.02792">
        <ele>1940.6</ele>
        <time>2021-12-19T08:40:27Z</time>
      </trkpt>
      <trkpt lat="45.22596" lon="6.02793">
        <ele>1941.4</ele>
        <time>2021-12-19T08:40:33Z</time>
      </trkpt>
      <trkpt lat="45.22597" lon="6.02793">
        <ele>1941.8</ele>
        <time>2021-12-19T08:40:37Z</time>
      </trkpt>
      <trkpt lat="45.22598" lon="6.02794">
        <ele>1942.4</ele>
        <time>2021-12-19T08:40:40Z</time>
      </trkpt>
      <trkpt lat="45.22599" lon="6.02795">
        <ele>1942.8</ele>
        <time>2021-12-19T08:40:42Z</time>
      </trkpt>
      <trkpt lat="45.22603" lon="6.02797">
        <ele>1943.8</ele>
        <time>2021-12-19T08:40:47Z</time>
      </trkpt>
      <trkpt lat="45.22603" lon="6.02798">
        <ele>1943.8</ele>
        <time>2021-12-19T08:40:48Z</time>
      </trkpt>
      <trkpt lat="45.22607" lon="6.02799">
        <ele>1944.8</ele>
        <time>2021-12-19T08:40:54Z</time>
      </trkpt>
      <trkpt lat="45.22609" lon="6.02801">
        <ele>1946</ele>
        <time>2021-12-19T08:40:59Z</time>
      </trkpt>
      <trkpt lat="45.2261" lon="6.02801">
        <ele>1946.4</ele>
        <time>2021-12-19T08:41:01Z</time>
      </trkpt>
      <trkpt lat="45.22613" lon="6.02802">
        <ele>1947</ele>
        <time>2021-12-19T08:41:05Z</time>
      </trkpt>
      <trkpt lat="45.22614" lon="6.02805">
        <ele>1947.4</ele>
        <time>2021-12-19T08:41:08Z</time>
      </trkpt>
      <trkpt lat="45.22616" lon="6.02811">
        <ele>1948.2</ele>
        <time>2021-12-19T08:41:13Z</time>
      </trkpt>
      <trkpt lat="45.22614" lon="6.02815">
        <ele>1948.4</ele>
        <time>2021-12-19T08:41:15Z</time>
      </trkpt>
      <trkpt lat="45.22607" lon="6.0282">
        <ele>1949.2</ele>
        <time>2021-12-19T08:41:20Z</time>
      </trkpt>
      <trkpt lat="45.22606" lon="6.02821">
        <ele>1949.4</ele>
        <time>2021-12-19T08:41:21Z</time>
      </trkpt>
      <trkpt lat="45.22603" lon="6.02824">
        <ele>1950.2</ele>
        <time>2021-12-19T08:41:27Z</time>
      </trkpt>
      <trkpt lat="45.22601" lon="6.02826">
        <ele>1950.6</ele>
        <time>2021-12-19T08:41:30Z</time>
      </trkpt>
      <trkpt lat="45.22601" lon="6.0283">
        <ele>1951.6</ele>
        <time>2021-12-19T08:41:33Z</time>
      </trkpt>
      <trkpt lat="45.22601" lon="6.02833">
        <ele>1952.6</ele>
        <time>2021-12-19T08:41:37Z</time>
      </trkpt>
      <trkpt lat="45.22601" lon="6.02834">
        <ele>1952.6</ele>
        <time>2021-12-19T08:41:38Z</time>
      </trkpt>
      <trkpt lat="45.22603" lon="6.0284">
        <ele>1953.6</ele>
        <time>2021-12-19T08:41:43Z</time>
      </trkpt>
      <trkpt lat="45.22603" lon="6.02842">
        <ele>1954</ele>
        <time>2021-12-19T08:41:45Z</time>
      </trkpt>
      <trkpt lat="45.22603" lon="6.02848">
        <ele>1954.6</ele>
        <time>2021-12-19T08:41:49Z</time>
      </trkpt>
      <trkpt lat="45.22604" lon="6.02853">
        <ele>1955.4</ele>
        <time>2021-12-19T08:41:54Z</time>
      </trkpt>
      <trkpt lat="45.22605" lon="6.02854">
        <ele>1955.8</ele>
        <time>2021-12-19T08:41:56Z</time>
      </trkpt>
      <trkpt lat="45.22609" lon="6.02859">
        <ele>1956.8</ele>
        <time>2021-12-19T08:42:01Z</time>
      </trkpt>
      <trkpt lat="45.22609" lon="6.0286">
        <ele>1957</ele>
        <time>2021-12-19T08:42:02Z</time>
      </trkpt>
      <trkpt lat="45.22611" lon="6.02866">
        <ele>1958</ele>
        <time>2021-12-19T08:42:08Z</time>
      </trkpt>
      <trkpt lat="45.22612" lon="6.02869">
        <ele>1958.4</ele>
        <time>2021-12-19T08:42:11Z</time>
      </trkpt>
      <trkpt lat="45.22613" lon="6.02873">
        <ele>1959.2</ele>
        <time>2021-12-19T08:42:15Z</time>
      </trkpt>
      <trkpt lat="45.22615" lon="6.02881">
        <ele>1960.2</ele>
        <time>2021-12-19T08:42:21Z</time>
      </trkpt>
      <trkpt lat="45.22616" lon="6.02882">
        <ele>1960.2</ele>
        <time>2021-12-19T08:42:22Z</time>
      </trkpt>
      <trkpt lat="45.22617" lon="6.02888">
        <ele>1961.4</ele>
        <time>2021-12-19T08:42:28Z</time>
      </trkpt>
      <trkpt lat="45.22618" lon="6.02889">
        <ele>1961.6</ele>
        <time>2021-12-19T08:42:29Z</time>
      </trkpt>
      <trkpt lat="45.22621" lon="6.02894">
        <ele>1962.6</ele>
        <time>2021-12-19T08:42:35Z</time>
      </trkpt>
      <trkpt lat="45.22622" lon="6.02895">
        <ele>1963</ele>
        <time>2021-12-19T08:42:37Z</time>
      </trkpt>
      <trkpt lat="45.2262" lon="6.029">
        <ele>1963</ele>
        <time>2021-12-19T08:42:41Z</time>
      </trkpt>
      <trkpt lat="45.22617" lon="6.02906">
        <ele>1963.4</ele>
        <time>2021-12-19T08:42:44Z</time>
      </trkpt>
      <trkpt lat="45.22614" lon="6.02909">
        <ele>1963.6</ele>
        <time>2021-12-19T08:42:46Z</time>
      </trkpt>
      <trkpt lat="45.22609" lon="6.02911">
        <ele>1964.4</ele>
        <time>2021-12-19T08:42:51Z</time>
      </trkpt>
      <trkpt lat="45.22609" lon="6.02912">
        <ele>1964.6</ele>
        <time>2021-12-19T08:42:52Z</time>
      </trkpt>
      <trkpt lat="45.22605" lon="6.02914">
        <ele>1965.6</ele>
        <time>2021-12-19T08:42:58Z</time>
      </trkpt>
      <trkpt lat="45.22604" lon="6.02915">
        <ele>1966.2</ele>
        <time>2021-12-19T08:42:59Z</time>
      </trkpt>
      <trkpt lat="45.22604" lon="6.02916">
        <ele>1966.8</ele>
        <time>2021-12-19T08:43:01Z</time>
      </trkpt>
      <trkpt lat="45.22604" lon="6.02921">
        <ele>1968</ele>
        <time>2021-12-19T08:43:06Z</time>
      </trkpt>
      <trkpt lat="45.22604" lon="6.02924">
        <ele>1969.4</ele>
        <time>2021-12-19T08:43:10Z</time>
      </trkpt>
      <trkpt lat="45.22605" lon="6.02927">
        <ele>1970.6</ele>
        <time>2021-12-19T08:43:14Z</time>
      </trkpt>
      <trkpt lat="45.22603" lon="6.0293">
        <ele>1971.2</ele>
        <time>2021-12-19T08:43:20Z</time>
      </trkpt>
      <trkpt lat="45.22599" lon="6.02933">
        <ele>1972</ele>
        <time>2021-12-19T08:43:24Z</time>
      </trkpt>
      <trkpt lat="45.22597" lon="6.02934">
        <ele>1972.6</ele>
        <time>2021-12-19T08:43:27Z</time>
      </trkpt>
      <trkpt lat="45.22596" lon="6.02935">
        <ele>1973</ele>
        <time>2021-12-19T08:43:29Z</time>
      </trkpt>
      <trkpt lat="45.22592" lon="6.02937">
        <ele>1974.2</ele>
        <time>2021-12-19T08:43:34Z</time>
      </trkpt>
      <trkpt lat="45.2259" lon="6.02938">
        <ele>1974.6</ele>
        <time>2021-12-19T08:43:36Z</time>
      </trkpt>
      <trkpt lat="45.22589" lon="6.0294">
        <ele>1975.2</ele>
        <time>2021-12-19T08:43:39Z</time>
      </trkpt>
      <trkpt lat="45.22585" lon="6.02941">
        <ele>1976.6</ele>
        <time>2021-12-19T08:43:44Z</time>
      </trkpt>
      <trkpt lat="45.22584" lon="6.02942">
        <ele>1977</ele>
        <time>2021-12-19T08:43:46Z</time>
      </trkpt>
      <trkpt lat="45.22581" lon="6.02946">
        <ele>1977.8</ele>
        <time>2021-12-19T08:43:49Z</time>
      </trkpt>
      <trkpt lat="45.22579" lon="6.02949">
        <ele>1978.8</ele>
        <time>2021-12-19T08:43:53Z</time>
      </trkpt>
      <trkpt lat="45.22578" lon="6.0295">
        <ele>1979</ele>
        <time>2021-12-19T08:43:54Z</time>
      </trkpt>
      <trkpt lat="45.22576" lon="6.02953">
        <ele>1979.8</ele>
        <time>2021-12-19T08:43:58Z</time>
      </trkpt>
      <trkpt lat="45.22574" lon="6.02957">
        <ele>1981</ele>
        <time>2021-12-19T08:44:03Z</time>
      </trkpt>
      <trkpt lat="45.22574" lon="6.02957">
        <ele>1981.2</ele>
        <time>2021-12-19T08:44:04Z</time>
      </trkpt>
      <trkpt lat="45.22574" lon="6.0296">
        <ele>1982.4</ele>
        <time>2021-12-19T08:44:09Z</time>
      </trkpt>
      <trkpt lat="45.22573" lon="6.02962">
        <ele>1983.4</ele>
        <time>2021-12-19T08:44:13Z</time>
      </trkpt>
      <trkpt lat="45.22573" lon="6.02963">
        <ele>1983.6</ele>
        <time>2021-12-19T08:44:14Z</time>
      </trkpt>
      <trkpt lat="45.22575" lon="6.02965">
        <ele>1985</ele>
        <time>2021-12-19T08:44:19Z</time>
      </trkpt>
      <trkpt lat="45.22576" lon="6.02966">
        <ele>1985.4</ele>
        <time>2021-12-19T08:44:20Z</time>
      </trkpt>
      <trkpt lat="45.22578" lon="6.02966">
        <ele>1986</ele>
        <time>2021-12-19T08:44:23Z</time>
      </trkpt>
      <trkpt lat="45.2258" lon="6.02968">
        <ele>1986.6</ele>
        <time>2021-12-19T08:44:27Z</time>
      </trkpt>
      <trkpt lat="45.22582" lon="6.02968">
        <ele>1987</ele>
        <time>2021-12-19T08:44:29Z</time>
      </trkpt>
      <trkpt lat="45.22582" lon="6.02968">
        <ele>1987.2</ele>
        <time>2021-12-19T08:44:30Z</time>
      </trkpt>
      <trkpt lat="45.22586" lon="6.02969">
        <ele>1988</ele>
        <time>2021-12-19T08:44:34Z</time>
      </trkpt>
      <trkpt lat="45.22586" lon="6.02969">
        <ele>1988.2</ele>
        <time>2021-12-19T08:44:35Z</time>
      </trkpt>
      <trkpt lat="45.22589" lon="6.0297">
        <ele>1989.4</ele>
        <time>2021-12-19T08:44:41Z</time>
      </trkpt>
      <trkpt lat="45.22593" lon="6.02973">
        <ele>1990.4</ele>
        <time>2021-12-19T08:44:47Z</time>
      </trkpt>
      <trkpt lat="45.22595" lon="6.02978">
        <ele>1991.4</ele>
        <time>2021-12-19T08:44:52Z</time>
      </trkpt>
      <trkpt lat="45.22595" lon="6.02979">
        <ele>1991.4</ele>
        <time>2021-12-19T08:44:53Z</time>
      </trkpt>
      <trkpt lat="45.22592" lon="6.02984">
        <ele>1992.4</ele>
        <time>2021-12-19T08:44:58Z</time>
      </trkpt>
      <trkpt lat="45.22592" lon="6.02985">
        <ele>1992.6</ele>
        <time>2021-12-19T08:44:59Z</time>
      </trkpt>
      <trkpt lat="45.22589" lon="6.02991">
        <ele>1994</ele>
        <time>2021-12-19T08:45:05Z</time>
      </trkpt>
      <trkpt lat="45.22588" lon="6.02992">
        <ele>1994.2</ele>
        <time>2021-12-19T08:45:06Z</time>
      </trkpt>
      <trkpt lat="45.22587" lon="6.02995">
        <ele>1995</ele>
        <time>2021-12-19T08:45:09Z</time>
      </trkpt>
      <trkpt lat="45.2259" lon="6.02993">
        <ele>1996</ele>
        <time>2021-12-19T08:45:13Z</time>
      </trkpt>
      <trkpt lat="45.2259" lon="6.02993">
        <ele>1997</ele>
        <time>2021-12-19T08:45:18Z</time>
      </trkpt>
      <trkpt lat="45.2259" lon="6.02993">
        <ele>1997.2</ele>
        <time>2021-12-19T08:45:20Z</time>
      </trkpt>
      <trkpt lat="45.22593" lon="6.02995">
        <ele>1998</ele>
        <time>2021-12-19T08:45:41Z</time>
      </trkpt>
      <trkpt lat="45.22595" lon="6.02996">
        <ele>1998.4</ele>
        <time>2021-12-19T08:45:43Z</time>
      </trkpt>
      <trkpt lat="45.22602" lon="6.02998">
        <ele>1999.4</ele>
        <time>2021-12-19T08:45:49Z</time>
      </trkpt>
      <trkpt lat="45.22604" lon="6.02998">
        <ele>2000</ele>
        <time>2021-12-19T08:45:53Z</time>
      </trkpt>
      <trkpt lat="45.22606" lon="6.02998">
        <ele>2000.6</ele>
        <time>2021-12-19T08:45:55Z</time>
      </trkpt>
      <trkpt lat="45.2261" lon="6.02999">
        <ele>2001.6</ele>
        <time>2021-12-19T08:46:00Z</time>
      </trkpt>
      <trkpt lat="45.22612" lon="6.03">
        <ele>2002.2</ele>
        <time>2021-12-19T08:46:03Z</time>
      </trkpt>
      <trkpt lat="45.22615" lon="6.03">
        <ele>2002.8</ele>
        <time>2021-12-19T08:46:06Z</time>
      </trkpt>
      <trkpt lat="45.22619" lon="6.03">
        <ele>2003.6</ele>
        <time>2021-12-19T08:46:11Z</time>
      </trkpt>
      <trkpt lat="45.22621" lon="6.03001">
        <ele>2004</ele>
        <time>2021-12-19T08:46:14Z</time>
      </trkpt>
      <trkpt lat="45.22624" lon="6.03002">
        <ele>2005.2</ele>
        <time>2021-12-19T08:46:18Z</time>
      </trkpt>
      <trkpt lat="45.22628" lon="6.03004">
        <ele>2006.2</ele>
        <time>2021-12-19T08:46:22Z</time>
      </trkpt>
      <trkpt lat="45.22628" lon="6.03004">
        <ele>2006.2</ele>
        <time>2021-12-19T08:46:23Z</time>
      </trkpt>
      <trkpt lat="45.22634" lon="6.03004">
        <ele>2007.4</ele>
        <time>2021-12-19T08:46:30Z</time>
      </trkpt>
      <trkpt lat="45.22635" lon="6.03004">
        <ele>2007.4</ele>
        <time>2021-12-19T08:46:31Z</time>
      </trkpt>
      <trkpt lat="45.22638" lon="6.03008">
        <ele>2008.4</ele>
        <time>2021-12-19T08:46:37Z</time>
      </trkpt>
      <trkpt lat="45.22638" lon="6.03009">
        <ele>2008.4</ele>
        <time>2021-12-19T08:46:38Z</time>
      </trkpt>
      <trkpt lat="45.22638" lon="6.0301">
        <ele>2008.6</ele>
        <time>2021-12-19T08:46:39Z</time>
      </trkpt>
      <trkpt lat="45.22637" lon="6.03014">
        <ele>2009.4</ele>
        <time>2021-12-19T08:46:43Z</time>
      </trkpt>
      <trkpt lat="45.22637" lon="6.03017">
        <ele>2009.8</ele>
        <time>2021-12-19T08:46:45Z</time>
      </trkpt>
      <trkpt lat="45.22636" lon="6.0302">
        <ele>2010.4</ele>
        <time>2021-12-19T08:46:49Z</time>
      </trkpt>
      <trkpt lat="45.22635" lon="6.03024">
        <ele>2011.6</ele>
        <time>2021-12-19T08:46:53Z</time>
      </trkpt>
      <trkpt lat="45.22635" lon="6.03027">
        <ele>2011.6</ele>
        <time>2021-12-19T08:46:55Z</time>
      </trkpt>
      <trkpt lat="45.22637" lon="6.0303">
        <ele>2012.6</ele>
        <time>2021-12-19T08:47:00Z</time>
      </trkpt>
      <trkpt lat="45.22639" lon="6.03032">
        <ele>2013</ele>
        <time>2021-12-19T08:47:03Z</time>
      </trkpt>
      <trkpt lat="45.2264" lon="6.03035">
        <ele>2014</ele>
        <time>2021-12-19T08:47:06Z</time>
      </trkpt>
      <trkpt lat="45.22641" lon="6.03041">
        <ele>2015</ele>
        <time>2021-12-19T08:47:11Z</time>
      </trkpt>
      <trkpt lat="45.22643" lon="6.03045">
        <ele>2016.2</ele>
        <time>2021-12-19T08:47:16Z</time>
      </trkpt>
      <trkpt lat="45.22644" lon="6.03051">
        <ele>2017</ele>
        <time>2021-12-19T08:47:21Z</time>
      </trkpt>
      <trkpt lat="45.22645" lon="6.03052">
        <ele>2017.2</ele>
        <time>2021-12-19T08:47:22Z</time>
      </trkpt>
      <trkpt lat="45.22647" lon="6.0306">
        <ele>2018.4</ele>
        <time>2021-12-19T08:47:29Z</time>
      </trkpt>
      <trkpt lat="45.22648" lon="6.03066">
        <ele>2019.4</ele>
        <time>2021-12-19T08:47:34Z</time>
      </trkpt>
      <trkpt lat="45.22647" lon="6.03071">
        <ele>2020.4</ele>
        <time>2021-12-19T08:47:39Z</time>
      </trkpt>
      <trkpt lat="45.22647" lon="6.03072">
        <ele>2020.8</ele>
        <time>2021-12-19T08:47:40Z</time>
      </trkpt>
      <trkpt lat="45.22646" lon="6.03076">
        <ele>2021.8</ele>
        <time>2021-12-19T08:47:44Z</time>
      </trkpt>
      <trkpt lat="45.22646" lon="6.03076">
        <ele>2022.4</ele>
        <time>2021-12-19T08:47:47Z</time>
      </trkpt>
      <trkpt lat="45.22646" lon="6.03075">
        <ele>2022.8</ele>
        <time>2021-12-19T08:47:49Z</time>
      </trkpt>
      <trkpt lat="45.22648" lon="6.03073">
        <ele>2023.4</ele>
        <time>2021-12-19T08:47:54Z</time>
      </trkpt>
      <trkpt lat="45.22651" lon="6.03074">
        <ele>2023.8</ele>
        <time>2021-12-19T08:47:57Z</time>
      </trkpt>
      <trkpt lat="45.22653" lon="6.03073">
        <ele>2024.2</ele>
        <time>2021-12-19T08:48:01Z</time>
      </trkpt>
      <trkpt lat="45.22655" lon="6.03071">
        <ele>2025.2</ele>
        <time>2021-12-19T08:48:05Z</time>
      </trkpt>
      <trkpt lat="45.22656" lon="6.03071">
        <ele>2025.6</ele>
        <time>2021-12-19T08:48:09Z</time>
      </trkpt>
      <trkpt lat="45.22659" lon="6.03071">
        <ele>2026.4</ele>
        <time>2021-12-19T08:48:17Z</time>
      </trkpt>
      <trkpt lat="45.2266" lon="6.0307">
        <ele>2027.4</ele>
        <time>2021-12-19T08:48:22Z</time>
      </trkpt>
      <trkpt lat="45.22661" lon="6.03069">
        <ele>2027.8</ele>
        <time>2021-12-19T08:48:25Z</time>
      </trkpt>
      <trkpt lat="45.22664" lon="6.03066">
        <ele>2028.4</ele>
        <time>2021-12-19T08:48:31Z</time>
      </trkpt>
      <trkpt lat="45.22667" lon="6.03065">
        <ele>2029.4</ele>
        <time>2021-12-19T08:48:37Z</time>
      </trkpt>
      <trkpt lat="45.22668" lon="6.03065">
        <ele>2029.8</ele>
        <time>2021-12-19T08:48:40Z</time>
      </trkpt>
      <trkpt lat="45.22671" lon="6.03065">
        <ele>2030.4</ele>
        <time>2021-12-19T08:48:45Z</time>
      </trkpt>
      <trkpt lat="45.22673" lon="6.03067">
        <ele>2031</ele>
        <time>2021-12-19T08:48:48Z</time>
      </trkpt>
      <trkpt lat="45.22674" lon="6.03068">
        <ele>2031.8</ele>
        <time>2021-12-19T08:48:51Z</time>
      </trkpt>
      <trkpt lat="45.22676" lon="6.03072">
        <ele>2032.8</ele>
        <time>2021-12-19T08:48:56Z</time>
      </trkpt>
      <trkpt lat="45.22676" lon="6.03073">
        <ele>2032.8</ele>
        <time>2021-12-19T08:48:57Z</time>
      </trkpt>
      <trkpt lat="45.22678" lon="6.03074">
        <ele>2034</ele>
        <time>2021-12-19T08:49:01Z</time>
      </trkpt>
      <trkpt lat="45.22678" lon="6.03074">
        <ele>2034.4</ele>
        <time>2021-12-19T08:49:02Z</time>
      </trkpt>
      <trkpt lat="45.2268" lon="6.03076">
        <ele>2035.2</ele>
        <time>2021-12-19T08:49:06Z</time>
      </trkpt>
      <trkpt lat="45.22682" lon="6.03078">
        <ele>2036.2</ele>
        <time>2021-12-19T08:49:10Z</time>
      </trkpt>
      <trkpt lat="45.22682" lon="6.03079">
        <ele>2036.4</ele>
        <time>2021-12-19T08:49:11Z</time>
      </trkpt>
      <trkpt lat="45.22684" lon="6.0308">
        <ele>2037.4</ele>
        <time>2021-12-19T08:49:16Z</time>
      </trkpt>
      <trkpt lat="45.22684" lon="6.03081">
        <ele>2037.6</ele>
        <time>2021-12-19T08:49:17Z</time>
      </trkpt>
      <trkpt lat="45.22686" lon="6.03082">
        <ele>2038.8</ele>
        <time>2021-12-19T08:49:21Z</time>
      </trkpt>
      <trkpt lat="45.22687" lon="6.03083">
        <ele>2039</ele>
        <time>2021-12-19T08:49:23Z</time>
      </trkpt>
      <trkpt lat="45.22688" lon="6.03086">
        <ele>2040</ele>
        <time>2021-12-19T08:49:27Z</time>
      </trkpt>
      <trkpt lat="45.2269" lon="6.03089">
        <ele>2040.6</ele>
        <time>2021-12-19T08:49:31Z</time>
      </trkpt>
      <trkpt lat="45.2269" lon="6.0309">
        <ele>2041</ele>
        <time>2021-12-19T08:49:32Z</time>
      </trkpt>
      <trkpt lat="45.22693" lon="6.03092">
        <ele>2042.2</ele>
        <time>2021-12-19T08:49:38Z</time>
      </trkpt>
      <trkpt lat="45.22694" lon="6.03094">
        <ele>2042.8</ele>
        <time>2021-12-19T08:49:40Z</time>
      </trkpt>
      <trkpt lat="45.22696" lon="6.03096">
        <ele>2043.2</ele>
        <time>2021-12-19T08:49:43Z</time>
      </trkpt>
      <trkpt lat="45.22698" lon="6.03098">
        <ele>2044.2</ele>
        <time>2021-12-19T08:49:47Z</time>
      </trkpt>
      <trkpt lat="45.22699" lon="6.03099">
        <ele>2044.6</ele>
        <time>2021-12-19T08:49:48Z</time>
      </trkpt>
      <trkpt lat="45.22701" lon="6.03102">
        <ele>2045.8</ele>
        <time>2021-12-19T08:49:53Z</time>
      </trkpt>
      <trkpt lat="45.22702" lon="6.03103">
        <ele>2046.2</ele>
        <time>2021-12-19T08:49:55Z</time>
      </trkpt>
      <trkpt lat="45.22704" lon="6.03105">
        <ele>2046.8</ele>
        <time>2021-12-19T08:49:59Z</time>
      </trkpt>
      <trkpt lat="45.22707" lon="6.03108">
        <ele>2047.2</ele>
        <time>2021-12-19T08:50:02Z</time>
      </trkpt>
      <trkpt lat="45.22709" lon="6.0311">
        <ele>2047.8</ele>
        <time>2021-12-19T08:50:05Z</time>
      </trkpt>
      <trkpt lat="45.22711" lon="6.03116">
        <ele>2048.8</ele>
        <time>2021-12-19T08:50:10Z</time>
      </trkpt>
      <trkpt lat="45.22712" lon="6.03118">
        <ele>2048.8</ele>
        <time>2021-12-19T08:50:12Z</time>
      </trkpt>
      <trkpt lat="45.22714" lon="6.03121">
        <ele>2050</ele>
        <time>2021-12-19T08:50:16Z</time>
      </trkpt>
      <trkpt lat="45.22714" lon="6.03122">
        <ele>2050.2</ele>
        <time>2021-12-19T08:50:17Z</time>
      </trkpt>
      <trkpt lat="45.22716" lon="6.03125">
        <ele>2051</ele>
        <time>2021-12-19T08:50:21Z</time>
      </trkpt>
      <trkpt lat="45.22718" lon="6.03128">
        <ele>2051.6</ele>
        <time>2021-12-19T08:50:24Z</time>
      </trkpt>
      <trkpt lat="45.22719" lon="6.03131">
        <ele>2052.4</ele>
        <time>2021-12-19T08:50:28Z</time>
      </trkpt>
      <trkpt lat="45.22721" lon="6.03133">
        <ele>2053.4</ele>
        <time>2021-12-19T08:50:31Z</time>
      </trkpt>
      <trkpt lat="45.22723" lon="6.03137">
        <ele>2054</ele>
        <time>2021-12-19T08:50:35Z</time>
      </trkpt>
      <trkpt lat="45.22723" lon="6.03139">
        <ele>2054.6</ele>
        <time>2021-12-19T08:50:37Z</time>
      </trkpt>
      <trkpt lat="45.22725" lon="6.03143">
        <ele>2055.6</ele>
        <time>2021-12-19T08:50:41Z</time>
      </trkpt>
      <trkpt lat="45.22726" lon="6.03145">
        <ele>2055.8</ele>
        <time>2021-12-19T08:50:43Z</time>
      </trkpt>
      <trkpt lat="45.22728" lon="6.03152">
        <ele>2056.8</ele>
        <time>2021-12-19T08:50:50Z</time>
      </trkpt>
      <trkpt lat="45.22728" lon="6.03153">
        <ele>2057</ele>
        <time>2021-12-19T08:50:51Z</time>
      </trkpt>
      <trkpt lat="45.22728" lon="6.03155">
        <ele>2058</ele>
        <time>2021-12-19T08:50:53Z</time>
      </trkpt>
      <trkpt lat="45.22728" lon="6.03162">
        <ele>2059</ele>
        <time>2021-12-19T08:50:59Z</time>
      </trkpt>
      <trkpt lat="45.22728" lon="6.03163">
        <ele>2059</ele>
        <time>2021-12-19T08:51:00Z</time>
      </trkpt>
      <trkpt lat="45.22729" lon="6.03166">
        <ele>2060</ele>
        <time>2021-12-19T08:51:04Z</time>
      </trkpt>
      <trkpt lat="45.22731" lon="6.03168">
        <ele>2061.2</ele>
        <time>2021-12-19T08:51:08Z</time>
      </trkpt>
      <trkpt lat="45.22732" lon="6.03168">
        <ele>2061.6</ele>
        <time>2021-12-19T08:51:09Z</time>
      </trkpt>
      <trkpt lat="45.22735" lon="6.03171">
        <ele>2062.6</ele>
        <time>2021-12-19T08:51:13Z</time>
      </trkpt>
      <trkpt lat="45.22739" lon="6.03174">
        <ele>2063.4</ele>
        <time>2021-12-19T08:51:18Z</time>
      </trkpt>
      <trkpt lat="45.2274" lon="6.03174">
        <ele>2063.6</ele>
        <time>2021-12-19T08:51:19Z</time>
      </trkpt>
      <trkpt lat="45.22741" lon="6.03172">
        <ele>2064.6</ele>
        <time>2021-12-19T08:51:23Z</time>
      </trkpt>
      <trkpt lat="45.22742" lon="6.03171">
        <ele>2065.6</ele>
        <time>2021-12-19T08:51:27Z</time>
      </trkpt>
      <trkpt lat="45.22745" lon="6.03172">
        <ele>2066.4</ele>
        <time>2021-12-19T08:51:30Z</time>
      </trkpt>
      <trkpt lat="45.22746" lon="6.03171">
        <ele>2067</ele>
        <time>2021-12-19T08:51:32Z</time>
      </trkpt>
      <trkpt lat="45.2275" lon="6.03172">
        <ele>2068</ele>
        <time>2021-12-19T08:51:37Z</time>
      </trkpt>
      <trkpt lat="45.2275" lon="6.03172">
        <ele>2068.2</ele>
        <time>2021-12-19T08:51:38Z</time>
      </trkpt>
      <trkpt lat="45.22752" lon="6.03174">
        <ele>2068.8</ele>
        <time>2021-12-19T08:51:42Z</time>
      </trkpt>
      <trkpt lat="45.22753" lon="6.03174">
        <ele>2069.2</ele>
        <time>2021-12-19T08:51:44Z</time>
      </trkpt>
      <trkpt lat="45.22758" lon="6.03177">
        <ele>2070</ele>
        <time>2021-12-19T08:51:50Z</time>
      </trkpt>
      <trkpt lat="45.2276" lon="6.03178">
        <ele>2070.2</ele>
        <time>2021-12-19T08:51:52Z</time>
      </trkpt>
      <trkpt lat="45.22761" lon="6.03183">
        <ele>2070.8</ele>
        <time>2021-12-19T08:51:57Z</time>
      </trkpt>
      <trkpt lat="45.2276" lon="6.03186">
        <ele>2071.4</ele>
        <time>2021-12-19T08:52:00Z</time>
      </trkpt>
      <trkpt lat="45.22759" lon="6.0319">
        <ele>2072</ele>
        <time>2021-12-19T08:52:04Z</time>
      </trkpt>
      <trkpt lat="45.22759" lon="6.03197">
        <ele>2072.4</ele>
        <time>2021-12-19T08:52:09Z</time>
      </trkpt>
      <trkpt lat="45.22758" lon="6.03203">
        <ele>2073.2</ele>
        <time>2021-12-19T08:52:13Z</time>
      </trkpt>
      <trkpt lat="45.22758" lon="6.03204">
        <ele>2073.4</ele>
        <time>2021-12-19T08:52:14Z</time>
      </trkpt>
      <trkpt lat="45.22758" lon="6.03208">
        <ele>2074.6</ele>
        <time>2021-12-19T08:52:18Z</time>
      </trkpt>
      <trkpt lat="45.22757" lon="6.03212">
        <ele>2075.2</ele>
        <time>2021-12-19T08:52:22Z</time>
      </trkpt>
      <trkpt lat="45.22757" lon="6.03213">
        <ele>2075.6</ele>
        <time>2021-12-19T08:52:23Z</time>
      </trkpt>
      <trkpt lat="45.22756" lon="6.03218">
        <ele>2076.8</ele>
        <time>2021-12-19T08:52:28Z</time>
      </trkpt>
      <trkpt lat="45.22755" lon="6.03221">
        <ele>2077.6</ele>
        <time>2021-12-19T08:52:30Z</time>
      </trkpt>
      <trkpt lat="45.22754" lon="6.03224">
        <ele>2078</ele>
        <time>2021-12-19T08:52:33Z</time>
      </trkpt>
      <trkpt lat="45.22753" lon="6.03229">
        <ele>2079</ele>
        <time>2021-12-19T08:52:38Z</time>
      </trkpt>
      <trkpt lat="45.22753" lon="6.03231">
        <ele>2080.2</ele>
        <time>2021-12-19T08:52:41Z</time>
      </trkpt>
      <trkpt lat="45.2275" lon="6.03236">
        <ele>2081.4</ele>
        <time>2021-12-19T08:52:47Z</time>
      </trkpt>
      <trkpt lat="45.22748" lon="6.0324">
        <ele>2082.4</ele>
        <time>2021-12-19T08:52:51Z</time>
      </trkpt>
      <trkpt lat="45.22746" lon="6.03243">
        <ele>2083</ele>
        <time>2021-12-19T08:52:55Z</time>
      </trkpt>
      <trkpt lat="45.22745" lon="6.03245">
        <ele>2083.6</ele>
        <time>2021-12-19T08:52:57Z</time>
      </trkpt>
      <trkpt lat="45.22744" lon="6.03247">
        <ele>2084.6</ele>
        <time>2021-12-19T08:53:01Z</time>
      </trkpt>
      <trkpt lat="45.22742" lon="6.0325">
        <ele>2085.6</ele>
        <time>2021-12-19T08:53:05Z</time>
      </trkpt>
      <trkpt lat="45.22741" lon="6.0325">
        <ele>2085.8</ele>
        <time>2021-12-19T08:53:06Z</time>
      </trkpt>
      <trkpt lat="45.22737" lon="6.03252">
        <ele>2087</ele>
        <time>2021-12-19T08:53:12Z</time>
      </trkpt>
      <trkpt lat="45.22737" lon="6.03253">
        <ele>2087.8</ele>
        <time>2021-12-19T08:53:16Z</time>
      </trkpt>
      <trkpt lat="45.22736" lon="6.03253">
        <ele>2088</ele>
        <time>2021-12-19T08:53:18Z</time>
      </trkpt>
      <trkpt lat="45.22737" lon="6.03253">
        <ele>2088.8</ele>
        <time>2021-12-19T08:53:24Z</time>
      </trkpt>
      <trkpt lat="45.22738" lon="6.03251">
        <ele>2089.2</ele>
        <time>2021-12-19T08:53:26Z</time>
      </trkpt>
      <trkpt lat="45.2274" lon="6.03251">
        <ele>2090</ele>
        <time>2021-12-19T08:53:30Z</time>
      </trkpt>
      <trkpt lat="45.2274" lon="6.03251">
        <ele>2090.2</ele>
        <time>2021-12-19T08:53:31Z</time>
      </trkpt>
      <trkpt lat="45.22745" lon="6.03252">
        <ele>2091.2</ele>
        <time>2021-12-19T08:53:38Z</time>
      </trkpt>
      <trkpt lat="45.22747" lon="6.03254">
        <ele>2092.4</ele>
        <time>2021-12-19T08:53:43Z</time>
      </trkpt>
      <trkpt lat="45.22749" lon="6.03254">
        <ele>2092.8</ele>
        <time>2021-12-19T08:53:45Z</time>
      </trkpt>
      <trkpt lat="45.22751" lon="6.03255">
        <ele>2093.6</ele>
        <time>2021-12-19T08:53:49Z</time>
      </trkpt>
      <trkpt lat="45.22752" lon="6.03255">
        <ele>2094</ele>
        <time>2021-12-19T08:53:51Z</time>
      </trkpt>
      <trkpt lat="45.22753" lon="6.03257">
        <ele>2094.6</ele>
        <time>2021-12-19T08:53:54Z</time>
      </trkpt>
      <trkpt lat="45.22756" lon="6.0326">
        <ele>2095.4</ele>
        <time>2021-12-19T08:53:59Z</time>
      </trkpt>
      <trkpt lat="45.22757" lon="6.0326">
        <ele>2095.8</ele>
        <time>2021-12-19T08:54:00Z</time>
      </trkpt>
      <trkpt lat="45.2276" lon="6.03262">
        <ele>2096.8</ele>
        <time>2021-12-19T08:54:05Z</time>
      </trkpt>
      <trkpt lat="45.2276" lon="6.03261">
        <ele>2097</ele>
        <time>2021-12-19T08:54:06Z</time>
      </trkpt>
      <trkpt lat="45.22763" lon="6.03263">
        <ele>2098</ele>
        <time>2021-12-19T08:54:11Z</time>
      </trkpt>
      <trkpt lat="45.22763" lon="6.03263">
        <ele>2098.4</ele>
        <time>2021-12-19T08:54:12Z</time>
      </trkpt>
      <trkpt lat="45.22765" lon="6.03264">
        <ele>2099.2</ele>
        <time>2021-12-19T08:54:16Z</time>
      </trkpt>
      <trkpt lat="45.22766" lon="6.03264">
        <ele>2100</ele>
        <time>2021-12-19T08:54:19Z</time>
      </trkpt>
      <trkpt lat="45.22767" lon="6.03264">
        <ele>2100.2</ele>
        <time>2021-12-19T08:54:20Z</time>
      </trkpt>
      <trkpt lat="45.2277" lon="6.03265">
        <ele>2101.2</ele>
        <time>2021-12-19T08:54:27Z</time>
      </trkpt>
      <trkpt lat="45.22772" lon="6.03267">
        <ele>2102</ele>
        <time>2021-12-19T08:54:31Z</time>
      </trkpt>
      <trkpt lat="45.22773" lon="6.03267">
        <ele>2102.4</ele>
        <time>2021-12-19T08:54:32Z</time>
      </trkpt>
      <trkpt lat="45.22774" lon="6.03269">
        <ele>2102.8</ele>
        <time>2021-12-19T08:54:35Z</time>
      </trkpt>
      <trkpt lat="45.22775" lon="6.03269">
        <ele>2103.2</ele>
        <time>2021-12-19T08:54:37Z</time>
      </trkpt>
      <trkpt lat="45.22775" lon="6.03269">
        <ele>2103.4</ele>
        <time>2021-12-19T08:54:38Z</time>
      </trkpt>
      <trkpt lat="45.22778" lon="6.0327">
        <ele>2104.6</ele>
        <time>2021-12-19T08:54:43Z</time>
      </trkpt>
      <trkpt lat="45.22778" lon="6.0327">
        <ele>2104.6</ele>
        <time>2021-12-19T08:54:44Z</time>
      </trkpt>
      <trkpt lat="45.22781" lon="6.0327">
        <ele>2105.6</ele>
        <time>2021-12-19T08:54:49Z</time>
      </trkpt>
      <trkpt lat="45.22782" lon="6.0327">
        <ele>2105.8</ele>
        <time>2021-12-19T08:54:50Z</time>
      </trkpt>
      <trkpt lat="45.22785" lon="6.03271">
        <ele>2106.6</ele>
        <time>2021-12-19T08:54:55Z</time>
      </trkpt>
      <trkpt lat="45.22786" lon="6.03271">
        <ele>2106.8</ele>
        <time>2021-12-19T08:54:56Z</time>
      </trkpt>
      <trkpt lat="45.22789" lon="6.03272">
        <ele>2107.8</ele>
        <time>2021-12-19T08:55:01Z</time>
      </trkpt>
      <trkpt lat="45.2279" lon="6.03272">
        <ele>2108.2</ele>
        <time>2021-12-19T08:55:03Z</time>
      </trkpt>
      <trkpt lat="45.22792" lon="6.03272">
        <ele>2108.8</ele>
        <time>2021-12-19T08:55:06Z</time>
      </trkpt>
      <trkpt lat="45.22795" lon="6.03272">
        <ele>2109.8</ele>
        <time>2021-12-19T08:55:11Z</time>
      </trkpt>
      <trkpt lat="45.22798" lon="6.03271">
        <ele>2111</ele>
        <time>2021-12-19T08:55:16Z</time>
      </trkpt>
      <trkpt lat="45.22798" lon="6.03271">
        <ele>2111.4</ele>
        <time>2021-12-19T08:55:17Z</time>
      </trkpt>
      <trkpt lat="45.22799" lon="6.03269">
        <ele>2112</ele>
        <time>2021-12-19T08:55:20Z</time>
      </trkpt>
      <trkpt lat="45.22801" lon="6.03268">
        <ele>2112.4</ele>
        <time>2021-12-19T08:55:26Z</time>
      </trkpt>
      <trkpt lat="45.22801" lon="6.03273">
        <ele>2113</ele>
        <time>2021-12-19T08:55:34Z</time>
      </trkpt>
      <trkpt lat="45.228" lon="6.03278">
        <ele>2113.8</ele>
        <time>2021-12-19T08:55:40Z</time>
      </trkpt>
      <trkpt lat="45.228" lon="6.03279">
        <ele>2114.2</ele>
        <time>2021-12-19T08:55:41Z</time>
      </trkpt>
      <trkpt lat="45.22799" lon="6.03282">
        <ele>2114.8</ele>
        <time>2021-12-19T08:55:45Z</time>
      </trkpt>
      <trkpt lat="45.22799" lon="6.03283">
        <ele>2115.2</ele>
        <time>2021-12-19T08:55:47Z</time>
      </trkpt>
      <trkpt lat="45.22797" lon="6.03288">
        <ele>2116.6</ele>
        <time>2021-12-19T08:55:53Z</time>
      </trkpt>
      <trkpt lat="45.22797" lon="6.03289">
        <ele>2116.8</ele>
        <time>2021-12-19T08:55:54Z</time>
      </trkpt>
      <trkpt lat="45.22796" lon="6.0329">
        <ele>2117.6</ele>
        <time>2021-12-19T08:56:00Z</time>
      </trkpt>
      <trkpt lat="45.22796" lon="6.0329">
        <ele>2117.8</ele>
        <time>2021-12-19T08:56:02Z</time>
      </trkpt>
      <trkpt lat="45.22799" lon="6.03288">
        <ele>2118.2</ele>
        <time>2021-12-19T08:56:08Z</time>
      </trkpt>
      <trkpt lat="45.228" lon="6.03287">
        <ele>2118.8</ele>
        <time>2021-12-19T08:56:11Z</time>
      </trkpt>
      <trkpt lat="45.22802" lon="6.03287">
        <ele>2119.8</ele>
        <time>2021-12-19T08:56:15Z</time>
      </trkpt>
      <trkpt lat="45.22803" lon="6.03287">
        <ele>2120</ele>
        <time>2021-12-19T08:56:16Z</time>
      </trkpt>
      <trkpt lat="45.22806" lon="6.03286">
        <ele>2121.2</ele>
        <time>2021-12-19T08:56:22Z</time>
      </trkpt>
      <trkpt lat="45.22807" lon="6.03285">
        <ele>2121.4</ele>
        <time>2021-12-19T08:56:23Z</time>
      </trkpt>
      <trkpt lat="45.22808" lon="6.03282">
        <ele>2122</ele>
        <time>2021-12-19T08:56:27Z</time>
      </trkpt>
      <trkpt lat="45.22809" lon="6.03281">
        <ele>2122.2</ele>
        <time>2021-12-19T08:56:29Z</time>
      </trkpt>
      <trkpt lat="45.2281" lon="6.0328">
        <ele>2122.4</ele>
        <time>2021-12-19T08:56:31Z</time>
      </trkpt>
      <trkpt lat="45.22813" lon="6.03276">
        <ele>2123.2</ele>
        <time>2021-12-19T08:56:36Z</time>
      </trkpt>
      <trkpt lat="45.22813" lon="6.03273">
        <ele>2123.6</ele>
        <time>2021-12-19T08:56:38Z</time>
      </trkpt>
      <trkpt lat="45.22815" lon="6.03272">
        <ele>2124.4</ele>
        <time>2021-12-19T08:56:43Z</time>
      </trkpt>
      <trkpt lat="45.22817" lon="6.03272">
        <ele>2125</ele>
        <time>2021-12-19T08:56:46Z</time>
      </trkpt>
      <trkpt lat="45.22819" lon="6.03274">
        <ele>2125.4</ele>
        <time>2021-12-19T08:56:52Z</time>
      </trkpt>
      <trkpt lat="45.22819" lon="6.03275">
        <ele>2125.6</ele>
        <time>2021-12-19T08:56:53Z</time>
      </trkpt>
      <trkpt lat="45.2282" lon="6.03279">
        <ele>2126.2</ele>
        <time>2021-12-19T08:56:59Z</time>
      </trkpt>
      <trkpt lat="45.2282" lon="6.0328">
        <ele>2126.6</ele>
        <time>2021-12-19T08:57:01Z</time>
      </trkpt>
      <trkpt lat="45.2282" lon="6.03279">
        <ele>2127.6</ele>
        <time>2021-12-19T08:57:07Z</time>
      </trkpt>
      <trkpt lat="45.22824" lon="6.03277">
        <ele>2128.8</ele>
        <time>2021-12-19T08:57:13Z</time>
      </trkpt>
      <trkpt lat="45.22824" lon="6.03277">
        <ele>2129</ele>
        <time>2021-12-19T08:57:14Z</time>
      </trkpt>
      <trkpt lat="45.22825" lon="6.03276">
        <ele>2129</ele>
        <time>2021-12-19T08:57:15Z</time>
      </trkpt>
      <trkpt lat="45.22828" lon="6.03275">
        <ele>2129.8</ele>
        <time>2021-12-19T08:57:19Z</time>
      </trkpt>
      <trkpt lat="45.22828" lon="6.03278">
        <ele>2130.4</ele>
        <time>2021-12-19T08:57:22Z</time>
      </trkpt>
      <trkpt lat="45.22827" lon="6.03282">
        <ele>2131</ele>
        <time>2021-12-19T08:57:26Z</time>
      </trkpt>
      <trkpt lat="45.22827" lon="6.03286">
        <ele>2131.8</ele>
        <time>2021-12-19T08:57:30Z</time>
      </trkpt>
      <trkpt lat="45.22827" lon="6.03287">
        <ele>2132</ele>
        <time>2021-12-19T08:57:31Z</time>
      </trkpt>
      <trkpt lat="45.22828" lon="6.03292">
        <ele>2133.4</ele>
        <time>2021-12-19T08:57:38Z</time>
      </trkpt>
      <trkpt lat="45.22829" lon="6.03289">
        <ele>2134.4</ele>
        <time>2021-12-19T08:57:44Z</time>
      </trkpt>
      <trkpt lat="45.2283" lon="6.03288">
        <ele>2134.6</ele>
        <time>2021-12-19T08:57:46Z</time>
      </trkpt>
      <trkpt lat="45.22832" lon="6.03287">
        <ele>2135.4</ele>
        <time>2021-12-19T08:57:50Z</time>
      </trkpt>
      <trkpt lat="45.22834" lon="6.03286">
        <ele>2136.2</ele>
        <time>2021-12-19T08:57:54Z</time>
      </trkpt>
      <trkpt lat="45.22836" lon="6.03284">
        <ele>2136.4</ele>
        <time>2021-12-19T08:57:57Z</time>
      </trkpt>
      <trkpt lat="45.2284" lon="6.0328">
        <ele>2137</ele>
        <time>2021-12-19T08:58:02Z</time>
      </trkpt>
      <trkpt lat="45.22842" lon="6.03278">
        <ele>2137.8</ele>
        <time>2021-12-19T08:58:06Z</time>
      </trkpt>
      <trkpt lat="45.22844" lon="6.03279">
        <ele>2138</ele>
        <time>2021-12-19T08:58:08Z</time>
      </trkpt>
      <trkpt lat="45.22846" lon="6.03279">
        <ele>2138.2</ele>
        <time>2021-12-19T08:58:10Z</time>
      </trkpt>
      <trkpt lat="45.22852" lon="6.03285">
        <ele>2138.6</ele>
        <time>2021-12-19T08:58:17Z</time>
      </trkpt>
      <trkpt lat="45.22853" lon="6.03286">
        <ele>2138.8</ele>
        <time>2021-12-19T08:58:18Z</time>
      </trkpt>
      <trkpt lat="45.22857" lon="6.0329">
        <ele>2139.6</ele>
        <time>2021-12-19T08:58:24Z</time>
      </trkpt>
      <trkpt lat="45.22858" lon="6.03291">
        <ele>2140</ele>
        <time>2021-12-19T08:58:25Z</time>
      </trkpt>
      <trkpt lat="45.2286" lon="6.0329">
        <ele>2140.8</ele>
        <time>2021-12-19T08:58:30Z</time>
      </trkpt>
      <trkpt lat="45.22861" lon="6.0329">
        <ele>2141.2</ele>
        <time>2021-12-19T08:58:31Z</time>
      </trkpt>
      <trkpt lat="45.22863" lon="6.03289">
        <ele>2142.2</ele>
        <time>2021-12-19T08:58:35Z</time>
      </trkpt>
      <trkpt lat="45.22865" lon="6.03288">
        <ele>2143.2</ele>
        <time>2021-12-19T08:58:38Z</time>
      </trkpt>
      <trkpt lat="45.22866" lon="6.03288">
        <ele>2143.6</ele>
        <time>2021-12-19T08:58:39Z</time>
      </trkpt>
      <trkpt lat="45.22869" lon="6.0329">
        <ele>2144.6</ele>
        <time>2021-12-19T08:58:44Z</time>
      </trkpt>
      <trkpt lat="45.22871" lon="6.03291">
        <ele>2145.2</ele>
        <time>2021-12-19T08:58:47Z</time>
      </trkpt>
      <trkpt lat="45.22873" lon="6.03293">
        <ele>2145.8</ele>
        <time>2021-12-19T08:58:49Z</time>
      </trkpt>
      <trkpt lat="45.22876" lon="6.03297">
        <ele>2146.6</ele>
        <time>2021-12-19T08:58:55Z</time>
      </trkpt>
      <trkpt lat="45.22877" lon="6.03298">
        <ele>2146.8</ele>
        <time>2021-12-19T08:58:56Z</time>
      </trkpt>
      <trkpt lat="45.22879" lon="6.033">
        <ele>2147.8</ele>
        <time>2021-12-19T08:59:00Z</time>
      </trkpt>
      <trkpt lat="45.22879" lon="6.03301">
        <ele>2148</ele>
        <time>2021-12-19T08:59:01Z</time>
      </trkpt>
      <trkpt lat="45.22882" lon="6.03305">
        <ele>2149</ele>
        <time>2021-12-19T08:59:06Z</time>
      </trkpt>
      <trkpt lat="45.22883" lon="6.03307">
        <ele>2149.2</ele>
        <time>2021-12-19T08:59:08Z</time>
      </trkpt>
      <trkpt lat="45.22887" lon="6.03313">
        <ele>2150.4</ele>
        <time>2021-12-19T08:59:15Z</time>
      </trkpt>
      <trkpt lat="45.22887" lon="6.03314">
        <ele>2151.4</ele>
        <time>2021-12-19T08:59:19Z</time>
      </trkpt>
      <trkpt lat="45.22887" lon="6.03313">
        <ele>2151.8</ele>
        <time>2021-12-19T08:59:21Z</time>
      </trkpt>
      <trkpt lat="45.2289" lon="6.03317">
        <ele>2152.2</ele>
        <time>2021-12-19T08:59:32Z</time>
      </trkpt>
      <trkpt lat="45.2289" lon="6.03317">
        <ele>2152.6</ele>
        <time>2021-12-19T08:59:34Z</time>
      </trkpt>
      <trkpt lat="45.22893" lon="6.03318">
        <ele>2154.2</ele>
        <time>2021-12-19T08:59:38Z</time>
      </trkpt>
      <trkpt lat="45.22893" lon="6.03318">
        <ele>2154.4</ele>
        <time>2021-12-19T08:59:39Z</time>
      </trkpt>
      <trkpt lat="45.22896" lon="6.03317">
        <ele>2155.2</ele>
        <time>2021-12-19T08:59:43Z</time>
      </trkpt>
      <trkpt lat="45.22899" lon="6.03318">
        <ele>2156.2</ele>
        <time>2021-12-19T08:59:48Z</time>
      </trkpt>
      <trkpt lat="45.229" lon="6.03318">
        <ele>2156.4</ele>
        <time>2021-12-19T08:59:49Z</time>
      </trkpt>
      <trkpt lat="45.22903" lon="6.03317">
        <ele>2157.6</ele>
        <time>2021-12-19T08:59:55Z</time>
      </trkpt>
      <trkpt lat="45.22905" lon="6.03315">
        <ele>2158.2</ele>
        <time>2021-12-19T08:59:59Z</time>
      </trkpt>
      <trkpt lat="45.22906" lon="6.03314">
        <ele>2158.6</ele>
        <time>2021-12-19T09:00:01Z</time>
      </trkpt>
      <trkpt lat="45.22909" lon="6.03313">
        <ele>2159.6</ele>
        <time>2021-12-19T09:00:06Z</time>
      </trkpt>
      <trkpt lat="45.2291" lon="6.03313">
        <ele>2159.6</ele>
        <time>2021-12-19T09:00:07Z</time>
      </trkpt>
      <trkpt lat="45.22913" lon="6.03312">
        <ele>2161</ele>
        <time>2021-12-19T09:00:12Z</time>
      </trkpt>
      <trkpt lat="45.22916" lon="6.0331">
        <ele>2162.2</ele>
        <time>2021-12-19T09:00:18Z</time>
      </trkpt>
      <trkpt lat="45.22917" lon="6.03309">
        <ele>2163.2</ele>
        <time>2021-12-19T09:00:22Z</time>
      </trkpt>
      <trkpt lat="45.22918" lon="6.0331">
        <ele>2163.6</ele>
        <time>2021-12-19T09:00:29Z</time>
      </trkpt>
      <trkpt lat="45.22918" lon="6.03318">
        <ele>2163.8</ele>
        <time>2021-12-19T09:00:36Z</time>
      </trkpt>
      <trkpt lat="45.22919" lon="6.03322">
        <ele>2164.4</ele>
        <time>2021-12-19T09:00:40Z</time>
      </trkpt>
      <trkpt lat="45.22919" lon="6.03325">
        <ele>2165.2</ele>
        <time>2021-12-19T09:00:44Z</time>
      </trkpt>
      <trkpt lat="45.22919" lon="6.03326">
        <ele>2165.4</ele>
        <time>2021-12-19T09:00:45Z</time>
      </trkpt>
      <trkpt lat="45.22918" lon="6.03331">
        <ele>2166.6</ele>
        <time>2021-12-19T09:00:50Z</time>
      </trkpt>
      <trkpt lat="45.22919" lon="6.03334">
        <ele>2166.8</ele>
        <time>2021-12-19T09:00:53Z</time>
      </trkpt>
      <trkpt lat="45.22919" lon="6.03334">
        <ele>2167</ele>
        <time>2021-12-19T09:00:54Z</time>
      </trkpt>
      <trkpt lat="45.22919" lon="6.03337">
        <ele>2167.8</ele>
        <time>2021-12-19T09:00:57Z</time>
      </trkpt>
      <trkpt lat="45.2292" lon="6.03339">
        <ele>2168.2</ele>
        <time>2021-12-19T09:01:00Z</time>
      </trkpt>
      <trkpt lat="45.22923" lon="6.03343">
        <ele>2169</ele>
        <time>2021-12-19T09:01:05Z</time>
      </trkpt>
      <trkpt lat="45.22926" lon="6.03348">
        <ele>2170.2</ele>
        <time>2021-12-19T09:01:11Z</time>
      </trkpt>
      <trkpt lat="45.22927" lon="6.03356">
        <ele>2171.2</ele>
        <time>2021-12-19T09:01:18Z</time>
      </trkpt>
      <trkpt lat="45.22926" lon="6.03356">
        <ele>2171.4</ele>
        <time>2021-12-19T09:01:19Z</time>
      </trkpt>
      <trkpt lat="45.22926" lon="6.03355">
        <ele>2172.2</ele>
        <time>2021-12-19T09:01:23Z</time>
      </trkpt>
      <trkpt lat="45.22927" lon="6.03354">
        <ele>2172.4</ele>
        <time>2021-12-19T09:01:24Z</time>
      </trkpt>
      <trkpt lat="45.22928" lon="6.03354">
        <ele>2173.4</ele>
        <time>2021-12-19T09:01:27Z</time>
      </trkpt>
      <trkpt lat="45.22931" lon="6.03351">
        <ele>2174.2</ele>
        <time>2021-12-19T09:01:33Z</time>
      </trkpt>
      <trkpt lat="45.22931" lon="6.0335">
        <ele>2174.4</ele>
        <time>2021-12-19T09:01:34Z</time>
      </trkpt>
      <trkpt lat="45.22932" lon="6.03349">
        <ele>2174.8</ele>
        <time>2021-12-19T09:01:40Z</time>
      </trkpt>
      <trkpt lat="45.22933" lon="6.03353">
        <ele>2175.6</ele>
        <time>2021-12-19T09:01:49Z</time>
      </trkpt>
      <trkpt lat="45.22933" lon="6.03353">
        <ele>2175.8</ele>
        <time>2021-12-19T09:01:50Z</time>
      </trkpt>
      <trkpt lat="45.22934" lon="6.03352">
        <ele>2176.6</ele>
        <time>2021-12-19T09:01:54Z</time>
      </trkpt>
      <trkpt lat="45.22934" lon="6.03352">
        <ele>2177</ele>
        <time>2021-12-19T09:01:57Z</time>
      </trkpt>
      <trkpt lat="45.22935" lon="6.03354">
        <ele>2177.6</ele>
        <time>2021-12-19T09:02:01Z</time>
      </trkpt>
      <trkpt lat="45.22935" lon="6.03355">
        <ele>2177.8</ele>
        <time>2021-12-19T09:02:02Z</time>
      </trkpt>
      <trkpt lat="45.22938" lon="6.0336">
        <ele>2178.8</ele>
        <time>2021-12-19T09:02:08Z</time>
      </trkpt>
      <trkpt lat="45.22939" lon="6.03361">
        <ele>2179</ele>
        <time>2021-12-19T09:02:10Z</time>
      </trkpt>
      <trkpt lat="45.2294" lon="6.03362">
        <ele>2179.8</ele>
        <time>2021-12-19T09:02:13Z</time>
      </trkpt>
      <trkpt lat="45.22942" lon="6.03365">
        <ele>2180.4</ele>
        <time>2021-12-19T09:02:16Z</time>
      </trkpt>
      <trkpt lat="45.22942" lon="6.03367">
        <ele>2180.8</ele>
        <time>2021-12-19T09:02:18Z</time>
      </trkpt>
      <trkpt lat="45.2294" lon="6.0337">
        <ele>2181.6</ele>
        <time>2021-12-19T09:02:21Z</time>
      </trkpt>
      <trkpt lat="45.22939" lon="6.03371">
        <ele>2182</ele>
        <time>2021-12-19T09:02:23Z</time>
      </trkpt>
      <trkpt lat="45.22939" lon="6.03371">
        <ele>2182.8</ele>
        <time>2021-12-19T09:02:30Z</time>
      </trkpt>
      <trkpt lat="45.2294" lon="6.03371">
        <ele>2183</ele>
        <time>2021-12-19T09:02:32Z</time>
      </trkpt>
      <trkpt lat="45.22942" lon="6.03373">
        <ele>2184.2</ele>
        <time>2021-12-19T09:02:38Z</time>
      </trkpt>
      <trkpt lat="45.22942" lon="6.03374">
        <ele>2184.4</ele>
        <time>2021-12-19T09:02:39Z</time>
      </trkpt>
      <trkpt lat="45.22943" lon="6.03377">
        <ele>2185</ele>
        <time>2021-12-19T09:02:43Z</time>
      </trkpt>
      <trkpt lat="45.22944" lon="6.03378">
        <ele>2185.2</ele>
        <time>2021-12-19T09:02:45Z</time>
      </trkpt>
      <trkpt lat="45.22944" lon="6.0338">
        <ele>2186</ele>
        <time>2021-12-19T09:02:49Z</time>
      </trkpt>
      <trkpt lat="45.22945" lon="6.0338">
        <ele>2186.4</ele>
        <time>2021-12-19T09:02:50Z</time>
      </trkpt>
      <trkpt lat="45.22947" lon="6.03384">
        <ele>2187.4</ele>
        <time>2021-12-19T09:02:55Z</time>
      </trkpt>
      <trkpt lat="45.22948" lon="6.03385">
        <ele>2187.8</ele>
        <time>2021-12-19T09:02:57Z</time>
      </trkpt>
      <trkpt lat="45.2295" lon="6.03386">
        <ele>2188.6</ele>
        <time>2021-12-19T09:03:00Z</time>
      </trkpt>
      <trkpt lat="45.22954" lon="6.0339">
        <ele>2189.4</ele>
        <time>2021-12-19T09:03:06Z</time>
      </trkpt>
      <trkpt lat="45.22955" lon="6.03392">
        <ele>2189.8</ele>
        <time>2021-12-19T09:03:07Z</time>
      </trkpt>
      <trkpt lat="45.22959" lon="6.03397">
        <ele>2190.6</ele>
        <time>2021-12-19T09:03:14Z</time>
      </trkpt>
      <trkpt lat="45.22959" lon="6.03399">
        <ele>2190.8</ele>
        <time>2021-12-19T09:03:16Z</time>
      </trkpt>
      <trkpt lat="45.2296" lon="6.03402">
        <ele>2191.2</ele>
        <time>2021-12-19T09:03:20Z</time>
      </trkpt>
      <trkpt lat="45.22961" lon="6.03404">
        <ele>2191.8</ele>
        <time>2021-12-19T09:03:22Z</time>
      </trkpt>
      <trkpt lat="45.22963" lon="6.03406">
        <ele>2193</ele>
        <time>2021-12-19T09:03:26Z</time>
      </trkpt>
      <trkpt lat="45.22964" lon="6.03407">
        <ele>2193.8</ele>
        <time>2021-12-19T09:03:29Z</time>
      </trkpt>
      <trkpt lat="45.22964" lon="6.03408">
        <ele>2194</ele>
        <time>2021-12-19T09:03:30Z</time>
      </trkpt>
      <trkpt lat="45.22966" lon="6.03411">
        <ele>2195</ele>
        <time>2021-12-19T09:03:34Z</time>
      </trkpt>
      <trkpt lat="45.22968" lon="6.03413">
        <ele>2195.6</ele>
        <time>2021-12-19T09:03:38Z</time>
      </trkpt>
      <trkpt lat="45.2297" lon="6.03415">
        <ele>2196.2</ele>
        <time>2021-12-19T09:03:41Z</time>
      </trkpt>
      <trkpt lat="45.22973" lon="6.03418">
        <ele>2197.2</ele>
        <time>2021-12-19T09:03:45Z</time>
      </trkpt>
      <trkpt lat="45.22973" lon="6.03419">
        <ele>2197.4</ele>
        <time>2021-12-19T09:03:46Z</time>
      </trkpt>
      <trkpt lat="45.22976" lon="6.0342">
        <ele>2198.4</ele>
        <time>2021-12-19T09:03:50Z</time>
      </trkpt>
      <trkpt lat="45.22978" lon="6.03421">
        <ele>2199.4</ele>
        <time>2021-12-19T09:03:54Z</time>
      </trkpt>
      <trkpt lat="45.22981" lon="6.03425">
        <ele>2200.6</ele>
        <time>2021-12-19T09:04:00Z</time>
      </trkpt>
      <trkpt lat="45.22983" lon="6.03427">
        <ele>2201.4</ele>
        <time>2021-12-19T09:04:04Z</time>
      </trkpt>
      <trkpt lat="45.22984" lon="6.03427">
        <ele>2201.8</ele>
        <time>2021-12-19T09:04:05Z</time>
      </trkpt>
      <trkpt lat="45.22987" lon="6.03429">
        <ele>2202.8</ele>
        <time>2021-12-19T09:04:10Z</time>
      </trkpt>
      <trkpt lat="45.22989" lon="6.0343">
        <ele>2203.2</ele>
        <time>2021-12-19T09:04:13Z</time>
      </trkpt>
      <trkpt lat="45.22992" lon="6.03435">
        <ele>2203.8</ele>
        <time>2021-12-19T09:04:19Z</time>
      </trkpt>
      <trkpt lat="45.22995" lon="6.0344">
        <ele>2203.8</ele>
        <time>2021-12-19T09:04:23Z</time>
      </trkpt>
      <trkpt lat="45.22997" lon="6.03444">
        <ele>2204</ele>
        <time>2021-12-19T09:04:26Z</time>
      </trkpt>
      <trkpt lat="45.23" lon="6.03449">
        <ele>2204.4</ele>
        <time>2021-12-19T09:04:31Z</time>
      </trkpt>
      <trkpt lat="45.23001" lon="6.03451">
        <ele>2204.8</ele>
        <time>2021-12-19T09:04:34Z</time>
      </trkpt>
      <trkpt lat="45.23002" lon="6.03452">
        <ele>2205.8</ele>
        <time>2021-12-19T09:04:37Z</time>
      </trkpt>
      <trkpt lat="45.23002" lon="6.03452">
        <ele>2206.2</ele>
        <time>2021-12-19T09:04:38Z</time>
      </trkpt>
      <trkpt lat="45.23004" lon="6.03455">
        <ele>2206.6</ele>
        <time>2021-12-19T09:04:42Z</time>
      </trkpt>
      <trkpt lat="45.23005" lon="6.03458">
        <ele>2207.4</ele>
        <time>2021-12-19T09:04:45Z</time>
      </trkpt>
      <trkpt lat="45.23007" lon="6.03461">
        <ele>2208.4</ele>
        <time>2021-12-19T09:04:50Z</time>
      </trkpt>
      <trkpt lat="45.23009" lon="6.03464">
        <ele>2209</ele>
        <time>2021-12-19T09:04:53Z</time>
      </trkpt>
      <trkpt lat="45.2301" lon="6.03467">
        <ele>2209.4</ele>
        <time>2021-12-19T09:04:57Z</time>
      </trkpt>
      <trkpt lat="45.23013" lon="6.03472">
        <ele>2210.4</ele>
        <time>2021-12-19T09:05:03Z</time>
      </trkpt>
      <trkpt lat="45.23014" lon="6.03473">
        <ele>2210.4</ele>
        <time>2021-12-19T09:05:04Z</time>
      </trkpt>
      <trkpt lat="45.23016" lon="6.03479">
        <ele>2211.6</ele>
        <time>2021-12-19T09:05:10Z</time>
      </trkpt>
      <trkpt lat="45.23017" lon="6.03482">
        <ele>2212</ele>
        <time>2021-12-19T09:05:13Z</time>
      </trkpt>
      <trkpt lat="45.2302" lon="6.03488">
        <ele>2212.6</ele>
        <time>2021-12-19T09:05:20Z</time>
      </trkpt>
      <trkpt lat="45.2302" lon="6.03489">
        <ele>2212.6</ele>
        <time>2021-12-19T09:05:21Z</time>
      </trkpt>
      <trkpt lat="45.23023" lon="6.03495">
        <ele>2213.6</ele>
        <time>2021-12-19T09:05:27Z</time>
      </trkpt>
      <trkpt lat="45.23023" lon="6.03495">
        <ele>2213.6</ele>
        <time>2021-12-19T09:05:28Z</time>
      </trkpt>
      <trkpt lat="45.23025" lon="6.03498">
        <ele>2214.2</ele>
        <time>2021-12-19T09:05:31Z</time>
      </trkpt>
      <trkpt lat="45.23026" lon="6.03501">
        <ele>2214.8</ele>
        <time>2021-12-19T09:05:34Z</time>
      </trkpt>
      <trkpt lat="45.23028" lon="6.03503">
        <ele>2216.2</ele>
        <time>2021-12-19T09:05:39Z</time>
      </trkpt>
      <trkpt lat="45.23032" lon="6.03508">
        <ele>2217.4</ele>
        <time>2021-12-19T09:05:45Z</time>
      </trkpt>
      <trkpt lat="45.23033" lon="6.03509">
        <ele>2217.6</ele>
        <time>2021-12-19T09:05:46Z</time>
      </trkpt>
      <trkpt lat="45.23035" lon="6.03511">
        <ele>2218.4</ele>
        <time>2021-12-19T09:05:50Z</time>
      </trkpt>
      <trkpt lat="45.23036" lon="6.03513">
        <ele>2219.6</ele>
        <time>2021-12-19T09:05:54Z</time>
      </trkpt>
      <trkpt lat="45.23038" lon="6.03517">
        <ele>2220.8</ele>
        <time>2021-12-19T09:05:59Z</time>
      </trkpt>
      <trkpt lat="45.23039" lon="6.03519">
        <ele>2221.6</ele>
        <time>2021-12-19T09:06:03Z</time>
      </trkpt>
      <trkpt lat="45.23039" lon="6.0352">
        <ele>2222</ele>
        <time>2021-12-19T09:06:04Z</time>
      </trkpt>
      <trkpt lat="45.2304" lon="6.03523">
        <ele>2223.2</ele>
        <time>2021-12-19T09:06:10Z</time>
      </trkpt>
      <trkpt lat="45.2304" lon="6.03524">
        <ele>2223.6</ele>
        <time>2021-12-19T09:06:11Z</time>
      </trkpt>
      <trkpt lat="45.23042" lon="6.03526">
        <ele>2224.6</ele>
        <time>2021-12-19T09:06:14Z</time>
      </trkpt>
      <trkpt lat="45.23044" lon="6.03528">
        <ele>2225.6</ele>
        <time>2021-12-19T09:06:18Z</time>
      </trkpt>
      <trkpt lat="45.23044" lon="6.0353">
        <ele>2226.4</ele>
        <time>2021-12-19T09:06:21Z</time>
      </trkpt>
      <trkpt lat="45.23045" lon="6.03533">
        <ele>2226.8</ele>
        <time>2021-12-19T09:06:25Z</time>
      </trkpt>
      <trkpt lat="45.23046" lon="6.03536">
        <ele>2227.8</ele>
        <time>2021-12-19T09:06:30Z</time>
      </trkpt>
      <trkpt lat="45.23046" lon="6.03538">
        <ele>2228.2</ele>
        <time>2021-12-19T09:06:32Z</time>
      </trkpt>
      <trkpt lat="45.23046" lon="6.03542">
        <ele>2228.8</ele>
        <time>2021-12-19T09:06:35Z</time>
      </trkpt>
      <trkpt lat="45.23047" lon="6.03543">
        <ele>2229</ele>
        <time>2021-12-19T09:06:36Z</time>
      </trkpt>
      <trkpt lat="45.23046" lon="6.03545">
        <ele>2230</ele>
        <time>2021-12-19T09:06:40Z</time>
      </trkpt>
      <trkpt lat="45.23047" lon="6.03549">
        <ele>2231</ele>
        <time>2021-12-19T09:06:45Z</time>
      </trkpt>
      <trkpt lat="45.23048" lon="6.03549">
        <ele>2231.2</ele>
        <time>2021-12-19T09:06:46Z</time>
      </trkpt>
      <trkpt lat="45.23049" lon="6.03554">
        <ele>2232.4</ele>
        <time>2021-12-19T09:06:52Z</time>
      </trkpt>
      <trkpt lat="45.2305" lon="6.03556">
        <ele>2232.6</ele>
        <time>2021-12-19T09:06:54Z</time>
      </trkpt>
      <trkpt lat="45.2305" lon="6.03559">
        <ele>2233.6</ele>
        <time>2021-12-19T09:06:57Z</time>
      </trkpt>
      <trkpt lat="45.23048" lon="6.03563">
        <ele>2234.6</ele>
        <time>2021-12-19T09:07:02Z</time>
      </trkpt>
      <trkpt lat="45.23047" lon="6.03567">
        <ele>2235.8</ele>
        <time>2021-12-19T09:07:08Z</time>
      </trkpt>
      <trkpt lat="45.23046" lon="6.0357">
        <ele>2236.6</ele>
        <time>2021-12-19T09:07:11Z</time>
      </trkpt>
      <trkpt lat="45.23046" lon="6.03571">
        <ele>2237</ele>
        <time>2021-12-19T09:07:13Z</time>
      </trkpt>
      <trkpt lat="45.23046" lon="6.03573">
        <ele>2237.8</ele>
        <time>2021-12-19T09:07:17Z</time>
      </trkpt>
      <trkpt lat="45.23045" lon="6.03574">
        <ele>2238</ele>
        <time>2021-12-19T09:07:18Z</time>
      </trkpt>
      <trkpt lat="45.23043" lon="6.0358">
        <ele>2239.4</ele>
        <time>2021-12-19T09:07:25Z</time>
      </trkpt>
      <trkpt lat="45.23042" lon="6.0358">
        <ele>2240.4</ele>
        <time>2021-12-19T09:07:30Z</time>
      </trkpt>
      <trkpt lat="45.23042" lon="6.0358">
        <ele>2240.4</ele>
        <time>2021-12-19T09:07:31Z</time>
      </trkpt>
      <trkpt lat="45.23043" lon="6.03577">
        <ele>2241.2</ele>
        <time>2021-12-19T09:07:39Z</time>
      </trkpt>
      <trkpt lat="45.23044" lon="6.03577">
        <ele>2241.4</ele>
        <time>2021-12-19T09:07:41Z</time>
      </trkpt>
      <trkpt lat="45.23046" lon="6.03576">
        <ele>2242.2</ele>
        <time>2021-12-19T09:07:46Z</time>
      </trkpt>
      <trkpt lat="45.23047" lon="6.03576">
        <ele>2242.6</ele>
        <time>2021-12-19T09:07:48Z</time>
      </trkpt>
      <trkpt lat="45.2305" lon="6.03576">
        <ele>2243.6</ele>
        <time>2021-12-19T09:07:54Z</time>
      </trkpt>
      <trkpt lat="45.23051" lon="6.03576">
        <ele>2243.8</ele>
        <time>2021-12-19T09:07:55Z</time>
      </trkpt>
      <trkpt lat="45.23052" lon="6.03575">
        <ele>2244.6</ele>
        <time>2021-12-19T09:07:58Z</time>
      </trkpt>
      <trkpt lat="45.23055" lon="6.03573">
        <ele>2245.6</ele>
        <time>2021-12-19T09:08:05Z</time>
      </trkpt>
      <trkpt lat="45.23056" lon="6.03573">
        <ele>2245.8</ele>
        <time>2021-12-19T09:08:07Z</time>
      </trkpt>
      <trkpt lat="45.23058" lon="6.0357">
        <ele>2246.6</ele>
        <time>2021-12-19T09:08:11Z</time>
      </trkpt>
      <trkpt lat="45.2306" lon="6.03568">
        <ele>2247.4</ele>
        <time>2021-12-19T09:08:16Z</time>
      </trkpt>
      <trkpt lat="45.23061" lon="6.03567">
        <ele>2247.6</ele>
        <time>2021-12-19T09:08:18Z</time>
      </trkpt>
      <trkpt lat="45.23061" lon="6.03567">
        <ele>2248.2</ele>
        <time>2021-12-19T09:08:20Z</time>
      </trkpt>
      <trkpt lat="45.23062" lon="6.03566">
        <ele>2248.8</ele>
        <time>2021-12-19T09:08:22Z</time>
      </trkpt>
      <trkpt lat="45.23064" lon="6.03565">
        <ele>2249</ele>
        <time>2021-12-19T09:08:25Z</time>
      </trkpt>
      <trkpt lat="45.23065" lon="6.03562">
        <ele>2249.6</ele>
        <time>2021-12-19T09:08:29Z</time>
      </trkpt>
      <trkpt lat="45.23065" lon="6.03561">
        <ele>2250</ele>
        <time>2021-12-19T09:08:31Z</time>
      </trkpt>
      <trkpt lat="45.23067" lon="6.03559">
        <ele>2251</ele>
        <time>2021-12-19T09:08:35Z</time>
      </trkpt>
      <trkpt lat="45.23067" lon="6.03557">
        <ele>2251.2</ele>
        <time>2021-12-19T09:08:37Z</time>
      </trkpt>
      <trkpt lat="45.23069" lon="6.03553">
        <ele>2252.2</ele>
        <time>2021-12-19T09:08:43Z</time>
      </trkpt>
      <trkpt lat="45.2307" lon="6.03553">
        <ele>2252.2</ele>
        <time>2021-12-19T09:08:45Z</time>
      </trkpt>
      <trkpt lat="45.23073" lon="6.0355">
        <ele>2253</ele>
        <time>2021-12-19T09:08:51Z</time>
      </trkpt>
      <trkpt lat="45.23073" lon="6.03549">
        <ele>2253.4</ele>
        <time>2021-12-19T09:08:53Z</time>
      </trkpt>
      <trkpt lat="45.23075" lon="6.03547">
        <ele>2254</ele>
        <time>2021-12-19T09:08:58Z</time>
      </trkpt>
      <trkpt lat="45.23076" lon="6.03545">
        <ele>2254.6</ele>
        <time>2021-12-19T09:09:01Z</time>
      </trkpt>
      <trkpt lat="45.23077" lon="6.03542">
        <ele>2255</ele>
        <time>2021-12-19T09:09:04Z</time>
      </trkpt>
      <trkpt lat="45.23079" lon="6.03539">
        <ele>2255.6</ele>
        <time>2021-12-19T09:09:09Z</time>
      </trkpt>
      <trkpt lat="45.23079" lon="6.03536">
        <ele>2256.4</ele>
        <time>2021-12-19T09:09:15Z</time>
      </trkpt>
      <trkpt lat="45.23079" lon="6.03535">
        <ele>2256.6</ele>
        <time>2021-12-19T09:09:16Z</time>
      </trkpt>
      <trkpt lat="45.2308" lon="6.03532">
        <ele>2257.6</ele>
        <time>2021-12-19T09:09:21Z</time>
      </trkpt>
      <trkpt lat="45.2308" lon="6.0353">
        <ele>2257.8</ele>
        <time>2021-12-19T09:09:22Z</time>
      </trkpt>
      <trkpt lat="45.23082" lon="6.03525">
        <ele>2258.6</ele>
        <time>2021-12-19T09:09:27Z</time>
      </trkpt>
      <trkpt lat="45.23082" lon="6.03524">
        <ele>2258.8</ele>
        <time>2021-12-19T09:09:28Z</time>
      </trkpt>
      <trkpt lat="45.23084" lon="6.03522">
        <ele>2259.8</ele>
        <time>2021-12-19T09:09:33Z</time>
      </trkpt>
      <trkpt lat="45.23085" lon="6.03522">
        <ele>2260.2</ele>
        <time>2021-12-19T09:09:35Z</time>
      </trkpt>
      <trkpt lat="45.23086" lon="6.03522">
        <ele>2260.6</ele>
        <time>2021-12-19T09:09:43Z</time>
      </trkpt>
      <trkpt lat="45.23088" lon="6.03524">
        <ele>2261</ele>
        <time>2021-12-19T09:09:46Z</time>
      </trkpt>
      <trkpt lat="45.23089" lon="6.03526">
        <ele>2261.4</ele>
        <time>2021-12-19T09:09:48Z</time>
      </trkpt>
      <trkpt lat="45.23091" lon="6.03528">
        <ele>2262</ele>
        <time>2021-12-19T09:09:52Z</time>
      </trkpt>
      <trkpt lat="45.23092" lon="6.03529">
        <ele>2262.6</ele>
        <time>2021-12-19T09:09:55Z</time>
      </trkpt>
      <trkpt lat="45.23093" lon="6.0353">
        <ele>2263.2</ele>
        <time>2021-12-19T09:09:58Z</time>
      </trkpt>
      <trkpt lat="45.23095" lon="6.03532">
        <ele>2264.2</ele>
        <time>2021-12-19T09:10:03Z</time>
      </trkpt>
      <trkpt lat="45.23096" lon="6.03532">
        <ele>2264.4</ele>
        <time>2021-12-19T09:10:04Z</time>
      </trkpt>
      <trkpt lat="45.23098" lon="6.03535">
        <ele>2265.4</ele>
        <time>2021-12-19T09:10:09Z</time>
      </trkpt>
      <trkpt lat="45.23099" lon="6.03537">
        <ele>2265.8</ele>
        <time>2021-12-19T09:10:11Z</time>
      </trkpt>
      <trkpt lat="45.23101" lon="6.03539">
        <ele>2266.4</ele>
        <time>2021-12-19T09:10:14Z</time>
      </trkpt>
      <trkpt lat="45.23103" lon="6.03542">
        <ele>2267.4</ele>
        <time>2021-12-19T09:10:18Z</time>
      </trkpt>
      <trkpt lat="45.23103" lon="6.03542">
        <ele>2267.6</ele>
        <time>2021-12-19T09:10:19Z</time>
      </trkpt>
      <trkpt lat="45.23104" lon="6.03546">
        <ele>2268.6</ele>
        <time>2021-12-19T09:10:24Z</time>
      </trkpt>
      <trkpt lat="45.23105" lon="6.03548">
        <ele>2269</ele>
        <time>2021-12-19T09:10:26Z</time>
      </trkpt>
      <trkpt lat="45.23106" lon="6.03551">
        <ele>2269.8</ele>
        <time>2021-12-19T09:10:29Z</time>
      </trkpt>
      <trkpt lat="45.23107" lon="6.03555">
        <ele>2270.6</ele>
        <time>2021-12-19T09:10:36Z</time>
      </trkpt>
      <trkpt lat="45.23107" lon="6.03555">
        <ele>2270.8</ele>
        <time>2021-12-19T09:10:37Z</time>
      </trkpt>
      <trkpt lat="45.23107" lon="6.03553">
        <ele>2271.8</ele>
        <time>2021-12-19T09:10:43Z</time>
      </trkpt>
      <trkpt lat="45.23107" lon="6.03553">
        <ele>2272.2</ele>
        <time>2021-12-19T09:10:44Z</time>
      </trkpt>
      <trkpt lat="45.23109" lon="6.03551">
        <ele>2272.8</ele>
        <time>2021-12-19T09:10:48Z</time>
      </trkpt>
      <trkpt lat="45.23109" lon="6.03549">
        <ele>2273.4</ele>
        <time>2021-12-19T09:10:50Z</time>
      </trkpt>
      <trkpt lat="45.2311" lon="6.03547">
        <ele>2274.2</ele>
        <time>2021-12-19T09:10:54Z</time>
      </trkpt>
      <trkpt lat="45.23111" lon="6.03546">
        <ele>2274.6</ele>
        <time>2021-12-19T09:10:56Z</time>
      </trkpt>
      <trkpt lat="45.23113" lon="6.03544">
        <ele>2275.4</ele>
        <time>2021-12-19T09:11:00Z</time>
      </trkpt>
      <trkpt lat="45.23114" lon="6.03544">
        <ele>2275.8</ele>
        <time>2021-12-19T09:11:02Z</time>
      </trkpt>
      <trkpt lat="45.23115" lon="6.03541">
        <ele>2276.2</ele>
        <time>2021-12-19T09:11:05Z</time>
      </trkpt>
      <trkpt lat="45.23116" lon="6.03539">
        <ele>2277</ele>
        <time>2021-12-19T09:11:09Z</time>
      </trkpt>
      <trkpt lat="45.23116" lon="6.03537">
        <ele>2277.4</ele>
        <time>2021-12-19T09:11:11Z</time>
      </trkpt>
      <trkpt lat="45.23118" lon="6.03537">
        <ele>2277.8</ele>
        <time>2021-12-19T09:11:18Z</time>
      </trkpt>
      <trkpt lat="45.23119" lon="6.03539">
        <ele>2278.2</ele>
        <time>2021-12-19T09:11:21Z</time>
      </trkpt>
      <trkpt lat="45.23121" lon="6.03543">
        <ele>2279</ele>
        <time>2021-12-19T09:11:26Z</time>
      </trkpt>
      <trkpt lat="45.23122" lon="6.03544">
        <ele>2279.4</ele>
        <time>2021-12-19T09:11:28Z</time>
      </trkpt>
      <trkpt lat="45.23124" lon="6.0355">
        <ele>2280.6</ele>
        <time>2021-12-19T09:11:35Z</time>
      </trkpt>
      <trkpt lat="45.23125" lon="6.03555">
        <ele>2281.8</ele>
        <time>2021-12-19T09:11:41Z</time>
      </trkpt>
      <trkpt lat="45.23127" lon="6.03557">
        <ele>2282.2</ele>
        <time>2021-12-19T09:11:44Z</time>
      </trkpt>
      <trkpt lat="45.23127" lon="6.0356">
        <ele>2282.8</ele>
        <time>2021-12-19T09:11:47Z</time>
      </trkpt>
      <trkpt lat="45.23127" lon="6.03563">
        <ele>2283.4</ele>
        <time>2021-12-19T09:11:51Z</time>
      </trkpt>
      <trkpt lat="45.23127" lon="6.03566">
        <ele>2283.8</ele>
        <time>2021-12-19T09:11:54Z</time>
      </trkpt>
      <trkpt lat="45.23127" lon="6.03568">
        <ele>2284.8</ele>
        <time>2021-12-19T09:11:59Z</time>
      </trkpt>
      <trkpt lat="45.23126" lon="6.03568">
        <ele>2285</ele>
        <time>2021-12-19T09:12:00Z</time>
      </trkpt>
      <trkpt lat="45.23127" lon="6.03567">
        <ele>2285.8</ele>
        <time>2021-12-19T09:12:05Z</time>
      </trkpt>
      <trkpt lat="45.23128" lon="6.03565">
        <ele>2286.2</ele>
        <time>2021-12-19T09:12:07Z</time>
      </trkpt>
      <trkpt lat="45.2313" lon="6.03562">
        <ele>2287.2</ele>
        <time>2021-12-19T09:12:13Z</time>
      </trkpt>
      <trkpt lat="45.23132" lon="6.03558">
        <ele>2288.4</ele>
        <time>2021-12-19T09:12:19Z</time>
      </trkpt>
      <trkpt lat="45.23132" lon="6.03557">
        <ele>2289</ele>
        <time>2021-12-19T09:12:21Z</time>
      </trkpt>
      <trkpt lat="45.23134" lon="6.03554">
        <ele>2289.6</ele>
        <time>2021-12-19T09:12:26Z</time>
      </trkpt>
      <trkpt lat="45.23134" lon="6.03554">
        <ele>2289.8</ele>
        <time>2021-12-19T09:12:27Z</time>
      </trkpt>
      <trkpt lat="45.23136" lon="6.0356">
        <ele>2290.6</ele>
        <time>2021-12-19T09:12:33Z</time>
      </trkpt>
      <trkpt lat="45.23139" lon="6.03568">
        <ele>2291.6</ele>
        <time>2021-12-19T09:12:40Z</time>
      </trkpt>
      <trkpt lat="45.23139" lon="6.0357">
        <ele>2291.8</ele>
        <time>2021-12-19T09:12:41Z</time>
      </trkpt>
      <trkpt lat="45.23142" lon="6.03574">
        <ele>2292.8</ele>
        <time>2021-12-19T09:12:48Z</time>
      </trkpt>
      <trkpt lat="45.23146" lon="6.03582">
        <ele>2293.8</ele>
        <time>2021-12-19T09:12:54Z</time>
      </trkpt>
      <trkpt lat="45.23147" lon="6.03586">
        <ele>2294.6</ele>
        <time>2021-12-19T09:12:59Z</time>
      </trkpt>
      <trkpt lat="45.23148" lon="6.03588">
        <ele>2295</ele>
        <time>2021-12-19T09:13:01Z</time>
      </trkpt>
      <trkpt lat="45.2315" lon="6.03597">
        <ele>2295.8</ele>
        <time>2021-12-19T09:13:09Z</time>
      </trkpt>
      <trkpt lat="45.23151" lon="6.036">
        <ele>2296</ele>
        <time>2021-12-19T09:13:12Z</time>
      </trkpt>
      <trkpt lat="45.23151" lon="6.03601">
        <ele>2296</ele>
        <time>2021-12-19T09:13:13Z</time>
      </trkpt>
      <trkpt lat="45.23152" lon="6.03606">
        <ele>2296.4</ele>
        <time>2021-12-19T09:13:17Z</time>
      </trkpt>
      <trkpt lat="45.23152" lon="6.03611">
        <ele>2297</ele>
        <time>2021-12-19T09:13:24Z</time>
      </trkpt>
      <trkpt lat="45.23152" lon="6.03612">
        <ele>2297.2</ele>
        <time>2021-12-19T09:13:25Z</time>
      </trkpt>
      <trkpt lat="45.2315" lon="6.03616">
        <ele>2297.2</ele>
        <time>2021-12-19T09:13:34Z</time>
      </trkpt>
      <trkpt lat="45.23149" lon="6.03617">
        <ele>2297.2</ele>
        <time>2021-12-19T09:13:39Z</time>
      </trkpt>
      <trkpt lat="45.23149" lon="6.03617">
        <ele>2297</ele>
        <time>2021-12-19T09:13:55Z</time>
      </trkpt>
      <trkpt lat="45.23149" lon="6.03617">
        <ele>2297</ele>
        <time>2021-12-19T09:13:57Z</time>
      </trkpt>
      <trkpt lat="45.23146" lon="6.03616">
        <ele>2296.8</ele>
        <time>2021-12-19T09:14:25Z</time>
      </trkpt>
      <trkpt lat="45.23145" lon="6.03614">
        <ele>2296.4</ele>
        <time>2021-12-19T09:14:59Z</time>
      </trkpt>
      <trkpt lat="45.23144" lon="6.03612">
        <ele>2296.4</ele>
        <time>2021-12-19T09:15:17Z</time>
      </trkpt>
      <trkpt lat="45.23145" lon="6.03616">
        <ele>2296.4</ele>
        <time>2021-12-19T09:15:49Z</time>
      </trkpt>
      <trkpt lat="45.23144" lon="6.03619">
        <ele>2296.4</ele>
        <time>2021-12-19T09:15:52Z</time>
      </trkpt>
      <trkpt lat="45.23147" lon="6.03622">
        <ele>2296.4</ele>
        <time>2021-12-19T09:16:00Z</time>
      </trkpt>
      <trkpt lat="45.23153" lon="6.03621">
        <ele>2296.4</ele>
        <time>2021-12-19T09:16:21Z</time>
      </trkpt>
      <trkpt lat="45.23161" lon="6.03618">
        <ele>2297</ele>
        <time>2021-12-19T09:16:28Z</time>
      </trkpt>
      <trkpt lat="45.23162" lon="6.03618">
        <ele>2297</ele>
        <time>2021-12-19T09:16:29Z</time>
      </trkpt>
      <trkpt lat="45.23162" lon="6.03617">
        <ele>2297.2</ele>
        <time>2021-12-19T09:16:30Z</time>
      </trkpt>
      <trkpt lat="45.23167" lon="6.03616">
        <ele>2298</ele>
        <time>2021-12-19T09:16:35Z</time>
      </trkpt>
      <trkpt lat="45.23168" lon="6.03616">
        <ele>2298.2</ele>
        <time>2021-12-19T09:16:36Z</time>
      </trkpt>
      <trkpt lat="45.23175" lon="6.03615">
        <ele>2299.2</ele>
        <time>2021-12-19T09:16:44Z</time>
      </trkpt>
      <trkpt lat="45.23176" lon="6.03616">
        <ele>2299.4</ele>
        <time>2021-12-19T09:16:45Z</time>
      </trkpt>
      <trkpt lat="45.23183" lon="6.03618">
        <ele>2300.2</ele>
        <time>2021-12-19T09:16:53Z</time>
      </trkpt>
      <trkpt lat="45.23184" lon="6.03619">
        <ele>2300.4</ele>
        <time>2021-12-19T09:16:54Z</time>
      </trkpt>
      <trkpt lat="45.23191" lon="6.03623">
        <ele>2301.2</ele>
        <time>2021-12-19T09:17:03Z</time>
      </trkpt>
      <trkpt lat="45.23192" lon="6.03623">
        <ele>2301.4</ele>
        <time>2021-12-19T09:17:04Z</time>
      </trkpt>
      <trkpt lat="45.23197" lon="6.03628">
        <ele>2302.4</ele>
        <time>2021-12-19T09:17:11Z</time>
      </trkpt>
      <trkpt lat="45.23198" lon="6.03629">
        <ele>2302.8</ele>
        <time>2021-12-19T09:17:12Z</time>
      </trkpt>
      <trkpt lat="45.23198" lon="6.0363">
        <ele>2303.2</ele>
        <time>2021-12-19T09:17:17Z</time>
      </trkpt>
      <trkpt lat="45.23198" lon="6.03631">
        <ele>2303.4</ele>
        <time>2021-12-19T09:17:33Z</time>
      </trkpt>
      <trkpt lat="45.23198" lon="6.03631">
        <ele>2303.6</ele>
        <time>2021-12-19T09:17:37Z</time>
      </trkpt>
      <trkpt lat="45.23202" lon="6.03635">
        <ele>2304</ele>
        <time>2021-12-19T09:17:43Z</time>
      </trkpt>
      <trkpt lat="45.23209" lon="6.03639">
        <ele>2304.6</ele>
        <time>2021-12-19T09:17:49Z</time>
      </trkpt>
      <trkpt lat="45.23211" lon="6.03641">
        <ele>2304.6</ele>
        <time>2021-12-19T09:17:52Z</time>
      </trkpt>
      <trkpt lat="45.23213" lon="6.03642">
        <ele>2304.6</ele>
        <time>2021-12-19T09:17:56Z</time>
      </trkpt>
      <trkpt lat="45.23216" lon="6.03649">
        <ele>2304.6</ele>
        <time>2021-12-19T09:18:02Z</time>
      </trkpt>
      <trkpt lat="45.2322" lon="6.03653">
        <ele>2305.6</ele>
        <time>2021-12-19T09:18:09Z</time>
      </trkpt>
      <trkpt lat="45.2322" lon="6.03654">
        <ele>2305.8</ele>
        <time>2021-12-19T09:18:10Z</time>
      </trkpt>
      <trkpt lat="45.23224" lon="6.03657">
        <ele>2306.6</ele>
        <time>2021-12-19T09:18:14Z</time>
      </trkpt>
      <trkpt lat="45.2323" lon="6.03658">
        <ele>2308</ele>
        <time>2021-12-19T09:18:20Z</time>
      </trkpt>
      <trkpt lat="45.2323" lon="6.03659">
        <ele>2308.2</ele>
        <time>2021-12-19T09:18:21Z</time>
      </trkpt>
      <trkpt lat="45.23233" lon="6.03661">
        <ele>2309.2</ele>
        <time>2021-12-19T09:18:26Z</time>
      </trkpt>
      <trkpt lat="45.23236" lon="6.03662">
        <ele>2309.6</ele>
        <time>2021-12-19T09:18:29Z</time>
      </trkpt>
      <trkpt lat="45.23238" lon="6.03664">
        <ele>2310.2</ele>
        <time>2021-12-19T09:18:32Z</time>
      </trkpt>
      <trkpt lat="45.23241" lon="6.03666">
        <ele>2311.2</ele>
        <time>2021-12-19T09:18:37Z</time>
      </trkpt>
      <trkpt lat="45.23243" lon="6.03667">
        <ele>2311.6</ele>
        <time>2021-12-19T09:18:39Z</time>
      </trkpt>
      <trkpt lat="45.23246" lon="6.03668">
        <ele>2312.2</ele>
        <time>2021-12-19T09:18:43Z</time>
      </trkpt>
      <trkpt lat="45.23248" lon="6.03668">
        <ele>2313</ele>
        <time>2021-12-19T09:18:47Z</time>
      </trkpt>
      <trkpt lat="45.23249" lon="6.03667">
        <ele>2313.2</ele>
        <time>2021-12-19T09:18:48Z</time>
      </trkpt>
      <trkpt lat="45.23248" lon="6.03668">
        <ele>2314.2</ele>
        <time>2021-12-19T09:18:52Z</time>
      </trkpt>
      <trkpt lat="45.23247" lon="6.03668">
        <ele>2314.4</ele>
        <time>2021-12-19T09:18:53Z</time>
      </trkpt>
      <trkpt lat="45.23247" lon="6.03669">
        <ele>2314.4</ele>
        <time>2021-12-19T09:18:59Z</time>
      </trkpt>
      <trkpt lat="45.23246" lon="6.03666">
        <ele>2314.8</ele>
        <time>2021-12-19T09:19:10Z</time>
      </trkpt>
      <trkpt lat="45.23245" lon="6.03663">
        <ele>2315.4</ele>
        <time>2021-12-19T09:19:13Z</time>
      </trkpt>
      <trkpt lat="45.23244" lon="6.03661">
        <ele>2315.6</ele>
        <time>2021-12-19T09:19:15Z</time>
      </trkpt>
      <trkpt lat="45.23244" lon="6.03657">
        <ele>2316.6</ele>
        <time>2021-12-19T09:19:18Z</time>
      </trkpt>
      <trkpt lat="45.23243" lon="6.03654">
        <ele>2317</ele>
        <time>2021-12-19T09:19:20Z</time>
      </trkpt>
      <trkpt lat="45.23243" lon="6.03654">
        <ele>2317</ele>
        <time>2021-12-19T09:19:21Z</time>
      </trkpt>
      <trkpt lat="45.23241" lon="6.03652">
        <ele>2317.8</ele>
        <time>2021-12-19T09:19:25Z</time>
      </trkpt>
      <trkpt lat="45.23241" lon="6.03649">
        <ele>2318.4</ele>
        <time>2021-12-19T09:19:28Z</time>
      </trkpt>
      <trkpt lat="45.2324" lon="6.03646">
        <ele>2319</ele>
        <time>2021-12-19T09:19:31Z</time>
      </trkpt>
      <trkpt lat="45.2324" lon="6.03643">
        <ele>2319.6</ele>
        <time>2021-12-19T09:19:35Z</time>
      </trkpt>
      <trkpt lat="45.2324" lon="6.03643">
        <ele>2320</ele>
        <time>2021-12-19T09:19:37Z</time>
      </trkpt>
      <trkpt lat="45.2324" lon="6.03643">
        <ele>2320</ele>
        <time>2021-12-19T09:19:38Z</time>
      </trkpt>
      <trkpt lat="45.23242" lon="6.03643">
        <ele>2320.4</ele>
        <time>2021-12-19T09:19:42Z</time>
      </trkpt>
      <trkpt lat="45.23247" lon="6.03646">
        <ele>2321.2</ele>
        <time>2021-12-19T09:19:48Z</time>
      </trkpt>
      <trkpt lat="45.23249" lon="6.03647">
        <ele>2321.8</ele>
        <time>2021-12-19T09:19:51Z</time>
      </trkpt>
      <trkpt lat="45.2325" lon="6.03648">
        <ele>2322.4</ele>
        <time>2021-12-19T09:19:53Z</time>
      </trkpt>
      <trkpt lat="45.23253" lon="6.03649">
        <ele>2323.4</ele>
        <time>2021-12-19T09:19:58Z</time>
      </trkpt>
      <trkpt lat="45.23258" lon="6.03653">
        <ele>2324.4</ele>
        <time>2021-12-19T09:20:04Z</time>
      </trkpt>
      <trkpt lat="45.23258" lon="6.03654">
        <ele>2324.6</ele>
        <time>2021-12-19T09:20:05Z</time>
      </trkpt>
      <trkpt lat="45.23258" lon="6.03655">
        <ele>2325.4</ele>
        <time>2021-12-19T09:20:11Z</time>
      </trkpt>
      <trkpt lat="45.23258" lon="6.03655">
        <ele>2325.6</ele>
        <time>2021-12-19T09:20:12Z</time>
      </trkpt>
      <trkpt lat="45.23258" lon="6.03653">
        <ele>2325.8</ele>
        <time>2021-12-19T09:20:14Z</time>
      </trkpt>
      <trkpt lat="45.23257" lon="6.0365">
        <ele>2326.2</ele>
        <time>2021-12-19T09:20:18Z</time>
      </trkpt>
      <trkpt lat="45.23256" lon="6.03648">
        <ele>2326.8</ele>
        <time>2021-12-19T09:20:21Z</time>
      </trkpt>
      <trkpt lat="45.23255" lon="6.03646">
        <ele>2327.4</ele>
        <time>2021-12-19T09:20:24Z</time>
      </trkpt>
      <trkpt lat="45.23254" lon="6.03643">
        <ele>2328</ele>
        <time>2021-12-19T09:20:27Z</time>
      </trkpt>
      <trkpt lat="45.23252" lon="6.0364">
        <ele>2329</ele>
        <time>2021-12-19T09:20:32Z</time>
      </trkpt>
      <trkpt lat="45.23252" lon="6.03639">
        <ele>2329.2</ele>
        <time>2021-12-19T09:20:37Z</time>
      </trkpt>
      <trkpt lat="45.23252" lon="6.03639">
        <ele>2329.2</ele>
        <time>2021-12-19T09:20:38Z</time>
      </trkpt>
      <trkpt lat="45.23257" lon="6.0364">
        <ele>2330.2</ele>
        <time>2021-12-19T09:20:45Z</time>
      </trkpt>
      <trkpt lat="45.23258" lon="6.0364">
        <ele>2330.2</ele>
        <time>2021-12-19T09:20:46Z</time>
      </trkpt>
      <trkpt lat="45.23262" lon="6.03642">
        <ele>2331.2</ele>
        <time>2021-12-19T09:20:51Z</time>
      </trkpt>
      <trkpt lat="45.23265" lon="6.03645">
        <ele>2332.4</ele>
        <time>2021-12-19T09:20:56Z</time>
      </trkpt>
      <trkpt lat="45.23266" lon="6.03646">
        <ele>2333.2</ele>
        <time>2021-12-19T09:21:02Z</time>
      </trkpt>
      <trkpt lat="45.23265" lon="6.03646">
        <ele>2333.4</ele>
        <time>2021-12-19T09:21:03Z</time>
      </trkpt>
      <trkpt lat="45.23264" lon="6.03644">
        <ele>2333.6</ele>
        <time>2021-12-19T09:21:09Z</time>
      </trkpt>
      <trkpt lat="45.23263" lon="6.0364">
        <ele>2334.4</ele>
        <time>2021-12-19T09:21:13Z</time>
      </trkpt>
      <trkpt lat="45.23263" lon="6.03638">
        <ele>2334.6</ele>
        <time>2021-12-19T09:21:15Z</time>
      </trkpt>
      <trkpt lat="45.23262" lon="6.03634">
        <ele>2335.6</ele>
        <time>2021-12-19T09:21:21Z</time>
      </trkpt>
      <trkpt lat="45.23264" lon="6.03634">
        <ele>2336.2</ele>
        <time>2021-12-19T09:21:27Z</time>
      </trkpt>
      <trkpt lat="45.23265" lon="6.03634">
        <ele>2336.6</ele>
        <time>2021-12-19T09:21:30Z</time>
      </trkpt>
      <trkpt lat="45.23267" lon="6.03635">
        <ele>2337.4</ele>
        <time>2021-12-19T09:21:33Z</time>
      </trkpt>
      <trkpt lat="45.23269" lon="6.03636">
        <ele>2337.8</ele>
        <time>2021-12-19T09:21:36Z</time>
      </trkpt>
      <trkpt lat="45.2327" lon="6.03637">
        <ele>2337.8</ele>
        <time>2021-12-19T09:21:37Z</time>
      </trkpt>
      <trkpt lat="45.23273" lon="6.03639">
        <ele>2339</ele>
        <time>2021-12-19T09:21:42Z</time>
      </trkpt>
      <trkpt lat="45.23273" lon="6.0364">
        <ele>2339.2</ele>
        <time>2021-12-19T09:21:43Z</time>
      </trkpt>
      <trkpt lat="45.23272" lon="6.03639">
        <ele>2339.6</ele>
        <time>2021-12-19T09:21:48Z</time>
      </trkpt>
      <trkpt lat="45.23272" lon="6.03637">
        <ele>2340.2</ele>
        <time>2021-12-19T09:21:52Z</time>
      </trkpt>
      <trkpt lat="45.23271" lon="6.03635">
        <ele>2340.4</ele>
        <time>2021-12-19T09:21:54Z</time>
      </trkpt>
      <trkpt lat="45.23269" lon="6.03631">
        <ele>2341.2</ele>
        <time>2021-12-19T09:21:59Z</time>
      </trkpt>
      <trkpt lat="45.23267" lon="6.03628">
        <ele>2341.8</ele>
        <time>2021-12-19T09:22:04Z</time>
      </trkpt>
      <trkpt lat="45.23266" lon="6.03627">
        <ele>2342.2</ele>
        <time>2021-12-19T09:22:06Z</time>
      </trkpt>
      <trkpt lat="45.23266" lon="6.03625">
        <ele>2342.6</ele>
        <time>2021-12-19T09:22:09Z</time>
      </trkpt>
      <trkpt lat="45.23267" lon="6.03625">
        <ele>2343</ele>
        <time>2021-12-19T09:22:14Z</time>
      </trkpt>
      <trkpt lat="45.23269" lon="6.03627">
        <ele>2343.4</ele>
        <time>2021-12-19T09:22:20Z</time>
      </trkpt>
      <trkpt lat="45.23271" lon="6.03628">
        <ele>2343.8</ele>
        <time>2021-12-19T09:22:24Z</time>
      </trkpt>
      <trkpt lat="45.23274" lon="6.03629">
        <ele>2344.4</ele>
        <time>2021-12-19T09:22:28Z</time>
      </trkpt>
      <trkpt lat="45.23277" lon="6.0363">
        <ele>2345.4</ele>
        <time>2021-12-19T09:22:33Z</time>
      </trkpt>
      <trkpt lat="45.23278" lon="6.0363">
        <ele>2345.6</ele>
        <time>2021-12-19T09:22:34Z</time>
      </trkpt>
      <trkpt lat="45.2328" lon="6.03632">
        <ele>2346.6</ele>
        <time>2021-12-19T09:22:39Z</time>
      </trkpt>
      <trkpt lat="45.23281" lon="6.03633">
        <ele>2347.2</ele>
        <time>2021-12-19T09:22:41Z</time>
      </trkpt>
      <trkpt lat="45.23283" lon="6.03635">
        <ele>2347.8</ele>
        <time>2021-12-19T09:22:46Z</time>
      </trkpt>
      <trkpt lat="45.23282" lon="6.03635">
        <ele>2348</ele>
        <time>2021-12-19T09:22:47Z</time>
      </trkpt>
      <trkpt lat="45.23282" lon="6.03635">
        <ele>2348</ele>
        <time>2021-12-19T09:22:48Z</time>
      </trkpt>
      <trkpt lat="45.23282" lon="6.03634">
        <ele>2348.6</ele>
        <time>2021-12-19T09:22:54Z</time>
      </trkpt>
      <trkpt lat="45.23281" lon="6.0363">
        <ele>2349</ele>
        <time>2021-12-19T09:22:58Z</time>
      </trkpt>
      <trkpt lat="45.23281" lon="6.03629">
        <ele>2349.2</ele>
        <time>2021-12-19T09:22:59Z</time>
      </trkpt>
      <trkpt lat="45.2328" lon="6.03624">
        <ele>2350.2</ele>
        <time>2021-12-19T09:23:05Z</time>
      </trkpt>
      <trkpt lat="45.23278" lon="6.03619">
        <ele>2351</ele>
        <time>2021-12-19T09:23:11Z</time>
      </trkpt>
      <trkpt lat="45.23277" lon="6.03619">
        <ele>2351.2</ele>
        <time>2021-12-19T09:23:12Z</time>
      </trkpt>
      <trkpt lat="45.23275" lon="6.03616">
        <ele>2352.4</ele>
        <time>2021-12-19T09:23:18Z</time>
      </trkpt>
      <trkpt lat="45.23275" lon="6.03616">
        <ele>2352.4</ele>
        <time>2021-12-19T09:23:19Z</time>
      </trkpt>
      <trkpt lat="45.23275" lon="6.03616">
        <ele>2352.8</ele>
        <time>2021-12-19T09:23:21Z</time>
      </trkpt>
      <trkpt lat="45.23278" lon="6.03617">
        <ele>2353</ele>
        <time>2021-12-19T09:23:26Z</time>
      </trkpt>
      <trkpt lat="45.2328" lon="6.03617">
        <ele>2353.4</ele>
        <time>2021-12-19T09:23:28Z</time>
      </trkpt>
      <trkpt lat="45.23283" lon="6.03616">
        <ele>2354</ele>
        <time>2021-12-19T09:23:32Z</time>
      </trkpt>
      <trkpt lat="45.23285" lon="6.03618">
        <ele>2354.6</ele>
        <time>2021-12-19T09:23:35Z</time>
      </trkpt>
      <trkpt lat="45.2329" lon="6.03621">
        <ele>2355.6</ele>
        <time>2021-12-19T09:23:42Z</time>
      </trkpt>
      <trkpt lat="45.2329" lon="6.03622">
        <ele>2355.8</ele>
        <time>2021-12-19T09:23:43Z</time>
      </trkpt>
      <trkpt lat="45.2329" lon="6.03622">
        <ele>2356.8</ele>
        <time>2021-12-19T09:23:49Z</time>
      </trkpt>
      <trkpt lat="45.23288" lon="6.03617">
        <ele>2357.6</ele>
        <time>2021-12-19T09:23:57Z</time>
      </trkpt>
      <trkpt lat="45.23288" lon="6.03616">
        <ele>2357.8</ele>
        <time>2021-12-19T09:23:58Z</time>
      </trkpt>
      <trkpt lat="45.23286" lon="6.03612">
        <ele>2359</ele>
        <time>2021-12-19T09:24:03Z</time>
      </trkpt>
      <trkpt lat="45.23283" lon="6.0361">
        <ele>2359.8</ele>
        <time>2021-12-19T09:24:08Z</time>
      </trkpt>
      <trkpt lat="45.23282" lon="6.0361">
        <ele>2360</ele>
        <time>2021-12-19T09:24:09Z</time>
      </trkpt>
      <trkpt lat="45.23279" lon="6.03607">
        <ele>2360.8</ele>
        <time>2021-12-19T09:24:15Z</time>
      </trkpt>
      <trkpt lat="45.23278" lon="6.03606">
        <ele>2361</ele>
        <time>2021-12-19T09:24:17Z</time>
      </trkpt>
      <trkpt lat="45.23279" lon="6.03605">
        <ele>2361.2</ele>
        <time>2021-12-19T09:24:22Z</time>
      </trkpt>
      <trkpt lat="45.23283" lon="6.03606">
        <ele>2362</ele>
        <time>2021-12-19T09:24:29Z</time>
      </trkpt>
      <trkpt lat="45.23284" lon="6.03606">
        <ele>2362.2</ele>
        <time>2021-12-19T09:24:30Z</time>
      </trkpt>
      <trkpt lat="45.23289" lon="6.03608">
        <ele>2363.2</ele>
        <time>2021-12-19T09:24:37Z</time>
      </trkpt>
      <trkpt lat="45.23289" lon="6.03609">
        <ele>2363.6</ele>
        <time>2021-12-19T09:24:38Z</time>
      </trkpt>
      <trkpt lat="45.23293" lon="6.03609">
        <ele>2364.4</ele>
        <time>2021-12-19T09:24:43Z</time>
      </trkpt>
      <trkpt lat="45.23296" lon="6.03611">
        <ele>2365.2</ele>
        <time>2021-12-19T09:24:47Z</time>
      </trkpt>
      <trkpt lat="45.23296" lon="6.03612">
        <ele>2365.4</ele>
        <time>2021-12-19T09:24:48Z</time>
      </trkpt>
      <trkpt lat="45.23296" lon="6.03612">
        <ele>2366.4</ele>
        <time>2021-12-19T09:24:55Z</time>
      </trkpt>
      <trkpt lat="45.23295" lon="6.03612">
        <ele>2366.4</ele>
        <time>2021-12-19T09:24:58Z</time>
      </trkpt>
      <trkpt lat="45.23294" lon="6.0361">
        <ele>2366.4</ele>
        <time>2021-12-19T09:25:01Z</time>
      </trkpt>
      <trkpt lat="45.23292" lon="6.03605">
        <ele>2367.4</ele>
        <time>2021-12-19T09:25:07Z</time>
      </trkpt>
      <trkpt lat="45.23289" lon="6.03599">
        <ele>2368.6</ele>
        <time>2021-12-19T09:25:15Z</time>
      </trkpt>
      <trkpt lat="45.23287" lon="6.03595">
        <ele>2369.6</ele>
        <time>2021-12-19T09:25:20Z</time>
      </trkpt>
      <trkpt lat="45.23285" lon="6.03593">
        <ele>2370</ele>
        <time>2021-12-19T09:25:23Z</time>
      </trkpt>
      <trkpt lat="45.23282" lon="6.03591">
        <ele>2370.8</ele>
        <time>2021-12-19T09:25:28Z</time>
      </trkpt>
      <trkpt lat="45.23281" lon="6.0359">
        <ele>2371.4</ele>
        <time>2021-12-19T09:25:32Z</time>
      </trkpt>
      <trkpt lat="45.23281" lon="6.03589">
        <ele>2371.8</ele>
        <time>2021-12-19T09:25:36Z</time>
      </trkpt>
      <trkpt lat="45.23281" lon="6.03589">
        <ele>2371.8</ele>
        <time>2021-12-19T09:25:38Z</time>
      </trkpt>
      <trkpt lat="45.23282" lon="6.03588">
        <ele>2371.8</ele>
        <time>2021-12-19T09:25:41Z</time>
      </trkpt>
      <trkpt lat="45.23285" lon="6.03589">
        <ele>2372.2</ele>
        <time>2021-12-19T09:25:48Z</time>
      </trkpt>
      <trkpt lat="45.23288" lon="6.03589">
        <ele>2372.8</ele>
        <time>2021-12-19T09:25:52Z</time>
      </trkpt>
      <trkpt lat="45.2329" lon="6.03589">
        <ele>2373</ele>
        <time>2021-12-19T09:25:55Z</time>
      </trkpt>
      <trkpt lat="45.23294" lon="6.03591">
        <ele>2373.8</ele>
        <time>2021-12-19T09:26:01Z</time>
      </trkpt>
      <trkpt lat="45.23296" lon="6.03592">
        <ele>2374.6</ele>
        <time>2021-12-19T09:26:05Z</time>
      </trkpt>
      <trkpt lat="45.23297" lon="6.03592">
        <ele>2375</ele>
        <time>2021-12-19T09:26:07Z</time>
      </trkpt>
      <trkpt lat="45.233" lon="6.03595">
        <ele>2375.8</ele>
        <time>2021-12-19T09:26:13Z</time>
      </trkpt>
      <trkpt lat="45.23302" lon="6.03597">
        <ele>2376</ele>
        <time>2021-12-19T09:26:16Z</time>
      </trkpt>
      <trkpt lat="45.23304" lon="6.036">
        <ele>2376.6</ele>
        <time>2021-12-19T09:26:21Z</time>
      </trkpt>
      <trkpt lat="45.23305" lon="6.03601">
        <ele>2377</ele>
        <time>2021-12-19T09:26:23Z</time>
      </trkpt>
      <trkpt lat="45.23306" lon="6.03602">
        <ele>2377.8</ele>
        <time>2021-12-19T09:26:31Z</time>
      </trkpt>
      <trkpt lat="45.23305" lon="6.036">
        <ele>2378</ele>
        <time>2021-12-19T09:26:38Z</time>
      </trkpt>
      <trkpt lat="45.23305" lon="6.03599">
        <ele>2378.4</ele>
        <time>2021-12-19T09:26:40Z</time>
      </trkpt>
      <trkpt lat="45.23302" lon="6.03595">
        <ele>2378.8</ele>
        <time>2021-12-19T09:26:48Z</time>
      </trkpt>
      <trkpt lat="45.23302" lon="6.03594">
        <ele>2378.8</ele>
        <time>2021-12-19T09:26:49Z</time>
      </trkpt>
      <trkpt lat="45.23304" lon="6.03594">
        <ele>2379.2</ele>
        <time>2021-12-19T09:26:55Z</time>
      </trkpt>
      <trkpt lat="45.23307" lon="6.03596">
        <ele>2380.4</ele>
        <time>2021-12-19T09:27:02Z</time>
      </trkpt>
      <trkpt lat="45.23307" lon="6.03597">
        <ele>2380.4</ele>
        <time>2021-12-19T09:27:03Z</time>
      </trkpt>
      <trkpt lat="45.2331" lon="6.03599">
        <ele>2381.4</ele>
        <time>2021-12-19T09:27:09Z</time>
      </trkpt>
      <trkpt lat="45.2331" lon="6.03599">
        <ele>2381.6</ele>
        <time>2021-12-19T09:27:12Z</time>
      </trkpt>
      <trkpt lat="45.23309" lon="6.03597">
        <ele>2382.2</ele>
        <time>2021-12-19T09:27:18Z</time>
      </trkpt>
      <trkpt lat="45.23308" lon="6.03594">
        <ele>2382.4</ele>
        <time>2021-12-19T09:27:21Z</time>
      </trkpt>
      <trkpt lat="45.23308" lon="6.03592">
        <ele>2382.6</ele>
        <time>2021-12-19T09:27:24Z</time>
      </trkpt>
      <trkpt lat="45.23308" lon="6.03591">
        <ele>2383.2</ele>
        <time>2021-12-19T09:27:31Z</time>
      </trkpt>
      <trkpt lat="45.23309" lon="6.03592">
        <ele>2383.4</ele>
        <time>2021-12-19T09:27:36Z</time>
      </trkpt>
      <trkpt lat="45.23311" lon="6.03595">
        <ele>2384</ele>
        <time>2021-12-19T09:27:41Z</time>
      </trkpt>
      <trkpt lat="45.23312" lon="6.03597">
        <ele>2384.2</ele>
        <time>2021-12-19T09:27:43Z</time>
      </trkpt>
      <trkpt lat="45.23314" lon="6.036">
        <ele>2384.6</ele>
        <time>2021-12-19T09:27:46Z</time>
      </trkpt>
      <trkpt lat="45.23315" lon="6.03602">
        <ele>2385.8</ele>
        <time>2021-12-19T09:27:50Z</time>
      </trkpt>
      <trkpt lat="45.23315" lon="6.03603">
        <ele>2385.6</ele>
        <time>2021-12-19T09:27:55Z</time>
      </trkpt>
      <trkpt lat="45.23315" lon="6.03603">
        <ele>2385.8</ele>
        <time>2021-12-19T09:28:03Z</time>
      </trkpt>
      <trkpt lat="45.23315" lon="6.03603">
        <ele>2386.8</ele>
        <time>2021-12-19T09:28:16Z</time>
      </trkpt>
      <trkpt lat="45.23315" lon="6.03607">
        <ele>2387.8</ele>
        <time>2021-12-19T09:28:30Z</time>
      </trkpt>
      <trkpt lat="45.23319" lon="6.03609">
        <ele>2388.8</ele>
        <time>2021-12-19T09:28:42Z</time>
      </trkpt>
      <trkpt lat="45.23321" lon="6.0361">
        <ele>2390</ele>
        <time>2021-12-19T09:28:51Z</time>
      </trkpt>
      <trkpt lat="45.23324" lon="6.0362">
        <ele>2391</ele>
        <time>2021-12-19T09:28:57Z</time>
      </trkpt>
      <trkpt lat="45.23325" lon="6.03622">
        <ele>2391.2</ele>
        <time>2021-12-19T09:28:58Z</time>
      </trkpt>
      <trkpt lat="45.23325" lon="6.03626">
        <ele>2391.6</ele>
        <time>2021-12-19T09:29:03Z</time>
      </trkpt>
      <trkpt lat="45.23325" lon="6.03623">
        <ele>2392</ele>
        <time>2021-12-19T09:29:07Z</time>
      </trkpt>
      <trkpt lat="45.23325" lon="6.03621">
        <ele>2392.2</ele>
        <time>2021-12-19T09:29:09Z</time>
      </trkpt>
      <trkpt lat="45.23325" lon="6.03615">
        <ele>2392.8</ele>
        <time>2021-12-19T09:29:14Z</time>
      </trkpt>
      <trkpt lat="45.23326" lon="6.03614">
        <ele>2393.2</ele>
        <time>2021-12-19T09:29:16Z</time>
      </trkpt>
      <trkpt lat="45.23326" lon="6.03609">
        <ele>2394.2</ele>
        <time>2021-12-19T09:29:22Z</time>
      </trkpt>
      <trkpt lat="45.23326" lon="6.03609">
        <ele>2394.4</ele>
        <time>2021-12-19T09:29:23Z</time>
      </trkpt>
      <trkpt lat="45.23327" lon="6.03608">
        <ele>2395</ele>
        <time>2021-12-19T09:29:29Z</time>
      </trkpt>
      <trkpt lat="45.23328" lon="6.03609">
        <ele>2395.4</ele>
        <time>2021-12-19T09:29:31Z</time>
      </trkpt>
      <trkpt lat="45.23329" lon="6.03609">
        <ele>2395.6</ele>
        <time>2021-12-19T09:29:38Z</time>
      </trkpt>
      <trkpt lat="45.23329" lon="6.03609">
        <ele>2396.4</ele>
        <time>2021-12-19T09:29:44Z</time>
      </trkpt>
      <trkpt lat="45.23333" lon="6.03616">
        <ele>2397.4</ele>
        <time>2021-12-19T09:29:49Z</time>
      </trkpt>
      <trkpt lat="45.23335" lon="6.03618">
        <ele>2397.8</ele>
        <time>2021-12-19T09:29:51Z</time>
      </trkpt>
      <trkpt lat="45.23337" lon="6.03622">
        <ele>2398.6</ele>
        <time>2021-12-19T09:29:55Z</time>
      </trkpt>
      <trkpt lat="45.23336" lon="6.03621">
        <ele>2399.2</ele>
        <time>2021-12-19T09:29:58Z</time>
      </trkpt>
      <trkpt lat="45.23337" lon="6.03618">
        <ele>2399.6</ele>
        <time>2021-12-19T09:30:02Z</time>
      </trkpt>
      <trkpt lat="45.23336" lon="6.03615">
        <ele>2400.2</ele>
        <time>2021-12-19T09:30:05Z</time>
      </trkpt>
      <trkpt lat="45.23337" lon="6.03613">
        <ele>2400.8</ele>
        <time>2021-12-19T09:30:09Z</time>
      </trkpt>
      <trkpt lat="45.23338" lon="6.03613">
        <ele>2401.2</ele>
        <time>2021-12-19T09:30:12Z</time>
      </trkpt>
      <trkpt lat="45.2334" lon="6.03615">
        <ele>2401.6</ele>
        <time>2021-12-19T09:30:20Z</time>
      </trkpt>
      <trkpt lat="45.2334" lon="6.03617">
        <ele>2402</ele>
        <time>2021-12-19T09:30:23Z</time>
      </trkpt>
      <trkpt lat="45.23342" lon="6.03625">
        <ele>2402.8</ele>
        <time>2021-12-19T09:30:32Z</time>
      </trkpt>
      <trkpt lat="45.23343" lon="6.03626">
        <ele>2403.2</ele>
        <time>2021-12-19T09:30:33Z</time>
      </trkpt>
      <trkpt lat="45.23343" lon="6.03634">
        <ele>2404.2</ele>
        <time>2021-12-19T09:30:40Z</time>
      </trkpt>
      <trkpt lat="45.23343" lon="6.03636">
        <ele>2404.4</ele>
        <time>2021-12-19T09:30:41Z</time>
      </trkpt>
      <trkpt lat="45.23344" lon="6.03642">
        <ele>2405.6</ele>
        <time>2021-12-19T09:30:48Z</time>
      </trkpt>
      <trkpt lat="45.23345" lon="6.03643">
        <ele>2405.6</ele>
        <time>2021-12-19T09:30:49Z</time>
      </trkpt>
      <trkpt lat="45.23346" lon="6.03648">
        <ele>2406</ele>
        <time>2021-12-19T09:30:53Z</time>
      </trkpt>
      <trkpt lat="45.23347" lon="6.03652">
        <ele>2406.6</ele>
        <time>2021-12-19T09:30:57Z</time>
      </trkpt>
      <trkpt lat="45.23348" lon="6.03654">
        <ele>2407</ele>
        <time>2021-12-19T09:30:59Z</time>
      </trkpt>
      <trkpt lat="45.2335" lon="6.03655">
        <ele>2407.6</ele>
        <time>2021-12-19T09:31:03Z</time>
      </trkpt>
      <trkpt lat="45.2335" lon="6.03656">
        <ele>2407.8</ele>
        <time>2021-12-19T09:31:05Z</time>
      </trkpt>
      <trkpt lat="45.23351" lon="6.03656">
        <ele>2408.2</ele>
        <time>2021-12-19T09:31:14Z</time>
      </trkpt>
      <trkpt lat="45.2335" lon="6.03658">
        <ele>2407.8</ele>
        <time>2021-12-19T09:31:36Z</time>
      </trkpt>
      <trkpt lat="45.23346" lon="6.0366">
        <ele>2407</ele>
        <time>2021-12-19T09:32:25Z</time>
      </trkpt>
      <trkpt lat="45.23355" lon="6.03666">
        <ele>2407</ele>
        <time>2021-12-19T09:33:24Z</time>
      </trkpt>
      <trkpt lat="45.23357" lon="6.03667">
        <ele>2411</ele>
        <time>2021-12-19T09:33:25Z</time>
      </trkpt>
      <trkpt lat="45.23366" lon="6.03675">
        <ele>2412.2</ele>
        <time>2021-12-19T09:33:32Z</time>
      </trkpt>
      <trkpt lat="45.23369" lon="6.03683">
        <ele>2413.2</ele>
        <time>2021-12-19T09:33:39Z</time>
      </trkpt>
      <trkpt lat="45.23369" lon="6.03684">
        <ele>2413.2</ele>
        <time>2021-12-19T09:33:40Z</time>
      </trkpt>
      <trkpt lat="45.2337" lon="6.0369">
        <ele>2414.4</ele>
        <time>2021-12-19T09:33:46Z</time>
      </trkpt>
      <trkpt lat="45.23368" lon="6.03699">
        <ele>2415.4</ele>
        <time>2021-12-19T09:33:53Z</time>
      </trkpt>
      <trkpt lat="45.23367" lon="6.037">
        <ele>2415.8</ele>
        <time>2021-12-19T09:33:54Z</time>
      </trkpt>
      <trkpt lat="45.23363" lon="6.03705">
        <ele>2416.8</ele>
        <time>2021-12-19T09:33:58Z</time>
      </trkpt>
      <trkpt lat="45.23362" lon="6.03708">
        <ele>2417.2</ele>
        <time>2021-12-19T09:34:01Z</time>
      </trkpt>
      <trkpt lat="45.23361" lon="6.03709">
        <ele>2417.6</ele>
        <time>2021-12-19T09:34:03Z</time>
      </trkpt>
      <trkpt lat="45.23362" lon="6.0371">
        <ele>2417.8</ele>
        <time>2021-12-19T09:34:04Z</time>
      </trkpt>
      <trkpt lat="45.23366" lon="6.03712">
        <ele>2419</ele>
        <time>2021-12-19T09:34:10Z</time>
      </trkpt>
      <trkpt lat="45.23369" lon="6.03711">
        <ele>2419.4</ele>
        <time>2021-12-19T09:34:13Z</time>
      </trkpt>
      <trkpt lat="45.23372" lon="6.03713">
        <ele>2420</ele>
        <time>2021-12-19T09:34:17Z</time>
      </trkpt>
      <trkpt lat="45.23374" lon="6.03715">
        <ele>2420.6</ele>
        <time>2021-12-19T09:34:20Z</time>
      </trkpt>
      <trkpt lat="45.23374" lon="6.03717">
        <ele>2421.2</ele>
        <time>2021-12-19T09:34:23Z</time>
      </trkpt>
      <trkpt lat="45.23378" lon="6.03717">
        <ele>2422.2</ele>
        <time>2021-12-19T09:34:27Z</time>
      </trkpt>
      <trkpt lat="45.2338" lon="6.03716">
        <ele>2422.8</ele>
        <time>2021-12-19T09:34:29Z</time>
      </trkpt>
      <trkpt lat="45.2338" lon="6.03717">
        <ele>2423.4</ele>
        <time>2021-12-19T09:34:32Z</time>
      </trkpt>
      <trkpt lat="45.23381" lon="6.03716">
        <ele>2424.4</ele>
        <time>2021-12-19T09:34:37Z</time>
      </trkpt>
      <trkpt lat="45.23381" lon="6.03716">
        <ele>2425.2</ele>
        <time>2021-12-19T09:34:45Z</time>
      </trkpt>
      <trkpt lat="45.23381" lon="6.03716">
        <ele>2425.2</ele>
        <time>2021-12-19T09:34:46Z</time>
      </trkpt>
      <trkpt lat="45.23381" lon="6.03716">
        <ele>2425.6</ele>
        <time>2021-12-19T09:34:48Z</time>
      </trkpt>
      <trkpt lat="45.23385" lon="6.03713">
        <ele>2426.2</ele>
        <time>2021-12-19T09:34:52Z</time>
      </trkpt>
      <trkpt lat="45.23388" lon="6.03711">
        <ele>2426.6</ele>
        <time>2021-12-19T09:34:56Z</time>
      </trkpt>
      <trkpt lat="45.23393" lon="6.03711">
        <ele>2427.8</ele>
        <time>2021-12-19T09:35:02Z</time>
      </trkpt>
      <trkpt lat="45.23395" lon="6.03712">
        <ele>2428</ele>
        <time>2021-12-19T09:35:04Z</time>
      </trkpt>
      <trkpt lat="45.234" lon="6.03714">
        <ele>2428.8</ele>
        <time>2021-12-19T09:35:11Z</time>
      </trkpt>
      <trkpt lat="45.23403" lon="6.03715">
        <ele>2428.8</ele>
        <time>2021-12-19T09:35:14Z</time>
      </trkpt>
      <trkpt lat="45.23411" lon="6.03717">
        <ele>2429</ele>
        <time>2021-12-19T09:35:23Z</time>
      </trkpt>
      <trkpt lat="45.23415" lon="6.0372">
        <ele>2429.8</ele>
        <time>2021-12-19T09:35:29Z</time>
      </trkpt>
      <trkpt lat="45.23418" lon="6.03722">
        <ele>2430.4</ele>
        <time>2021-12-19T09:35:32Z</time>
      </trkpt>
      <trkpt lat="45.23419" lon="6.03723">
        <ele>2430.8</ele>
        <time>2021-12-19T09:35:34Z</time>
      </trkpt>
      <trkpt lat="45.23424" lon="6.03727">
        <ele>2431.6</ele>
        <time>2021-12-19T09:35:40Z</time>
      </trkpt>
      <trkpt lat="45.23425" lon="6.03728">
        <ele>2432</ele>
        <time>2021-12-19T09:35:41Z</time>
      </trkpt>
      <trkpt lat="45.23429" lon="6.03732">
        <ele>2433</ele>
        <time>2021-12-19T09:35:46Z</time>
      </trkpt>
      <trkpt lat="45.23431" lon="6.03733">
        <ele>2433.4</ele>
        <time>2021-12-19T09:35:48Z</time>
      </trkpt>
      <trkpt lat="45.23434" lon="6.03735">
        <ele>2434.2</ele>
        <time>2021-12-19T09:35:52Z</time>
      </trkpt>
      <trkpt lat="45.23436" lon="6.03737">
        <ele>2435</ele>
        <time>2021-12-19T09:35:56Z</time>
      </trkpt>
      <trkpt lat="45.23438" lon="6.03738">
        <ele>2435.2</ele>
        <time>2021-12-19T09:35:59Z</time>
      </trkpt>
      <trkpt lat="45.23439" lon="6.03739">
        <ele>2435.4</ele>
        <time>2021-12-19T09:36:00Z</time>
      </trkpt>
      <trkpt lat="45.23442" lon="6.0374">
        <ele>2436</ele>
        <time>2021-12-19T09:36:05Z</time>
      </trkpt>
      <trkpt lat="45.23443" lon="6.03741">
        <ele>2436.4</ele>
        <time>2021-12-19T09:36:07Z</time>
      </trkpt>
      <trkpt lat="45.23449" lon="6.03747">
        <ele>2437.2</ele>
        <time>2021-12-19T09:36:15Z</time>
      </trkpt>
      <trkpt lat="45.23449" lon="6.03748">
        <ele>2437.6</ele>
        <time>2021-12-19T09:36:16Z</time>
      </trkpt>
      <trkpt lat="45.23452" lon="6.03751">
        <ele>2438.6</ele>
        <time>2021-12-19T09:36:22Z</time>
      </trkpt>
      <trkpt lat="45.23453" lon="6.03752">
        <ele>2438.8</ele>
        <time>2021-12-19T09:36:23Z</time>
      </trkpt>
      <trkpt lat="45.23456" lon="6.03755">
        <ele>2439.8</ele>
        <time>2021-12-19T09:36:27Z</time>
      </trkpt>
      <trkpt lat="45.23459" lon="6.0376">
        <ele>2440.4</ele>
        <time>2021-12-19T09:36:31Z</time>
      </trkpt>
      <trkpt lat="45.23462" lon="6.03762">
        <ele>2440.8</ele>
        <time>2021-12-19T09:36:34Z</time>
      </trkpt>
      <trkpt lat="45.23464" lon="6.03767">
        <ele>2441.6</ele>
        <time>2021-12-19T09:36:38Z</time>
      </trkpt>
      <trkpt lat="45.23465" lon="6.03769">
        <ele>2442</ele>
        <time>2021-12-19T09:36:40Z</time>
      </trkpt>
      <trkpt lat="45.23469" lon="6.03775">
        <ele>2443</ele>
        <time>2021-12-19T09:36:47Z</time>
      </trkpt>
      <trkpt lat="45.23473" lon="6.03777">
        <ele>2444</ele>
        <time>2021-12-19T09:36:53Z</time>
      </trkpt>
      <trkpt lat="45.23474" lon="6.03778">
        <ele>2444.2</ele>
        <time>2021-12-19T09:36:55Z</time>
      </trkpt>
      <trkpt lat="45.23476" lon="6.03779">
        <ele>2445.2</ele>
        <time>2021-12-19T09:36:59Z</time>
      </trkpt>
      <trkpt lat="45.23478" lon="6.0378">
        <ele>2445.6</ele>
        <time>2021-12-19T09:37:01Z</time>
      </trkpt>
      <trkpt lat="45.2348" lon="6.03781">
        <ele>2446.2</ele>
        <time>2021-12-19T09:37:05Z</time>
      </trkpt>
      <trkpt lat="45.23483" lon="6.03784">
        <ele>2447</ele>
        <time>2021-12-19T09:37:09Z</time>
      </trkpt>
      <trkpt lat="45.23484" lon="6.03786">
        <ele>2447.6</ele>
        <time>2021-12-19T09:37:11Z</time>
      </trkpt>
      <trkpt lat="45.23487" lon="6.03791">
        <ele>2448.6</ele>
        <time>2021-12-19T09:37:16Z</time>
      </trkpt>
      <trkpt lat="45.23488" lon="6.03792">
        <ele>2448.6</ele>
        <time>2021-12-19T09:37:17Z</time>
      </trkpt>
      <trkpt lat="45.2349" lon="6.03796">
        <ele>2449.8</ele>
        <time>2021-12-19T09:37:21Z</time>
      </trkpt>
      <trkpt lat="45.2349" lon="6.03799">
        <ele>2450.4</ele>
        <time>2021-12-19T09:37:24Z</time>
      </trkpt>
      <trkpt lat="45.2349" lon="6.03801">
        <ele>2450.8</ele>
        <time>2021-12-19T09:37:26Z</time>
      </trkpt>
      <trkpt lat="45.23492" lon="6.03805">
        <ele>2451.2</ele>
        <time>2021-12-19T09:37:30Z</time>
      </trkpt>
      <trkpt lat="45.23493" lon="6.0381">
        <ele>2451.8</ele>
        <time>2021-12-19T09:37:33Z</time>
      </trkpt>
      <trkpt lat="45.23488" lon="6.03818">
        <ele>2452.6</ele>
        <time>2021-12-19T09:37:38Z</time>
      </trkpt>
      <trkpt lat="45.23487" lon="6.03822">
        <ele>2453</ele>
        <time>2021-12-19T09:37:40Z</time>
      </trkpt>
      <trkpt lat="45.23487" lon="6.03824">
        <ele>2453.2</ele>
        <time>2021-12-19T09:37:41Z</time>
      </trkpt>
      <trkpt lat="45.23487" lon="6.03827">
        <ele>2453.4</ele>
        <time>2021-12-19T09:37:43Z</time>
      </trkpt>
      <trkpt lat="45.23486" lon="6.0383">
        <ele>2454.2</ele>
        <time>2021-12-19T09:37:47Z</time>
      </trkpt>
      <trkpt lat="45.23485" lon="6.03833">
        <ele>2454.6</ele>
        <time>2021-12-19T09:37:50Z</time>
      </trkpt>
      <trkpt lat="45.23485" lon="6.03842">
        <ele>2455.4</ele>
        <time>2021-12-19T09:37:55Z</time>
      </trkpt>
      <trkpt lat="45.23486" lon="6.03845">
        <ele>2455.6</ele>
        <time>2021-12-19T09:37:56Z</time>
      </trkpt>
      <trkpt lat="45.23484" lon="6.03849">
        <ele>2456.4</ele>
        <time>2021-12-19T09:38:02Z</time>
      </trkpt>
      <trkpt lat="45.23484" lon="6.0385">
        <ele>2456.4</ele>
        <time>2021-12-19T09:38:03Z</time>
      </trkpt>
      <trkpt lat="45.23484" lon="6.03854">
        <ele>2457.4</ele>
        <time>2021-12-19T09:38:08Z</time>
      </trkpt>
      <trkpt lat="45.23483" lon="6.03854">
        <ele>2458.2</ele>
        <time>2021-12-19T09:38:15Z</time>
      </trkpt>
      <trkpt lat="45.23483" lon="6.03852">
        <ele>2458.4</ele>
        <time>2021-12-19T09:38:17Z</time>
      </trkpt>
      <trkpt lat="45.23484" lon="6.03848">
        <ele>2458.6</ele>
        <time>2021-12-19T09:38:21Z</time>
      </trkpt>
      <trkpt lat="45.23486" lon="6.03844">
        <ele>2459.4</ele>
        <time>2021-12-19T09:38:27Z</time>
      </trkpt>
      <trkpt lat="45.23487" lon="6.03843">
        <ele>2459.6</ele>
        <time>2021-12-19T09:38:28Z</time>
      </trkpt>
      <trkpt lat="45.23489" lon="6.03839">
        <ele>2460</ele>
        <time>2021-12-19T09:38:34Z</time>
      </trkpt>
      <trkpt lat="45.23491" lon="6.03837">
        <ele>2460.6</ele>
        <time>2021-12-19T09:38:37Z</time>
      </trkpt>
      <trkpt lat="45.23494" lon="6.03834">
        <ele>2461.4</ele>
        <time>2021-12-19T09:38:41Z</time>
      </trkpt>
      <trkpt lat="45.23494" lon="6.03833">
        <ele>2461.6</ele>
        <time>2021-12-19T09:38:43Z</time>
      </trkpt>
      <trkpt lat="45.23496" lon="6.03831">
        <ele>2462.2</ele>
        <time>2021-12-19T09:38:48Z</time>
      </trkpt>
      <trkpt lat="45.23497" lon="6.03835">
        <ele>2462.2</ele>
        <time>2021-12-19T09:38:55Z</time>
      </trkpt>
      <trkpt lat="45.23497" lon="6.03835">
        <ele>2462.8</ele>
        <time>2021-12-19T09:39:05Z</time>
      </trkpt>
      <trkpt lat="45.23496" lon="6.03836">
        <ele>2463.8</ele>
        <time>2021-12-19T09:39:13Z</time>
      </trkpt>
      <trkpt lat="45.23496" lon="6.0384">
        <ele>2464.8</ele>
        <time>2021-12-19T09:39:19Z</time>
      </trkpt>
      <trkpt lat="45.23494" lon="6.03848">
        <ele>2466</ele>
        <time>2021-12-19T09:39:27Z</time>
      </trkpt>
      <trkpt lat="45.23492" lon="6.03858">
        <ele>2467</ele>
        <time>2021-12-19T09:39:46Z</time>
      </trkpt>
      <trkpt lat="45.23493" lon="6.03855">
        <ele>2466</ele>
        <time>2021-12-19T09:39:58Z</time>
      </trkpt>
      <trkpt lat="45.23493" lon="6.03854">
        <ele>2465.6</ele>
        <time>2021-12-19T09:39:59Z</time>
      </trkpt>
      <trkpt lat="45.23495" lon="6.03847">
        <ele>2465.2</ele>
        <time>2021-12-19T09:40:08Z</time>
      </trkpt>
      <trkpt lat="45.23497" lon="6.03842">
        <ele>2465.2</ele>
        <time>2021-12-19T09:40:42Z</time>
      </trkpt>
      <trkpt lat="45.23497" lon="6.03842">
        <ele>2464.8</ele>
        <time>2021-12-19T09:40:52Z</time>
      </trkpt>
      <trkpt lat="45.23495" lon="6.03844">
        <ele>2464.8</ele>
        <time>2021-12-19T09:41:32Z</time>
      </trkpt>
      <trkpt lat="45.23495" lon="6.03844">
        <ele>2464.8</ele>
        <time>2021-12-19T09:41:34Z</time>
      </trkpt>
      <trkpt lat="45.23496" lon="6.03846">
        <ele>2464.8</ele>
        <time>2021-12-19T09:42:24Z</time>
      </trkpt>
      <trkpt lat="45.23502" lon="6.03845">
        <ele>2471.2</ele>
        <time>2021-12-19T09:43:21Z</time>
      </trkpt>
      <trkpt lat="45.23505" lon="6.03844">
        <ele>2472.4</ele>
        <time>2021-12-19T09:43:33Z</time>
      </trkpt>
      <trkpt lat="45.23507" lon="6.03843">
        <ele>2473.4</ele>
        <time>2021-12-19T09:43:39Z</time>
      </trkpt>
      <trkpt lat="45.23508" lon="6.03843">
        <ele>2474.4</ele>
        <time>2021-12-19T09:43:46Z</time>
      </trkpt>
      <trkpt lat="45.2351" lon="6.03843">
        <ele>2475.4</ele>
        <time>2021-12-19T09:43:54Z</time>
      </trkpt>
      <trkpt lat="45.23512" lon="6.03844">
        <ele>2476.6</ele>
        <time>2021-12-19T09:44:18Z</time>
      </trkpt>
      <trkpt lat="45.23512" lon="6.03844">
        <ele>2477.6</ele>
        <time>2021-12-19T09:44:23Z</time>
      </trkpt>
      <trkpt lat="45.23512" lon="6.03844">
        <ele>2479</ele>
        <time>2021-12-19T09:44:30Z</time>
      </trkpt>
      <trkpt lat="45.23513" lon="6.03844">
        <ele>2480</ele>
        <time>2021-12-19T09:44:36Z</time>
      </trkpt>
      <trkpt lat="45.23513" lon="6.03844">
        <ele>2481.2</ele>
        <time>2021-12-19T09:44:40Z</time>
      </trkpt>
      <trkpt lat="45.23513" lon="6.03844">
        <ele>2482.2</ele>
        <time>2021-12-19T09:44:49Z</time>
      </trkpt>
      <trkpt lat="45.23513" lon="6.03844">
        <ele>2483.4</ele>
        <time>2021-12-19T09:44:59Z</time>
      </trkpt>
      <trkpt lat="45.23513" lon="6.03844">
        <ele>2484.4</ele>
        <time>2021-12-19T09:45:06Z</time>
      </trkpt>
      <trkpt lat="45.23513" lon="6.03844">
        <ele>2485.6</ele>
        <time>2021-12-19T09:45:13Z</time>
      </trkpt>
      <trkpt lat="45.23513" lon="6.03844">
        <ele>2486.6</ele>
        <time>2021-12-19T09:45:19Z</time>
      </trkpt>
      <trkpt lat="45.23513" lon="6.03844">
        <ele>2487.8</ele>
        <time>2021-12-19T09:45:23Z</time>
      </trkpt>
      <trkpt lat="45.23513" lon="6.03844">
        <ele>2489</ele>
        <time>2021-12-19T09:45:31Z</time>
      </trkpt>
      <trkpt lat="45.23514" lon="6.03844">
        <ele>2490</ele>
        <time>2021-12-19T09:45:36Z</time>
      </trkpt>
      <trkpt lat="45.23514" lon="6.03844">
        <ele>2491</ele>
        <time>2021-12-19T09:45:42Z</time>
      </trkpt>
      <trkpt lat="45.23514" lon="6.03845">
        <ele>2492.2</ele>
        <time>2021-12-19T09:45:50Z</time>
      </trkpt>
      <trkpt lat="45.23514" lon="6.03845">
        <ele>2493.2</ele>
        <time>2021-12-19T09:45:55Z</time>
      </trkpt>
      <trkpt lat="45.23514" lon="6.03845">
        <ele>2494.6</ele>
        <time>2021-12-19T09:46:05Z</time>
      </trkpt>
      <trkpt lat="45.23515" lon="6.03845">
        <ele>2495.6</ele>
        <time>2021-12-19T09:46:11Z</time>
      </trkpt>
      <trkpt lat="45.23516" lon="6.03845">
        <ele>2496</ele>
        <time>2021-12-19T09:46:44Z</time>
      </trkpt>
      <trkpt lat="45.23516" lon="6.03845">
        <ele>2496.8</ele>
        <time>2021-12-19T09:46:49Z</time>
      </trkpt>
      <trkpt lat="45.23516" lon="6.03845">
        <ele>2498</ele>
        <time>2021-12-19T09:46:56Z</time>
      </trkpt>
      <trkpt lat="45.23517" lon="6.03845">
        <ele>2499</ele>
        <time>2021-12-19T09:47:04Z</time>
      </trkpt>
      <trkpt lat="45.23517" lon="6.03845">
        <ele>2500</ele>
        <time>2021-12-19T09:47:13Z</time>
      </trkpt>
      <trkpt lat="45.23517" lon="6.03845">
        <ele>2501.2</ele>
        <time>2021-12-19T09:47:23Z</time>
      </trkpt>
      <trkpt lat="45.23518" lon="6.03845">
        <ele>2502.2</ele>
        <time>2021-12-19T09:47:30Z</time>
      </trkpt>
      <trkpt lat="45.23518" lon="6.03846">
        <ele>2503.4</ele>
        <time>2021-12-19T09:47:39Z</time>
      </trkpt>
      <trkpt lat="45.23518" lon="6.03846">
        <ele>2504.4</ele>
        <time>2021-12-19T09:47:48Z</time>
      </trkpt>
      <trkpt lat="45.23519" lon="6.03846">
        <ele>2505</ele>
        <time>2021-12-19T09:47:54Z</time>
      </trkpt>
      <trkpt lat="45.23519" lon="6.03846">
        <ele>2505.6</ele>
        <time>2021-12-19T09:47:59Z</time>
      </trkpt>
      <trkpt lat="45.23519" lon="6.03846">
        <ele>2506.6</ele>
        <time>2021-12-19T09:48:08Z</time>
      </trkpt>
      <trkpt lat="45.2352" lon="6.03846">
        <ele>2507.6</ele>
        <time>2021-12-19T09:48:18Z</time>
      </trkpt>
      <trkpt lat="45.23521" lon="6.03846">
        <ele>2508.8</ele>
        <time>2021-12-19T09:48:32Z</time>
      </trkpt>
      <trkpt lat="45.23522" lon="6.03846">
        <ele>2509.8</ele>
        <time>2021-12-19T09:48:43Z</time>
      </trkpt>
      <trkpt lat="45.23522" lon="6.03847">
        <ele>2510.8</ele>
        <time>2021-12-19T09:48:55Z</time>
      </trkpt>
      <trkpt lat="45.23524" lon="6.03847">
        <ele>2512.2</ele>
        <time>2021-12-19T09:49:14Z</time>
      </trkpt>
      <trkpt lat="45.23525" lon="6.03847">
        <ele>2511</ele>
        <time>2021-12-19T09:49:26Z</time>
      </trkpt>
      <trkpt lat="45.23528" lon="6.03847">
        <ele>2510</ele>
        <time>2021-12-19T09:50:06Z</time>
      </trkpt>
      <trkpt lat="45.2356" lon="6.03856">
        <ele>2509.6</ele>
        <time>2021-12-19T09:51:46Z</time>
      </trkpt>
      <trkpt lat="45.23589" lon="6.03868">
        <ele>2509.6</ele>
        <time>2021-12-19T09:51:55Z</time>
      </trkpt>
      <trkpt lat="45.23595" lon="6.03875">
        <ele>2509.8</ele>
        <time>2021-12-19T09:52:04Z</time>
      </trkpt>
      <trkpt lat="45.23604" lon="6.03886">
        <ele>2510</ele>
        <time>2021-12-19T09:52:17Z</time>
      </trkpt>
      <trkpt lat="45.23612" lon="6.03891">
        <ele>2510.4</ele>
        <time>2021-12-19T09:52:27Z</time>
      </trkpt>
      <trkpt lat="45.23616" lon="6.03898">
        <ele>2511</ele>
        <time>2021-12-19T09:52:35Z</time>
      </trkpt>
      <trkpt lat="45.23618" lon="6.03899">
        <ele>2511.4</ele>
        <time>2021-12-19T09:52:37Z</time>
      </trkpt>
      <trkpt lat="45.23629" lon="6.0391">
        <ele>2512</ele>
        <time>2021-12-19T09:52:51Z</time>
      </trkpt>
      <trkpt lat="45.23631" lon="6.03911">
        <ele>2512.2</ele>
        <time>2021-12-19T09:52:53Z</time>
      </trkpt>
      <trkpt lat="45.23635" lon="6.0392">
        <ele>2512.8</ele>
        <time>2021-12-19T09:53:01Z</time>
      </trkpt>
      <trkpt lat="45.23643" lon="6.03929">
        <ele>2513.2</ele>
        <time>2021-12-19T09:53:11Z</time>
      </trkpt>
      <trkpt lat="45.23645" lon="6.0393">
        <ele>2513.2</ele>
        <time>2021-12-19T09:53:13Z</time>
      </trkpt>
      <trkpt lat="45.23653" lon="6.03939">
        <ele>2514</ele>
        <time>2021-12-19T09:53:23Z</time>
      </trkpt>
      <trkpt lat="45.23656" lon="6.0394">
        <ele>2514.2</ele>
        <time>2021-12-19T09:53:26Z</time>
      </trkpt>
      <trkpt lat="45.23661" lon="6.03943">
        <ele>2515.4</ele>
        <time>2021-12-19T09:53:33Z</time>
      </trkpt>
      <trkpt lat="45.23662" lon="6.03944">
        <ele>2515.6</ele>
        <time>2021-12-19T09:53:34Z</time>
      </trkpt>
      <trkpt lat="45.23666" lon="6.03947">
        <ele>2516.4</ele>
        <time>2021-12-19T09:53:39Z</time>
      </trkpt>
      <trkpt lat="45.23669" lon="6.03948">
        <ele>2516.8</ele>
        <time>2021-12-19T09:53:42Z</time>
      </trkpt>
      <trkpt lat="45.2367" lon="6.03949">
        <ele>2517</ele>
        <time>2021-12-19T09:53:43Z</time>
      </trkpt>
      <trkpt lat="45.23672" lon="6.03949">
        <ele>2517.6</ele>
        <time>2021-12-19T09:53:46Z</time>
      </trkpt>
      <trkpt lat="45.23673" lon="6.0395">
        <ele>2517.6</ele>
        <time>2021-12-19T09:53:47Z</time>
      </trkpt>
      <trkpt lat="45.23676" lon="6.0395">
        <ele>2518.6</ele>
        <time>2021-12-19T09:53:51Z</time>
      </trkpt>
      <trkpt lat="45.23677" lon="6.03949">
        <ele>2518.6</ele>
        <time>2021-12-19T09:53:52Z</time>
      </trkpt>
      <trkpt lat="45.23679" lon="6.03951">
        <ele>2519.6</ele>
        <time>2021-12-19T09:53:56Z</time>
      </trkpt>
      <trkpt lat="45.23679" lon="6.03953">
        <ele>2520.4</ele>
        <time>2021-12-19T09:53:59Z</time>
      </trkpt>
      <trkpt lat="45.2368" lon="6.03955">
        <ele>2520.8</ele>
        <time>2021-12-19T09:54:01Z</time>
      </trkpt>
      <trkpt lat="45.23681" lon="6.03962">
        <ele>2522</ele>
        <time>2021-12-19T09:54:07Z</time>
      </trkpt>
      <trkpt lat="45.23679" lon="6.03968">
        <ele>2523.2</ele>
        <time>2021-12-19T09:54:12Z</time>
      </trkpt>
      <trkpt lat="45.23679" lon="6.03968">
        <ele>2523.4</ele>
        <time>2021-12-19T09:54:13Z</time>
      </trkpt>
      <trkpt lat="45.23679" lon="6.03972">
        <ele>2524.2</ele>
        <time>2021-12-19T09:54:17Z</time>
      </trkpt>
      <trkpt lat="45.23679" lon="6.03973">
        <ele>2525</ele>
        <time>2021-12-19T09:54:20Z</time>
      </trkpt>
      <trkpt lat="45.23679" lon="6.03973">
        <ele>2525.2</ele>
        <time>2021-12-19T09:54:21Z</time>
      </trkpt>
      <trkpt lat="45.23683" lon="6.0397">
        <ele>2526.2</ele>
        <time>2021-12-19T09:54:26Z</time>
      </trkpt>
      <trkpt lat="45.23684" lon="6.03969">
        <ele>2526.2</ele>
        <time>2021-12-19T09:54:27Z</time>
      </trkpt>
      <trkpt lat="45.23688" lon="6.03965">
        <ele>2527.4</ele>
        <time>2021-12-19T09:54:33Z</time>
      </trkpt>
      <trkpt lat="45.23692" lon="6.03964">
        <ele>2528</ele>
        <time>2021-12-19T09:54:38Z</time>
      </trkpt>
      <trkpt lat="45.23694" lon="6.03964">
        <ele>2528.4</ele>
        <time>2021-12-19T09:54:40Z</time>
      </trkpt>
      <trkpt lat="45.23698" lon="6.03963">
        <ele>2529.4</ele>
        <time>2021-12-19T09:54:46Z</time>
      </trkpt>
      <trkpt lat="45.23699" lon="6.03962">
        <ele>2530</ele>
        <time>2021-12-19T09:54:48Z</time>
      </trkpt>
      <trkpt lat="45.237" lon="6.0396">
        <ele>2530.6</ele>
        <time>2021-12-19T09:54:51Z</time>
      </trkpt>
      <trkpt lat="45.237" lon="6.03955">
        <ele>2531.6</ele>
        <time>2021-12-19T09:54:56Z</time>
      </trkpt>
      <trkpt lat="45.23701" lon="6.03954">
        <ele>2531.8</ele>
        <time>2021-12-19T09:54:57Z</time>
      </trkpt>
      <trkpt lat="45.23703" lon="6.03949">
        <ele>2532.8</ele>
        <time>2021-12-19T09:55:03Z</time>
      </trkpt>
      <trkpt lat="45.23704" lon="6.0395">
        <ele>2533</ele>
        <time>2021-12-19T09:55:04Z</time>
      </trkpt>
      <trkpt lat="45.23706" lon="6.03952">
        <ele>2534</ele>
        <time>2021-12-19T09:55:08Z</time>
      </trkpt>
      <trkpt lat="45.23709" lon="6.03953">
        <ele>2534.6</ele>
        <time>2021-12-19T09:55:12Z</time>
      </trkpt>
      <trkpt lat="45.23711" lon="6.03955">
        <ele>2535</ele>
        <time>2021-12-19T09:55:15Z</time>
      </trkpt>
      <trkpt lat="45.23714" lon="6.03957">
        <ele>2535.6</ele>
        <time>2021-12-19T09:55:19Z</time>
      </trkpt>
      <trkpt lat="45.23717" lon="6.03957">
        <ele>2536.2</ele>
        <time>2021-12-19T09:55:23Z</time>
      </trkpt>
      <trkpt lat="45.23723" lon="6.03958">
        <ele>2537.2</ele>
        <time>2021-12-19T09:55:30Z</time>
      </trkpt>
      <trkpt lat="45.23729" lon="6.03958">
        <ele>2538.2</ele>
        <time>2021-12-19T09:55:37Z</time>
      </trkpt>
      <trkpt lat="45.23733" lon="6.0396">
        <ele>2539.4</ele>
        <time>2021-12-19T09:55:42Z</time>
      </trkpt>
      <trkpt lat="45.23735" lon="6.0396">
        <ele>2539.6</ele>
        <time>2021-12-19T09:55:44Z</time>
      </trkpt>
      <trkpt lat="45.2374" lon="6.0396">
        <ele>2540.4</ele>
        <time>2021-12-19T09:55:49Z</time>
      </trkpt>
      <trkpt lat="45.23746" lon="6.03961">
        <ele>2541.2</ele>
        <time>2021-12-19T09:55:56Z</time>
      </trkpt>
      <trkpt lat="45.23747" lon="6.03961">
        <ele>2541.4</ele>
        <time>2021-12-19T09:55:57Z</time>
      </trkpt>
      <trkpt lat="45.2375" lon="6.03961">
        <ele>2542</ele>
        <time>2021-12-19T09:56:00Z</time>
      </trkpt>
      <trkpt lat="45.23752" lon="6.03962">
        <ele>2542.4</ele>
        <time>2021-12-19T09:56:03Z</time>
      </trkpt>
      <trkpt lat="45.23752" lon="6.03963">
        <ele>2542.6</ele>
        <time>2021-12-19T09:56:04Z</time>
      </trkpt>
      <trkpt lat="45.23753" lon="6.03968">
        <ele>2543.6</ele>
        <time>2021-12-19T09:56:09Z</time>
      </trkpt>
      <trkpt lat="45.23756" lon="6.03974">
        <ele>2544.8</ele>
        <time>2021-12-19T09:56:15Z</time>
      </trkpt>
      <trkpt lat="45.23757" lon="6.03977">
        <ele>2545.4</ele>
        <time>2021-12-19T09:56:18Z</time>
      </trkpt>
      <trkpt lat="45.2376" lon="6.03979">
        <ele>2546</ele>
        <time>2021-12-19T09:56:23Z</time>
      </trkpt>
      <trkpt lat="45.23764" lon="6.0398">
        <ele>2547</ele>
        <time>2021-12-19T09:56:28Z</time>
      </trkpt>
      <trkpt lat="45.23765" lon="6.0398">
        <ele>2547.2</ele>
        <time>2021-12-19T09:56:29Z</time>
      </trkpt>
      <trkpt lat="45.2377" lon="6.03981">
        <ele>2548</ele>
        <time>2021-12-19T09:56:35Z</time>
      </trkpt>
      <trkpt lat="45.23771" lon="6.03981">
        <ele>2548.2</ele>
        <time>2021-12-19T09:56:36Z</time>
      </trkpt>
      <trkpt lat="45.23774" lon="6.03979">
        <ele>2548.4</ele>
        <time>2021-12-19T09:56:39Z</time>
      </trkpt>
      <trkpt lat="45.23783" lon="6.0398">
        <ele>2549.2</ele>
        <time>2021-12-19T09:56:49Z</time>
      </trkpt>
      <trkpt lat="45.23784" lon="6.03981">
        <ele>2549.4</ele>
        <time>2021-12-19T09:56:50Z</time>
      </trkpt>
      <trkpt lat="45.23787" lon="6.03984">
        <ele>2550.4</ele>
        <time>2021-12-19T09:56:56Z</time>
      </trkpt>
      <trkpt lat="45.23789" lon="6.03985">
        <ele>2551.8</ele>
        <time>2021-12-19T09:57:00Z</time>
      </trkpt>
      <trkpt lat="45.23791" lon="6.03985">
        <ele>2552.2</ele>
        <time>2021-12-19T09:57:02Z</time>
      </trkpt>
      <trkpt lat="45.23793" lon="6.03985">
        <ele>2552.8</ele>
        <time>2021-12-19T09:57:05Z</time>
      </trkpt>
      <trkpt lat="45.23794" lon="6.03983">
        <ele>2553.4</ele>
        <time>2021-12-19T09:57:08Z</time>
      </trkpt>
      <trkpt lat="45.23795" lon="6.03982">
        <ele>2553.6</ele>
        <time>2021-12-19T09:57:09Z</time>
      </trkpt>
      <trkpt lat="45.23796" lon="6.03982">
        <ele>2553.8</ele>
        <time>2021-12-19T09:57:10Z</time>
      </trkpt>
      <trkpt lat="45.23799" lon="6.03976">
        <ele>2555</ele>
        <time>2021-12-19T09:57:16Z</time>
      </trkpt>
      <trkpt lat="45.238" lon="6.03975">
        <ele>2555.4</ele>
        <time>2021-12-19T09:57:18Z</time>
      </trkpt>
      <trkpt lat="45.23802" lon="6.03974">
        <ele>2556</ele>
        <time>2021-12-19T09:57:22Z</time>
      </trkpt>
      <trkpt lat="45.23806" lon="6.03971">
        <ele>2557</ele>
        <time>2021-12-19T09:57:27Z</time>
      </trkpt>
      <trkpt lat="45.23808" lon="6.0397">
        <ele>2558.2</ele>
        <time>2021-12-19T09:57:33Z</time>
      </trkpt>
      <trkpt lat="45.2381" lon="6.0397">
        <ele>2558.8</ele>
        <time>2021-12-19T09:57:36Z</time>
      </trkpt>
      <trkpt lat="45.23812" lon="6.03971">
        <ele>2559.4</ele>
        <time>2021-12-19T09:57:39Z</time>
      </trkpt>
      <trkpt lat="45.23815" lon="6.03975">
        <ele>2560.4</ele>
        <time>2021-12-19T09:57:44Z</time>
      </trkpt>
      <trkpt lat="45.23815" lon="6.03976">
        <ele>2560.6</ele>
        <time>2021-12-19T09:57:45Z</time>
      </trkpt>
      <trkpt lat="45.23817" lon="6.03979">
        <ele>2561.4</ele>
        <time>2021-12-19T09:57:50Z</time>
      </trkpt>
      <trkpt lat="45.23817" lon="6.03979">
        <ele>2561.6</ele>
        <time>2021-12-19T09:57:51Z</time>
      </trkpt>
      <trkpt lat="45.2382" lon="6.0398">
        <ele>2562.6</ele>
        <time>2021-12-19T09:57:55Z</time>
      </trkpt>
      <trkpt lat="45.23821" lon="6.03981">
        <ele>2563.2</ele>
        <time>2021-12-19T09:57:57Z</time>
      </trkpt>
      <trkpt lat="45.23822" lon="6.03984">
        <ele>2563.8</ele>
        <time>2021-12-19T09:58:01Z</time>
      </trkpt>
      <trkpt lat="45.23823" lon="6.03986">
        <ele>2563.8</ele>
        <time>2021-12-19T09:58:04Z</time>
      </trkpt>
      <trkpt lat="45.2382" lon="6.03986">
        <ele>2564</ele>
        <time>2021-12-19T09:58:11Z</time>
      </trkpt>
      <trkpt lat="45.23819" lon="6.03987">
        <ele>2564.8</ele>
        <time>2021-12-19T09:58:14Z</time>
      </trkpt>
      <trkpt lat="45.23818" lon="6.0399">
        <ele>2565.4</ele>
        <time>2021-12-19T09:58:18Z</time>
      </trkpt>
      <trkpt lat="45.23818" lon="6.03992">
        <ele>2566</ele>
        <time>2021-12-19T09:58:21Z</time>
      </trkpt>
      <trkpt lat="45.23816" lon="6.03994">
        <ele>2566.8</ele>
        <time>2021-12-19T09:58:26Z</time>
      </trkpt>
      <trkpt lat="45.23816" lon="6.03996">
        <ele>2567.2</ele>
        <time>2021-12-19T09:58:28Z</time>
      </trkpt>
      <trkpt lat="45.23814" lon="6.03993">
        <ele>2567.6</ele>
        <time>2021-12-19T09:58:34Z</time>
      </trkpt>
      <trkpt lat="45.23817" lon="6.03994">
        <ele>2568.4</ele>
        <time>2021-12-19T09:58:40Z</time>
      </trkpt>
      <trkpt lat="45.23817" lon="6.03998">
        <ele>2569</ele>
        <time>2021-12-19T09:58:46Z</time>
      </trkpt>
      <trkpt lat="45.23815" lon="6.03999">
        <ele>2569.4</ele>
        <time>2021-12-19T09:58:49Z</time>
      </trkpt>
      <trkpt lat="45.23815" lon="6.04001">
        <ele>2569.6</ele>
        <time>2021-12-19T09:58:51Z</time>
      </trkpt>
      <trkpt lat="45.23813" lon="6.04006">
        <ele>2570.4</ele>
        <time>2021-12-19T09:58:59Z</time>
      </trkpt>
      <trkpt lat="45.23813" lon="6.04006">
        <ele>2571</ele>
        <time>2021-12-19T09:59:06Z</time>
      </trkpt>
      <trkpt lat="45.23812" lon="6.04005">
        <ele>2570.8</ele>
        <time>2021-12-19T09:59:18Z</time>
      </trkpt>
      <trkpt lat="45.23815" lon="6.04006">
        <ele>2570.8</ele>
        <time>2021-12-19T10:00:11Z</time>
      </trkpt>
      <trkpt lat="45.23815" lon="6.04005">
        <ele>2571.6</ele>
        <time>2021-12-19T10:00:49Z</time>
      </trkpt>
      <trkpt lat="45.23815" lon="6.04007">
        <ele>2572.6</ele>
        <time>2021-12-19T10:00:58Z</time>
      </trkpt>
      <trkpt lat="45.23813" lon="6.04013">
        <ele>2573.6</ele>
        <time>2021-12-19T10:01:14Z</time>
      </trkpt>
      <trkpt lat="45.23813" lon="6.04014">
        <ele>2574.8</ele>
        <time>2021-12-19T10:01:24Z</time>
      </trkpt>
      <trkpt lat="45.23813" lon="6.04015">
        <ele>2575.8</ele>
        <time>2021-12-19T10:01:30Z</time>
      </trkpt>
      <trkpt lat="45.23814" lon="6.04016">
        <ele>2576.8</ele>
        <time>2021-12-19T10:01:37Z</time>
      </trkpt>
      <trkpt lat="45.23815" lon="6.04017">
        <ele>2578</ele>
        <time>2021-12-19T10:01:47Z</time>
      </trkpt>
      <trkpt lat="45.23815" lon="6.04019">
        <ele>2579</ele>
        <time>2021-12-19T10:01:55Z</time>
      </trkpt>
      <trkpt lat="45.23816" lon="6.0402">
        <ele>2580</ele>
        <time>2021-12-19T10:02:03Z</time>
      </trkpt>
      <trkpt lat="45.23816" lon="6.04021">
        <ele>2581.2</ele>
        <time>2021-12-19T10:02:15Z</time>
      </trkpt>
      <trkpt lat="45.23817" lon="6.04022">
        <ele>2582.2</ele>
        <time>2021-12-19T10:02:24Z</time>
      </trkpt>
      <trkpt lat="45.23817" lon="6.04023">
        <ele>2583.2</ele>
        <time>2021-12-19T10:02:32Z</time>
      </trkpt>
      <trkpt lat="45.23817" lon="6.04023">
        <ele>2584.4</ele>
        <time>2021-12-19T10:02:38Z</time>
      </trkpt>
      <trkpt lat="45.23817" lon="6.04023">
        <ele>2585.4</ele>
        <time>2021-12-19T10:02:47Z</time>
      </trkpt>
      <trkpt lat="45.23817" lon="6.04023">
        <ele>2586.6</ele>
        <time>2021-12-19T10:02:54Z</time>
      </trkpt>
      <trkpt lat="45.23817" lon="6.04023">
        <ele>2587.8</ele>
        <time>2021-12-19T10:03:01Z</time>
      </trkpt>
      <trkpt lat="45.23817" lon="6.04023">
        <ele>2588.8</ele>
        <time>2021-12-19T10:03:09Z</time>
      </trkpt>
      <trkpt lat="45.23817" lon="6.04023">
        <ele>2590</ele>
        <time>2021-12-19T10:03:16Z</time>
      </trkpt>
      <trkpt lat="45.23817" lon="6.04023">
        <ele>2591.4</ele>
        <time>2021-12-19T10:03:25Z</time>
      </trkpt>
      <trkpt lat="45.23817" lon="6.04024">
        <ele>2592.4</ele>
        <time>2021-12-19T10:03:33Z</time>
      </trkpt>
      <trkpt lat="45.23817" lon="6.04024">
        <ele>2593.4</ele>
        <time>2021-12-19T10:03:38Z</time>
      </trkpt>
      <trkpt lat="45.23817" lon="6.04024">
        <ele>2594.4</ele>
        <time>2021-12-19T10:03:52Z</time>
      </trkpt>
      <trkpt lat="45.23818" lon="6.04025">
        <ele>2594.4</ele>
        <time>2021-12-19T10:04:15Z</time>
      </trkpt>
      <trkpt lat="45.23818" lon="6.04027">
        <ele>2594.2</ele>
        <time>2021-12-19T10:05:16Z</time>
      </trkpt>
      <trkpt lat="45.23819" lon="6.04028">
        <ele>2594.2</ele>
        <time>2021-12-19T10:06:24Z</time>
      </trkpt>
      <trkpt lat="45.2384" lon="6.04038">
        <ele>2594.2</ele>
        <time>2021-12-19T10:07:03Z</time>
      </trkpt>
      <trkpt lat="45.23857" lon="6.04044">
        <ele>2606</ele>
        <time>2021-12-19T10:07:13Z</time>
      </trkpt>
      <trkpt lat="45.23857" lon="6.04043">
        <ele>2606</ele>
        <time>2021-12-19T10:07:14Z</time>
      </trkpt>
      <trkpt lat="45.23861" lon="6.04045">
        <ele>2607.2</ele>
        <time>2021-12-19T10:07:21Z</time>
      </trkpt>
      <trkpt lat="45.23862" lon="6.04045">
        <ele>2607.2</ele>
        <time>2021-12-19T10:07:22Z</time>
      </trkpt>
      <trkpt lat="45.23867" lon="6.04049">
        <ele>2608.2</ele>
        <time>2021-12-19T10:07:30Z</time>
      </trkpt>
      <trkpt lat="45.2387" lon="6.04053">
        <ele>2609</ele>
        <time>2021-12-19T10:07:36Z</time>
      </trkpt>
      <trkpt lat="45.23871" lon="6.04054">
        <ele>2609.2</ele>
        <time>2021-12-19T10:07:38Z</time>
      </trkpt>
      <trkpt lat="45.23876" lon="6.04059">
        <ele>2610.2</ele>
        <time>2021-12-19T10:07:46Z</time>
      </trkpt>
      <trkpt lat="45.23877" lon="6.0406">
        <ele>2610.6</ele>
        <time>2021-12-19T10:07:48Z</time>
      </trkpt>
      <trkpt lat="45.23877" lon="6.04059">
        <ele>2611</ele>
        <time>2021-12-19T10:07:55Z</time>
      </trkpt>
      <trkpt lat="45.23877" lon="6.04059">
        <ele>2611.2</ele>
        <time>2021-12-19T10:08:03Z</time>
      </trkpt>
      <trkpt lat="45.23875" lon="6.04055">
        <ele>2612.2</ele>
        <time>2021-12-19T10:08:12Z</time>
      </trkpt>
      <trkpt lat="45.23873" lon="6.04051">
        <ele>2613</ele>
        <time>2021-12-19T10:08:16Z</time>
      </trkpt>
      <trkpt lat="45.23872" lon="6.04048">
        <ele>2613.2</ele>
        <time>2021-12-19T10:08:18Z</time>
      </trkpt>
      <trkpt lat="45.23872" lon="6.04047">
        <ele>2613.4</ele>
        <time>2021-12-19T10:08:19Z</time>
      </trkpt>
      <trkpt lat="45.23872" lon="6.04046">
        <ele>2613.8</ele>
        <time>2021-12-19T10:08:21Z</time>
      </trkpt>
      <trkpt lat="45.23871" lon="6.04043">
        <ele>2614.4</ele>
        <time>2021-12-19T10:08:24Z</time>
      </trkpt>
      <trkpt lat="45.2387" lon="6.0404">
        <ele>2615</ele>
        <time>2021-12-19T10:08:28Z</time>
      </trkpt>
      <trkpt lat="45.2387" lon="6.04039">
        <ele>2615.4</ele>
        <time>2021-12-19T10:08:32Z</time>
      </trkpt>
      <trkpt lat="45.23871" lon="6.0404">
        <ele>2615.4</ele>
        <time>2021-12-19T10:08:34Z</time>
      </trkpt>
      <trkpt lat="45.23871" lon="6.0404">
        <ele>2615.4</ele>
        <time>2021-12-19T10:08:35Z</time>
      </trkpt>
      <trkpt lat="45.23874" lon="6.04043">
        <ele>2616.4</ele>
        <time>2021-12-19T10:08:41Z</time>
      </trkpt>
      <trkpt lat="45.23877" lon="6.04045">
        <ele>2617</ele>
        <time>2021-12-19T10:08:46Z</time>
      </trkpt>
      <trkpt lat="45.23877" lon="6.04046">
        <ele>2617</ele>
        <time>2021-12-19T10:08:55Z</time>
      </trkpt>
      <trkpt lat="45.23877" lon="6.04046">
        <ele>2616.6</ele>
        <time>2021-12-19T10:09:28Z</time>
      </trkpt>
      <trkpt lat="45.23876" lon="6.04046">
        <ele>2616.4</ele>
        <time>2021-12-19T10:09:54Z</time>
      </trkpt>
      <trkpt lat="45.23876" lon="6.04046">
        <ele>2616.6</ele>
        <time>2021-12-19T10:09:57Z</time>
      </trkpt>
      <trkpt lat="45.23876" lon="6.04046">
        <ele>2616.8</ele>
        <time>2021-12-19T10:09:59Z</time>
      </trkpt>
      <trkpt lat="45.23876" lon="6.04046">
        <ele>2617</ele>
        <time>2021-12-19T10:10:02Z</time>
      </trkpt>
      <trkpt lat="45.23876" lon="6.04046">
        <ele>2617.2</ele>
        <time>2021-12-19T10:10:04Z</time>
      </trkpt>
      <trkpt lat="45.23876" lon="6.04046">
        <ele>2617.4</ele>
        <time>2021-12-19T10:10:06Z</time>
      </trkpt>
      <trkpt lat="45.23876" lon="6.04046">
        <ele>2617.6</ele>
        <time>2021-12-19T10:10:07Z</time>
      </trkpt>
      <trkpt lat="45.23876" lon="6.04046">
        <ele>2617.8</ele>
        <time>2021-12-19T10:10:10Z</time>
      </trkpt>
      <trkpt lat="45.23876" lon="6.04046">
        <ele>2618</ele>
        <time>2021-12-19T10:10:14Z</time>
      </trkpt>
      <trkpt lat="45.23876" lon="6.04047">
        <ele>2617.6</ele>
        <time>2021-12-19T10:10:19Z</time>
      </trkpt>
      <trkpt lat="45.23877" lon="6.04047">
        <ele>2617.4</ele>
        <time>2021-12-19T10:10:25Z</time>
      </trkpt>
      <trkpt lat="45.23876" lon="6.04047">
        <ele>2617.4</ele>
        <time>2021-12-19T10:11:10Z</time>
      </trkpt>
      <trkpt lat="45.23876" lon="6.04046">
        <ele>2618</ele>
        <time>2021-12-19T10:11:23Z</time>
      </trkpt>
      <trkpt lat="45.23876" lon="6.04044">
        <ele>2617.6</ele>
        <time>2021-12-19T10:11:35Z</time>
      </trkpt>
      <trkpt lat="45.23877" lon="6.04044">
        <ele>2617</ele>
        <time>2021-12-19T10:11:49Z</time>
      </trkpt>
      <trkpt lat="45.23877" lon="6.04044">
        <ele>2616.4</ele>
        <time>2021-12-19T10:12:01Z</time>
      </trkpt>
      <trkpt lat="45.23877" lon="6.04044">
        <ele>2616.2</ele>
        <time>2021-12-19T10:12:07Z</time>
      </trkpt>
      <trkpt lat="45.23877" lon="6.04044">
        <ele>2615.8</ele>
        <time>2021-12-19T10:12:28Z</time>
      </trkpt>
      <trkpt lat="45.23878" lon="6.04044">
        <ele>2615.2</ele>
        <time>2021-12-19T10:13:19Z</time>
      </trkpt>
      <trkpt lat="45.23878" lon="6.04044">
        <ele>2615.2</ele>
        <time>2021-12-19T10:13:27Z</time>
      </trkpt>
      <trkpt lat="45.23878" lon="6.04044">
        <ele>2615.2</ele>
        <time>2021-12-19T10:13:53Z</time>
      </trkpt>
      <trkpt lat="45.23878" lon="6.04044">
        <ele>2615.2</ele>
        <time>2021-12-19T10:14:08Z</time>
      </trkpt>
      <trkpt lat="45.23878" lon="6.04044">
        <ele>2615.2</ele>
        <time>2021-12-19T10:14:50Z</time>
      </trkpt>
      <trkpt lat="45.23878" lon="6.04044">
        <ele>2615.2</ele>
        <time>2021-12-19T10:14:59Z</time>
      </trkpt>
      <trkpt lat="45.23878" lon="6.04044">
        <ele>2615.2</ele>
        <time>2021-12-19T10:15:16Z</time>
      </trkpt>
      <trkpt lat="45.23877" lon="6.04045">
        <ele>2615.2</ele>
        <time>2021-12-19T10:16:19Z</time>
      </trkpt>
      <trkpt lat="45.23877" lon="6.04045">
        <ele>2615.2</ele>
        <time>2021-12-19T10:16:39Z</time>
      </trkpt>
      <trkpt lat="45.23877" lon="6.04045">
        <ele>2615.2</ele>
        <time>2021-12-19T10:17:07Z</time>
      </trkpt>
      <trkpt lat="45.23877" lon="6.04045">
        <ele>2615.2</ele>
        <time>2021-12-19T10:17:34Z</time>
      </trkpt>
      <trkpt lat="45.23877" lon="6.04045">
        <ele>2615.2</ele>
        <time>2021-12-19T10:18:01Z</time>
      </trkpt>
      <trkpt lat="45.23877" lon="6.04046">
        <ele>2611.8</ele>
        <time>2021-12-19T10:18:24Z</time>
      </trkpt>
      <trkpt lat="45.23877" lon="6.04046">
        <ele>2611.8</ele>
        <time>2021-12-19T10:18:27Z</time>
      </trkpt>
      <trkpt lat="45.23877" lon="6.04046">
        <ele>2613</ele>
        <time>2021-12-19T10:18:30Z</time>
      </trkpt>
      <trkpt lat="45.23877" lon="6.04046">
        <ele>2613</ele>
        <time>2021-12-19T10:18:56Z</time>
      </trkpt>
      <trkpt lat="45.23877" lon="6.04046">
        <ele>2612</ele>
        <time>2021-12-19T10:19:26Z</time>
      </trkpt>
      <trkpt lat="45.23877" lon="6.04046">
        <ele>2612</ele>
        <time>2021-12-19T10:19:29Z</time>
      </trkpt>
      <trkpt lat="45.23874" lon="6.04045">
        <ele>2610.6</ele>
        <time>2021-12-19T10:20:04Z</time>
      </trkpt>
      <trkpt lat="45.23872" lon="6.04044">
        <ele>2609.4</ele>
        <time>2021-12-19T10:20:05Z</time>
      </trkpt>
      <trkpt lat="45.23867" lon="6.0404">
        <ele>2607.8</ele>
        <time>2021-12-19T10:20:07Z</time>
      </trkpt>
      <trkpt lat="45.23864" lon="6.04039">
        <ele>2606.6</ele>
        <time>2021-12-19T10:20:09Z</time>
      </trkpt>
      <trkpt lat="45.23862" lon="6.0404">
        <ele>2606.2</ele>
        <time>2021-12-19T10:20:10Z</time>
      </trkpt>
      <trkpt lat="45.2386" lon="6.04047">
        <ele>2604.8</ele>
        <time>2021-12-19T10:20:12Z</time>
      </trkpt>
      <trkpt lat="45.23861" lon="6.0405">
        <ele>2603.6</ele>
        <time>2021-12-19T10:20:13Z</time>
      </trkpt>
      <trkpt lat="45.23861" lon="6.04054">
        <ele>2602.6</ele>
        <time>2021-12-19T10:20:14Z</time>
      </trkpt>
      <trkpt lat="45.2386" lon="6.04056">
        <ele>2601.8</ele>
        <time>2021-12-19T10:20:15Z</time>
      </trkpt>
      <trkpt lat="45.23857" lon="6.04056">
        <ele>2600.4</ele>
        <time>2021-12-19T10:20:16Z</time>
      </trkpt>
      <trkpt lat="45.23855" lon="6.04054">
        <ele>2599.2</ele>
        <time>2021-12-19T10:20:17Z</time>
      </trkpt>
      <trkpt lat="45.2385" lon="6.04051">
        <ele>2597.8</ele>
        <time>2021-12-19T10:20:19Z</time>
      </trkpt>
      <trkpt lat="45.23849" lon="6.04049">
        <ele>2597.4</ele>
        <time>2021-12-19T10:20:20Z</time>
      </trkpt>
      <trkpt lat="45.23844" lon="6.04045">
        <ele>2596.4</ele>
        <time>2021-12-19T10:20:22Z</time>
      </trkpt>
      <trkpt lat="45.2384" lon="6.04044">
        <ele>2594.6</ele>
        <time>2021-12-19T10:20:25Z</time>
      </trkpt>
      <trkpt lat="45.23837" lon="6.04044">
        <ele>2593.2</ele>
        <time>2021-12-19T10:20:28Z</time>
      </trkpt>
      <trkpt lat="45.23833" lon="6.04043">
        <ele>2592</ele>
        <time>2021-12-19T10:20:31Z</time>
      </trkpt>
      <trkpt lat="45.23831" lon="6.04043">
        <ele>2591</ele>
        <time>2021-12-19T10:20:33Z</time>
      </trkpt>
      <trkpt lat="45.23827" lon="6.04042">
        <ele>2589.8</ele>
        <time>2021-12-19T10:20:36Z</time>
      </trkpt>
      <trkpt lat="45.23824" lon="6.04042">
        <ele>2588.4</ele>
        <time>2021-12-19T10:20:39Z</time>
      </trkpt>
      <trkpt lat="45.23823" lon="6.04042">
        <ele>2587.8</ele>
        <time>2021-12-19T10:20:41Z</time>
      </trkpt>
      <trkpt lat="45.23822" lon="6.04041">
        <ele>2587.4</ele>
        <time>2021-12-19T10:20:46Z</time>
      </trkpt>
      <trkpt lat="45.23822" lon="6.0404">
        <ele>2587.4</ele>
        <time>2021-12-19T10:20:48Z</time>
      </trkpt>
      <trkpt lat="45.23822" lon="6.04039">
        <ele>2587.2</ele>
        <time>2021-12-19T10:21:01Z</time>
      </trkpt>
      <trkpt lat="45.23824" lon="6.04035">
        <ele>2585.6</ele>
        <time>2021-12-19T10:21:14Z</time>
      </trkpt>
      <trkpt lat="45.23823" lon="6.04032">
        <ele>2584.6</ele>
        <time>2021-12-19T10:21:15Z</time>
      </trkpt>
      <trkpt lat="45.23821" lon="6.0403">
        <ele>2584</ele>
        <time>2021-12-19T10:21:16Z</time>
      </trkpt>
      <trkpt lat="45.23819" lon="6.0403">
        <ele>2582.4</ele>
        <time>2021-12-19T10:21:17Z</time>
      </trkpt>
      <trkpt lat="45.23817" lon="6.04025">
        <ele>2579.6</ele>
        <time>2021-12-19T10:21:19Z</time>
      </trkpt>
      <trkpt lat="45.23818" lon="6.04021">
        <ele>2578.4</ele>
        <time>2021-12-19T10:21:20Z</time>
      </trkpt>
      <trkpt lat="45.23819" lon="6.04017">
        <ele>2576.4</ele>
        <time>2021-12-19T10:21:21Z</time>
      </trkpt>
      <trkpt lat="45.2382" lon="6.04015">
        <ele>2574.8</ele>
        <time>2021-12-19T10:21:22Z</time>
      </trkpt>
      <trkpt lat="45.2382" lon="6.04014">
        <ele>2573.8</ele>
        <time>2021-12-19T10:21:23Z</time>
      </trkpt>
      <trkpt lat="45.23818" lon="6.04014">
        <ele>2573</ele>
        <time>2021-12-19T10:21:24Z</time>
      </trkpt>
      <trkpt lat="45.23816" lon="6.04014">
        <ele>2571.6</ele>
        <time>2021-12-19T10:21:25Z</time>
      </trkpt>
      <trkpt lat="45.23814" lon="6.04012">
        <ele>2570.6</ele>
        <time>2021-12-19T10:21:26Z</time>
      </trkpt>
      <trkpt lat="45.23814" lon="6.04008">
        <ele>2569.2</ele>
        <time>2021-12-19T10:21:27Z</time>
      </trkpt>
      <trkpt lat="45.23815" lon="6.04005">
        <ele>2568.6</ele>
        <time>2021-12-19T10:21:28Z</time>
      </trkpt>
      <trkpt lat="45.23814" lon="6.04003">
        <ele>2567.4</ele>
        <time>2021-12-19T10:21:29Z</time>
      </trkpt>
      <trkpt lat="45.23815" lon="6.04">
        <ele>2566.4</ele>
        <time>2021-12-19T10:21:30Z</time>
      </trkpt>
      <trkpt lat="45.23815" lon="6.03997">
        <ele>2565.2</ele>
        <time>2021-12-19T10:21:31Z</time>
      </trkpt>
      <trkpt lat="45.23817" lon="6.03995">
        <ele>2563.4</ele>
        <time>2021-12-19T10:21:32Z</time>
      </trkpt>
      <trkpt lat="45.23818" lon="6.03993">
        <ele>2562.4</ele>
        <time>2021-12-19T10:21:33Z</time>
      </trkpt>
      <trkpt lat="45.23818" lon="6.03992">
        <ele>2561.6</ele>
        <time>2021-12-19T10:21:34Z</time>
      </trkpt>
      <trkpt lat="45.23818" lon="6.0399">
        <ele>2561.2</ele>
        <time>2021-12-19T10:21:35Z</time>
      </trkpt>
      <trkpt lat="45.23817" lon="6.03989">
        <ele>2561</ele>
        <time>2021-12-19T10:21:36Z</time>
      </trkpt>
      <trkpt lat="45.23814" lon="6.0399">
        <ele>2559.6</ele>
        <time>2021-12-19T10:21:37Z</time>
      </trkpt>
      <trkpt lat="45.23807" lon="6.03993">
        <ele>2558.2</ele>
        <time>2021-12-19T10:21:39Z</time>
      </trkpt>
      <trkpt lat="45.23803" lon="6.03992">
        <ele>2557.6</ele>
        <time>2021-12-19T10:21:40Z</time>
      </trkpt>
      <trkpt lat="45.238" lon="6.03989">
        <ele>2556.6</ele>
        <time>2021-12-19T10:21:41Z</time>
      </trkpt>
      <trkpt lat="45.23798" lon="6.03984">
        <ele>2555.2</ele>
        <time>2021-12-19T10:21:42Z</time>
      </trkpt>
      <trkpt lat="45.23798" lon="6.03979">
        <ele>2552.8</ele>
        <time>2021-12-19T10:21:43Z</time>
      </trkpt>
      <trkpt lat="45.23798" lon="6.03975">
        <ele>2551.2</ele>
        <time>2021-12-19T10:21:44Z</time>
      </trkpt>
      <trkpt lat="45.23797" lon="6.03971">
        <ele>2549.6</ele>
        <time>2021-12-19T10:21:45Z</time>
      </trkpt>
      <trkpt lat="45.23796" lon="6.0397">
        <ele>2548.6</ele>
        <time>2021-12-19T10:21:46Z</time>
      </trkpt>
      <trkpt lat="45.23794" lon="6.03971">
        <ele>2546.6</ele>
        <time>2021-12-19T10:21:47Z</time>
      </trkpt>
      <trkpt lat="45.23792" lon="6.03973">
        <ele>2545.6</ele>
        <time>2021-12-19T10:21:48Z</time>
      </trkpt>
      <trkpt lat="45.23792" lon="6.03974">
        <ele>2545</ele>
        <time>2021-12-19T10:21:49Z</time>
      </trkpt>
      <trkpt lat="45.23792" lon="6.03975">
        <ele>2544.4</ele>
        <time>2021-12-19T10:21:50Z</time>
      </trkpt>
      <trkpt lat="45.23792" lon="6.03975">
        <ele>2544.2</ele>
        <time>2021-12-19T10:21:51Z</time>
      </trkpt>
      <trkpt lat="45.23793" lon="6.03977">
        <ele>2543.8</ele>
        <time>2021-12-19T10:22:09Z</time>
      </trkpt>
      <trkpt lat="45.23794" lon="6.03977">
        <ele>2544</ele>
        <time>2021-12-19T10:22:17Z</time>
      </trkpt>
      <trkpt lat="45.23794" lon="6.03979">
        <ele>2543.4</ele>
        <time>2021-12-19T10:22:20Z</time>
      </trkpt>
      <trkpt lat="45.23787" lon="6.03971">
        <ele>2542.6</ele>
        <time>2021-12-19T10:22:22Z</time>
      </trkpt>
      <trkpt lat="45.23783" lon="6.03966">
        <ele>2542.2</ele>
        <time>2021-12-19T10:22:23Z</time>
      </trkpt>
      <trkpt lat="45.23779" lon="6.03962">
        <ele>2540.4</ele>
        <time>2021-12-19T10:22:24Z</time>
      </trkpt>
      <trkpt lat="45.23774" lon="6.0396">
        <ele>2539.2</ele>
        <time>2021-12-19T10:22:25Z</time>
      </trkpt>
      <trkpt lat="45.23769" lon="6.03958">
        <ele>2538.6</ele>
        <time>2021-12-19T10:22:26Z</time>
      </trkpt>
      <trkpt lat="45.23766" lon="6.03956">
        <ele>2537.8</ele>
        <time>2021-12-19T10:22:27Z</time>
      </trkpt>
      <trkpt lat="45.23758" lon="6.03955">
        <ele>2536.8</ele>
        <time>2021-12-19T10:22:29Z</time>
      </trkpt>
      <trkpt lat="45.23749" lon="6.03955">
        <ele>2535.6</ele>
        <time>2021-12-19T10:22:31Z</time>
      </trkpt>
      <trkpt lat="45.23744" lon="6.03956">
        <ele>2535</ele>
        <time>2021-12-19T10:22:32Z</time>
      </trkpt>
      <trkpt lat="45.23739" lon="6.03957">
        <ele>2534.6</ele>
        <time>2021-12-19T10:22:33Z</time>
      </trkpt>
      <trkpt lat="45.23733" lon="6.03957">
        <ele>2533.6</ele>
        <time>2021-12-19T10:22:34Z</time>
      </trkpt>
      <trkpt lat="45.23729" lon="6.03955">
        <ele>2533</ele>
        <time>2021-12-19T10:22:35Z</time>
      </trkpt>
      <trkpt lat="45.23728" lon="6.03952">
        <ele>2532.2</ele>
        <time>2021-12-19T10:22:36Z</time>
      </trkpt>
      <trkpt lat="45.23726" lon="6.03949">
        <ele>2531.4</ele>
        <time>2021-12-19T10:22:37Z</time>
      </trkpt>
      <trkpt lat="45.23724" lon="6.03947">
        <ele>2529.6</ele>
        <time>2021-12-19T10:22:38Z</time>
      </trkpt>
      <trkpt lat="45.23719" lon="6.03945">
        <ele>2528.4</ele>
        <time>2021-12-19T10:22:39Z</time>
      </trkpt>
      <trkpt lat="45.23712" lon="6.03943">
        <ele>2526.8</ele>
        <time>2021-12-19T10:22:41Z</time>
      </trkpt>
      <trkpt lat="45.2371" lon="6.0394">
        <ele>2525.4</ele>
        <time>2021-12-19T10:22:42Z</time>
      </trkpt>
      <trkpt lat="45.2371" lon="6.03937">
        <ele>2524.4</ele>
        <time>2021-12-19T10:22:43Z</time>
      </trkpt>
      <trkpt lat="45.23709" lon="6.03932">
        <ele>2522.6</ele>
        <time>2021-12-19T10:22:44Z</time>
      </trkpt>
      <trkpt lat="45.23707" lon="6.03929">
        <ele>2521</ele>
        <time>2021-12-19T10:22:45Z</time>
      </trkpt>
      <trkpt lat="45.23704" lon="6.03927">
        <ele>2518.8</ele>
        <time>2021-12-19T10:22:46Z</time>
      </trkpt>
      <trkpt lat="45.23702" lon="6.03926">
        <ele>2517.6</ele>
        <time>2021-12-19T10:22:47Z</time>
      </trkpt>
      <trkpt lat="45.23698" lon="6.03923">
        <ele>2516.2</ele>
        <time>2021-12-19T10:22:48Z</time>
      </trkpt>
      <trkpt lat="45.23697" lon="6.03918">
        <ele>2514.6</ele>
        <time>2021-12-19T10:22:49Z</time>
      </trkpt>
      <trkpt lat="45.23695" lon="6.03913">
        <ele>2513.8</ele>
        <time>2021-12-19T10:22:50Z</time>
      </trkpt>
      <trkpt lat="45.23691" lon="6.0391">
        <ele>2512</ele>
        <time>2021-12-19T10:22:51Z</time>
      </trkpt>
      <trkpt lat="45.23685" lon="6.03906">
        <ele>2509.4</ele>
        <time>2021-12-19T10:22:52Z</time>
      </trkpt>
      <trkpt lat="45.23684" lon="6.03901">
        <ele>2507.6</ele>
        <time>2021-12-19T10:22:53Z</time>
      </trkpt>
      <trkpt lat="45.23686" lon="6.03897">
        <ele>2506.2</ele>
        <time>2021-12-19T10:22:54Z</time>
      </trkpt>
      <trkpt lat="45.23688" lon="6.03894">
        <ele>2504.2</ele>
        <time>2021-12-19T10:22:55Z</time>
      </trkpt>
      <trkpt lat="45.2369" lon="6.0389">
        <ele>2503</ele>
        <time>2021-12-19T10:22:56Z</time>
      </trkpt>
      <trkpt lat="45.23688" lon="6.03887">
        <ele>2501.2</ele>
        <time>2021-12-19T10:22:57Z</time>
      </trkpt>
      <trkpt lat="45.23685" lon="6.03883">
        <ele>2499.8</ele>
        <time>2021-12-19T10:22:58Z</time>
      </trkpt>
      <trkpt lat="45.23683" lon="6.0388">
        <ele>2498.8</ele>
        <time>2021-12-19T10:22:59Z</time>
      </trkpt>
      <trkpt lat="45.23682" lon="6.03877">
        <ele>2498.2</ele>
        <time>2021-12-19T10:23:00Z</time>
      </trkpt>
      <trkpt lat="45.23683" lon="6.03876">
        <ele>2498</ele>
        <time>2021-12-19T10:23:01Z</time>
      </trkpt>
      <trkpt lat="45.23686" lon="6.03876">
        <ele>2497</ele>
        <time>2021-12-19T10:23:03Z</time>
      </trkpt>
      <trkpt lat="45.23692" lon="6.03876">
        <ele>2496.4</ele>
        <time>2021-12-19T10:23:05Z</time>
      </trkpt>
      <trkpt lat="45.23694" lon="6.03876">
        <ele>2495.6</ele>
        <time>2021-12-19T10:23:06Z</time>
      </trkpt>
      <trkpt lat="45.237" lon="6.03876">
        <ele>2494.4</ele>
        <time>2021-12-19T10:23:08Z</time>
      </trkpt>
      <trkpt lat="45.23702" lon="6.03875">
        <ele>2494</ele>
        <time>2021-12-19T10:23:09Z</time>
      </trkpt>
      <trkpt lat="45.23702" lon="6.03873">
        <ele>2493.2</ele>
        <time>2021-12-19T10:23:10Z</time>
      </trkpt>
      <trkpt lat="45.23701" lon="6.03871">
        <ele>2492</ele>
        <time>2021-12-19T10:23:11Z</time>
      </trkpt>
      <trkpt lat="45.23701" lon="6.03866">
        <ele>2490.8</ele>
        <time>2021-12-19T10:23:13Z</time>
      </trkpt>
      <trkpt lat="45.23703" lon="6.03863">
        <ele>2489.4</ele>
        <time>2021-12-19T10:23:14Z</time>
      </trkpt>
      <trkpt lat="45.23704" lon="6.03862">
        <ele>2487.6</ele>
        <time>2021-12-19T10:23:15Z</time>
      </trkpt>
      <trkpt lat="45.23705" lon="6.03861">
        <ele>2486.8</ele>
        <time>2021-12-19T10:23:16Z</time>
      </trkpt>
      <trkpt lat="45.23708" lon="6.03861">
        <ele>2486.2</ele>
        <time>2021-12-19T10:23:17Z</time>
      </trkpt>
      <trkpt lat="45.23714" lon="6.0386">
        <ele>2484.6</ele>
        <time>2021-12-19T10:23:19Z</time>
      </trkpt>
      <trkpt lat="45.23717" lon="6.03859">
        <ele>2483.6</ele>
        <time>2021-12-19T10:23:20Z</time>
      </trkpt>
      <trkpt lat="45.2372" lon="6.03855">
        <ele>2482.2</ele>
        <time>2021-12-19T10:23:22Z</time>
      </trkpt>
      <trkpt lat="45.23719" lon="6.03849">
        <ele>2481</ele>
        <time>2021-12-19T10:23:24Z</time>
      </trkpt>
      <trkpt lat="45.23716" lon="6.03849">
        <ele>2478.8</ele>
        <time>2021-12-19T10:23:26Z</time>
      </trkpt>
      <trkpt lat="45.23714" lon="6.03849">
        <ele>2477.6</ele>
        <time>2021-12-19T10:23:27Z</time>
      </trkpt>
      <trkpt lat="45.23712" lon="6.03849">
        <ele>2476.6</ele>
        <time>2021-12-19T10:23:29Z</time>
      </trkpt>
      <trkpt lat="45.23711" lon="6.03848">
        <ele>2476.4</ele>
        <time>2021-12-19T10:23:30Z</time>
      </trkpt>
      <trkpt lat="45.2371" lon="6.03843">
        <ele>2475.6</ele>
        <time>2021-12-19T10:23:32Z</time>
      </trkpt>
      <trkpt lat="45.2371" lon="6.0384">
        <ele>2474.4</ele>
        <time>2021-12-19T10:23:33Z</time>
      </trkpt>
      <trkpt lat="45.2371" lon="6.03838">
        <ele>2473.4</ele>
        <time>2021-12-19T10:23:34Z</time>
      </trkpt>
      <trkpt lat="45.23709" lon="6.03838">
        <ele>2472.8</ele>
        <time>2021-12-19T10:23:35Z</time>
      </trkpt>
      <trkpt lat="45.23709" lon="6.03837">
        <ele>2472</ele>
        <time>2021-12-19T10:23:36Z</time>
      </trkpt>
      <trkpt lat="45.23708" lon="6.03836">
        <ele>2471.6</ele>
        <time>2021-12-19T10:23:37Z</time>
      </trkpt>
      <trkpt lat="45.23703" lon="6.03836">
        <ele>2470</ele>
        <time>2021-12-19T10:23:39Z</time>
      </trkpt>
      <trkpt lat="45.23698" lon="6.03835">
        <ele>2468.6</ele>
        <time>2021-12-19T10:23:40Z</time>
      </trkpt>
      <trkpt lat="45.23694" lon="6.03833">
        <ele>2467.6</ele>
        <time>2021-12-19T10:23:41Z</time>
      </trkpt>
      <trkpt lat="45.23688" lon="6.0383">
        <ele>2465.8</ele>
        <time>2021-12-19T10:23:43Z</time>
      </trkpt>
      <trkpt lat="45.23687" lon="6.03829">
        <ele>2465.4</ele>
        <time>2021-12-19T10:23:44Z</time>
      </trkpt>
      <trkpt lat="45.23688" lon="6.03829">
        <ele>2464.8</ele>
        <time>2021-12-19T10:23:46Z</time>
      </trkpt>
      <trkpt lat="45.23688" lon="6.03829">
        <ele>2464.6</ele>
        <time>2021-12-19T10:23:48Z</time>
      </trkpt>
      <trkpt lat="45.23691" lon="6.03824">
        <ele>2464.4</ele>
        <time>2021-12-19T10:23:51Z</time>
      </trkpt>
      <trkpt lat="45.23693" lon="6.03822">
        <ele>2463.4</ele>
        <time>2021-12-19T10:23:52Z</time>
      </trkpt>
      <trkpt lat="45.23695" lon="6.0382">
        <ele>2461.4</ele>
        <time>2021-12-19T10:23:53Z</time>
      </trkpt>
      <trkpt lat="45.23694" lon="6.03818">
        <ele>2460.4</ele>
        <time>2021-12-19T10:23:54Z</time>
      </trkpt>
      <trkpt lat="45.23692" lon="6.03817">
        <ele>2459.8</ele>
        <time>2021-12-19T10:23:55Z</time>
      </trkpt>
      <trkpt lat="45.23689" lon="6.03815">
        <ele>2458.4</ele>
        <time>2021-12-19T10:23:56Z</time>
      </trkpt>
      <trkpt lat="45.23687" lon="6.0381">
        <ele>2457.2</ele>
        <time>2021-12-19T10:23:57Z</time>
      </trkpt>
      <trkpt lat="45.23688" lon="6.03804">
        <ele>2456.6</ele>
        <time>2021-12-19T10:23:58Z</time>
      </trkpt>
      <trkpt lat="45.23689" lon="6.03797">
        <ele>2454.4</ele>
        <time>2021-12-19T10:23:59Z</time>
      </trkpt>
      <trkpt lat="45.23691" lon="6.03791">
        <ele>2452.6</ele>
        <time>2021-12-19T10:24:00Z</time>
      </trkpt>
      <trkpt lat="45.2369" lon="6.03787">
        <ele>2451.6</ele>
        <time>2021-12-19T10:24:01Z</time>
      </trkpt>
      <trkpt lat="45.23687" lon="6.03782">
        <ele>2450.8</ele>
        <time>2021-12-19T10:24:02Z</time>
      </trkpt>
      <trkpt lat="45.23683" lon="6.03777">
        <ele>2449.4</ele>
        <time>2021-12-19T10:24:03Z</time>
      </trkpt>
      <trkpt lat="45.23681" lon="6.03771">
        <ele>2447.6</ele>
        <time>2021-12-19T10:24:04Z</time>
      </trkpt>
      <trkpt lat="45.23678" lon="6.03768">
        <ele>2446.6</ele>
        <time>2021-12-19T10:24:05Z</time>
      </trkpt>
      <trkpt lat="45.23671" lon="6.03764">
        <ele>2445.2</ele>
        <time>2021-12-19T10:24:07Z</time>
      </trkpt>
      <trkpt lat="45.23668" lon="6.03761">
        <ele>2443.8</ele>
        <time>2021-12-19T10:24:08Z</time>
      </trkpt>
      <trkpt lat="45.23665" lon="6.03757">
        <ele>2442.8</ele>
        <time>2021-12-19T10:24:09Z</time>
      </trkpt>
      <trkpt lat="45.23655" lon="6.03751">
        <ele>2440.8</ele>
        <time>2021-12-19T10:24:11Z</time>
      </trkpt>
      <trkpt lat="45.23651" lon="6.03746">
        <ele>2439.4</ele>
        <time>2021-12-19T10:24:12Z</time>
      </trkpt>
      <trkpt lat="45.23649" lon="6.0374">
        <ele>2437.6</ele>
        <time>2021-12-19T10:24:13Z</time>
      </trkpt>
      <trkpt lat="45.23647" lon="6.0373">
        <ele>2436</ele>
        <time>2021-12-19T10:24:14Z</time>
      </trkpt>
      <trkpt lat="45.23644" lon="6.03723">
        <ele>2434.2</ele>
        <time>2021-12-19T10:24:15Z</time>
      </trkpt>
      <trkpt lat="45.23639" lon="6.03717">
        <ele>2432</ele>
        <time>2021-12-19T10:24:16Z</time>
      </trkpt>
      <trkpt lat="45.23634" lon="6.03712">
        <ele>2429.4</ele>
        <time>2021-12-19T10:24:17Z</time>
      </trkpt>
      <trkpt lat="45.2363" lon="6.03709">
        <ele>2428</ele>
        <time>2021-12-19T10:24:18Z</time>
      </trkpt>
      <trkpt lat="45.23625" lon="6.03704">
        <ele>2426.8</ele>
        <time>2021-12-19T10:24:19Z</time>
      </trkpt>
      <trkpt lat="45.23616" lon="6.03696">
        <ele>2424.8</ele>
        <time>2021-12-19T10:24:21Z</time>
      </trkpt>
      <trkpt lat="45.23611" lon="6.03691">
        <ele>2423.8</ele>
        <time>2021-12-19T10:24:22Z</time>
      </trkpt>
      <trkpt lat="45.23602" lon="6.0368">
        <ele>2422</ele>
        <time>2021-12-19T10:24:24Z</time>
      </trkpt>
      <trkpt lat="45.23603" lon="6.03674">
        <ele>2420.2</ele>
        <time>2021-12-19T10:24:25Z</time>
      </trkpt>
      <trkpt lat="45.23606" lon="6.03668">
        <ele>2419</ele>
        <time>2021-12-19T10:24:26Z</time>
      </trkpt>
      <trkpt lat="45.23606" lon="6.03662">
        <ele>2417</ele>
        <time>2021-12-19T10:24:27Z</time>
      </trkpt>
      <trkpt lat="45.23603" lon="6.03658">
        <ele>2414.6</ele>
        <time>2021-12-19T10:24:28Z</time>
      </trkpt>
      <trkpt lat="45.23598" lon="6.03655">
        <ele>2412.4</ele>
        <time>2021-12-19T10:24:29Z</time>
      </trkpt>
      <trkpt lat="45.23593" lon="6.03651">
        <ele>2410.8</ele>
        <time>2021-12-19T10:24:30Z</time>
      </trkpt>
      <trkpt lat="45.23589" lon="6.03644">
        <ele>2409.6</ele>
        <time>2021-12-19T10:24:31Z</time>
      </trkpt>
      <trkpt lat="45.23588" lon="6.03637">
        <ele>2408</ele>
        <time>2021-12-19T10:24:32Z</time>
      </trkpt>
      <trkpt lat="45.23591" lon="6.03632">
        <ele>2406</ele>
        <time>2021-12-19T10:24:33Z</time>
      </trkpt>
      <trkpt lat="45.23595" lon="6.03628">
        <ele>2403.2</ele>
        <time>2021-12-19T10:24:34Z</time>
      </trkpt>
      <trkpt lat="45.23598" lon="6.03625">
        <ele>2400.8</ele>
        <time>2021-12-19T10:24:35Z</time>
      </trkpt>
      <trkpt lat="45.23597" lon="6.03621">
        <ele>2399</ele>
        <time>2021-12-19T10:24:36Z</time>
      </trkpt>
      <trkpt lat="45.23594" lon="6.03616">
        <ele>2396.8</ele>
        <time>2021-12-19T10:24:37Z</time>
      </trkpt>
      <trkpt lat="45.23589" lon="6.03612">
        <ele>2395.4</ele>
        <time>2021-12-19T10:24:38Z</time>
      </trkpt>
      <trkpt lat="45.23585" lon="6.03607">
        <ele>2394.2</ele>
        <time>2021-12-19T10:24:39Z</time>
      </trkpt>
      <trkpt lat="45.2358" lon="6.03603">
        <ele>2393</ele>
        <time>2021-12-19T10:24:40Z</time>
      </trkpt>
      <trkpt lat="45.23576" lon="6.03598">
        <ele>2391.6</ele>
        <time>2021-12-19T10:24:41Z</time>
      </trkpt>
      <trkpt lat="45.23575" lon="6.03587">
        <ele>2389.4</ele>
        <time>2021-12-19T10:24:43Z</time>
      </trkpt>
      <trkpt lat="45.23579" lon="6.03581">
        <ele>2387.8</ele>
        <time>2021-12-19T10:24:44Z</time>
      </trkpt>
      <trkpt lat="45.23583" lon="6.03577">
        <ele>2385.2</ele>
        <time>2021-12-19T10:24:45Z</time>
      </trkpt>
      <trkpt lat="45.23586" lon="6.03572">
        <ele>2384</ele>
        <time>2021-12-19T10:24:46Z</time>
      </trkpt>
      <trkpt lat="45.23586" lon="6.03568">
        <ele>2383</ele>
        <time>2021-12-19T10:24:47Z</time>
      </trkpt>
      <trkpt lat="45.23583" lon="6.03564">
        <ele>2381.2</ele>
        <time>2021-12-19T10:24:48Z</time>
      </trkpt>
      <trkpt lat="45.2358" lon="6.0356">
        <ele>2380</ele>
        <time>2021-12-19T10:24:49Z</time>
      </trkpt>
      <trkpt lat="45.23575" lon="6.03554">
        <ele>2378.8</ele>
        <time>2021-12-19T10:24:50Z</time>
      </trkpt>
      <trkpt lat="45.23572" lon="6.03549">
        <ele>2377.6</ele>
        <time>2021-12-19T10:24:51Z</time>
      </trkpt>
      <trkpt lat="45.23564" lon="6.03542">
        <ele>2376.2</ele>
        <time>2021-12-19T10:24:53Z</time>
      </trkpt>
      <trkpt lat="45.23557" lon="6.03534">
        <ele>2374.6</ele>
        <time>2021-12-19T10:24:55Z</time>
      </trkpt>
      <trkpt lat="45.23554" lon="6.03531">
        <ele>2374</ele>
        <time>2021-12-19T10:24:56Z</time>
      </trkpt>
      <trkpt lat="45.2355" lon="6.03523">
        <ele>2373.4</ele>
        <time>2021-12-19T10:24:58Z</time>
      </trkpt>
      <trkpt lat="45.23552" lon="6.03513">
        <ele>2371.4</ele>
        <time>2021-12-19T10:25:00Z</time>
      </trkpt>
      <trkpt lat="45.23556" lon="6.03502">
        <ele>2370</ele>
        <time>2021-12-19T10:25:02Z</time>
      </trkpt>
      <trkpt lat="45.23558" lon="6.03496">
        <ele>2369.8</ele>
        <time>2021-12-19T10:25:03Z</time>
      </trkpt>
      <trkpt lat="45.23559" lon="6.03491">
        <ele>2369</ele>
        <time>2021-12-19T10:25:05Z</time>
      </trkpt>
      <trkpt lat="45.2356" lon="6.03493">
        <ele>2368.8</ele>
        <time>2021-12-19T10:25:09Z</time>
      </trkpt>
      <trkpt lat="45.23558" lon="6.03494">
        <ele>2369</ele>
        <time>2021-12-19T10:25:17Z</time>
      </trkpt>
      <trkpt lat="45.23556" lon="6.03492">
        <ele>2369.2</ele>
        <time>2021-12-19T10:25:45Z</time>
      </trkpt>
      <trkpt lat="45.23545" lon="6.03493">
        <ele>2367.4</ele>
        <time>2021-12-19T10:25:57Z</time>
      </trkpt>
      <trkpt lat="45.23541" lon="6.03491">
        <ele>2366.2</ele>
        <time>2021-12-19T10:25:58Z</time>
      </trkpt>
      <trkpt lat="45.23539" lon="6.03486">
        <ele>2363.8</ele>
        <time>2021-12-19T10:25:59Z</time>
      </trkpt>
      <trkpt lat="45.23535" lon="6.03483">
        <ele>2362.4</ele>
        <time>2021-12-19T10:26:00Z</time>
      </trkpt>
      <trkpt lat="45.23534" lon="6.03479">
        <ele>2360.2</ele>
        <time>2021-12-19T10:26:01Z</time>
      </trkpt>
      <trkpt lat="45.23531" lon="6.03478">
        <ele>2357.6</ele>
        <time>2021-12-19T10:26:02Z</time>
      </trkpt>
      <trkpt lat="45.23527" lon="6.03475">
        <ele>2355.2</ele>
        <time>2021-12-19T10:26:03Z</time>
      </trkpt>
      <trkpt lat="45.23523" lon="6.03469">
        <ele>2353.2</ele>
        <time>2021-12-19T10:26:04Z</time>
      </trkpt>
      <trkpt lat="45.2352" lon="6.03465">
        <ele>2350.6</ele>
        <time>2021-12-19T10:26:05Z</time>
      </trkpt>
      <trkpt lat="45.23516" lon="6.03464">
        <ele>2348.2</ele>
        <time>2021-12-19T10:26:06Z</time>
      </trkpt>
      <trkpt lat="45.23512" lon="6.03467">
        <ele>2345.4</ele>
        <time>2021-12-19T10:26:07Z</time>
      </trkpt>
      <trkpt lat="45.23507" lon="6.0347">
        <ele>2343.4</ele>
        <time>2021-12-19T10:26:08Z</time>
      </trkpt>
      <trkpt lat="45.23503" lon="6.03476">
        <ele>2341.2</ele>
        <time>2021-12-19T10:26:09Z</time>
      </trkpt>
      <trkpt lat="45.23499" lon="6.03481">
        <ele>2339.8</ele>
        <time>2021-12-19T10:26:10Z</time>
      </trkpt>
      <trkpt lat="45.23494" lon="6.03487">
        <ele>2338.6</ele>
        <time>2021-12-19T10:26:11Z</time>
      </trkpt>
      <trkpt lat="45.23489" lon="6.0349">
        <ele>2338</ele>
        <time>2021-12-19T10:26:12Z</time>
      </trkpt>
      <trkpt lat="45.23486" lon="6.03489">
        <ele>2337</ele>
        <time>2021-12-19T10:26:13Z</time>
      </trkpt>
      <trkpt lat="45.23484" lon="6.03485">
        <ele>2336</ele>
        <time>2021-12-19T10:26:14Z</time>
      </trkpt>
      <trkpt lat="45.23484" lon="6.03482">
        <ele>2334.6</ele>
        <time>2021-12-19T10:26:15Z</time>
      </trkpt>
      <trkpt lat="45.23483" lon="6.03478">
        <ele>2332.4</ele>
        <time>2021-12-19T10:26:16Z</time>
      </trkpt>
      <trkpt lat="45.2348" lon="6.03478">
        <ele>2331.2</ele>
        <time>2021-12-19T10:26:17Z</time>
      </trkpt>
      <trkpt lat="45.23477" lon="6.03479">
        <ele>2329</ele>
        <time>2021-12-19T10:26:18Z</time>
      </trkpt>
      <trkpt lat="45.23473" lon="6.0348">
        <ele>2327.2</ele>
        <time>2021-12-19T10:26:19Z</time>
      </trkpt>
      <trkpt lat="45.23469" lon="6.03482">
        <ele>2325.6</ele>
        <time>2021-12-19T10:26:20Z</time>
      </trkpt>
      <trkpt lat="45.23458" lon="6.03486">
        <ele>2323.8</ele>
        <time>2021-12-19T10:26:22Z</time>
      </trkpt>
      <trkpt lat="45.23452" lon="6.03483">
        <ele>2323</ele>
        <time>2021-12-19T10:26:24Z</time>
      </trkpt>
      <trkpt lat="45.23452" lon="6.03479">
        <ele>2322.4</ele>
        <time>2021-12-19T10:26:25Z</time>
      </trkpt>
      <trkpt lat="45.23455" lon="6.03476">
        <ele>2320.6</ele>
        <time>2021-12-19T10:26:26Z</time>
      </trkpt>
      <trkpt lat="45.23458" lon="6.03473">
        <ele>2318.2</ele>
        <time>2021-12-19T10:26:27Z</time>
      </trkpt>
      <trkpt lat="45.2346" lon="6.03471">
        <ele>2316.8</ele>
        <time>2021-12-19T10:26:28Z</time>
      </trkpt>
      <trkpt lat="45.23462" lon="6.03468">
        <ele>2315.2</ele>
        <time>2021-12-19T10:26:30Z</time>
      </trkpt>
      <trkpt lat="45.2346" lon="6.03467">
        <ele>2314.2</ele>
        <time>2021-12-19T10:26:31Z</time>
      </trkpt>
      <trkpt lat="45.23458" lon="6.03466">
        <ele>2312.8</ele>
        <time>2021-12-19T10:26:32Z</time>
      </trkpt>
      <trkpt lat="45.23455" lon="6.03465">
        <ele>2311</ele>
        <time>2021-12-19T10:26:33Z</time>
      </trkpt>
      <trkpt lat="45.23451" lon="6.03459">
        <ele>2308.6</ele>
        <time>2021-12-19T10:26:35Z</time>
      </trkpt>
      <trkpt lat="45.23451" lon="6.03455">
        <ele>2307.6</ele>
        <time>2021-12-19T10:26:36Z</time>
      </trkpt>
      <trkpt lat="45.23451" lon="6.03452">
        <ele>2305.4</ele>
        <time>2021-12-19T10:26:37Z</time>
      </trkpt>
      <trkpt lat="45.23449" lon="6.03449">
        <ele>2303.8</ele>
        <time>2021-12-19T10:26:38Z</time>
      </trkpt>
      <trkpt lat="45.23447" lon="6.03446">
        <ele>2302.2</ele>
        <time>2021-12-19T10:26:39Z</time>
      </trkpt>
      <trkpt lat="45.23443" lon="6.03444">
        <ele>2299.6</ele>
        <time>2021-12-19T10:26:40Z</time>
      </trkpt>
      <trkpt lat="45.23441" lon="6.0344">
        <ele>2298</ele>
        <time>2021-12-19T10:26:41Z</time>
      </trkpt>
      <trkpt lat="45.23441" lon="6.03436">
        <ele>2296.4</ele>
        <time>2021-12-19T10:26:42Z</time>
      </trkpt>
      <trkpt lat="45.23442" lon="6.03432">
        <ele>2295.2</ele>
        <time>2021-12-19T10:26:43Z</time>
      </trkpt>
      <trkpt lat="45.23445" lon="6.03428">
        <ele>2292.6</ele>
        <time>2021-12-19T10:26:44Z</time>
      </trkpt>
      <trkpt lat="45.23447" lon="6.03426">
        <ele>2290.6</ele>
        <time>2021-12-19T10:26:45Z</time>
      </trkpt>
      <trkpt lat="45.23447" lon="6.03423">
        <ele>2289.2</ele>
        <time>2021-12-19T10:26:46Z</time>
      </trkpt>
      <trkpt lat="45.23445" lon="6.03421">
        <ele>2288.2</ele>
        <time>2021-12-19T10:26:47Z</time>
      </trkpt>
      <trkpt lat="45.23444" lon="6.03419">
        <ele>2286</ele>
        <time>2021-12-19T10:26:48Z</time>
      </trkpt>
      <trkpt lat="45.23444" lon="6.03415">
        <ele>2284.4</ele>
        <time>2021-12-19T10:26:49Z</time>
      </trkpt>
      <trkpt lat="45.23444" lon="6.03412">
        <ele>2283.6</ele>
        <time>2021-12-19T10:26:50Z</time>
      </trkpt>
      <trkpt lat="45.23445" lon="6.0341">
        <ele>2281.4</ele>
        <time>2021-12-19T10:26:51Z</time>
      </trkpt>
      <trkpt lat="45.23444" lon="6.03408">
        <ele>2280.4</ele>
        <time>2021-12-19T10:26:52Z</time>
      </trkpt>
      <trkpt lat="45.23443" lon="6.03406">
        <ele>2278.8</ele>
        <time>2021-12-19T10:26:53Z</time>
      </trkpt>
      <trkpt lat="45.23442" lon="6.03404">
        <ele>2277.2</ele>
        <time>2021-12-19T10:26:54Z</time>
      </trkpt>
      <trkpt lat="45.23442" lon="6.03401">
        <ele>2275.8</ele>
        <time>2021-12-19T10:26:55Z</time>
      </trkpt>
      <trkpt lat="45.23443" lon="6.03397">
        <ele>2273.6</ele>
        <time>2021-12-19T10:26:57Z</time>
      </trkpt>
      <trkpt lat="45.23443" lon="6.03396">
        <ele>2272</ele>
        <time>2021-12-19T10:26:58Z</time>
      </trkpt>
      <trkpt lat="45.23442" lon="6.03394">
        <ele>2270.6</ele>
        <time>2021-12-19T10:26:59Z</time>
      </trkpt>
      <trkpt lat="45.23439" lon="6.0339">
        <ele>2268.6</ele>
        <time>2021-12-19T10:27:01Z</time>
      </trkpt>
      <trkpt lat="45.23439" lon="6.03387">
        <ele>2267</ele>
        <time>2021-12-19T10:27:02Z</time>
      </trkpt>
      <trkpt lat="45.2344" lon="6.03384">
        <ele>2265.6</ele>
        <time>2021-12-19T10:27:03Z</time>
      </trkpt>
      <trkpt lat="45.23439" lon="6.03381">
        <ele>2263.6</ele>
        <time>2021-12-19T10:27:05Z</time>
      </trkpt>
      <trkpt lat="45.23438" lon="6.03377">
        <ele>2262</ele>
        <time>2021-12-19T10:27:07Z</time>
      </trkpt>
      <trkpt lat="45.23436" lon="6.03375">
        <ele>2260.8</ele>
        <time>2021-12-19T10:27:08Z</time>
      </trkpt>
      <trkpt lat="45.23434" lon="6.03373">
        <ele>2259.4</ele>
        <time>2021-12-19T10:27:09Z</time>
      </trkpt>
      <trkpt lat="45.23432" lon="6.03371">
        <ele>2257.6</ele>
        <time>2021-12-19T10:27:10Z</time>
      </trkpt>
      <trkpt lat="45.23428" lon="6.03369">
        <ele>2256.6</ele>
        <time>2021-12-19T10:27:11Z</time>
      </trkpt>
      <trkpt lat="45.23421" lon="6.03366">
        <ele>2255.4</ele>
        <time>2021-12-19T10:27:13Z</time>
      </trkpt>
      <trkpt lat="45.23418" lon="6.03366">
        <ele>2254.4</ele>
        <time>2021-12-19T10:27:14Z</time>
      </trkpt>
      <trkpt lat="45.23416" lon="6.03366">
        <ele>2253.6</ele>
        <time>2021-12-19T10:27:16Z</time>
      </trkpt>
      <trkpt lat="45.23416" lon="6.03366">
        <ele>2253.4</ele>
        <time>2021-12-19T10:27:18Z</time>
      </trkpt>
      <trkpt lat="45.23415" lon="6.03365">
        <ele>2253.4</ele>
        <time>2021-12-19T10:27:24Z</time>
      </trkpt>
      <trkpt lat="45.23411" lon="6.03363">
        <ele>2252.2</ele>
        <time>2021-12-19T10:27:26Z</time>
      </trkpt>
      <trkpt lat="45.23408" lon="6.03362">
        <ele>2251.8</ele>
        <time>2021-12-19T10:27:27Z</time>
      </trkpt>
      <trkpt lat="45.23405" lon="6.03358">
        <ele>2251.2</ele>
        <time>2021-12-19T10:27:28Z</time>
      </trkpt>
      <trkpt lat="45.23405" lon="6.03352">
        <ele>2250.8</ele>
        <time>2021-12-19T10:27:29Z</time>
      </trkpt>
      <trkpt lat="45.23408" lon="6.03347">
        <ele>2249.2</ele>
        <time>2021-12-19T10:27:30Z</time>
      </trkpt>
      <trkpt lat="45.23411" lon="6.03343">
        <ele>2246.8</ele>
        <time>2021-12-19T10:27:31Z</time>
      </trkpt>
      <trkpt lat="45.23415" lon="6.03341">
        <ele>2244.6</ele>
        <time>2021-12-19T10:27:32Z</time>
      </trkpt>
      <trkpt lat="45.23417" lon="6.0334">
        <ele>2242.8</ele>
        <time>2021-12-19T10:27:33Z</time>
      </trkpt>
      <trkpt lat="45.2342" lon="6.03339">
        <ele>2241.6</ele>
        <time>2021-12-19T10:27:34Z</time>
      </trkpt>
      <trkpt lat="45.23422" lon="6.03336">
        <ele>2241</ele>
        <time>2021-12-19T10:27:35Z</time>
      </trkpt>
      <trkpt lat="45.23421" lon="6.03333">
        <ele>2240.4</ele>
        <time>2021-12-19T10:27:36Z</time>
      </trkpt>
      <trkpt lat="45.23419" lon="6.0333">
        <ele>2237.8</ele>
        <time>2021-12-19T10:27:37Z</time>
      </trkpt>
      <trkpt lat="45.23419" lon="6.03324">
        <ele>2236.4</ele>
        <time>2021-12-19T10:27:38Z</time>
      </trkpt>
      <trkpt lat="45.23421" lon="6.03319">
        <ele>2235.2</ele>
        <time>2021-12-19T10:27:39Z</time>
      </trkpt>
      <trkpt lat="45.23425" lon="6.03315">
        <ele>2231.8</ele>
        <time>2021-12-19T10:27:40Z</time>
      </trkpt>
      <trkpt lat="45.23428" lon="6.03313">
        <ele>2229.6</ele>
        <time>2021-12-19T10:27:41Z</time>
      </trkpt>
      <trkpt lat="45.23431" lon="6.03309">
        <ele>2228.4</ele>
        <time>2021-12-19T10:27:42Z</time>
      </trkpt>
      <trkpt lat="45.23433" lon="6.03305">
        <ele>2227.6</ele>
        <time>2021-12-19T10:27:43Z</time>
      </trkpt>
      <trkpt lat="45.23432" lon="6.03302">
        <ele>2225.2</ele>
        <time>2021-12-19T10:27:44Z</time>
      </trkpt>
      <trkpt lat="45.2343" lon="6.03297">
        <ele>2222.8</ele>
        <time>2021-12-19T10:27:45Z</time>
      </trkpt>
      <trkpt lat="45.23431" lon="6.0329">
        <ele>2221.2</ele>
        <time>2021-12-19T10:27:46Z</time>
      </trkpt>
      <trkpt lat="45.23433" lon="6.03284">
        <ele>2219.2</ele>
        <time>2021-12-19T10:27:47Z</time>
      </trkpt>
      <trkpt lat="45.23436" lon="6.0328">
        <ele>2217</ele>
        <time>2021-12-19T10:27:48Z</time>
      </trkpt>
      <trkpt lat="45.23439" lon="6.03277">
        <ele>2215.6</ele>
        <time>2021-12-19T10:27:49Z</time>
      </trkpt>
      <trkpt lat="45.2344" lon="6.03273">
        <ele>2214.4</ele>
        <time>2021-12-19T10:27:50Z</time>
      </trkpt>
      <trkpt lat="45.23437" lon="6.0327">
        <ele>2213.4</ele>
        <time>2021-12-19T10:27:51Z</time>
      </trkpt>
      <trkpt lat="45.23433" lon="6.03266">
        <ele>2210.8</ele>
        <time>2021-12-19T10:27:52Z</time>
      </trkpt>
      <trkpt lat="45.2343" lon="6.0326">
        <ele>2208.8</ele>
        <time>2021-12-19T10:27:53Z</time>
      </trkpt>
      <trkpt lat="45.23431" lon="6.03254">
        <ele>2207</ele>
        <time>2021-12-19T10:27:54Z</time>
      </trkpt>
      <trkpt lat="45.23434" lon="6.0325">
        <ele>2204.2</ele>
        <time>2021-12-19T10:27:55Z</time>
      </trkpt>
      <trkpt lat="45.23437" lon="6.03247">
        <ele>2202.2</ele>
        <time>2021-12-19T10:27:56Z</time>
      </trkpt>
      <trkpt lat="45.2344" lon="6.03244">
        <ele>2200.8</ele>
        <time>2021-12-19T10:27:57Z</time>
      </trkpt>
      <trkpt lat="45.2344" lon="6.03241">
        <ele>2199.6</ele>
        <time>2021-12-19T10:27:58Z</time>
      </trkpt>
      <trkpt lat="45.23438" lon="6.03237">
        <ele>2198.2</ele>
        <time>2021-12-19T10:27:59Z</time>
      </trkpt>
      <trkpt lat="45.23435" lon="6.03234">
        <ele>2196.6</ele>
        <time>2021-12-19T10:28:00Z</time>
      </trkpt>
      <trkpt lat="45.23432" lon="6.03229">
        <ele>2194.8</ele>
        <time>2021-12-19T10:28:01Z</time>
      </trkpt>
      <trkpt lat="45.23433" lon="6.03224">
        <ele>2193.6</ele>
        <time>2021-12-19T10:28:02Z</time>
      </trkpt>
      <trkpt lat="45.23435" lon="6.0322">
        <ele>2191.2</ele>
        <time>2021-12-19T10:28:03Z</time>
      </trkpt>
      <trkpt lat="45.23439" lon="6.03215">
        <ele>2188.8</ele>
        <time>2021-12-19T10:28:04Z</time>
      </trkpt>
      <trkpt lat="45.23442" lon="6.0321">
        <ele>2187</ele>
        <time>2021-12-19T10:28:05Z</time>
      </trkpt>
      <trkpt lat="45.23443" lon="6.03205">
        <ele>2185.8</ele>
        <time>2021-12-19T10:28:06Z</time>
      </trkpt>
      <trkpt lat="45.23441" lon="6.03201">
        <ele>2183.8</ele>
        <time>2021-12-19T10:28:07Z</time>
      </trkpt>
      <trkpt lat="45.23439" lon="6.03193">
        <ele>2181.2</ele>
        <time>2021-12-19T10:28:08Z</time>
      </trkpt>
      <trkpt lat="45.2344" lon="6.03186">
        <ele>2178.8</ele>
        <time>2021-12-19T10:28:09Z</time>
      </trkpt>
      <trkpt lat="45.23444" lon="6.03181">
        <ele>2175.4</ele>
        <time>2021-12-19T10:28:10Z</time>
      </trkpt>
      <trkpt lat="45.23448" lon="6.03174">
        <ele>2172.6</ele>
        <time>2021-12-19T10:28:11Z</time>
      </trkpt>
      <trkpt lat="45.23447" lon="6.03169">
        <ele>2171.2</ele>
        <time>2021-12-19T10:28:12Z</time>
      </trkpt>
      <trkpt lat="45.23444" lon="6.03164">
        <ele>2168.6</ele>
        <time>2021-12-19T10:28:13Z</time>
      </trkpt>
      <trkpt lat="45.23438" lon="6.03159">
        <ele>2166.8</ele>
        <time>2021-12-19T10:28:14Z</time>
      </trkpt>
      <trkpt lat="45.2343" lon="6.0315">
        <ele>2164.6</ele>
        <time>2021-12-19T10:28:15Z</time>
      </trkpt>
      <trkpt lat="45.23426" lon="6.03141">
        <ele>2161.6</ele>
        <time>2021-12-19T10:28:16Z</time>
      </trkpt>
      <trkpt lat="45.23426" lon="6.03131">
        <ele>2158.8</ele>
        <time>2021-12-19T10:28:17Z</time>
      </trkpt>
      <trkpt lat="45.23426" lon="6.03122">
        <ele>2155.8</ele>
        <time>2021-12-19T10:28:18Z</time>
      </trkpt>
      <trkpt lat="45.23424" lon="6.03107">
        <ele>2154.2</ele>
        <time>2021-12-19T10:28:19Z</time>
      </trkpt>
      <trkpt lat="45.23421" lon="6.03094">
        <ele>2151.6</ele>
        <time>2021-12-19T10:28:20Z</time>
      </trkpt>
      <trkpt lat="45.23419" lon="6.03081">
        <ele>2150</ele>
        <time>2021-12-19T10:28:21Z</time>
      </trkpt>
      <trkpt lat="45.23418" lon="6.03066">
        <ele>2148.6</ele>
        <time>2021-12-19T10:28:23Z</time>
      </trkpt>
      <trkpt lat="45.23416" lon="6.03064">
        <ele>2148</ele>
        <time>2021-12-19T10:28:25Z</time>
      </trkpt>
      <trkpt lat="45.23416" lon="6.03065">
        <ele>2148</ele>
        <time>2021-12-19T10:28:32Z</time>
      </trkpt>
      <trkpt lat="45.23415" lon="6.03067">
        <ele>2147.6</ele>
        <time>2021-12-19T10:28:39Z</time>
      </trkpt>
      <trkpt lat="45.23414" lon="6.03068">
        <ele>2147.8</ele>
        <time>2021-12-19T10:28:53Z</time>
      </trkpt>
      <trkpt lat="45.23412" lon="6.03069">
        <ele>2148</ele>
        <time>2021-12-19T10:31:18Z</time>
      </trkpt>
      <trkpt lat="45.23414" lon="6.03069">
        <ele>2148</ele>
        <time>2021-12-19T10:32:12Z</time>
      </trkpt>
      <trkpt lat="45.23414" lon="6.0307">
        <ele>2148</ele>
        <time>2021-12-19T10:34:53Z</time>
      </trkpt>
      <trkpt lat="45.23414" lon="6.0307">
        <ele>2148</ele>
        <time>2021-12-19T10:35:04Z</time>
      </trkpt>
      <trkpt lat="45.23414" lon="6.03056">
        <ele>2148</ele>
        <time>2021-12-19T10:36:26Z</time>
      </trkpt>
      <trkpt lat="45.23415" lon="6.0304">
        <ele>2148</ele>
        <time>2021-12-19T10:36:34Z</time>
      </trkpt>
      <trkpt lat="45.23415" lon="6.03038">
        <ele>2147.8</ele>
        <time>2021-12-19T10:36:35Z</time>
      </trkpt>
      <trkpt lat="45.23417" lon="6.03036">
        <ele>2147.4</ele>
        <time>2021-12-19T10:36:38Z</time>
      </trkpt>
      <trkpt lat="45.23419" lon="6.03034">
        <ele>2147.8</ele>
        <time>2021-12-19T10:36:41Z</time>
      </trkpt>
      <trkpt lat="45.23421" lon="6.03033">
        <ele>2148.6</ele>
        <time>2021-12-19T10:36:45Z</time>
      </trkpt>
      <trkpt lat="45.23423" lon="6.03032">
        <ele>2149.6</ele>
        <time>2021-12-19T10:36:49Z</time>
      </trkpt>
      <trkpt lat="45.23423" lon="6.03033">
        <ele>2150</ele>
        <time>2021-12-19T10:36:50Z</time>
      </trkpt>
      <trkpt lat="45.23427" lon="6.03034">
        <ele>2150.8</ele>
        <time>2021-12-19T10:36:56Z</time>
      </trkpt>
      <trkpt lat="45.23428" lon="6.03032">
        <ele>2151</ele>
        <time>2021-12-19T10:37:03Z</time>
      </trkpt>
      <trkpt lat="45.23428" lon="6.03032">
        <ele>2151.2</ele>
        <time>2021-12-19T10:37:05Z</time>
      </trkpt>
      <trkpt lat="45.23432" lon="6.03032">
        <ele>2151.6</ele>
        <time>2021-12-19T10:37:11Z</time>
      </trkpt>
      <trkpt lat="45.23434" lon="6.03032">
        <ele>2152</ele>
        <time>2021-12-19T10:37:13Z</time>
      </trkpt>
      <trkpt lat="45.23435" lon="6.03032">
        <ele>2152</ele>
        <time>2021-12-19T10:37:14Z</time>
      </trkpt>
      <trkpt lat="45.23437" lon="6.03031">
        <ele>2153</ele>
        <time>2021-12-19T10:37:18Z</time>
      </trkpt>
      <trkpt lat="45.23437" lon="6.0303">
        <ele>2153.2</ele>
        <time>2021-12-19T10:37:19Z</time>
      </trkpt>
      <trkpt lat="45.2344" lon="6.03029">
        <ele>2154.2</ele>
        <time>2021-12-19T10:37:24Z</time>
      </trkpt>
      <trkpt lat="45.23441" lon="6.03029">
        <ele>2155</ele>
        <time>2021-12-19T10:37:26Z</time>
      </trkpt>
      <trkpt lat="45.23443" lon="6.03028">
        <ele>2155.6</ele>
        <time>2021-12-19T10:37:28Z</time>
      </trkpt>
      <trkpt lat="45.23447" lon="6.03026">
        <ele>2156.6</ele>
        <time>2021-12-19T10:37:33Z</time>
      </trkpt>
      <trkpt lat="45.23448" lon="6.03026">
        <ele>2156.8</ele>
        <time>2021-12-19T10:37:34Z</time>
      </trkpt>
      <trkpt lat="45.23451" lon="6.03025">
        <ele>2157.6</ele>
        <time>2021-12-19T10:37:39Z</time>
      </trkpt>
      <trkpt lat="45.23453" lon="6.03024">
        <ele>2157.8</ele>
        <time>2021-12-19T10:37:41Z</time>
      </trkpt>
      <trkpt lat="45.23456" lon="6.03022">
        <ele>2158</ele>
        <time>2021-12-19T10:37:45Z</time>
      </trkpt>
      <trkpt lat="45.23458" lon="6.03021">
        <ele>2158.2</ele>
        <time>2021-12-19T10:37:47Z</time>
      </trkpt>
      <trkpt lat="45.23461" lon="6.03022">
        <ele>2158.6</ele>
        <time>2021-12-19T10:37:51Z</time>
      </trkpt>
      <trkpt lat="45.23466" lon="6.0302">
        <ele>2159.8</ele>
        <time>2021-12-19T10:37:56Z</time>
      </trkpt>
      <trkpt lat="45.2347" lon="6.0302">
        <ele>2160.8</ele>
        <time>2021-12-19T10:38:01Z</time>
      </trkpt>
      <trkpt lat="45.23472" lon="6.0302">
        <ele>2161.6</ele>
        <time>2021-12-19T10:38:04Z</time>
      </trkpt>
      <trkpt lat="45.23474" lon="6.0302">
        <ele>2161.8</ele>
        <time>2021-12-19T10:38:07Z</time>
      </trkpt>
      <trkpt lat="45.23478" lon="6.0302">
        <ele>2162.8</ele>
        <time>2021-12-19T10:38:11Z</time>
      </trkpt>
      <trkpt lat="45.23478" lon="6.0302">
        <ele>2163</ele>
        <time>2021-12-19T10:38:12Z</time>
      </trkpt>
      <trkpt lat="45.23481" lon="6.03019">
        <ele>2163.8</ele>
        <time>2021-12-19T10:38:16Z</time>
      </trkpt>
      <trkpt lat="45.23482" lon="6.03019">
        <ele>2164</ele>
        <time>2021-12-19T10:38:17Z</time>
      </trkpt>
      <trkpt lat="45.23483" lon="6.03019">
        <ele>2164.2</ele>
        <time>2021-12-19T10:38:18Z</time>
      </trkpt>
      <trkpt lat="45.23487" lon="6.03019">
        <ele>2165.2</ele>
        <time>2021-12-19T10:38:23Z</time>
      </trkpt>
      <trkpt lat="45.2349" lon="6.03019">
        <ele>2165.8</ele>
        <time>2021-12-19T10:38:26Z</time>
      </trkpt>
      <trkpt lat="45.23492" lon="6.03018">
        <ele>2166.4</ele>
        <time>2021-12-19T10:38:28Z</time>
      </trkpt>
      <trkpt lat="45.23496" lon="6.03018">
        <ele>2167.2</ele>
        <time>2021-12-19T10:38:35Z</time>
      </trkpt>
      <trkpt lat="45.23497" lon="6.03017">
        <ele>2167.4</ele>
        <time>2021-12-19T10:38:36Z</time>
      </trkpt>
      <trkpt lat="45.23503" lon="6.03019">
        <ele>2168.2</ele>
        <time>2021-12-19T10:38:42Z</time>
      </trkpt>
      <trkpt lat="45.23506" lon="6.0302">
        <ele>2168.6</ele>
        <time>2021-12-19T10:38:45Z</time>
      </trkpt>
      <trkpt lat="45.23512" lon="6.03021">
        <ele>2169.4</ele>
        <time>2021-12-19T10:38:51Z</time>
      </trkpt>
      <trkpt lat="45.23514" lon="6.03021">
        <ele>2169.6</ele>
        <time>2021-12-19T10:38:52Z</time>
      </trkpt>
      <trkpt lat="45.23521" lon="6.03022">
        <ele>2170</ele>
        <time>2021-12-19T10:38:58Z</time>
      </trkpt>
      <trkpt lat="45.23524" lon="6.03022">
        <ele>2170.6</ele>
        <time>2021-12-19T10:39:02Z</time>
      </trkpt>
      <trkpt lat="45.23525" lon="6.03022">
        <ele>2170.8</ele>
        <time>2021-12-19T10:39:03Z</time>
      </trkpt>
      <trkpt lat="45.23528" lon="6.03021">
        <ele>2171.4</ele>
        <time>2021-12-19T10:39:06Z</time>
      </trkpt>
      <trkpt lat="45.2353" lon="6.03021">
        <ele>2171.8</ele>
        <time>2021-12-19T10:39:08Z</time>
      </trkpt>
      <trkpt lat="45.23536" lon="6.03025">
        <ele>2172.4</ele>
        <time>2021-12-19T10:39:14Z</time>
      </trkpt>
      <trkpt lat="45.23539" lon="6.03026">
        <ele>2172.8</ele>
        <time>2021-12-19T10:39:16Z</time>
      </trkpt>
      <trkpt lat="45.23546" lon="6.03026">
        <ele>2174</ele>
        <time>2021-12-19T10:39:22Z</time>
      </trkpt>
      <trkpt lat="45.23555" lon="6.03032">
        <ele>2175</ele>
        <time>2021-12-19T10:39:29Z</time>
      </trkpt>
      <trkpt lat="45.23555" lon="6.03031">
        <ele>2175</ele>
        <time>2021-12-19T10:39:30Z</time>
      </trkpt>
      <trkpt lat="45.2356" lon="6.03032">
        <ele>2176</ele>
        <time>2021-12-19T10:39:35Z</time>
      </trkpt>
      <trkpt lat="45.23564" lon="6.03034">
        <ele>2176.6</ele>
        <time>2021-12-19T10:39:38Z</time>
      </trkpt>
      <trkpt lat="45.23567" lon="6.03036">
        <ele>2177.2</ele>
        <time>2021-12-19T10:39:41Z</time>
      </trkpt>
      <trkpt lat="45.23572" lon="6.03038">
        <ele>2178.2</ele>
        <time>2021-12-19T10:39:46Z</time>
      </trkpt>
      <trkpt lat="45.23578" lon="6.03041">
        <ele>2179.6</ele>
        <time>2021-12-19T10:39:53Z</time>
      </trkpt>
      <trkpt lat="45.23578" lon="6.03042">
        <ele>2179.8</ele>
        <time>2021-12-19T10:39:54Z</time>
      </trkpt>
      <trkpt lat="45.23583" lon="6.03042">
        <ele>2180.8</ele>
        <time>2021-12-19T10:39:59Z</time>
      </trkpt>
      <trkpt lat="45.23586" lon="6.03043">
        <ele>2181.6</ele>
        <time>2021-12-19T10:40:02Z</time>
      </trkpt>
      <trkpt lat="45.23587" lon="6.03045">
        <ele>2181.8</ele>
        <time>2021-12-19T10:40:04Z</time>
      </trkpt>
      <trkpt lat="45.23589" lon="6.03046">
        <ele>2182.8</ele>
        <time>2021-12-19T10:40:08Z</time>
      </trkpt>
      <trkpt lat="45.2359" lon="6.03047">
        <ele>2183</ele>
        <time>2021-12-19T10:40:09Z</time>
      </trkpt>
      <trkpt lat="45.23593" lon="6.03046">
        <ele>2184</ele>
        <time>2021-12-19T10:40:13Z</time>
      </trkpt>
      <trkpt lat="45.23595" lon="6.03046">
        <ele>2184.8</ele>
        <time>2021-12-19T10:40:16Z</time>
      </trkpt>
      <trkpt lat="45.23597" lon="6.03047">
        <ele>2185.2</ele>
        <time>2021-12-19T10:40:18Z</time>
      </trkpt>
      <trkpt lat="45.23602" lon="6.03048">
        <ele>2186.2</ele>
        <time>2021-12-19T10:40:23Z</time>
      </trkpt>
      <trkpt lat="45.23604" lon="6.03049">
        <ele>2186.6</ele>
        <time>2021-12-19T10:40:25Z</time>
      </trkpt>
      <trkpt lat="45.2361" lon="6.0305">
        <ele>2187.4</ele>
        <time>2021-12-19T10:40:29Z</time>
      </trkpt>
      <trkpt lat="45.23616" lon="6.03053">
        <ele>2188.4</ele>
        <time>2021-12-19T10:40:33Z</time>
      </trkpt>
      <trkpt lat="45.2362" lon="6.03052">
        <ele>2189.6</ele>
        <time>2021-12-19T10:40:38Z</time>
      </trkpt>
      <trkpt lat="45.2362" lon="6.03052">
        <ele>2189.8</ele>
        <time>2021-12-19T10:40:39Z</time>
      </trkpt>
      <trkpt lat="45.23624" lon="6.03052">
        <ele>2190.6</ele>
        <time>2021-12-19T10:40:43Z</time>
      </trkpt>
      <trkpt lat="45.23627" lon="6.03055">
        <ele>2191.6</ele>
        <time>2021-12-19T10:40:48Z</time>
      </trkpt>
      <trkpt lat="45.23628" lon="6.03055">
        <ele>2191.8</ele>
        <time>2021-12-19T10:40:49Z</time>
      </trkpt>
      <trkpt lat="45.23632" lon="6.03057">
        <ele>2192.8</ele>
        <time>2021-12-19T10:40:54Z</time>
      </trkpt>
      <trkpt lat="45.23634" lon="6.03059">
        <ele>2193.2</ele>
        <time>2021-12-19T10:40:56Z</time>
      </trkpt>
      <trkpt lat="45.23636" lon="6.03059">
        <ele>2194</ele>
        <time>2021-12-19T10:40:59Z</time>
      </trkpt>
      <trkpt lat="45.23639" lon="6.03059">
        <ele>2195.2</ele>
        <time>2021-12-19T10:41:04Z</time>
      </trkpt>
      <trkpt lat="45.23642" lon="6.0306">
        <ele>2196.2</ele>
        <time>2021-12-19T10:41:08Z</time>
      </trkpt>
      <trkpt lat="45.23645" lon="6.03062">
        <ele>2197</ele>
        <time>2021-12-19T10:41:12Z</time>
      </trkpt>
      <trkpt lat="45.23646" lon="6.03062">
        <ele>2197.4</ele>
        <time>2021-12-19T10:41:13Z</time>
      </trkpt>
      <trkpt lat="45.23649" lon="6.03063">
        <ele>2198.4</ele>
        <time>2021-12-19T10:41:18Z</time>
      </trkpt>
      <trkpt lat="45.23651" lon="6.03064">
        <ele>2199.2</ele>
        <time>2021-12-19T10:41:21Z</time>
      </trkpt>
      <trkpt lat="45.23653" lon="6.03065">
        <ele>2199.4</ele>
        <time>2021-12-19T10:41:23Z</time>
      </trkpt>
      <trkpt lat="45.23655" lon="6.03066">
        <ele>2200.6</ele>
        <time>2021-12-19T10:41:26Z</time>
      </trkpt>
      <trkpt lat="45.23659" lon="6.03067">
        <ele>2201.2</ele>
        <time>2021-12-19T10:41:29Z</time>
      </trkpt>
      <trkpt lat="45.23661" lon="6.03068">
        <ele>2201.6</ele>
        <time>2021-12-19T10:41:31Z</time>
      </trkpt>
      <trkpt lat="45.23662" lon="6.0307">
        <ele>2202.8</ele>
        <time>2021-12-19T10:41:36Z</time>
      </trkpt>
      <trkpt lat="45.23665" lon="6.03073">
        <ele>2204</ele>
        <time>2021-12-19T10:41:41Z</time>
      </trkpt>
      <trkpt lat="45.23666" lon="6.03074">
        <ele>2204.2</ele>
        <time>2021-12-19T10:41:42Z</time>
      </trkpt>
      <trkpt lat="45.23668" lon="6.03075">
        <ele>2205</ele>
        <time>2021-12-19T10:41:46Z</time>
      </trkpt>
      <trkpt lat="45.23672" lon="6.03076">
        <ele>2206.4</ele>
        <time>2021-12-19T10:41:51Z</time>
      </trkpt>
      <trkpt lat="45.23676" lon="6.03079">
        <ele>2207.4</ele>
        <time>2021-12-19T10:41:57Z</time>
      </trkpt>
      <trkpt lat="45.23679" lon="6.03081">
        <ele>2208.6</ele>
        <time>2021-12-19T10:42:01Z</time>
      </trkpt>
      <trkpt lat="45.23682" lon="6.03083">
        <ele>2209.6</ele>
        <time>2021-12-19T10:42:06Z</time>
      </trkpt>
      <trkpt lat="45.23682" lon="6.03083">
        <ele>2210.4</ele>
        <time>2021-12-19T10:42:09Z</time>
      </trkpt>
      <trkpt lat="45.23684" lon="6.03084">
        <ele>2210.8</ele>
        <time>2021-12-19T10:42:11Z</time>
      </trkpt>
      <trkpt lat="45.23688" lon="6.03087">
        <ele>2211.8</ele>
        <time>2021-12-19T10:42:16Z</time>
      </trkpt>
      <trkpt lat="45.23688" lon="6.03087">
        <ele>2212</ele>
        <time>2021-12-19T10:42:17Z</time>
      </trkpt>
      <trkpt lat="45.23689" lon="6.0309">
        <ele>2213.2</ele>
        <time>2021-12-19T10:42:22Z</time>
      </trkpt>
      <trkpt lat="45.23689" lon="6.0309">
        <ele>2213.4</ele>
        <time>2021-12-19T10:42:23Z</time>
      </trkpt>
      <trkpt lat="45.23691" lon="6.0309">
        <ele>2214.4</ele>
        <time>2021-12-19T10:42:26Z</time>
      </trkpt>
      <trkpt lat="45.23691" lon="6.03091">
        <ele>2214.8</ele>
        <time>2021-12-19T10:42:29Z</time>
      </trkpt>
      <trkpt lat="45.23693" lon="6.03093">
        <ele>2215.4</ele>
        <time>2021-12-19T10:42:32Z</time>
      </trkpt>
      <trkpt lat="45.23694" lon="6.03096">
        <ele>2216.4</ele>
        <time>2021-12-19T10:42:36Z</time>
      </trkpt>
      <trkpt lat="45.23694" lon="6.03096">
        <ele>2216.8</ele>
        <time>2021-12-19T10:42:37Z</time>
      </trkpt>
      <trkpt lat="45.23692" lon="6.03098">
        <ele>2217</ele>
        <time>2021-12-19T10:42:38Z</time>
      </trkpt>
      <trkpt lat="45.23691" lon="6.03099">
        <ele>2217.8</ele>
        <time>2021-12-19T10:42:44Z</time>
      </trkpt>
      <trkpt lat="45.23691" lon="6.03099">
        <ele>2217.8</ele>
        <time>2021-12-19T10:42:58Z</time>
      </trkpt>
      <trkpt lat="45.23691" lon="6.03099">
        <ele>2219</ele>
        <time>2021-12-19T10:43:08Z</time>
      </trkpt>
      <trkpt lat="45.23692" lon="6.03099">
        <ele>2220.2</ele>
        <time>2021-12-19T10:43:14Z</time>
      </trkpt>
      <trkpt lat="45.23692" lon="6.031">
        <ele>2220.6</ele>
        <time>2021-12-19T10:43:16Z</time>
      </trkpt>
      <trkpt lat="45.23693" lon="6.031">
        <ele>2221.2</ele>
        <time>2021-12-19T10:43:18Z</time>
      </trkpt>
      <trkpt lat="45.23694" lon="6.03101">
        <ele>2222.4</ele>
        <time>2021-12-19T10:43:22Z</time>
      </trkpt>
      <trkpt lat="45.23697" lon="6.03108">
        <ele>2223.2</ele>
        <time>2021-12-19T10:43:27Z</time>
      </trkpt>
      <trkpt lat="45.23699" lon="6.03111">
        <ele>2223.4</ele>
        <time>2021-12-19T10:43:29Z</time>
      </trkpt>
      <trkpt lat="45.23703" lon="6.03119">
        <ele>2224.4</ele>
        <time>2021-12-19T10:43:33Z</time>
      </trkpt>
      <trkpt lat="45.23703" lon="6.03122">
        <ele>2224.6</ele>
        <time>2021-12-19T10:43:34Z</time>
      </trkpt>
      <trkpt lat="45.23705" lon="6.03125">
        <ele>2225.4</ele>
        <time>2021-12-19T10:43:38Z</time>
      </trkpt>
      <trkpt lat="45.23705" lon="6.03126">
        <ele>2225.6</ele>
        <time>2021-12-19T10:43:39Z</time>
      </trkpt>
      <trkpt lat="45.23706" lon="6.03128">
        <ele>2226.6</ele>
        <time>2021-12-19T10:43:43Z</time>
      </trkpt>
      <trkpt lat="45.23706" lon="6.03131">
        <ele>2226.8</ele>
        <time>2021-12-19T10:43:46Z</time>
      </trkpt>
      <trkpt lat="45.23706" lon="6.03132">
        <ele>2227.6</ele>
        <time>2021-12-19T10:43:48Z</time>
      </trkpt>
      <trkpt lat="45.23708" lon="6.03135">
        <ele>2228.6</ele>
        <time>2021-12-19T10:43:52Z</time>
      </trkpt>
      <trkpt lat="45.23709" lon="6.03136">
        <ele>2229.2</ele>
        <time>2021-12-19T10:43:54Z</time>
      </trkpt>
      <trkpt lat="45.23711" lon="6.03138">
        <ele>2229.6</ele>
        <time>2021-12-19T10:43:57Z</time>
      </trkpt>
      <trkpt lat="45.23711" lon="6.03141">
        <ele>2230.8</ele>
        <time>2021-12-19T10:44:00Z</time>
      </trkpt>
      <trkpt lat="45.23712" lon="6.03142">
        <ele>2231</ele>
        <time>2021-12-19T10:44:01Z</time>
      </trkpt>
      <trkpt lat="45.23713" lon="6.03147">
        <ele>2231.8</ele>
        <time>2021-12-19T10:44:06Z</time>
      </trkpt>
      <trkpt lat="45.23714" lon="6.03149">
        <ele>2232.4</ele>
        <time>2021-12-19T10:44:08Z</time>
      </trkpt>
      <trkpt lat="45.23715" lon="6.03151">
        <ele>2233</ele>
        <time>2021-12-19T10:44:10Z</time>
      </trkpt>
      <trkpt lat="45.23714" lon="6.03156">
        <ele>2233.8</ele>
        <time>2021-12-19T10:44:15Z</time>
      </trkpt>
      <trkpt lat="45.23714" lon="6.03157">
        <ele>2234.2</ele>
        <time>2021-12-19T10:44:16Z</time>
      </trkpt>
      <trkpt lat="45.23715" lon="6.0316">
        <ele>2235.4</ele>
        <time>2021-12-19T10:44:21Z</time>
      </trkpt>
      <trkpt lat="45.23715" lon="6.03159">
        <ele>2236</ele>
        <time>2021-12-19T10:44:23Z</time>
      </trkpt>
      <trkpt lat="45.23717" lon="6.03157">
        <ele>2236.6</ele>
        <time>2021-12-19T10:44:27Z</time>
      </trkpt>
      <trkpt lat="45.23717" lon="6.03157">
        <ele>2236.8</ele>
        <time>2021-12-19T10:44:28Z</time>
      </trkpt>
      <trkpt lat="45.23718" lon="6.03156">
        <ele>2236.8</ele>
        <time>2021-12-19T10:44:29Z</time>
      </trkpt>
      <trkpt lat="45.23719" lon="6.03154">
        <ele>2237.8</ele>
        <time>2021-12-19T10:44:33Z</time>
      </trkpt>
      <trkpt lat="45.23721" lon="6.03152">
        <ele>2238.2</ele>
        <time>2021-12-19T10:44:36Z</time>
      </trkpt>
      <trkpt lat="45.23723" lon="6.0315">
        <ele>2239</ele>
        <time>2021-12-19T10:44:40Z</time>
      </trkpt>
      <trkpt lat="45.23724" lon="6.03149">
        <ele>2239.4</ele>
        <time>2021-12-19T10:44:41Z</time>
      </trkpt>
      <trkpt lat="45.23727" lon="6.03146">
        <ele>2240</ele>
        <time>2021-12-19T10:44:45Z</time>
      </trkpt>
      <trkpt lat="45.23728" lon="6.03143">
        <ele>2240.6</ele>
        <time>2021-12-19T10:44:48Z</time>
      </trkpt>
      <trkpt lat="45.2373" lon="6.0314">
        <ele>2241.2</ele>
        <time>2021-12-19T10:44:52Z</time>
      </trkpt>
      <trkpt lat="45.23732" lon="6.03137">
        <ele>2242</ele>
        <time>2021-12-19T10:44:56Z</time>
      </trkpt>
      <trkpt lat="45.23732" lon="6.03136">
        <ele>2242.4</ele>
        <time>2021-12-19T10:44:57Z</time>
      </trkpt>
      <trkpt lat="45.23734" lon="6.03132">
        <ele>2243.6</ele>
        <time>2021-12-19T10:45:02Z</time>
      </trkpt>
      <trkpt lat="45.23734" lon="6.03131">
        <ele>2243.8</ele>
        <time>2021-12-19T10:45:03Z</time>
      </trkpt>
      <trkpt lat="45.23735" lon="6.03128">
        <ele>2244.6</ele>
        <time>2021-12-19T10:45:07Z</time>
      </trkpt>
      <trkpt lat="45.23735" lon="6.03127">
        <ele>2244.8</ele>
        <time>2021-12-19T10:45:08Z</time>
      </trkpt>
      <trkpt lat="45.23736" lon="6.03125">
        <ele>2245.2</ele>
        <time>2021-12-19T10:45:10Z</time>
      </trkpt>
      <trkpt lat="45.23738" lon="6.03123">
        <ele>2245.8</ele>
        <time>2021-12-19T10:45:13Z</time>
      </trkpt>
      <trkpt lat="45.23739" lon="6.03121">
        <ele>2246.8</ele>
        <time>2021-12-19T10:45:17Z</time>
      </trkpt>
      <trkpt lat="45.2374" lon="6.0312">
        <ele>2246.8</ele>
        <time>2021-12-19T10:45:18Z</time>
      </trkpt>
      <trkpt lat="45.23742" lon="6.03124">
        <ele>2247</ele>
        <time>2021-12-19T10:45:26Z</time>
      </trkpt>
      <trkpt lat="45.23743" lon="6.0313">
        <ele>2248</ele>
        <time>2021-12-19T10:45:32Z</time>
      </trkpt>
      <trkpt lat="45.23743" lon="6.03131">
        <ele>2248.2</ele>
        <time>2021-12-19T10:45:33Z</time>
      </trkpt>
      <trkpt lat="45.23744" lon="6.03133">
        <ele>2248.6</ele>
        <time>2021-12-19T10:45:35Z</time>
      </trkpt>
      <trkpt lat="45.23746" lon="6.03136">
        <ele>2249</ele>
        <time>2021-12-19T10:45:38Z</time>
      </trkpt>
      <trkpt lat="45.23746" lon="6.03139">
        <ele>2249.8</ele>
        <time>2021-12-19T10:45:41Z</time>
      </trkpt>
      <trkpt lat="45.23747" lon="6.03139">
        <ele>2250</ele>
        <time>2021-12-19T10:45:42Z</time>
      </trkpt>
      <trkpt lat="45.23749" lon="6.03143">
        <ele>2251</ele>
        <time>2021-12-19T10:45:48Z</time>
      </trkpt>
      <trkpt lat="45.23749" lon="6.03144">
        <ele>2251.4</ele>
        <time>2021-12-19T10:45:49Z</time>
      </trkpt>
      <trkpt lat="45.2375" lon="6.03147">
        <ele>2252.2</ele>
        <time>2021-12-19T10:45:52Z</time>
      </trkpt>
      <trkpt lat="45.23752" lon="6.0315">
        <ele>2253.6</ele>
        <time>2021-12-19T10:45:58Z</time>
      </trkpt>
      <trkpt lat="45.23756" lon="6.03153">
        <ele>2254.6</ele>
        <time>2021-12-19T10:46:03Z</time>
      </trkpt>
      <trkpt lat="45.23758" lon="6.03155">
        <ele>2255</ele>
        <time>2021-12-19T10:46:06Z</time>
      </trkpt>
      <trkpt lat="45.2376" lon="6.03158">
        <ele>2256</ele>
        <time>2021-12-19T10:46:10Z</time>
      </trkpt>
      <trkpt lat="45.23761" lon="6.0316">
        <ele>2257</ele>
        <time>2021-12-19T10:46:13Z</time>
      </trkpt>
      <trkpt lat="45.23763" lon="6.03162">
        <ele>2258</ele>
        <time>2021-12-19T10:46:17Z</time>
      </trkpt>
      <trkpt lat="45.23765" lon="6.03163">
        <ele>2258.8</ele>
        <time>2021-12-19T10:46:21Z</time>
      </trkpt>
      <trkpt lat="45.23765" lon="6.03164">
        <ele>2259.2</ele>
        <time>2021-12-19T10:46:22Z</time>
      </trkpt>
      <trkpt lat="45.23765" lon="6.03167">
        <ele>2260.4</ele>
        <time>2021-12-19T10:46:27Z</time>
      </trkpt>
      <trkpt lat="45.23765" lon="6.03167">
        <ele>2260.6</ele>
        <time>2021-12-19T10:46:28Z</time>
      </trkpt>
      <trkpt lat="45.23767" lon="6.03169">
        <ele>2261.6</ele>
        <time>2021-12-19T10:46:32Z</time>
      </trkpt>
      <trkpt lat="45.23767" lon="6.03172">
        <ele>2262.4</ele>
        <time>2021-12-19T10:46:35Z</time>
      </trkpt>
      <trkpt lat="45.23769" lon="6.03173">
        <ele>2262.8</ele>
        <time>2021-12-19T10:46:37Z</time>
      </trkpt>
      <trkpt lat="45.23772" lon="6.03176">
        <ele>2263.8</ele>
        <time>2021-12-19T10:46:42Z</time>
      </trkpt>
      <trkpt lat="45.23774" lon="6.03178">
        <ele>2265</ele>
        <time>2021-12-19T10:46:47Z</time>
      </trkpt>
      <trkpt lat="45.23775" lon="6.03179">
        <ele>2265.4</ele>
        <time>2021-12-19T10:46:49Z</time>
      </trkpt>
      <trkpt lat="45.23777" lon="6.03182">
        <ele>2266</ele>
        <time>2021-12-19T10:46:53Z</time>
      </trkpt>
      <trkpt lat="45.23783" lon="6.03184">
        <ele>2267.2</ele>
        <time>2021-12-19T10:46:59Z</time>
      </trkpt>
      <trkpt lat="45.23782" lon="6.03185">
        <ele>2267.8</ele>
        <time>2021-12-19T10:47:01Z</time>
      </trkpt>
      <trkpt lat="45.23783" lon="6.03185">
        <ele>2268.4</ele>
        <time>2021-12-19T10:47:03Z</time>
      </trkpt>
      <trkpt lat="45.23787" lon="6.03188">
        <ele>2269.4</ele>
        <time>2021-12-19T10:47:08Z</time>
      </trkpt>
      <trkpt lat="45.23788" lon="6.03187">
        <ele>2270.4</ele>
        <time>2021-12-19T10:47:12Z</time>
      </trkpt>
      <trkpt lat="45.2379" lon="6.03189">
        <ele>2271.8</ele>
        <time>2021-12-19T10:47:17Z</time>
      </trkpt>
      <trkpt lat="45.23795" lon="6.03191">
        <ele>2273</ele>
        <time>2021-12-19T10:47:23Z</time>
      </trkpt>
      <trkpt lat="45.23795" lon="6.03192">
        <ele>2273</ele>
        <time>2021-12-19T10:47:24Z</time>
      </trkpt>
      <trkpt lat="45.23798" lon="6.03197">
        <ele>2274.2</ele>
        <time>2021-12-19T10:47:29Z</time>
      </trkpt>
      <trkpt lat="45.238" lon="6.03201">
        <ele>2274.8</ele>
        <time>2021-12-19T10:47:33Z</time>
      </trkpt>
      <trkpt lat="45.23801" lon="6.03203">
        <ele>2275.2</ele>
        <time>2021-12-19T10:47:35Z</time>
      </trkpt>
      <trkpt lat="45.23806" lon="6.03208">
        <ele>2276</ele>
        <time>2021-12-19T10:47:41Z</time>
      </trkpt>
      <trkpt lat="45.23807" lon="6.0321">
        <ele>2276.2</ele>
        <time>2021-12-19T10:47:43Z</time>
      </trkpt>
      <trkpt lat="45.23811" lon="6.03214">
        <ele>2276.8</ele>
        <time>2021-12-19T10:47:48Z</time>
      </trkpt>
      <trkpt lat="45.23813" lon="6.03216">
        <ele>2277.4</ele>
        <time>2021-12-19T10:47:51Z</time>
      </trkpt>
      <trkpt lat="45.23814" lon="6.03219">
        <ele>2277.8</ele>
        <time>2021-12-19T10:47:55Z</time>
      </trkpt>
      <trkpt lat="45.23817" lon="6.03221">
        <ele>2278.6</ele>
        <time>2021-12-19T10:47:58Z</time>
      </trkpt>
      <trkpt lat="45.23821" lon="6.03224">
        <ele>2279.6</ele>
        <time>2021-12-19T10:48:04Z</time>
      </trkpt>
      <trkpt lat="45.23824" lon="6.03225">
        <ele>2280.6</ele>
        <time>2021-12-19T10:48:09Z</time>
      </trkpt>
      <trkpt lat="45.23827" lon="6.03226">
        <ele>2282</ele>
        <time>2021-12-19T10:48:13Z</time>
      </trkpt>
      <trkpt lat="45.23831" lon="6.03228">
        <ele>2283.2</ele>
        <time>2021-12-19T10:48:18Z</time>
      </trkpt>
      <trkpt lat="45.23832" lon="6.03229">
        <ele>2283.6</ele>
        <time>2021-12-19T10:48:20Z</time>
      </trkpt>
      <trkpt lat="45.23834" lon="6.03231">
        <ele>2284.2</ele>
        <time>2021-12-19T10:48:23Z</time>
      </trkpt>
      <trkpt lat="45.23836" lon="6.03234">
        <ele>2285.4</ele>
        <time>2021-12-19T10:48:27Z</time>
      </trkpt>
      <trkpt lat="45.23836" lon="6.03235">
        <ele>2285.6</ele>
        <time>2021-12-19T10:48:28Z</time>
      </trkpt>
      <trkpt lat="45.2384" lon="6.03237">
        <ele>2286.4</ele>
        <time>2021-12-19T10:48:32Z</time>
      </trkpt>
      <trkpt lat="45.23842" lon="6.03237">
        <ele>2287</ele>
        <time>2021-12-19T10:48:34Z</time>
      </trkpt>
      <trkpt lat="45.23845" lon="6.03239">
        <ele>2287.6</ele>
        <time>2021-12-19T10:48:37Z</time>
      </trkpt>
      <trkpt lat="45.2385" lon="6.03242">
        <ele>2288.8</ele>
        <time>2021-12-19T10:48:42Z</time>
      </trkpt>
      <trkpt lat="45.23851" lon="6.03242">
        <ele>2289.2</ele>
        <time>2021-12-19T10:48:44Z</time>
      </trkpt>
      <trkpt lat="45.23853" lon="6.03242">
        <ele>2290</ele>
        <time>2021-12-19T10:48:46Z</time>
      </trkpt>
      <trkpt lat="45.23856" lon="6.03244">
        <ele>2290.8</ele>
        <time>2021-12-19T10:48:50Z</time>
      </trkpt>
      <trkpt lat="45.23856" lon="6.03246">
        <ele>2291</ele>
        <time>2021-12-19T10:48:51Z</time>
      </trkpt>
      <trkpt lat="45.23861" lon="6.0325">
        <ele>2292.2</ele>
        <time>2021-12-19T10:48:56Z</time>
      </trkpt>
      <trkpt lat="45.23865" lon="6.03252">
        <ele>2293</ele>
        <time>2021-12-19T10:49:00Z</time>
      </trkpt>
      <trkpt lat="45.23865" lon="6.03253">
        <ele>2293.4</ele>
        <time>2021-12-19T10:49:01Z</time>
      </trkpt>
      <trkpt lat="45.23868" lon="6.03256">
        <ele>2294.8</ele>
        <time>2021-12-19T10:49:06Z</time>
      </trkpt>
      <trkpt lat="45.23869" lon="6.03257">
        <ele>2295</ele>
        <time>2021-12-19T10:49:07Z</time>
      </trkpt>
      <trkpt lat="45.2387" lon="6.03259">
        <ele>2295.8</ele>
        <time>2021-12-19T10:49:11Z</time>
      </trkpt>
      <trkpt lat="45.2387" lon="6.0326">
        <ele>2296</ele>
        <time>2021-12-19T10:49:12Z</time>
      </trkpt>
      <trkpt lat="45.23868" lon="6.03258">
        <ele>2296.4</ele>
        <time>2021-12-19T10:49:18Z</time>
      </trkpt>
      <trkpt lat="45.23867" lon="6.03257">
        <ele>2296.6</ele>
        <time>2021-12-19T10:49:28Z</time>
      </trkpt>
      <trkpt lat="45.23867" lon="6.03257">
        <ele>2296.8</ele>
        <time>2021-12-19T10:49:31Z</time>
      </trkpt>
      <trkpt lat="45.23867" lon="6.03254">
        <ele>2298</ele>
        <time>2021-12-19T10:49:37Z</time>
      </trkpt>
      <trkpt lat="45.23867" lon="6.03251">
        <ele>2298.4</ele>
        <time>2021-12-19T10:49:39Z</time>
      </trkpt>
      <trkpt lat="45.23867" lon="6.03249">
        <ele>2298.6</ele>
        <time>2021-12-19T10:49:40Z</time>
      </trkpt>
      <trkpt lat="45.23866" lon="6.03245">
        <ele>2299.2</ele>
        <time>2021-12-19T10:49:43Z</time>
      </trkpt>
      <trkpt lat="45.23866" lon="6.03243">
        <ele>2299.6</ele>
        <time>2021-12-19T10:49:45Z</time>
      </trkpt>
      <trkpt lat="45.23866" lon="6.03242">
        <ele>2299.8</ele>
        <time>2021-12-19T10:49:46Z</time>
      </trkpt>
      <trkpt lat="45.23866" lon="6.0324">
        <ele>2300.4</ele>
        <time>2021-12-19T10:49:48Z</time>
      </trkpt>
      <trkpt lat="45.23866" lon="6.03237">
        <ele>2301</ele>
        <time>2021-12-19T10:49:51Z</time>
      </trkpt>
      <trkpt lat="45.23866" lon="6.03234">
        <ele>2301.6</ele>
        <time>2021-12-19T10:49:54Z</time>
      </trkpt>
      <trkpt lat="45.23866" lon="6.03235">
        <ele>2302</ele>
        <time>2021-12-19T10:49:58Z</time>
      </trkpt>
      <trkpt lat="45.23869" lon="6.03238">
        <ele>2302.8</ele>
        <time>2021-12-19T10:50:04Z</time>
      </trkpt>
      <trkpt lat="45.2387" lon="6.03239">
        <ele>2303.2</ele>
        <time>2021-12-19T10:50:06Z</time>
      </trkpt>
      <trkpt lat="45.23872" lon="6.0324">
        <ele>2303.8</ele>
        <time>2021-12-19T10:50:10Z</time>
      </trkpt>
      <trkpt lat="45.23872" lon="6.03241">
        <ele>2303.8</ele>
        <time>2021-12-19T10:50:11Z</time>
      </trkpt>
      <trkpt lat="45.23873" lon="6.03242">
        <ele>2304.4</ele>
        <time>2021-12-19T10:50:12Z</time>
      </trkpt>
      <trkpt lat="45.23874" lon="6.03244">
        <ele>2305</ele>
        <time>2021-12-19T10:50:14Z</time>
      </trkpt>
      <trkpt lat="45.23877" lon="6.03248">
        <ele>2306</ele>
        <time>2021-12-19T10:50:19Z</time>
      </trkpt>
      <trkpt lat="45.23877" lon="6.03249">
        <ele>2306.2</ele>
        <time>2021-12-19T10:50:20Z</time>
      </trkpt>
      <trkpt lat="45.2388" lon="6.03252">
        <ele>2307.2</ele>
        <time>2021-12-19T10:50:24Z</time>
      </trkpt>
      <trkpt lat="45.23883" lon="6.03256">
        <ele>2307.8</ele>
        <time>2021-12-19T10:50:29Z</time>
      </trkpt>
      <trkpt lat="45.23884" lon="6.03257">
        <ele>2308.2</ele>
        <time>2021-12-19T10:50:30Z</time>
      </trkpt>
      <trkpt lat="45.23887" lon="6.0326">
        <ele>2309.2</ele>
        <time>2021-12-19T10:50:33Z</time>
      </trkpt>
      <trkpt lat="45.23887" lon="6.03261">
        <ele>2309.8</ele>
        <time>2021-12-19T10:50:35Z</time>
      </trkpt>
      <trkpt lat="45.23886" lon="6.03261">
        <ele>2310.4</ele>
        <time>2021-12-19T10:50:37Z</time>
      </trkpt>
      <trkpt lat="45.23885" lon="6.0326">
        <ele>2310.6</ele>
        <time>2021-12-19T10:50:40Z</time>
      </trkpt>
      <trkpt lat="45.23884" lon="6.03255">
        <ele>2311.6</ele>
        <time>2021-12-19T10:50:45Z</time>
      </trkpt>
      <trkpt lat="45.23884" lon="6.03253">
        <ele>2311.8</ele>
        <time>2021-12-19T10:50:46Z</time>
      </trkpt>
      <trkpt lat="45.23885" lon="6.03248">
        <ele>2312.6</ele>
        <time>2021-12-19T10:50:50Z</time>
      </trkpt>
      <trkpt lat="45.23885" lon="6.03247">
        <ele>2313</ele>
        <time>2021-12-19T10:50:51Z</time>
      </trkpt>
      <trkpt lat="45.23885" lon="6.03243">
        <ele>2313.6</ele>
        <time>2021-12-19T10:50:55Z</time>
      </trkpt>
      <trkpt lat="45.23885" lon="6.03241">
        <ele>2314.2</ele>
        <time>2021-12-19T10:50:57Z</time>
      </trkpt>
      <trkpt lat="45.23885" lon="6.03236">
        <ele>2315</ele>
        <time>2021-12-19T10:51:01Z</time>
      </trkpt>
      <trkpt lat="45.23884" lon="6.03232">
        <ele>2316.2</ele>
        <time>2021-12-19T10:51:05Z</time>
      </trkpt>
      <trkpt lat="45.23884" lon="6.0323">
        <ele>2316.6</ele>
        <time>2021-12-19T10:51:07Z</time>
      </trkpt>
      <trkpt lat="45.23883" lon="6.03227">
        <ele>2317.2</ele>
        <time>2021-12-19T10:51:10Z</time>
      </trkpt>
      <trkpt lat="45.23884" lon="6.03225">
        <ele>2318.2</ele>
        <time>2021-12-19T10:51:14Z</time>
      </trkpt>
      <trkpt lat="45.23884" lon="6.03225">
        <ele>2318.4</ele>
        <time>2021-12-19T10:51:15Z</time>
      </trkpt>
      <trkpt lat="45.23882" lon="6.03217">
        <ele>2319.6</ele>
        <time>2021-12-19T10:51:21Z</time>
      </trkpt>
      <trkpt lat="45.23882" lon="6.03216">
        <ele>2320</ele>
        <time>2021-12-19T10:51:22Z</time>
      </trkpt>
      <trkpt lat="45.2388" lon="6.03211">
        <ele>2320.8</ele>
        <time>2021-12-19T10:51:27Z</time>
      </trkpt>
      <trkpt lat="45.2388" lon="6.03207">
        <ele>2321.6</ele>
        <time>2021-12-19T10:51:31Z</time>
      </trkpt>
      <trkpt lat="45.23879" lon="6.03205">
        <ele>2322</ele>
        <time>2021-12-19T10:51:33Z</time>
      </trkpt>
      <trkpt lat="45.23879" lon="6.032">
        <ele>2323</ele>
        <time>2021-12-19T10:51:38Z</time>
      </trkpt>
      <trkpt lat="45.23879" lon="6.03199">
        <ele>2323.2</ele>
        <time>2021-12-19T10:51:39Z</time>
      </trkpt>
      <trkpt lat="45.23877" lon="6.03195">
        <ele>2324</ele>
        <time>2021-12-19T10:51:43Z</time>
      </trkpt>
      <trkpt lat="45.23876" lon="6.03193">
        <ele>2324.2</ele>
        <time>2021-12-19T10:51:46Z</time>
      </trkpt>
      <trkpt lat="45.23876" lon="6.03189">
        <ele>2325.2</ele>
        <time>2021-12-19T10:51:51Z</time>
      </trkpt>
      <trkpt lat="45.23877" lon="6.03189">
        <ele>2325.4</ele>
        <time>2021-12-19T10:51:52Z</time>
      </trkpt>
      <trkpt lat="45.23883" lon="6.03191">
        <ele>2326.4</ele>
        <time>2021-12-19T10:51:58Z</time>
      </trkpt>
      <trkpt lat="45.23884" lon="6.03191">
        <ele>2326.6</ele>
        <time>2021-12-19T10:51:59Z</time>
      </trkpt>
      <trkpt lat="45.23886" lon="6.03192">
        <ele>2326.8</ele>
        <time>2021-12-19T10:52:01Z</time>
      </trkpt>
      <trkpt lat="45.23889" lon="6.03194">
        <ele>2327.6</ele>
        <time>2021-12-19T10:52:04Z</time>
      </trkpt>
      <trkpt lat="45.23892" lon="6.03196">
        <ele>2328.2</ele>
        <time>2021-12-19T10:52:08Z</time>
      </trkpt>
      <trkpt lat="45.23893" lon="6.03197">
        <ele>2328.6</ele>
        <time>2021-12-19T10:52:10Z</time>
      </trkpt>
      <trkpt lat="45.23897" lon="6.03201">
        <ele>2329.4</ele>
        <time>2021-12-19T10:52:15Z</time>
      </trkpt>
      <trkpt lat="45.23897" lon="6.03202">
        <ele>2329.6</ele>
        <time>2021-12-19T10:52:16Z</time>
      </trkpt>
      <trkpt lat="45.239" lon="6.03205">
        <ele>2330.6</ele>
        <time>2021-12-19T10:52:20Z</time>
      </trkpt>
      <trkpt lat="45.23902" lon="6.03207">
        <ele>2331.4</ele>
        <time>2021-12-19T10:52:23Z</time>
      </trkpt>
      <trkpt lat="45.23903" lon="6.03207">
        <ele>2331.8</ele>
        <time>2021-12-19T10:52:24Z</time>
      </trkpt>
      <trkpt lat="45.23908" lon="6.03209">
        <ele>2333</ele>
        <time>2021-12-19T10:52:29Z</time>
      </trkpt>
      <trkpt lat="45.23911" lon="6.0321">
        <ele>2334.2</ele>
        <time>2021-12-19T10:52:34Z</time>
      </trkpt>
      <trkpt lat="45.23915" lon="6.03212">
        <ele>2335.6</ele>
        <time>2021-12-19T10:52:39Z</time>
      </trkpt>
      <trkpt lat="45.23916" lon="6.03214">
        <ele>2336</ele>
        <time>2021-12-19T10:52:41Z</time>
      </trkpt>
      <trkpt lat="45.23917" lon="6.03215">
        <ele>2336.6</ele>
        <time>2021-12-19T10:52:43Z</time>
      </trkpt>
      <trkpt lat="45.2392" lon="6.03218">
        <ele>2337.8</ele>
        <time>2021-12-19T10:52:48Z</time>
      </trkpt>
      <trkpt lat="45.23921" lon="6.03222">
        <ele>2339</ele>
        <time>2021-12-19T10:52:53Z</time>
      </trkpt>
      <trkpt lat="45.23921" lon="6.03223">
        <ele>2339.2</ele>
        <time>2021-12-19T10:52:54Z</time>
      </trkpt>
      <trkpt lat="45.23922" lon="6.03225">
        <ele>2340.2</ele>
        <time>2021-12-19T10:52:57Z</time>
      </trkpt>
      <trkpt lat="45.23924" lon="6.03228">
        <ele>2341</ele>
        <time>2021-12-19T10:53:01Z</time>
      </trkpt>
      <trkpt lat="45.23924" lon="6.03228">
        <ele>2341.2</ele>
        <time>2021-12-19T10:53:02Z</time>
      </trkpt>
      <trkpt lat="45.23927" lon="6.03231">
        <ele>2342.6</ele>
        <time>2021-12-19T10:53:07Z</time>
      </trkpt>
      <trkpt lat="45.23927" lon="6.03227">
        <ele>2343.6</ele>
        <time>2021-12-19T10:53:12Z</time>
      </trkpt>
      <trkpt lat="45.23927" lon="6.03225">
        <ele>2344.2</ele>
        <time>2021-12-19T10:53:14Z</time>
      </trkpt>
      <trkpt lat="45.23927" lon="6.0322">
        <ele>2344.8</ele>
        <time>2021-12-19T10:53:18Z</time>
      </trkpt>
      <trkpt lat="45.23927" lon="6.03219">
        <ele>2345</ele>
        <time>2021-12-19T10:53:19Z</time>
      </trkpt>
      <trkpt lat="45.23927" lon="6.03214">
        <ele>2346</ele>
        <time>2021-12-19T10:53:24Z</time>
      </trkpt>
      <trkpt lat="45.23928" lon="6.03209">
        <ele>2347</ele>
        <time>2021-12-19T10:53:28Z</time>
      </trkpt>
      <trkpt lat="45.23928" lon="6.03208">
        <ele>2347.2</ele>
        <time>2021-12-19T10:53:29Z</time>
      </trkpt>
      <trkpt lat="45.23928" lon="6.03206">
        <ele>2347.4</ele>
        <time>2021-12-19T10:53:30Z</time>
      </trkpt>
      <trkpt lat="45.23929" lon="6.03201">
        <ele>2348.4</ele>
        <time>2021-12-19T10:53:35Z</time>
      </trkpt>
      <trkpt lat="45.2393" lon="6.03197">
        <ele>2349.4</ele>
        <time>2021-12-19T10:53:39Z</time>
      </trkpt>
      <trkpt lat="45.23932" lon="6.03193">
        <ele>2350.6</ele>
        <time>2021-12-19T10:53:43Z</time>
      </trkpt>
      <trkpt lat="45.23932" lon="6.03191">
        <ele>2351</ele>
        <time>2021-12-19T10:53:46Z</time>
      </trkpt>
      <trkpt lat="45.23932" lon="6.03189">
        <ele>2351.6</ele>
        <time>2021-12-19T10:53:48Z</time>
      </trkpt>
      <trkpt lat="45.23933" lon="6.03186">
        <ele>2352.4</ele>
        <time>2021-12-19T10:53:51Z</time>
      </trkpt>
      <trkpt lat="45.23933" lon="6.03186">
        <ele>2352.6</ele>
        <time>2021-12-19T10:53:52Z</time>
      </trkpt>
      <trkpt lat="45.23933" lon="6.03182">
        <ele>2353.2</ele>
        <time>2021-12-19T10:53:55Z</time>
      </trkpt>
      <trkpt lat="45.23934" lon="6.03181">
        <ele>2353.4</ele>
        <time>2021-12-19T10:53:57Z</time>
      </trkpt>
      <trkpt lat="45.23934" lon="6.03181">
        <ele>2353.6</ele>
        <time>2021-12-19T10:53:58Z</time>
      </trkpt>
      <trkpt lat="45.23934" lon="6.03181">
        <ele>2354</ele>
        <time>2021-12-19T10:54:06Z</time>
      </trkpt>
      <trkpt lat="45.23937" lon="6.03186">
        <ele>2354.2</ele>
        <time>2021-12-19T10:54:11Z</time>
      </trkpt>
      <trkpt lat="45.23938" lon="6.03188">
        <ele>2354.2</ele>
        <time>2021-12-19T10:54:13Z</time>
      </trkpt>
      <trkpt lat="45.23942" lon="6.03193">
        <ele>2355</ele>
        <time>2021-12-19T10:54:18Z</time>
      </trkpt>
      <trkpt lat="45.23944" lon="6.03196">
        <ele>2355.6</ele>
        <time>2021-12-19T10:54:21Z</time>
      </trkpt>
      <trkpt lat="45.23945" lon="6.03197">
        <ele>2356</ele>
        <time>2021-12-19T10:54:23Z</time>
      </trkpt>
      <trkpt lat="45.23948" lon="6.03202">
        <ele>2357.2</ele>
        <time>2021-12-19T10:54:28Z</time>
      </trkpt>
      <trkpt lat="45.23949" lon="6.03203">
        <ele>2357.4</ele>
        <time>2021-12-19T10:54:29Z</time>
      </trkpt>
      <trkpt lat="45.2395" lon="6.03208">
        <ele>2358.4</ele>
        <time>2021-12-19T10:54:34Z</time>
      </trkpt>
      <trkpt lat="45.23951" lon="6.03209">
        <ele>2358.8</ele>
        <time>2021-12-19T10:54:35Z</time>
      </trkpt>
      <trkpt lat="45.23952" lon="6.03211">
        <ele>2359.4</ele>
        <time>2021-12-19T10:54:37Z</time>
      </trkpt>
      <trkpt lat="45.23951" lon="6.03216">
        <ele>2360.6</ele>
        <time>2021-12-19T10:54:41Z</time>
      </trkpt>
      <trkpt lat="45.23951" lon="6.03217">
        <ele>2360.8</ele>
        <time>2021-12-19T10:54:42Z</time>
      </trkpt>
      <trkpt lat="45.23953" lon="6.03222">
        <ele>2361.8</ele>
        <time>2021-12-19T10:54:47Z</time>
      </trkpt>
      <trkpt lat="45.23953" lon="6.03224">
        <ele>2362.4</ele>
        <time>2021-12-19T10:54:49Z</time>
      </trkpt>
      <trkpt lat="45.23953" lon="6.03225">
        <ele>2362.8</ele>
        <time>2021-12-19T10:54:52Z</time>
      </trkpt>
      <trkpt lat="45.23954" lon="6.03228">
        <ele>2363.8</ele>
        <time>2021-12-19T10:54:56Z</time>
      </trkpt>
      <trkpt lat="45.23955" lon="6.03233">
        <ele>2365</ele>
        <time>2021-12-19T10:55:01Z</time>
      </trkpt>
      <trkpt lat="45.23956" lon="6.03236">
        <ele>2365.6</ele>
        <time>2021-12-19T10:55:04Z</time>
      </trkpt>
      <trkpt lat="45.23957" lon="6.03237">
        <ele>2366.4</ele>
        <time>2021-12-19T10:55:06Z</time>
      </trkpt>
      <trkpt lat="45.23959" lon="6.03241">
        <ele>2367.2</ele>
        <time>2021-12-19T10:55:10Z</time>
      </trkpt>
      <trkpt lat="45.23959" lon="6.03241">
        <ele>2367.6</ele>
        <time>2021-12-19T10:55:11Z</time>
      </trkpt>
      <trkpt lat="45.23962" lon="6.03244">
        <ele>2368.8</ele>
        <time>2021-12-19T10:55:16Z</time>
      </trkpt>
      <trkpt lat="45.23962" lon="6.03243">
        <ele>2369</ele>
        <time>2021-12-19T10:55:18Z</time>
      </trkpt>
      <trkpt lat="45.23961" lon="6.03241">
        <ele>2369.8</ele>
        <time>2021-12-19T10:55:22Z</time>
      </trkpt>
      <trkpt lat="45.23963" lon="6.03238">
        <ele>2370.8</ele>
        <time>2021-12-19T10:55:27Z</time>
      </trkpt>
      <trkpt lat="45.23963" lon="6.03237">
        <ele>2371</ele>
        <time>2021-12-19T10:55:28Z</time>
      </trkpt>
      <trkpt lat="45.23963" lon="6.03233">
        <ele>2372</ele>
        <time>2021-12-19T10:55:32Z</time>
      </trkpt>
      <trkpt lat="45.23964" lon="6.0323">
        <ele>2372.4</ele>
        <time>2021-12-19T10:55:35Z</time>
      </trkpt>
      <trkpt lat="45.23964" lon="6.03228">
        <ele>2373.2</ele>
        <time>2021-12-19T10:55:37Z</time>
      </trkpt>
      <trkpt lat="45.23965" lon="6.03225">
        <ele>2374.2</ele>
        <time>2021-12-19T10:55:41Z</time>
      </trkpt>
      <trkpt lat="45.23966" lon="6.03221">
        <ele>2375.4</ele>
        <time>2021-12-19T10:55:45Z</time>
      </trkpt>
      <trkpt lat="45.23967" lon="6.03217">
        <ele>2376</ele>
        <time>2021-12-19T10:55:49Z</time>
      </trkpt>
      <trkpt lat="45.23968" lon="6.03216">
        <ele>2376.4</ele>
        <time>2021-12-19T10:55:51Z</time>
      </trkpt>
      <trkpt lat="45.2397" lon="6.03216">
        <ele>2377</ele>
        <time>2021-12-19T10:55:57Z</time>
      </trkpt>
      <trkpt lat="45.23972" lon="6.0322">
        <ele>2377.4</ele>
        <time>2021-12-19T10:56:03Z</time>
      </trkpt>
      <trkpt lat="45.23973" lon="6.03222">
        <ele>2377.8</ele>
        <time>2021-12-19T10:56:05Z</time>
      </trkpt>
      <trkpt lat="45.23975" lon="6.03226">
        <ele>2378.6</ele>
        <time>2021-12-19T10:56:10Z</time>
      </trkpt>
      <trkpt lat="45.23976" lon="6.03229">
        <ele>2379.4</ele>
        <time>2021-12-19T10:56:13Z</time>
      </trkpt>
      <trkpt lat="45.23976" lon="6.0323">
        <ele>2379.6</ele>
        <time>2021-12-19T10:56:14Z</time>
      </trkpt>
      <trkpt lat="45.23978" lon="6.03234">
        <ele>2381</ele>
        <time>2021-12-19T10:56:19Z</time>
      </trkpt>
      <trkpt lat="45.23978" lon="6.03234">
        <ele>2381.2</ele>
        <time>2021-12-19T10:56:20Z</time>
      </trkpt>
      <trkpt lat="45.23976" lon="6.0323">
        <ele>2382</ele>
        <time>2021-12-19T10:56:25Z</time>
      </trkpt>
      <trkpt lat="45.23976" lon="6.03229">
        <ele>2382</ele>
        <time>2021-12-19T10:56:26Z</time>
      </trkpt>
      <trkpt lat="45.23977" lon="6.03223">
        <ele>2383</ele>
        <time>2021-12-19T10:56:30Z</time>
      </trkpt>
      <trkpt lat="45.23977" lon="6.03221">
        <ele>2383.2</ele>
        <time>2021-12-19T10:56:31Z</time>
      </trkpt>
      <trkpt lat="45.23977" lon="6.03221">
        <ele>2383.2</ele>
        <time>2021-12-19T10:56:32Z</time>
      </trkpt>
      <trkpt lat="45.23979" lon="6.03217">
        <ele>2384.2</ele>
        <time>2021-12-19T10:56:36Z</time>
      </trkpt>
      <trkpt lat="45.23979" lon="6.03215">
        <ele>2384.4</ele>
        <time>2021-12-19T10:56:37Z</time>
      </trkpt>
      <trkpt lat="45.23979" lon="6.03215">
        <ele>2384.8</ele>
        <time>2021-12-19T10:56:38Z</time>
      </trkpt>
      <trkpt lat="45.2398" lon="6.03212">
        <ele>2385.2</ele>
        <time>2021-12-19T10:56:40Z</time>
      </trkpt>
      <trkpt lat="45.2398" lon="6.03209">
        <ele>2386.2</ele>
        <time>2021-12-19T10:56:43Z</time>
      </trkpt>
      <trkpt lat="45.2398" lon="6.03208">
        <ele>2386.4</ele>
        <time>2021-12-19T10:56:44Z</time>
      </trkpt>
      <trkpt lat="45.2398" lon="6.03207">
        <ele>2386.6</ele>
        <time>2021-12-19T10:56:45Z</time>
      </trkpt>
      <trkpt lat="45.23982" lon="6.03202">
        <ele>2387.6</ele>
        <time>2021-12-19T10:56:50Z</time>
      </trkpt>
      <trkpt lat="45.23982" lon="6.03201">
        <ele>2387.8</ele>
        <time>2021-12-19T10:56:51Z</time>
      </trkpt>
      <trkpt lat="45.23985" lon="6.03201">
        <ele>2388.6</ele>
        <time>2021-12-19T10:56:56Z</time>
      </trkpt>
      <trkpt lat="45.23985" lon="6.03202">
        <ele>2388.8</ele>
        <time>2021-12-19T10:56:57Z</time>
      </trkpt>
      <trkpt lat="45.23988" lon="6.03205">
        <ele>2389</ele>
        <time>2021-12-19T10:57:01Z</time>
      </trkpt>
      <trkpt lat="45.23989" lon="6.03208">
        <ele>2389.4</ele>
        <time>2021-12-19T10:57:04Z</time>
      </trkpt>
      <trkpt lat="45.23991" lon="6.03211">
        <ele>2390</ele>
        <time>2021-12-19T10:57:06Z</time>
      </trkpt>
      <trkpt lat="45.23992" lon="6.03214">
        <ele>2391</ele>
        <time>2021-12-19T10:57:09Z</time>
      </trkpt>
      <trkpt lat="45.23995" lon="6.03219">
        <ele>2392</ele>
        <time>2021-12-19T10:57:13Z</time>
      </trkpt>
      <trkpt lat="45.23995" lon="6.03221">
        <ele>2392.2</ele>
        <time>2021-12-19T10:57:14Z</time>
      </trkpt>
      <trkpt lat="45.24" lon="6.03227">
        <ele>2393.4</ele>
        <time>2021-12-19T10:57:20Z</time>
      </trkpt>
      <trkpt lat="45.24" lon="6.03229">
        <ele>2394.6</ele>
        <time>2021-12-19T10:57:24Z</time>
      </trkpt>
      <trkpt lat="45.24" lon="6.03229">
        <ele>2395</ele>
        <time>2021-12-19T10:57:26Z</time>
      </trkpt>
      <trkpt lat="45.23999" lon="6.03223">
        <ele>2395.8</ele>
        <time>2021-12-19T10:57:31Z</time>
      </trkpt>
      <trkpt lat="45.23999" lon="6.03222">
        <ele>2396</ele>
        <time>2021-12-19T10:57:32Z</time>
      </trkpt>
      <trkpt lat="45.24001" lon="6.03219">
        <ele>2397</ele>
        <time>2021-12-19T10:57:36Z</time>
      </trkpt>
      <trkpt lat="45.24002" lon="6.03215">
        <ele>2397.6</ele>
        <time>2021-12-19T10:57:39Z</time>
      </trkpt>
      <trkpt lat="45.24003" lon="6.03214">
        <ele>2398</ele>
        <time>2021-12-19T10:57:41Z</time>
      </trkpt>
      <trkpt lat="45.24004" lon="6.0321">
        <ele>2399</ele>
        <time>2021-12-19T10:57:45Z</time>
      </trkpt>
      <trkpt lat="45.24004" lon="6.03209">
        <ele>2399.2</ele>
        <time>2021-12-19T10:57:46Z</time>
      </trkpt>
      <trkpt lat="45.24006" lon="6.03204">
        <ele>2400.2</ele>
        <time>2021-12-19T10:57:51Z</time>
      </trkpt>
      <trkpt lat="45.24006" lon="6.03203">
        <ele>2400.4</ele>
        <time>2021-12-19T10:57:52Z</time>
      </trkpt>
      <trkpt lat="45.24008" lon="6.0321">
        <ele>2401</ele>
        <time>2021-12-19T10:57:58Z</time>
      </trkpt>
      <trkpt lat="45.24009" lon="6.03212">
        <ele>2401.6</ele>
        <time>2021-12-19T10:58:00Z</time>
      </trkpt>
      <trkpt lat="45.24012" lon="6.03216">
        <ele>2402.2</ele>
        <time>2021-12-19T10:58:04Z</time>
      </trkpt>
      <trkpt lat="45.24012" lon="6.03218">
        <ele>2402.8</ele>
        <time>2021-12-19T10:58:06Z</time>
      </trkpt>
      <trkpt lat="45.24013" lon="6.03222">
        <ele>2403.4</ele>
        <time>2021-12-19T10:58:10Z</time>
      </trkpt>
      <trkpt lat="45.24013" lon="6.03224">
        <ele>2403.8</ele>
        <time>2021-12-19T10:58:12Z</time>
      </trkpt>
      <trkpt lat="45.24014" lon="6.03228">
        <ele>2405</ele>
        <time>2021-12-19T10:58:17Z</time>
      </trkpt>
      <trkpt lat="45.24015" lon="6.0323">
        <ele>2405.4</ele>
        <time>2021-12-19T10:58:19Z</time>
      </trkpt>
      <trkpt lat="45.24016" lon="6.03232">
        <ele>2406</ele>
        <time>2021-12-19T10:58:21Z</time>
      </trkpt>
      <trkpt lat="45.24017" lon="6.03236">
        <ele>2407.2</ele>
        <time>2021-12-19T10:58:26Z</time>
      </trkpt>
      <trkpt lat="45.24021" lon="6.0324">
        <ele>2408.2</ele>
        <time>2021-12-19T10:58:31Z</time>
      </trkpt>
      <trkpt lat="45.24021" lon="6.03242">
        <ele>2408.6</ele>
        <time>2021-12-19T10:58:33Z</time>
      </trkpt>
      <trkpt lat="45.24022" lon="6.03244">
        <ele>2409.2</ele>
        <time>2021-12-19T10:58:35Z</time>
      </trkpt>
      <trkpt lat="45.24024" lon="6.03247">
        <ele>2410.4</ele>
        <time>2021-12-19T10:58:40Z</time>
      </trkpt>
      <trkpt lat="45.24025" lon="6.03248">
        <ele>2410.6</ele>
        <time>2021-12-19T10:58:41Z</time>
      </trkpt>
      <trkpt lat="45.24025" lon="6.03249">
        <ele>2411.6</ele>
        <time>2021-12-19T10:58:44Z</time>
      </trkpt>
      <trkpt lat="45.24027" lon="6.03252">
        <ele>2412.6</ele>
        <time>2021-12-19T10:58:49Z</time>
      </trkpt>
      <trkpt lat="45.24027" lon="6.03253">
        <ele>2412.8</ele>
        <time>2021-12-19T10:58:50Z</time>
      </trkpt>
      <trkpt lat="45.24028" lon="6.0325">
        <ele>2413.6</ele>
        <time>2021-12-19T10:58:54Z</time>
      </trkpt>
      <trkpt lat="45.24028" lon="6.03248">
        <ele>2414.2</ele>
        <time>2021-12-19T10:58:57Z</time>
      </trkpt>
      <trkpt lat="45.24029" lon="6.03244">
        <ele>2414.8</ele>
        <time>2021-12-19T10:59:00Z</time>
      </trkpt>
      <trkpt lat="45.2403" lon="6.03242">
        <ele>2415.6</ele>
        <time>2021-12-19T10:59:04Z</time>
      </trkpt>
      <trkpt lat="45.2403" lon="6.03241">
        <ele>2415.8</ele>
        <time>2021-12-19T10:59:05Z</time>
      </trkpt>
      <trkpt lat="45.24032" lon="6.03237">
        <ele>2416.8</ele>
        <time>2021-12-19T10:59:10Z</time>
      </trkpt>
      <trkpt lat="45.24033" lon="6.03236">
        <ele>2417</ele>
        <time>2021-12-19T10:59:11Z</time>
      </trkpt>
      <trkpt lat="45.24034" lon="6.03232">
        <ele>2418.2</ele>
        <time>2021-12-19T10:59:15Z</time>
      </trkpt>
      <trkpt lat="45.24035" lon="6.03231">
        <ele>2418.6</ele>
        <time>2021-12-19T10:59:17Z</time>
      </trkpt>
      <trkpt lat="45.24036" lon="6.03228">
        <ele>2419.2</ele>
        <time>2021-12-19T10:59:20Z</time>
      </trkpt>
      <trkpt lat="45.24039" lon="6.03226">
        <ele>2420.2</ele>
        <time>2021-12-19T10:59:25Z</time>
      </trkpt>
      <trkpt lat="45.24041" lon="6.03223">
        <ele>2421</ele>
        <time>2021-12-19T10:59:28Z</time>
      </trkpt>
      <trkpt lat="45.24042" lon="6.03221">
        <ele>2421.4</ele>
        <time>2021-12-19T10:59:30Z</time>
      </trkpt>
      <trkpt lat="45.24043" lon="6.0322">
        <ele>2421.8</ele>
        <time>2021-12-19T10:59:32Z</time>
      </trkpt>
      <trkpt lat="45.24046" lon="6.03219">
        <ele>2422.6</ele>
        <time>2021-12-19T10:59:36Z</time>
      </trkpt>
      <trkpt lat="45.24049" lon="6.03217">
        <ele>2423.4</ele>
        <time>2021-12-19T10:59:40Z</time>
      </trkpt>
      <trkpt lat="45.24051" lon="6.03216">
        <ele>2423.8</ele>
        <time>2021-12-19T10:59:42Z</time>
      </trkpt>
      <trkpt lat="45.24054" lon="6.03214">
        <ele>2425</ele>
        <time>2021-12-19T10:59:47Z</time>
      </trkpt>
      <trkpt lat="45.24058" lon="6.03215">
        <ele>2425.8</ele>
        <time>2021-12-19T10:59:51Z</time>
      </trkpt>
      <trkpt lat="45.24059" lon="6.03215">
        <ele>2426</ele>
        <time>2021-12-19T10:59:52Z</time>
      </trkpt>
      <trkpt lat="45.24063" lon="6.03217">
        <ele>2427.4</ele>
        <time>2021-12-19T10:59:57Z</time>
      </trkpt>
      <trkpt lat="45.24064" lon="6.03218">
        <ele>2428</ele>
        <time>2021-12-19T10:59:59Z</time>
      </trkpt>
      <trkpt lat="45.24065" lon="6.03222">
        <ele>2428.4</ele>
        <time>2021-12-19T11:00:02Z</time>
      </trkpt>
      <trkpt lat="45.24066" lon="6.03226">
        <ele>2429.6</ele>
        <time>2021-12-19T11:00:06Z</time>
      </trkpt>
      <trkpt lat="45.24067" lon="6.03229">
        <ele>2430</ele>
        <time>2021-12-19T11:00:09Z</time>
      </trkpt>
      <trkpt lat="45.24069" lon="6.03232">
        <ele>2430.6</ele>
        <time>2021-12-19T11:00:12Z</time>
      </trkpt>
      <trkpt lat="45.24071" lon="6.03233">
        <ele>2431.6</ele>
        <time>2021-12-19T11:00:15Z</time>
      </trkpt>
      <trkpt lat="45.24073" lon="6.03233">
        <ele>2432.4</ele>
        <time>2021-12-19T11:00:18Z</time>
      </trkpt>
      <trkpt lat="45.24074" lon="6.03233">
        <ele>2432.8</ele>
        <time>2021-12-19T11:00:20Z</time>
      </trkpt>
      <trkpt lat="45.24076" lon="6.03234">
        <ele>2434</ele>
        <time>2021-12-19T11:00:24Z</time>
      </trkpt>
      <trkpt lat="45.24078" lon="6.03234">
        <ele>2434.8</ele>
        <time>2021-12-19T11:00:27Z</time>
      </trkpt>
      <trkpt lat="45.24078" lon="6.03234">
        <ele>2435</ele>
        <time>2021-12-19T11:00:28Z</time>
      </trkpt>
      <trkpt lat="45.24082" lon="6.03233">
        <ele>2436</ele>
        <time>2021-12-19T11:00:33Z</time>
      </trkpt>
      <trkpt lat="45.24083" lon="6.03234">
        <ele>2436.8</ele>
        <time>2021-12-19T11:00:36Z</time>
      </trkpt>
      <trkpt lat="45.24084" lon="6.03235">
        <ele>2437.2</ele>
        <time>2021-12-19T11:00:37Z</time>
      </trkpt>
      <trkpt lat="45.24087" lon="6.03236">
        <ele>2438.4</ele>
        <time>2021-12-19T11:00:42Z</time>
      </trkpt>
      <trkpt lat="45.24088" lon="6.03236">
        <ele>2439</ele>
        <time>2021-12-19T11:00:45Z</time>
      </trkpt>
      <trkpt lat="45.2409" lon="6.03237">
        <ele>2439.4</ele>
        <time>2021-12-19T11:00:48Z</time>
      </trkpt>
      <trkpt lat="45.24092" lon="6.0324">
        <ele>2440.6</ele>
        <time>2021-12-19T11:00:53Z</time>
      </trkpt>
      <trkpt lat="45.24093" lon="6.03241">
        <ele>2441.2</ele>
        <time>2021-12-19T11:00:56Z</time>
      </trkpt>
      <trkpt lat="45.24094" lon="6.03243">
        <ele>2441.8</ele>
        <time>2021-12-19T11:00:58Z</time>
      </trkpt>
      <trkpt lat="45.24095" lon="6.03245">
        <ele>2442.8</ele>
        <time>2021-12-19T11:01:01Z</time>
      </trkpt>
      <trkpt lat="45.24096" lon="6.03245">
        <ele>2443</ele>
        <time>2021-12-19T11:01:02Z</time>
      </trkpt>
      <trkpt lat="45.24097" lon="6.03249">
        <ele>2444</ele>
        <time>2021-12-19T11:01:07Z</time>
      </trkpt>
      <trkpt lat="45.241" lon="6.03253">
        <ele>2445</ele>
        <time>2021-12-19T11:01:12Z</time>
      </trkpt>
      <trkpt lat="45.241" lon="6.03254">
        <ele>2445.4</ele>
        <time>2021-12-19T11:01:13Z</time>
      </trkpt>
      <trkpt lat="45.24102" lon="6.03258">
        <ele>2446.2</ele>
        <time>2021-12-19T11:01:17Z</time>
      </trkpt>
      <trkpt lat="45.24106" lon="6.03261">
        <ele>2447.2</ele>
        <time>2021-12-19T11:01:22Z</time>
      </trkpt>
      <trkpt lat="45.24106" lon="6.03261">
        <ele>2447.4</ele>
        <time>2021-12-19T11:01:23Z</time>
      </trkpt>
      <trkpt lat="45.24107" lon="6.03265">
        <ele>2448.6</ele>
        <time>2021-12-19T11:01:28Z</time>
      </trkpt>
      <trkpt lat="45.24108" lon="6.03268">
        <ele>2449.4</ele>
        <time>2021-12-19T11:01:32Z</time>
      </trkpt>
      <trkpt lat="45.24109" lon="6.03268">
        <ele>2449.8</ele>
        <time>2021-12-19T11:01:33Z</time>
      </trkpt>
      <trkpt lat="45.2411" lon="6.03272">
        <ele>2450.8</ele>
        <time>2021-12-19T11:01:37Z</time>
      </trkpt>
      <trkpt lat="45.24111" lon="6.03273">
        <ele>2451.4</ele>
        <time>2021-12-19T11:01:39Z</time>
      </trkpt>
      <trkpt lat="45.24112" lon="6.03275">
        <ele>2452.2</ele>
        <time>2021-12-19T11:01:42Z</time>
      </trkpt>
      <trkpt lat="45.24114" lon="6.03276">
        <ele>2453.2</ele>
        <time>2021-12-19T11:01:46Z</time>
      </trkpt>
      <trkpt lat="45.24115" lon="6.03277">
        <ele>2453.4</ele>
        <time>2021-12-19T11:01:47Z</time>
      </trkpt>
      <trkpt lat="45.24118" lon="6.03279">
        <ele>2454.6</ele>
        <time>2021-12-19T11:01:52Z</time>
      </trkpt>
      <trkpt lat="45.24121" lon="6.03282">
        <ele>2455.8</ele>
        <time>2021-12-19T11:01:57Z</time>
      </trkpt>
      <trkpt lat="45.24121" lon="6.03283">
        <ele>2456</ele>
        <time>2021-12-19T11:01:58Z</time>
      </trkpt>
      <trkpt lat="45.24124" lon="6.03285">
        <ele>2456.8</ele>
        <time>2021-12-19T11:02:02Z</time>
      </trkpt>
      <trkpt lat="45.24126" lon="6.03287">
        <ele>2458</ele>
        <time>2021-12-19T11:02:05Z</time>
      </trkpt>
      <trkpt lat="45.24128" lon="6.03289">
        <ele>2458.6</ele>
        <time>2021-12-19T11:02:08Z</time>
      </trkpt>
      <trkpt lat="45.2413" lon="6.03291">
        <ele>2459</ele>
        <time>2021-12-19T11:02:10Z</time>
      </trkpt>
      <trkpt lat="45.24133" lon="6.03295">
        <ele>2460</ele>
        <time>2021-12-19T11:02:15Z</time>
      </trkpt>
      <trkpt lat="45.24134" lon="6.03297">
        <ele>2461</ele>
        <time>2021-12-19T11:02:18Z</time>
      </trkpt>
      <trkpt lat="45.24135" lon="6.03298">
        <ele>2461.2</ele>
        <time>2021-12-19T11:02:19Z</time>
      </trkpt>
      <trkpt lat="45.24136" lon="6.03301">
        <ele>2462.6</ele>
        <time>2021-12-19T11:02:23Z</time>
      </trkpt>
      <trkpt lat="45.24137" lon="6.03303">
        <ele>2463.2</ele>
        <time>2021-12-19T11:02:25Z</time>
      </trkpt>
      <trkpt lat="45.24139" lon="6.03306">
        <ele>2463.6</ele>
        <time>2021-12-19T11:02:28Z</time>
      </trkpt>
      <trkpt lat="45.24142" lon="6.0331">
        <ele>2464.6</ele>
        <time>2021-12-19T11:02:33Z</time>
      </trkpt>
      <trkpt lat="45.24143" lon="6.03311">
        <ele>2464.8</ele>
        <time>2021-12-19T11:02:34Z</time>
      </trkpt>
      <trkpt lat="45.24146" lon="6.03312">
        <ele>2465.6</ele>
        <time>2021-12-19T11:02:38Z</time>
      </trkpt>
      <trkpt lat="45.24147" lon="6.03313">
        <ele>2465.8</ele>
        <time>2021-12-19T11:02:40Z</time>
      </trkpt>
      <trkpt lat="45.24149" lon="6.03314">
        <ele>2466.2</ele>
        <time>2021-12-19T11:02:42Z</time>
      </trkpt>
      <trkpt lat="45.24152" lon="6.03316">
        <ele>2466.6</ele>
        <time>2021-12-19T11:02:47Z</time>
      </trkpt>
      <trkpt lat="45.24153" lon="6.03316">
        <ele>2466.8</ele>
        <time>2021-12-19T11:02:48Z</time>
      </trkpt>
      <trkpt lat="45.24154" lon="6.03316">
        <ele>2467</ele>
        <time>2021-12-19T11:02:49Z</time>
      </trkpt>
      <trkpt lat="45.24156" lon="6.03316">
        <ele>2467.8</ele>
        <time>2021-12-19T11:02:53Z</time>
      </trkpt>
      <trkpt lat="45.2416" lon="6.03317">
        <ele>2468.4</ele>
        <time>2021-12-19T11:02:58Z</time>
      </trkpt>
      <trkpt lat="45.24168" lon="6.03322">
        <ele>2468.8</ele>
        <time>2021-12-19T11:03:06Z</time>
      </trkpt>
      <trkpt lat="45.24169" lon="6.03322">
        <ele>2468.8</ele>
        <time>2021-12-19T11:03:07Z</time>
      </trkpt>
      <trkpt lat="45.24175" lon="6.03321">
        <ele>2469.4</ele>
        <time>2021-12-19T11:03:13Z</time>
      </trkpt>
      <trkpt lat="45.24176" lon="6.03319">
        <ele>2470.2</ele>
        <time>2021-12-19T11:03:15Z</time>
      </trkpt>
      <trkpt lat="45.24177" lon="6.03314">
        <ele>2471.2</ele>
        <time>2021-12-19T11:03:21Z</time>
      </trkpt>
      <trkpt lat="45.24175" lon="6.03313">
        <ele>2472.2</ele>
        <time>2021-12-19T11:03:24Z</time>
      </trkpt>
      <trkpt lat="45.24173" lon="6.0331">
        <ele>2473.6</ele>
        <time>2021-12-19T11:03:28Z</time>
      </trkpt>
      <trkpt lat="45.24172" lon="6.03309">
        <ele>2473.8</ele>
        <time>2021-12-19T11:03:29Z</time>
      </trkpt>
      <trkpt lat="45.24171" lon="6.03307">
        <ele>2474.8</ele>
        <time>2021-12-19T11:03:32Z</time>
      </trkpt>
      <trkpt lat="45.24168" lon="6.03303">
        <ele>2475.8</ele>
        <time>2021-12-19T11:03:37Z</time>
      </trkpt>
      <trkpt lat="45.24164" lon="6.03302">
        <ele>2476.6</ele>
        <time>2021-12-19T11:03:42Z</time>
      </trkpt>
      <trkpt lat="45.24163" lon="6.033">
        <ele>2476.8</ele>
        <time>2021-12-19T11:03:45Z</time>
      </trkpt>
      <trkpt lat="45.24163" lon="6.03299">
        <ele>2477</ele>
        <time>2021-12-19T11:03:48Z</time>
      </trkpt>
      <trkpt lat="45.24162" lon="6.03298">
        <ele>2477</ele>
        <time>2021-12-19T11:03:53Z</time>
      </trkpt>
      <trkpt lat="45.24161" lon="6.03295">
        <ele>2476.4</ele>
        <time>2021-12-19T11:04:29Z</time>
      </trkpt>
      <trkpt lat="45.24164" lon="6.033">
        <ele>2476</ele>
        <time>2021-12-19T11:05:17Z</time>
      </trkpt>
      <trkpt lat="45.24163" lon="6.033">
        <ele>2476</ele>
        <time>2021-12-19T11:05:55Z</time>
      </trkpt>
      <trkpt lat="45.24164" lon="6.033">
        <ele>2476</ele>
        <time>2021-12-19T11:06:24Z</time>
      </trkpt>
      <trkpt lat="45.24163" lon="6.033">
        <ele>2476</ele>
        <time>2021-12-19T11:06:53Z</time>
      </trkpt>
      <trkpt lat="45.24163" lon="6.033">
        <ele>2476</ele>
        <time>2021-12-19T11:07:21Z</time>
      </trkpt>
      <trkpt lat="45.24163" lon="6.03299">
        <ele>2476</ele>
        <time>2021-12-19T11:09:14Z</time>
      </trkpt>
      <trkpt lat="45.24163" lon="6.03299">
        <ele>2476</ele>
        <time>2021-12-19T11:10:28Z</time>
      </trkpt>
      <trkpt lat="45.24166" lon="6.03304">
        <ele>2476</ele>
        <time>2021-12-19T11:10:53Z</time>
      </trkpt>
      <trkpt lat="45.24174" lon="6.0331">
        <ele>2476</ele>
        <time>2021-12-19T11:10:57Z</time>
      </trkpt>
      <trkpt lat="45.24176" lon="6.03315">
        <ele>2476</ele>
        <time>2021-12-19T11:10:58Z</time>
      </trkpt>
      <trkpt lat="45.24176" lon="6.03318">
        <ele>2474</ele>
        <time>2021-12-19T11:10:59Z</time>
      </trkpt>
      <trkpt lat="45.24175" lon="6.0332">
        <ele>2472.8</ele>
        <time>2021-12-19T11:11:00Z</time>
      </trkpt>
      <trkpt lat="45.24172" lon="6.03323">
        <ele>2471.4</ele>
        <time>2021-12-19T11:11:02Z</time>
      </trkpt>
      <trkpt lat="45.24166" lon="6.03323">
        <ele>2470.6</ele>
        <time>2021-12-19T11:11:04Z</time>
      </trkpt>
      <trkpt lat="45.24162" lon="6.03322">
        <ele>2470.4</ele>
        <time>2021-12-19T11:11:05Z</time>
      </trkpt>
      <trkpt lat="45.2415" lon="6.03316">
        <ele>2469</ele>
        <time>2021-12-19T11:11:09Z</time>
      </trkpt>
      <trkpt lat="45.24147" lon="6.03314">
        <ele>2468.8</ele>
        <time>2021-12-19T11:11:10Z</time>
      </trkpt>
      <trkpt lat="45.2414" lon="6.03307">
        <ele>2467.8</ele>
        <time>2021-12-19T11:11:13Z</time>
      </trkpt>
      <trkpt lat="45.24133" lon="6.03301">
        <ele>2467.2</ele>
        <time>2021-12-19T11:11:15Z</time>
      </trkpt>
      <trkpt lat="45.24131" lon="6.03297">
        <ele>2465.4</ele>
        <time>2021-12-19T11:11:16Z</time>
      </trkpt>
      <trkpt lat="45.2413" lon="6.03293">
        <ele>2464</ele>
        <time>2021-12-19T11:11:17Z</time>
      </trkpt>
      <trkpt lat="45.2413" lon="6.03289">
        <ele>2463.2</ele>
        <time>2021-12-19T11:11:18Z</time>
      </trkpt>
      <trkpt lat="45.24129" lon="6.03286">
        <ele>2462.4</ele>
        <time>2021-12-19T11:11:19Z</time>
      </trkpt>
      <trkpt lat="45.24127" lon="6.03275">
        <ele>2461</ele>
        <time>2021-12-19T11:11:22Z</time>
      </trkpt>
      <trkpt lat="45.24126" lon="6.03275">
        <ele>2460.8</ele>
        <time>2021-12-19T11:11:23Z</time>
      </trkpt>
      <trkpt lat="45.24126" lon="6.03275">
        <ele>2460.6</ele>
        <time>2021-12-19T11:11:27Z</time>
      </trkpt>
      <trkpt lat="45.24125" lon="6.03275">
        <ele>2460.2</ele>
        <time>2021-12-19T11:11:39Z</time>
      </trkpt>
      <trkpt lat="45.24124" lon="6.03276">
        <ele>2460</ele>
        <time>2021-12-19T11:11:47Z</time>
      </trkpt>
      <trkpt lat="45.24123" lon="6.03276">
        <ele>2459.6</ele>
        <time>2021-12-19T11:12:13Z</time>
      </trkpt>
      <trkpt lat="45.24122" lon="6.03277">
        <ele>2459</ele>
        <time>2021-12-19T11:12:35Z</time>
      </trkpt>
      <trkpt lat="45.24121" lon="6.03277">
        <ele>2458.4</ele>
        <time>2021-12-19T11:13:01Z</time>
      </trkpt>
      <trkpt lat="45.2412" lon="6.03278">
        <ele>2458.2</ele>
        <time>2021-12-19T11:13:45Z</time>
      </trkpt>
      <trkpt lat="45.24119" lon="6.03278">
        <ele>2458</ele>
        <time>2021-12-19T11:13:51Z</time>
      </trkpt>
      <trkpt lat="45.24118" lon="6.03279">
        <ele>2457.4</ele>
        <time>2021-12-19T11:13:52Z</time>
      </trkpt>
      <trkpt lat="45.24114" lon="6.03277">
        <ele>2456.2</ele>
        <time>2021-12-19T11:13:53Z</time>
      </trkpt>
      <trkpt lat="45.24111" lon="6.03272">
        <ele>2454.8</ele>
        <time>2021-12-19T11:13:54Z</time>
      </trkpt>
      <trkpt lat="45.24112" lon="6.03267">
        <ele>2453</ele>
        <time>2021-12-19T11:13:55Z</time>
      </trkpt>
      <trkpt lat="45.24113" lon="6.0326">
        <ele>2451</ele>
        <time>2021-12-19T11:13:56Z</time>
      </trkpt>
      <trkpt lat="45.24113" lon="6.03253">
        <ele>2450</ele>
        <time>2021-12-19T11:13:57Z</time>
      </trkpt>
      <trkpt lat="45.2411" lon="6.03248">
        <ele>2449</ele>
        <time>2021-12-19T11:13:58Z</time>
      </trkpt>
      <trkpt lat="45.24105" lon="6.03245">
        <ele>2448</ele>
        <time>2021-12-19T11:13:59Z</time>
      </trkpt>
      <trkpt lat="45.24102" lon="6.03241">
        <ele>2447</ele>
        <time>2021-12-19T11:14:00Z</time>
      </trkpt>
      <trkpt lat="45.241" lon="6.03234">
        <ele>2445.8</ele>
        <time>2021-12-19T11:14:01Z</time>
      </trkpt>
      <trkpt lat="45.24098" lon="6.03227">
        <ele>2444.8</ele>
        <time>2021-12-19T11:14:02Z</time>
      </trkpt>
      <trkpt lat="45.24095" lon="6.03221">
        <ele>2443.4</ele>
        <time>2021-12-19T11:14:03Z</time>
      </trkpt>
      <trkpt lat="45.24088" lon="6.0321">
        <ele>2440.6</ele>
        <time>2021-12-19T11:14:05Z</time>
      </trkpt>
      <trkpt lat="45.24085" lon="6.03204">
        <ele>2439.4</ele>
        <time>2021-12-19T11:14:06Z</time>
      </trkpt>
      <trkpt lat="45.24077" lon="6.0319">
        <ele>2438</ele>
        <time>2021-12-19T11:14:08Z</time>
      </trkpt>
      <trkpt lat="45.24073" lon="6.03184">
        <ele>2436.8</ele>
        <time>2021-12-19T11:14:09Z</time>
      </trkpt>
      <trkpt lat="45.24065" lon="6.03171">
        <ele>2435</ele>
        <time>2021-12-19T11:14:11Z</time>
      </trkpt>
      <trkpt lat="45.24053" lon="6.03152">
        <ele>2433.8</ele>
        <time>2021-12-19T11:14:14Z</time>
      </trkpt>
      <trkpt lat="45.24045" lon="6.03143">
        <ele>2432.8</ele>
        <time>2021-12-19T11:14:16Z</time>
      </trkpt>
      <trkpt lat="45.24041" lon="6.03139">
        <ele>2432.6</ele>
        <time>2021-12-19T11:14:17Z</time>
      </trkpt>
      <trkpt lat="45.24026" lon="6.03123">
        <ele>2432.2</ele>
        <time>2021-12-19T11:14:22Z</time>
      </trkpt>
      <trkpt lat="45.24023" lon="6.03121">
        <ele>2432</ele>
        <time>2021-12-19T11:14:23Z</time>
      </trkpt>
      <trkpt lat="45.24018" lon="6.03115">
        <ele>2431.8</ele>
        <time>2021-12-19T11:14:25Z</time>
      </trkpt>
      <trkpt lat="45.24012" lon="6.03109">
        <ele>2431.2</ele>
        <time>2021-12-19T11:14:27Z</time>
      </trkpt>
      <trkpt lat="45.24007" lon="6.03103">
        <ele>2430.6</ele>
        <time>2021-12-19T11:14:29Z</time>
      </trkpt>
      <trkpt lat="45.23996" lon="6.03089">
        <ele>2429.8</ele>
        <time>2021-12-19T11:14:33Z</time>
      </trkpt>
      <trkpt lat="45.23994" lon="6.03084">
        <ele>2429</ele>
        <time>2021-12-19T11:14:34Z</time>
      </trkpt>
      <trkpt lat="45.23994" lon="6.03079">
        <ele>2427.8</ele>
        <time>2021-12-19T11:14:35Z</time>
      </trkpt>
      <trkpt lat="45.23993" lon="6.03075">
        <ele>2427</ele>
        <time>2021-12-19T11:14:36Z</time>
      </trkpt>
      <trkpt lat="45.2399" lon="6.03071">
        <ele>2426.4</ele>
        <time>2021-12-19T11:14:37Z</time>
      </trkpt>
      <trkpt lat="45.23988" lon="6.03065">
        <ele>2425.4</ele>
        <time>2021-12-19T11:14:38Z</time>
      </trkpt>
      <trkpt lat="45.23987" lon="6.03059">
        <ele>2423.6</ele>
        <time>2021-12-19T11:14:39Z</time>
      </trkpt>
      <trkpt lat="45.23981" lon="6.03046">
        <ele>2421.2</ele>
        <time>2021-12-19T11:14:41Z</time>
      </trkpt>
      <trkpt lat="45.23979" lon="6.0304">
        <ele>2420</ele>
        <time>2021-12-19T11:14:42Z</time>
      </trkpt>
      <trkpt lat="45.2398" lon="6.03036">
        <ele>2418.6</ele>
        <time>2021-12-19T11:14:43Z</time>
      </trkpt>
      <trkpt lat="45.23979" lon="6.03034">
        <ele>2417.8</ele>
        <time>2021-12-19T11:14:44Z</time>
      </trkpt>
      <trkpt lat="45.23979" lon="6.03034">
        <ele>2417.2</ele>
        <time>2021-12-19T11:14:45Z</time>
      </trkpt>
      <trkpt lat="45.23978" lon="6.03032">
        <ele>2416.6</ele>
        <time>2021-12-19T11:14:47Z</time>
      </trkpt>
      <trkpt lat="45.23976" lon="6.03031">
        <ele>2416.6</ele>
        <time>2021-12-19T11:14:48Z</time>
      </trkpt>
      <trkpt lat="45.23968" lon="6.03025">
        <ele>2415.6</ele>
        <time>2021-12-19T11:14:51Z</time>
      </trkpt>
      <trkpt lat="45.23966" lon="6.03021">
        <ele>2415.2</ele>
        <time>2021-12-19T11:14:52Z</time>
      </trkpt>
      <trkpt lat="45.23961" lon="6.03014">
        <ele>2414.4</ele>
        <time>2021-12-19T11:14:54Z</time>
      </trkpt>
      <trkpt lat="45.23956" lon="6.03003">
        <ele>2413.2</ele>
        <time>2021-12-19T11:14:57Z</time>
      </trkpt>
      <trkpt lat="45.23956" lon="6.02985">
        <ele>2412</ele>
        <time>2021-12-19T11:15:00Z</time>
      </trkpt>
      <trkpt lat="45.23956" lon="6.02977">
        <ele>2410.4</ele>
        <time>2021-12-19T11:15:01Z</time>
      </trkpt>
      <trkpt lat="45.23956" lon="6.02971">
        <ele>2409.6</ele>
        <time>2021-12-19T11:15:02Z</time>
      </trkpt>
      <trkpt lat="45.23956" lon="6.02967">
        <ele>2408.8</ele>
        <time>2021-12-19T11:15:03Z</time>
      </trkpt>
      <trkpt lat="45.23955" lon="6.02964">
        <ele>2407.8</ele>
        <time>2021-12-19T11:15:05Z</time>
      </trkpt>
      <trkpt lat="45.23953" lon="6.02962">
        <ele>2407.6</ele>
        <time>2021-12-19T11:15:06Z</time>
      </trkpt>
      <trkpt lat="45.23951" lon="6.02958">
        <ele>2407.4</ele>
        <time>2021-12-19T11:15:07Z</time>
      </trkpt>
      <trkpt lat="45.23949" lon="6.02953">
        <ele>2406.2</ele>
        <time>2021-12-19T11:15:08Z</time>
      </trkpt>
      <trkpt lat="45.23947" lon="6.02949">
        <ele>2404.4</ele>
        <time>2021-12-19T11:15:09Z</time>
      </trkpt>
      <trkpt lat="45.23945" lon="6.02945">
        <ele>2403.4</ele>
        <time>2021-12-19T11:15:10Z</time>
      </trkpt>
      <trkpt lat="45.23941" lon="6.02942">
        <ele>2403</ele>
        <time>2021-12-19T11:15:11Z</time>
      </trkpt>
      <trkpt lat="45.23937" lon="6.02936">
        <ele>2401.2</ele>
        <time>2021-12-19T11:15:12Z</time>
      </trkpt>
      <trkpt lat="45.23937" lon="6.02932">
        <ele>2399.2</ele>
        <time>2021-12-19T11:15:13Z</time>
      </trkpt>
      <trkpt lat="45.23937" lon="6.02929">
        <ele>2398</ele>
        <time>2021-12-19T11:15:14Z</time>
      </trkpt>
      <trkpt lat="45.23936" lon="6.02926">
        <ele>2397.4</ele>
        <time>2021-12-19T11:15:15Z</time>
      </trkpt>
      <trkpt lat="45.23934" lon="6.02925">
        <ele>2397</ele>
        <time>2021-12-19T11:15:16Z</time>
      </trkpt>
      <trkpt lat="45.2393" lon="6.02922">
        <ele>2396.4</ele>
        <time>2021-12-19T11:15:18Z</time>
      </trkpt>
      <trkpt lat="45.2393" lon="6.02919">
        <ele>2395.6</ele>
        <time>2021-12-19T11:15:19Z</time>
      </trkpt>
      <trkpt lat="45.2393" lon="6.02912">
        <ele>2394.2</ele>
        <time>2021-12-19T11:15:21Z</time>
      </trkpt>
      <trkpt lat="45.23928" lon="6.02898">
        <ele>2393</ele>
        <time>2021-12-19T11:15:23Z</time>
      </trkpt>
      <trkpt lat="45.23925" lon="6.02889">
        <ele>2391.8</ele>
        <time>2021-12-19T11:15:25Z</time>
      </trkpt>
      <trkpt lat="45.23923" lon="6.02884">
        <ele>2391.6</ele>
        <time>2021-12-19T11:15:26Z</time>
      </trkpt>
      <trkpt lat="45.23921" lon="6.02878">
        <ele>2390.8</ele>
        <time>2021-12-19T11:15:27Z</time>
      </trkpt>
      <trkpt lat="45.23918" lon="6.02873">
        <ele>2389.4</ele>
        <time>2021-12-19T11:15:28Z</time>
      </trkpt>
      <trkpt lat="45.23916" lon="6.02867">
        <ele>2387.8</ele>
        <time>2021-12-19T11:15:29Z</time>
      </trkpt>
      <trkpt lat="45.23914" lon="6.0286">
        <ele>2386.6</ele>
        <time>2021-12-19T11:15:30Z</time>
      </trkpt>
      <trkpt lat="45.23911" lon="6.02853">
        <ele>2384.8</ele>
        <time>2021-12-19T11:15:31Z</time>
      </trkpt>
      <trkpt lat="45.23909" lon="6.02845">
        <ele>2382.8</ele>
        <time>2021-12-19T11:15:32Z</time>
      </trkpt>
      <trkpt lat="45.23906" lon="6.02837">
        <ele>2381.6</ele>
        <time>2021-12-19T11:15:33Z</time>
      </trkpt>
      <trkpt lat="45.23902" lon="6.02829">
        <ele>2381</ele>
        <time>2021-12-19T11:15:34Z</time>
      </trkpt>
      <trkpt lat="45.23897" lon="6.02822">
        <ele>2380</ele>
        <time>2021-12-19T11:15:35Z</time>
      </trkpt>
      <trkpt lat="45.23891" lon="6.02816">
        <ele>2378.6</ele>
        <time>2021-12-19T11:15:36Z</time>
      </trkpt>
      <trkpt lat="45.23881" lon="6.02809">
        <ele>2377.2</ele>
        <time>2021-12-19T11:15:38Z</time>
      </trkpt>
      <trkpt lat="45.23877" lon="6.02807">
        <ele>2377</ele>
        <time>2021-12-19T11:15:39Z</time>
      </trkpt>
      <trkpt lat="45.23874" lon="6.02806">
        <ele>2376.8</ele>
        <time>2021-12-19T11:15:40Z</time>
      </trkpt>
      <trkpt lat="45.23866" lon="6.02802">
        <ele>2376.2</ele>
        <time>2021-12-19T11:15:42Z</time>
      </trkpt>
      <trkpt lat="45.23854" lon="6.0279">
        <ele>2375.4</ele>
        <time>2021-12-19T11:15:46Z</time>
      </trkpt>
      <trkpt lat="45.23851" lon="6.02784">
        <ele>2375.2</ele>
        <time>2021-12-19T11:15:48Z</time>
      </trkpt>
      <trkpt lat="45.23848" lon="6.02781">
        <ele>2374.8</ele>
        <time>2021-12-19T11:15:49Z</time>
      </trkpt>
      <trkpt lat="45.2384" lon="6.02777">
        <ele>2374</ele>
        <time>2021-12-19T11:15:52Z</time>
      </trkpt>
      <trkpt lat="45.23834" lon="6.02773">
        <ele>2372.8</ele>
        <time>2021-12-19T11:15:54Z</time>
      </trkpt>
      <trkpt lat="45.23828" lon="6.02767">
        <ele>2371.6</ele>
        <time>2021-12-19T11:15:56Z</time>
      </trkpt>
      <trkpt lat="45.23826" lon="6.02765">
        <ele>2371.4</ele>
        <time>2021-12-19T11:15:57Z</time>
      </trkpt>
      <trkpt lat="45.23822" lon="6.02759">
        <ele>2370.6</ele>
        <time>2021-12-19T11:15:59Z</time>
      </trkpt>
      <trkpt lat="45.23817" lon="6.02753">
        <ele>2369.6</ele>
        <time>2021-12-19T11:16:01Z</time>
      </trkpt>
      <trkpt lat="45.23811" lon="6.02743">
        <ele>2368.4</ele>
        <time>2021-12-19T11:16:04Z</time>
      </trkpt>
      <trkpt lat="45.23808" lon="6.0274">
        <ele>2367.6</ele>
        <time>2021-12-19T11:16:05Z</time>
      </trkpt>
      <trkpt lat="45.23805" lon="6.02736">
        <ele>2366.8</ele>
        <time>2021-12-19T11:16:06Z</time>
      </trkpt>
      <trkpt lat="45.23798" lon="6.02731">
        <ele>2365.4</ele>
        <time>2021-12-19T11:16:08Z</time>
      </trkpt>
      <trkpt lat="45.23791" lon="6.02727">
        <ele>2363.6</ele>
        <time>2021-12-19T11:16:10Z</time>
      </trkpt>
      <trkpt lat="45.23787" lon="6.02724">
        <ele>2362</ele>
        <time>2021-12-19T11:16:11Z</time>
      </trkpt>
      <trkpt lat="45.23783" lon="6.02721">
        <ele>2360.2</ele>
        <time>2021-12-19T11:16:12Z</time>
      </trkpt>
      <trkpt lat="45.23779" lon="6.02717">
        <ele>2359.2</ele>
        <time>2021-12-19T11:16:13Z</time>
      </trkpt>
      <trkpt lat="45.23774" lon="6.0271">
        <ele>2358</ele>
        <time>2021-12-19T11:16:15Z</time>
      </trkpt>
      <trkpt lat="45.23772" lon="6.02708">
        <ele>2357.4</ele>
        <time>2021-12-19T11:16:16Z</time>
      </trkpt>
      <trkpt lat="45.23766" lon="6.02702">
        <ele>2357</ele>
        <time>2021-12-19T11:16:20Z</time>
      </trkpt>
      <trkpt lat="45.23764" lon="6.027">
        <ele>2357</ele>
        <time>2021-12-19T11:16:21Z</time>
      </trkpt>
      <trkpt lat="45.23753" lon="6.02687">
        <ele>2355.2</ele>
        <time>2021-12-19T11:16:24Z</time>
      </trkpt>
      <trkpt lat="45.23748" lon="6.02682">
        <ele>2352</ele>
        <time>2021-12-19T11:16:25Z</time>
      </trkpt>
      <trkpt lat="45.23743" lon="6.02678">
        <ele>2350.2</ele>
        <time>2021-12-19T11:16:26Z</time>
      </trkpt>
      <trkpt lat="45.23739" lon="6.02675">
        <ele>2349</ele>
        <time>2021-12-19T11:16:27Z</time>
      </trkpt>
      <trkpt lat="45.23736" lon="6.02672">
        <ele>2348.2</ele>
        <time>2021-12-19T11:16:28Z</time>
      </trkpt>
      <trkpt lat="45.23733" lon="6.02669">
        <ele>2347.6</ele>
        <time>2021-12-19T11:16:29Z</time>
      </trkpt>
      <trkpt lat="45.23729" lon="6.02667">
        <ele>2347</ele>
        <time>2021-12-19T11:16:30Z</time>
      </trkpt>
      <trkpt lat="45.23725" lon="6.02664">
        <ele>2346.2</ele>
        <time>2021-12-19T11:16:31Z</time>
      </trkpt>
      <trkpt lat="45.23722" lon="6.02662">
        <ele>2345.2</ele>
        <time>2021-12-19T11:16:32Z</time>
      </trkpt>
      <trkpt lat="45.23718" lon="6.02663">
        <ele>2344.2</ele>
        <time>2021-12-19T11:16:33Z</time>
      </trkpt>
      <trkpt lat="45.23714" lon="6.02665">
        <ele>2342.4</ele>
        <time>2021-12-19T11:16:34Z</time>
      </trkpt>
      <trkpt lat="45.23708" lon="6.02667">
        <ele>2339.2</ele>
        <time>2021-12-19T11:16:35Z</time>
      </trkpt>
      <trkpt lat="45.23702" lon="6.02667">
        <ele>2336.2</ele>
        <time>2021-12-19T11:16:36Z</time>
      </trkpt>
      <trkpt lat="45.23697" lon="6.02668">
        <ele>2333.2</ele>
        <time>2021-12-19T11:16:37Z</time>
      </trkpt>
      <trkpt lat="45.23692" lon="6.0267">
        <ele>2331.2</ele>
        <time>2021-12-19T11:16:38Z</time>
      </trkpt>
      <trkpt lat="45.2369" lon="6.02676">
        <ele>2330</ele>
        <time>2021-12-19T11:16:39Z</time>
      </trkpt>
      <trkpt lat="45.23688" lon="6.02683">
        <ele>2328.2</ele>
        <time>2021-12-19T11:16:40Z</time>
      </trkpt>
      <trkpt lat="45.23685" lon="6.02687">
        <ele>2324.6</ele>
        <time>2021-12-19T11:16:41Z</time>
      </trkpt>
      <trkpt lat="45.23684" lon="6.02692">
        <ele>2320.8</ele>
        <time>2021-12-19T11:16:42Z</time>
      </trkpt>
      <trkpt lat="45.23686" lon="6.02698">
        <ele>2318.2</ele>
        <time>2021-12-19T11:16:43Z</time>
      </trkpt>
      <trkpt lat="45.23686" lon="6.02705">
        <ele>2315</ele>
        <time>2021-12-19T11:16:44Z</time>
      </trkpt>
      <trkpt lat="45.23684" lon="6.02711">
        <ele>2312.4</ele>
        <time>2021-12-19T11:16:45Z</time>
      </trkpt>
      <trkpt lat="45.23682" lon="6.02713">
        <ele>2308.6</ele>
        <time>2021-12-19T11:16:46Z</time>
      </trkpt>
      <trkpt lat="45.2368" lon="6.02715">
        <ele>2304.8</ele>
        <time>2021-12-19T11:16:47Z</time>
      </trkpt>
      <trkpt lat="45.2368" lon="6.0272">
        <ele>2302.6</ele>
        <time>2021-12-19T11:16:48Z</time>
      </trkpt>
      <trkpt lat="45.23684" lon="6.02726">
        <ele>2299.8</ele>
        <time>2021-12-19T11:16:49Z</time>
      </trkpt>
      <trkpt lat="45.23687" lon="6.02733">
        <ele>2297.2</ele>
        <time>2021-12-19T11:16:50Z</time>
      </trkpt>
      <trkpt lat="45.2369" lon="6.02741">
        <ele>2295</ele>
        <time>2021-12-19T11:16:51Z</time>
      </trkpt>
      <trkpt lat="45.23688" lon="6.02747">
        <ele>2293.4</ele>
        <time>2021-12-19T11:16:52Z</time>
      </trkpt>
      <trkpt lat="45.23684" lon="6.02748">
        <ele>2290.6</ele>
        <time>2021-12-19T11:16:53Z</time>
      </trkpt>
      <trkpt lat="45.23679" lon="6.02747">
        <ele>2287.6</ele>
        <time>2021-12-19T11:16:54Z</time>
      </trkpt>
      <trkpt lat="45.23675" lon="6.02745">
        <ele>2285.2</ele>
        <time>2021-12-19T11:16:55Z</time>
      </trkpt>
      <trkpt lat="45.23672" lon="6.02746">
        <ele>2283.6</ele>
        <time>2021-12-19T11:16:56Z</time>
      </trkpt>
      <trkpt lat="45.2367" lon="6.02751">
        <ele>2282.4</ele>
        <time>2021-12-19T11:16:57Z</time>
      </trkpt>
      <trkpt lat="45.23668" lon="6.02755">
        <ele>2280.6</ele>
        <time>2021-12-19T11:16:58Z</time>
      </trkpt>
      <trkpt lat="45.23664" lon="6.02756">
        <ele>2278.4</ele>
        <time>2021-12-19T11:16:59Z</time>
      </trkpt>
      <trkpt lat="45.23661" lon="6.02754">
        <ele>2275.4</ele>
        <time>2021-12-19T11:17:00Z</time>
      </trkpt>
      <trkpt lat="45.23657" lon="6.02751">
        <ele>2272.8</ele>
        <time>2021-12-19T11:17:01Z</time>
      </trkpt>
      <trkpt lat="45.23655" lon="6.02747">
        <ele>2271</ele>
        <time>2021-12-19T11:17:02Z</time>
      </trkpt>
      <trkpt lat="45.23652" lon="6.02745">
        <ele>2270</ele>
        <time>2021-12-19T11:17:03Z</time>
      </trkpt>
      <trkpt lat="45.23649" lon="6.02743">
        <ele>2269.4</ele>
        <time>2021-12-19T11:17:04Z</time>
      </trkpt>
      <trkpt lat="45.23646" lon="6.02743">
        <ele>2268.8</ele>
        <time>2021-12-19T11:17:05Z</time>
      </trkpt>
      <trkpt lat="45.23643" lon="6.02743">
        <ele>2268.4</ele>
        <time>2021-12-19T11:17:06Z</time>
      </trkpt>
      <trkpt lat="45.23641" lon="6.02745">
        <ele>2267.4</ele>
        <time>2021-12-19T11:17:07Z</time>
      </trkpt>
      <trkpt lat="45.23641" lon="6.02749">
        <ele>2267</ele>
        <time>2021-12-19T11:17:08Z</time>
      </trkpt>
      <trkpt lat="45.23642" lon="6.02753">
        <ele>2265.2</ele>
        <time>2021-12-19T11:17:09Z</time>
      </trkpt>
      <trkpt lat="45.23642" lon="6.02757">
        <ele>2263.2</ele>
        <time>2021-12-19T11:17:10Z</time>
      </trkpt>
      <trkpt lat="45.2364" lon="6.0276">
        <ele>2261.8</ele>
        <time>2021-12-19T11:17:11Z</time>
      </trkpt>
      <trkpt lat="45.23637" lon="6.02761">
        <ele>2260.2</ele>
        <time>2021-12-19T11:17:12Z</time>
      </trkpt>
      <trkpt lat="45.23635" lon="6.02762">
        <ele>2257.8</ele>
        <time>2021-12-19T11:17:13Z</time>
      </trkpt>
      <trkpt lat="45.23632" lon="6.02766">
        <ele>2256.4</ele>
        <time>2021-12-19T11:17:14Z</time>
      </trkpt>
      <trkpt lat="45.23628" lon="6.02769">
        <ele>2254</ele>
        <time>2021-12-19T11:17:15Z</time>
      </trkpt>
      <trkpt lat="45.23622" lon="6.02769">
        <ele>2250.6</ele>
        <time>2021-12-19T11:17:16Z</time>
      </trkpt>
      <trkpt lat="45.23617" lon="6.02768">
        <ele>2247.4</ele>
        <time>2021-12-19T11:17:17Z</time>
      </trkpt>
      <trkpt lat="45.23611" lon="6.02766">
        <ele>2244.4</ele>
        <time>2021-12-19T11:17:18Z</time>
      </trkpt>
      <trkpt lat="45.23606" lon="6.02765">
        <ele>2242.6</ele>
        <time>2021-12-19T11:17:19Z</time>
      </trkpt>
      <trkpt lat="45.236" lon="6.02764">
        <ele>2241.2</ele>
        <time>2021-12-19T11:17:20Z</time>
      </trkpt>
      <trkpt lat="45.2359" lon="6.02761">
        <ele>2239.2</ele>
        <time>2021-12-19T11:17:22Z</time>
      </trkpt>
      <trkpt lat="45.23585" lon="6.0276">
        <ele>2238.4</ele>
        <time>2021-12-19T11:17:23Z</time>
      </trkpt>
      <trkpt lat="45.2358" lon="6.02758">
        <ele>2237.8</ele>
        <time>2021-12-19T11:17:24Z</time>
      </trkpt>
      <trkpt lat="45.2357" lon="6.02755">
        <ele>2236.4</ele>
        <time>2021-12-19T11:17:26Z</time>
      </trkpt>
      <trkpt lat="45.23562" lon="6.0275">
        <ele>2235.4</ele>
        <time>2021-12-19T11:17:28Z</time>
      </trkpt>
      <trkpt lat="45.23559" lon="6.02748">
        <ele>2235.2</ele>
        <time>2021-12-19T11:17:29Z</time>
      </trkpt>
      <trkpt lat="45.23545" lon="6.02739">
        <ele>2234</ele>
        <time>2021-12-19T11:17:33Z</time>
      </trkpt>
      <trkpt lat="45.23538" lon="6.02732">
        <ele>2232.8</ele>
        <time>2021-12-19T11:17:35Z</time>
      </trkpt>
      <trkpt lat="45.23532" lon="6.02728">
        <ele>2231.4</ele>
        <time>2021-12-19T11:17:37Z</time>
      </trkpt>
      <trkpt lat="45.23529" lon="6.02726">
        <ele>2230.8</ele>
        <time>2021-12-19T11:17:39Z</time>
      </trkpt>
      <trkpt lat="45.23529" lon="6.02727">
        <ele>2230.4</ele>
        <time>2021-12-19T11:17:42Z</time>
      </trkpt>
      <trkpt lat="45.2353" lon="6.02727">
        <ele>2230.4</ele>
        <time>2021-12-19T11:17:43Z</time>
      </trkpt>
      <trkpt lat="45.23533" lon="6.02729">
        <ele>2230.4</ele>
        <time>2021-12-19T11:17:52Z</time>
      </trkpt>
      <trkpt lat="45.23533" lon="6.02729">
        <ele>2230</ele>
        <time>2021-12-19T11:18:02Z</time>
      </trkpt>
      <trkpt lat="45.2353" lon="6.02728">
        <ele>2229</ele>
        <time>2021-12-19T11:18:06Z</time>
      </trkpt>
      <trkpt lat="45.23528" lon="6.02729">
        <ele>2228.6</ele>
        <time>2021-12-19T11:18:07Z</time>
      </trkpt>
      <trkpt lat="45.23527" lon="6.02731">
        <ele>2228</ele>
        <time>2021-12-19T11:18:08Z</time>
      </trkpt>
      <trkpt lat="45.23527" lon="6.02736">
        <ele>2226.4</ele>
        <time>2021-12-19T11:18:09Z</time>
      </trkpt>
      <trkpt lat="45.23529" lon="6.02741">
        <ele>2225</ele>
        <time>2021-12-19T11:18:10Z</time>
      </trkpt>
      <trkpt lat="45.23531" lon="6.02746">
        <ele>2223.8</ele>
        <time>2021-12-19T11:18:11Z</time>
      </trkpt>
      <trkpt lat="45.23533" lon="6.02758">
        <ele>2222.6</ele>
        <time>2021-12-19T11:18:13Z</time>
      </trkpt>
      <trkpt lat="45.2353" lon="6.02762">
        <ele>2220.8</ele>
        <time>2021-12-19T11:18:14Z</time>
      </trkpt>
      <trkpt lat="45.23527" lon="6.02762">
        <ele>2219.2</ele>
        <time>2021-12-19T11:18:15Z</time>
      </trkpt>
      <trkpt lat="45.23525" lon="6.02761">
        <ele>2217.8</ele>
        <time>2021-12-19T11:18:16Z</time>
      </trkpt>
      <trkpt lat="45.23523" lon="6.0276">
        <ele>2216.2</ele>
        <time>2021-12-19T11:18:17Z</time>
      </trkpt>
      <trkpt lat="45.2352" lon="6.02761">
        <ele>2214.8</ele>
        <time>2021-12-19T11:18:19Z</time>
      </trkpt>
      <trkpt lat="45.23515" lon="6.02764">
        <ele>2212.6</ele>
        <time>2021-12-19T11:18:21Z</time>
      </trkpt>
      <trkpt lat="45.23513" lon="6.02763">
        <ele>2211</ele>
        <time>2021-12-19T11:18:22Z</time>
      </trkpt>
      <trkpt lat="45.23511" lon="6.02762">
        <ele>2209</ele>
        <time>2021-12-19T11:18:23Z</time>
      </trkpt>
      <trkpt lat="45.23509" lon="6.02762">
        <ele>2207.2</ele>
        <time>2021-12-19T11:18:24Z</time>
      </trkpt>
      <trkpt lat="45.23508" lon="6.02763">
        <ele>2205.8</ele>
        <time>2021-12-19T11:18:25Z</time>
      </trkpt>
      <trkpt lat="45.23506" lon="6.02764">
        <ele>2204.6</ele>
        <time>2021-12-19T11:18:26Z</time>
      </trkpt>
      <trkpt lat="45.23502" lon="6.02763">
        <ele>2202.8</ele>
        <time>2021-12-19T11:18:27Z</time>
      </trkpt>
      <trkpt lat="45.23499" lon="6.0276">
        <ele>2201.4</ele>
        <time>2021-12-19T11:18:28Z</time>
      </trkpt>
      <trkpt lat="45.23495" lon="6.02755">
        <ele>2198.4</ele>
        <time>2021-12-19T11:18:29Z</time>
      </trkpt>
      <trkpt lat="45.23491" lon="6.0275">
        <ele>2196.6</ele>
        <time>2021-12-19T11:18:30Z</time>
      </trkpt>
      <trkpt lat="45.23487" lon="6.02746">
        <ele>2195.4</ele>
        <time>2021-12-19T11:18:31Z</time>
      </trkpt>
      <trkpt lat="45.23482" lon="6.02744">
        <ele>2194.6</ele>
        <time>2021-12-19T11:18:32Z</time>
      </trkpt>
      <trkpt lat="45.23477" lon="6.02742">
        <ele>2194.2</ele>
        <time>2021-12-19T11:18:33Z</time>
      </trkpt>
      <trkpt lat="45.23472" lon="6.0274">
        <ele>2193.6</ele>
        <time>2021-12-19T11:18:34Z</time>
      </trkpt>
      <trkpt lat="45.23466" lon="6.0274">
        <ele>2193.2</ele>
        <time>2021-12-19T11:18:35Z</time>
      </trkpt>
      <trkpt lat="45.2346" lon="6.02739">
        <ele>2191.8</ele>
        <time>2021-12-19T11:18:36Z</time>
      </trkpt>
      <trkpt lat="45.23457" lon="6.02737">
        <ele>2191</ele>
        <time>2021-12-19T11:18:37Z</time>
      </trkpt>
      <trkpt lat="45.23455" lon="6.02736">
        <ele>2190.6</ele>
        <time>2021-12-19T11:18:38Z</time>
      </trkpt>
      <trkpt lat="45.23454" lon="6.02735">
        <ele>2190.2</ele>
        <time>2021-12-19T11:18:39Z</time>
      </trkpt>
      <trkpt lat="45.23453" lon="6.02736">
        <ele>2190</ele>
        <time>2021-12-19T11:18:40Z</time>
      </trkpt>
      <trkpt lat="45.23447" lon="6.02733">
        <ele>2189.4</ele>
        <time>2021-12-19T11:18:42Z</time>
      </trkpt>
      <trkpt lat="45.23443" lon="6.02728">
        <ele>2188.4</ele>
        <time>2021-12-19T11:18:43Z</time>
      </trkpt>
      <trkpt lat="45.2344" lon="6.02723">
        <ele>2187.2</ele>
        <time>2021-12-19T11:18:44Z</time>
      </trkpt>
      <trkpt lat="45.23436" lon="6.02719">
        <ele>2185.6</ele>
        <time>2021-12-19T11:18:45Z</time>
      </trkpt>
      <trkpt lat="45.23428" lon="6.02713">
        <ele>2184</ele>
        <time>2021-12-19T11:18:47Z</time>
      </trkpt>
      <trkpt lat="45.23424" lon="6.02717">
        <ele>2183.6</ele>
        <time>2021-12-19T11:18:48Z</time>
      </trkpt>
      <trkpt lat="45.23419" lon="6.0272">
        <ele>2182.4</ele>
        <time>2021-12-19T11:18:49Z</time>
      </trkpt>
      <trkpt lat="45.23405" lon="6.02721">
        <ele>2176.8</ele>
        <time>2021-12-19T11:18:51Z</time>
      </trkpt>
      <trkpt lat="45.23397" lon="6.02719">
        <ele>2173.4</ele>
        <time>2021-12-19T11:18:52Z</time>
      </trkpt>
      <trkpt lat="45.23389" lon="6.02716">
        <ele>2171</ele>
        <time>2021-12-19T11:18:53Z</time>
      </trkpt>
      <trkpt lat="45.23381" lon="6.02714">
        <ele>2169.4</ele>
        <time>2021-12-19T11:18:54Z</time>
      </trkpt>
      <trkpt lat="45.23374" lon="6.02712">
        <ele>2168.6</ele>
        <time>2021-12-19T11:18:55Z</time>
      </trkpt>
      <trkpt lat="45.23367" lon="6.0271">
        <ele>2168.2</ele>
        <time>2021-12-19T11:18:56Z</time>
      </trkpt>
      <trkpt lat="45.23353" lon="6.02709">
        <ele>2167.2</ele>
        <time>2021-12-19T11:18:59Z</time>
      </trkpt>
      <trkpt lat="45.23349" lon="6.02709">
        <ele>2167</ele>
        <time>2021-12-19T11:19:00Z</time>
      </trkpt>
      <trkpt lat="45.23336" lon="6.02702">
        <ele>2166</ele>
        <time>2021-12-19T11:19:04Z</time>
      </trkpt>
      <trkpt lat="45.23331" lon="6.02699">
        <ele>2165.6</ele>
        <time>2021-12-19T11:19:05Z</time>
      </trkpt>
      <trkpt lat="45.23321" lon="6.02691">
        <ele>2164.4</ele>
        <time>2021-12-19T11:19:07Z</time>
      </trkpt>
      <trkpt lat="45.23316" lon="6.02687">
        <ele>2164</ele>
        <time>2021-12-19T11:19:08Z</time>
      </trkpt>
      <trkpt lat="45.23308" lon="6.02681">
        <ele>2162.8</ele>
        <time>2021-12-19T11:19:10Z</time>
      </trkpt>
      <trkpt lat="45.23302" lon="6.02679">
        <ele>2162.4</ele>
        <time>2021-12-19T11:19:12Z</time>
      </trkpt>
      <trkpt lat="45.2329" lon="6.02676">
        <ele>2161.2</ele>
        <time>2021-12-19T11:19:15Z</time>
      </trkpt>
      <trkpt lat="45.23286" lon="6.02673">
        <ele>2160.6</ele>
        <time>2021-12-19T11:19:16Z</time>
      </trkpt>
      <trkpt lat="45.23282" lon="6.0267">
        <ele>2160.2</ele>
        <time>2021-12-19T11:19:17Z</time>
      </trkpt>
      <trkpt lat="45.23279" lon="6.02666">
        <ele>2160</ele>
        <time>2021-12-19T11:19:18Z</time>
      </trkpt>
      <trkpt lat="45.23265" lon="6.02651">
        <ele>2158.2</ele>
        <time>2021-12-19T11:19:22Z</time>
      </trkpt>
      <trkpt lat="45.23254" lon="6.02642">
        <ele>2157.2</ele>
        <time>2021-12-19T11:19:25Z</time>
      </trkpt>
      <trkpt lat="45.23251" lon="6.02639">
        <ele>2156.8</ele>
        <time>2021-12-19T11:19:26Z</time>
      </trkpt>
      <trkpt lat="45.23245" lon="6.02635">
        <ele>2156.4</ele>
        <time>2021-12-19T11:19:28Z</time>
      </trkpt>
      <trkpt lat="45.23239" lon="6.02632">
        <ele>2156.2</ele>
        <time>2021-12-19T11:19:32Z</time>
      </trkpt>
      <trkpt lat="45.2323" lon="6.02623">
        <ele>2155</ele>
        <time>2021-12-19T11:19:40Z</time>
      </trkpt>
      <trkpt lat="45.23228" lon="6.02622">
        <ele>2153.8</ele>
        <time>2021-12-19T11:19:43Z</time>
      </trkpt>
      <trkpt lat="45.23227" lon="6.02621">
        <ele>2153.4</ele>
        <time>2021-12-19T11:19:44Z</time>
      </trkpt>
      <trkpt lat="45.23226" lon="6.02621">
        <ele>2152.4</ele>
        <time>2021-12-19T11:19:46Z</time>
      </trkpt>
      <trkpt lat="45.23228" lon="6.02619">
        <ele>2152</ele>
        <time>2021-12-19T11:19:53Z</time>
      </trkpt>
      <trkpt lat="45.23229" lon="6.02618">
        <ele>2152.4</ele>
        <time>2021-12-19T11:19:59Z</time>
      </trkpt>
      <trkpt lat="45.23231" lon="6.02615">
        <ele>2153.2</ele>
        <time>2021-12-19T11:20:05Z</time>
      </trkpt>
      <trkpt lat="45.23232" lon="6.02612">
        <ele>2153.2</ele>
        <time>2021-12-19T11:20:11Z</time>
      </trkpt>
      <trkpt lat="45.23232" lon="6.02603">
        <ele>2152.8</ele>
        <time>2021-12-19T11:20:14Z</time>
      </trkpt>
      <trkpt lat="45.23234" lon="6.02592">
        <ele>2151</ele>
        <time>2021-12-19T11:20:19Z</time>
      </trkpt>
      <trkpt lat="45.23235" lon="6.0259">
        <ele>2149.6</ele>
        <time>2021-12-19T11:20:21Z</time>
      </trkpt>
      <trkpt lat="45.23236" lon="6.02584">
        <ele>2148.6</ele>
        <time>2021-12-19T11:20:23Z</time>
      </trkpt>
      <trkpt lat="45.23235" lon="6.0257">
        <ele>2147.2</ele>
        <time>2021-12-19T11:20:26Z</time>
      </trkpt>
      <trkpt lat="45.23234" lon="6.02556">
        <ele>2146</ele>
        <time>2021-12-19T11:20:29Z</time>
      </trkpt>
      <trkpt lat="45.23232" lon="6.02543">
        <ele>2145.2</ele>
        <time>2021-12-19T11:20:31Z</time>
      </trkpt>
      <trkpt lat="45.2323" lon="6.02537">
        <ele>2144.4</ele>
        <time>2021-12-19T11:20:32Z</time>
      </trkpt>
      <trkpt lat="45.23225" lon="6.02523">
        <ele>2142.8</ele>
        <time>2021-12-19T11:20:34Z</time>
      </trkpt>
      <trkpt lat="45.23219" lon="6.02509">
        <ele>2142</ele>
        <time>2021-12-19T11:20:36Z</time>
      </trkpt>
      <trkpt lat="45.23216" lon="6.02503">
        <ele>2140.8</ele>
        <time>2021-12-19T11:20:37Z</time>
      </trkpt>
      <trkpt lat="45.2321" lon="6.02493">
        <ele>2139.4</ele>
        <time>2021-12-19T11:20:39Z</time>
      </trkpt>
      <trkpt lat="45.232" lon="6.0248">
        <ele>2138.4</ele>
        <time>2021-12-19T11:20:42Z</time>
      </trkpt>
      <trkpt lat="45.23197" lon="6.02476">
        <ele>2138.2</ele>
        <time>2021-12-19T11:20:43Z</time>
      </trkpt>
      <trkpt lat="45.23194" lon="6.02471">
        <ele>2137.2</ele>
        <time>2021-12-19T11:20:45Z</time>
      </trkpt>
      <trkpt lat="45.23191" lon="6.0247">
        <ele>2136.8</ele>
        <time>2021-12-19T11:20:46Z</time>
      </trkpt>
      <trkpt lat="45.23187" lon="6.02471">
        <ele>2136.6</ele>
        <time>2021-12-19T11:20:51Z</time>
      </trkpt>
      <trkpt lat="45.23184" lon="6.02471">
        <ele>2135.8</ele>
        <time>2021-12-19T11:20:59Z</time>
      </trkpt>
      <trkpt lat="45.23181" lon="6.02471">
        <ele>2134.4</ele>
        <time>2021-12-19T11:21:00Z</time>
      </trkpt>
      <trkpt lat="45.23176" lon="6.02467">
        <ele>2132.2</ele>
        <time>2021-12-19T11:21:01Z</time>
      </trkpt>
      <trkpt lat="45.23172" lon="6.02461">
        <ele>2129.4</ele>
        <time>2021-12-19T11:21:02Z</time>
      </trkpt>
      <trkpt lat="45.23168" lon="6.02456">
        <ele>2127.8</ele>
        <time>2021-12-19T11:21:03Z</time>
      </trkpt>
      <trkpt lat="45.23164" lon="6.02453">
        <ele>2127</ele>
        <time>2021-12-19T11:21:04Z</time>
      </trkpt>
      <trkpt lat="45.23161" lon="6.02455">
        <ele>2126.4</ele>
        <time>2021-12-19T11:21:05Z</time>
      </trkpt>
      <trkpt lat="45.23156" lon="6.02458">
        <ele>2125</ele>
        <time>2021-12-19T11:21:06Z</time>
      </trkpt>
      <trkpt lat="45.23151" lon="6.0246">
        <ele>2123.2</ele>
        <time>2021-12-19T11:21:07Z</time>
      </trkpt>
      <trkpt lat="45.23146" lon="6.02458">
        <ele>2121.2</ele>
        <time>2021-12-19T11:21:08Z</time>
      </trkpt>
      <trkpt lat="45.23143" lon="6.02454">
        <ele>2120.2</ele>
        <time>2021-12-19T11:21:09Z</time>
      </trkpt>
      <trkpt lat="45.23137" lon="6.02442">
        <ele>2118.6</ele>
        <time>2021-12-19T11:21:11Z</time>
      </trkpt>
      <trkpt lat="45.23132" lon="6.02426">
        <ele>2116.8</ele>
        <time>2021-12-19T11:21:13Z</time>
      </trkpt>
      <trkpt lat="45.2313" lon="6.02411">
        <ele>2115.4</ele>
        <time>2021-12-19T11:21:15Z</time>
      </trkpt>
      <trkpt lat="45.23127" lon="6.02397">
        <ele>2114.6</ele>
        <time>2021-12-19T11:21:17Z</time>
      </trkpt>
      <trkpt lat="45.23127" lon="6.02388">
        <ele>2114</ele>
        <time>2021-12-19T11:21:18Z</time>
      </trkpt>
      <trkpt lat="45.23125" lon="6.0237">
        <ele>2112.4</ele>
        <time>2021-12-19T11:21:20Z</time>
      </trkpt>
      <trkpt lat="45.23126" lon="6.02363">
        <ele>2111.8</ele>
        <time>2021-12-19T11:21:21Z</time>
      </trkpt>
      <trkpt lat="45.23126" lon="6.02357">
        <ele>2111</ele>
        <time>2021-12-19T11:21:22Z</time>
      </trkpt>
      <trkpt lat="45.23127" lon="6.02332">
        <ele>2109.8</ele>
        <time>2021-12-19T11:21:25Z</time>
      </trkpt>
      <trkpt lat="45.23126" lon="6.02323">
        <ele>2108</ele>
        <time>2021-12-19T11:21:26Z</time>
      </trkpt>
      <trkpt lat="45.23123" lon="6.02315">
        <ele>2106.6</ele>
        <time>2021-12-19T11:21:27Z</time>
      </trkpt>
      <trkpt lat="45.23119" lon="6.02308">
        <ele>2105.4</ele>
        <time>2021-12-19T11:21:28Z</time>
      </trkpt>
      <trkpt lat="45.23116" lon="6.02302">
        <ele>2104.8</ele>
        <time>2021-12-19T11:21:29Z</time>
      </trkpt>
      <trkpt lat="45.23112" lon="6.02295">
        <ele>2104</ele>
        <time>2021-12-19T11:21:30Z</time>
      </trkpt>
      <trkpt lat="45.23108" lon="6.02288">
        <ele>2103.2</ele>
        <time>2021-12-19T11:21:31Z</time>
      </trkpt>
      <trkpt lat="45.23104" lon="6.02281">
        <ele>2102.4</ele>
        <time>2021-12-19T11:21:32Z</time>
      </trkpt>
      <trkpt lat="45.23099" lon="6.02273">
        <ele>2101.8</ele>
        <time>2021-12-19T11:21:33Z</time>
      </trkpt>
      <trkpt lat="45.23095" lon="6.02265">
        <ele>2101.4</ele>
        <time>2021-12-19T11:21:34Z</time>
      </trkpt>
      <trkpt lat="45.23085" lon="6.02249">
        <ele>2099.6</ele>
        <time>2021-12-19T11:21:36Z</time>
      </trkpt>
      <trkpt lat="45.23075" lon="6.0223">
        <ele>2097.2</ele>
        <time>2021-12-19T11:21:38Z</time>
      </trkpt>
      <trkpt lat="45.23069" lon="6.02223">
        <ele>2095.4</ele>
        <time>2021-12-19T11:21:39Z</time>
      </trkpt>
      <trkpt lat="45.23064" lon="6.02222">
        <ele>2093.6</ele>
        <time>2021-12-19T11:21:40Z</time>
      </trkpt>
      <trkpt lat="45.23059" lon="6.02227">
        <ele>2092.2</ele>
        <time>2021-12-19T11:21:41Z</time>
      </trkpt>
      <trkpt lat="45.23053" lon="6.02229">
        <ele>2089.6</ele>
        <time>2021-12-19T11:21:42Z</time>
      </trkpt>
      <trkpt lat="45.23046" lon="6.02226">
        <ele>2086.2</ele>
        <time>2021-12-19T11:21:43Z</time>
      </trkpt>
      <trkpt lat="45.23039" lon="6.02221">
        <ele>2082.4</ele>
        <time>2021-12-19T11:21:44Z</time>
      </trkpt>
      <trkpt lat="45.23034" lon="6.02222">
        <ele>2080.2</ele>
        <time>2021-12-19T11:21:45Z</time>
      </trkpt>
      <trkpt lat="45.23029" lon="6.02228">
        <ele>2078.4</ele>
        <time>2021-12-19T11:21:46Z</time>
      </trkpt>
      <trkpt lat="45.23024" lon="6.02236">
        <ele>2075.4</ele>
        <time>2021-12-19T11:21:47Z</time>
      </trkpt>
      <trkpt lat="45.23017" lon="6.02237">
        <ele>2072.8</ele>
        <time>2021-12-19T11:21:48Z</time>
      </trkpt>
      <trkpt lat="45.23011" lon="6.02233">
        <ele>2068.6</ele>
        <time>2021-12-19T11:21:49Z</time>
      </trkpt>
      <trkpt lat="45.23006" lon="6.02228">
        <ele>2064.8</ele>
        <time>2021-12-19T11:21:50Z</time>
      </trkpt>
      <trkpt lat="45.23" lon="6.0223">
        <ele>2062.4</ele>
        <time>2021-12-19T11:21:51Z</time>
      </trkpt>
      <trkpt lat="45.22994" lon="6.02234">
        <ele>2060.8</ele>
        <time>2021-12-19T11:21:52Z</time>
      </trkpt>
      <trkpt lat="45.22987" lon="6.02238">
        <ele>2057.2</ele>
        <time>2021-12-19T11:21:53Z</time>
      </trkpt>
      <trkpt lat="45.2298" lon="6.02237">
        <ele>2053.4</ele>
        <time>2021-12-19T11:21:54Z</time>
      </trkpt>
      <trkpt lat="45.22975" lon="6.02231">
        <ele>2049.8</ele>
        <time>2021-12-19T11:21:55Z</time>
      </trkpt>
      <trkpt lat="45.2297" lon="6.02227">
        <ele>2047</ele>
        <time>2021-12-19T11:21:56Z</time>
      </trkpt>
      <trkpt lat="45.22964" lon="6.02229">
        <ele>2045</ele>
        <time>2021-12-19T11:21:57Z</time>
      </trkpt>
      <trkpt lat="45.22959" lon="6.02236">
        <ele>2042</ele>
        <time>2021-12-19T11:21:58Z</time>
      </trkpt>
      <trkpt lat="45.22954" lon="6.02241">
        <ele>2038.6</ele>
        <time>2021-12-19T11:21:59Z</time>
      </trkpt>
      <trkpt lat="45.22948" lon="6.02241">
        <ele>2036.2</ele>
        <time>2021-12-19T11:22:00Z</time>
      </trkpt>
      <trkpt lat="45.22942" lon="6.02239">
        <ele>2032.2</ele>
        <time>2021-12-19T11:22:01Z</time>
      </trkpt>
      <trkpt lat="45.22935" lon="6.0224">
        <ele>2028.4</ele>
        <time>2021-12-19T11:22:02Z</time>
      </trkpt>
      <trkpt lat="45.22926" lon="6.02245">
        <ele>2024.6</ele>
        <time>2021-12-19T11:22:03Z</time>
      </trkpt>
      <trkpt lat="45.22916" lon="6.02249">
        <ele>2019.4</ele>
        <time>2021-12-19T11:22:04Z</time>
      </trkpt>
      <trkpt lat="45.22907" lon="6.02246">
        <ele>2013.8</ele>
        <time>2021-12-19T11:22:05Z</time>
      </trkpt>
      <trkpt lat="45.22898" lon="6.02243">
        <ele>2010.6</ele>
        <time>2021-12-19T11:22:06Z</time>
      </trkpt>
      <trkpt lat="45.22891" lon="6.02243">
        <ele>2008</ele>
        <time>2021-12-19T11:22:07Z</time>
      </trkpt>
      <trkpt lat="45.22885" lon="6.02248">
        <ele>2006.6</ele>
        <time>2021-12-19T11:22:08Z</time>
      </trkpt>
      <trkpt lat="45.2288" lon="6.02255">
        <ele>2005.4</ele>
        <time>2021-12-19T11:22:09Z</time>
      </trkpt>
      <trkpt lat="45.22871" lon="6.02263">
        <ele>2002.2</ele>
        <time>2021-12-19T11:22:11Z</time>
      </trkpt>
      <trkpt lat="45.22869" lon="6.02262">
        <ele>2001</ele>
        <time>2021-12-19T11:22:12Z</time>
      </trkpt>
      <trkpt lat="45.22869" lon="6.02261">
        <ele>2000.2</ele>
        <time>2021-12-19T11:22:13Z</time>
      </trkpt>
      <trkpt lat="45.22869" lon="6.0226">
        <ele>1999.8</ele>
        <time>2021-12-19T11:22:14Z</time>
      </trkpt>
      <trkpt lat="45.2287" lon="6.0226">
        <ele>1999.4</ele>
        <time>2021-12-19T11:22:17Z</time>
      </trkpt>
      <trkpt lat="45.2287" lon="6.02262">
        <ele>1998.8</ele>
        <time>2021-12-19T11:22:44Z</time>
      </trkpt>
      <trkpt lat="45.2287" lon="6.02262">
        <ele>1998.8</ele>
        <time>2021-12-19T11:22:48Z</time>
      </trkpt>
      <trkpt lat="45.2287" lon="6.02262">
        <ele>1998.8</ele>
        <time>2021-12-19T11:22:54Z</time>
      </trkpt>
      <trkpt lat="45.2287" lon="6.02262">
        <ele>1998.6</ele>
        <time>2021-12-19T11:23:04Z</time>
      </trkpt>
      <trkpt lat="45.2287" lon="6.02261">
        <ele>1998.4</ele>
        <time>2021-12-19T11:23:12Z</time>
      </trkpt>
      <trkpt lat="45.2287" lon="6.02261">
        <ele>1998.2</ele>
        <time>2021-12-19T11:23:15Z</time>
      </trkpt>
      <trkpt lat="45.2287" lon="6.02261">
        <ele>1998</ele>
        <time>2021-12-19T11:23:28Z</time>
      </trkpt>
      <trkpt lat="45.22873" lon="6.02262">
        <ele>1997.8</ele>
        <time>2021-12-19T11:23:45Z</time>
      </trkpt>
      <trkpt lat="45.22873" lon="6.02263">
        <ele>1997.8</ele>
        <time>2021-12-19T11:24:01Z</time>
      </trkpt>
      <trkpt lat="45.22873" lon="6.02263">
        <ele>1997.8</ele>
        <time>2021-12-19T11:24:04Z</time>
      </trkpt>
      <trkpt lat="45.22873" lon="6.02262">
        <ele>1997.6</ele>
        <time>2021-12-19T11:24:17Z</time>
      </trkpt>
      <trkpt lat="45.22874" lon="6.02259">
        <ele>1997.6</ele>
        <time>2021-12-19T11:24:33Z</time>
      </trkpt>
      <trkpt lat="45.22865" lon="6.02261">
        <ele>1997.6</ele>
        <time>2021-12-19T11:24:47Z</time>
      </trkpt>
      <trkpt lat="45.22851" lon="6.02259">
        <ele>1997.6</ele>
        <time>2021-12-19T11:24:49Z</time>
      </trkpt>
      <trkpt lat="45.22844" lon="6.02256">
        <ele>1997.6</ele>
        <time>2021-12-19T11:24:50Z</time>
      </trkpt>
      <trkpt lat="45.22825" lon="6.02244">
        <ele>1996.8</ele>
        <time>2021-12-19T11:24:53Z</time>
      </trkpt>
      <trkpt lat="45.2282" lon="6.02246">
        <ele>1996</ele>
        <time>2021-12-19T11:24:54Z</time>
      </trkpt>
      <trkpt lat="45.22815" lon="6.02251">
        <ele>1994.8</ele>
        <time>2021-12-19T11:24:55Z</time>
      </trkpt>
      <trkpt lat="45.2281" lon="6.02255">
        <ele>1992.6</ele>
        <time>2021-12-19T11:24:56Z</time>
      </trkpt>
      <trkpt lat="45.22805" lon="6.02256">
        <ele>1991.2</ele>
        <time>2021-12-19T11:24:57Z</time>
      </trkpt>
      <trkpt lat="45.22801" lon="6.02255">
        <ele>1990.6</ele>
        <time>2021-12-19T11:24:58Z</time>
      </trkpt>
      <trkpt lat="45.22797" lon="6.02253">
        <ele>1990</ele>
        <time>2021-12-19T11:24:59Z</time>
      </trkpt>
      <trkpt lat="45.22793" lon="6.0225">
        <ele>1989.8</ele>
        <time>2021-12-19T11:25:00Z</time>
      </trkpt>
      <trkpt lat="45.22788" lon="6.02247">
        <ele>1989.2</ele>
        <time>2021-12-19T11:25:01Z</time>
      </trkpt>
      <trkpt lat="45.22785" lon="6.02243">
        <ele>1988.8</ele>
        <time>2021-12-19T11:25:02Z</time>
      </trkpt>
      <trkpt lat="45.22781" lon="6.02239">
        <ele>1988.4</ele>
        <time>2021-12-19T11:25:03Z</time>
      </trkpt>
      <trkpt lat="45.22778" lon="6.02235">
        <ele>1988</ele>
        <time>2021-12-19T11:25:04Z</time>
      </trkpt>
      <trkpt lat="45.22775" lon="6.0223">
        <ele>1987.8</ele>
        <time>2021-12-19T11:25:05Z</time>
      </trkpt>
      <trkpt lat="45.22765" lon="6.02213">
        <ele>1986.2</ele>
        <time>2021-12-19T11:25:08Z</time>
      </trkpt>
      <trkpt lat="45.22759" lon="6.02203">
        <ele>1985.2</ele>
        <time>2021-12-19T11:25:10Z</time>
      </trkpt>
      <trkpt lat="45.22757" lon="6.022">
        <ele>1984.6</ele>
        <time>2021-12-19T11:25:11Z</time>
      </trkpt>
      <trkpt lat="45.22756" lon="6.02198">
        <ele>1984</ele>
        <time>2021-12-19T11:25:12Z</time>
      </trkpt>
      <trkpt lat="45.22755" lon="6.02195">
        <ele>1983.6</ele>
        <time>2021-12-19T11:25:14Z</time>
      </trkpt>
      <trkpt lat="45.22756" lon="6.02186">
        <ele>1983.4</ele>
        <time>2021-12-19T11:25:21Z</time>
      </trkpt>
      <trkpt lat="45.22757" lon="6.0217">
        <ele>1983.4</ele>
        <time>2021-12-19T11:25:30Z</time>
      </trkpt>
      <trkpt lat="45.22759" lon="6.02162">
        <ele>1983</ele>
        <time>2021-12-19T11:25:35Z</time>
      </trkpt>
      <trkpt lat="45.2276" lon="6.02156">
        <ele>1983</ele>
        <time>2021-12-19T11:25:37Z</time>
      </trkpt>
      <trkpt lat="45.22761" lon="6.02144">
        <ele>1982.2</ele>
        <time>2021-12-19T11:25:39Z</time>
      </trkpt>
      <trkpt lat="45.22762" lon="6.02137">
        <ele>1981</ele>
        <time>2021-12-19T11:25:40Z</time>
      </trkpt>
      <trkpt lat="45.22761" lon="6.02126">
        <ele>1979.8</ele>
        <time>2021-12-19T11:25:42Z</time>
      </trkpt>
      <trkpt lat="45.22759" lon="6.02122">
        <ele>1979</ele>
        <time>2021-12-19T11:25:43Z</time>
      </trkpt>
      <trkpt lat="45.22757" lon="6.02119">
        <ele>1978.4</ele>
        <time>2021-12-19T11:25:44Z</time>
      </trkpt>
      <trkpt lat="45.22754" lon="6.02119">
        <ele>1978</ele>
        <time>2021-12-19T11:25:45Z</time>
      </trkpt>
      <trkpt lat="45.22753" lon="6.02124">
        <ele>1977.6</ele>
        <time>2021-12-19T11:25:46Z</time>
      </trkpt>
      <trkpt lat="45.22752" lon="6.0213">
        <ele>1975.8</ele>
        <time>2021-12-19T11:25:47Z</time>
      </trkpt>
      <trkpt lat="45.2275" lon="6.02144">
        <ele>1974</ele>
        <time>2021-12-19T11:25:49Z</time>
      </trkpt>
      <trkpt lat="45.22747" lon="6.02147">
        <ele>1973.2</ele>
        <time>2021-12-19T11:25:50Z</time>
      </trkpt>
      <trkpt lat="45.22743" lon="6.02147">
        <ele>1972.2</ele>
        <time>2021-12-19T11:25:51Z</time>
      </trkpt>
      <trkpt lat="45.2274" lon="6.02143">
        <ele>1969.8</ele>
        <time>2021-12-19T11:25:52Z</time>
      </trkpt>
      <trkpt lat="45.22736" lon="6.02136">
        <ele>1967</ele>
        <time>2021-12-19T11:25:53Z</time>
      </trkpt>
      <trkpt lat="45.22732" lon="6.0213">
        <ele>1965.6</ele>
        <time>2021-12-19T11:25:54Z</time>
      </trkpt>
      <trkpt lat="45.22729" lon="6.02128">
        <ele>1964.6</ele>
        <time>2021-12-19T11:25:55Z</time>
      </trkpt>
      <trkpt lat="45.22726" lon="6.02139">
        <ele>1962</ele>
        <time>2021-12-19T11:25:57Z</time>
      </trkpt>
      <trkpt lat="45.22722" lon="6.02143">
        <ele>1960.6</ele>
        <time>2021-12-19T11:25:58Z</time>
      </trkpt>
      <trkpt lat="45.22718" lon="6.02142">
        <ele>1958.8</ele>
        <time>2021-12-19T11:25:59Z</time>
      </trkpt>
      <trkpt lat="45.22713" lon="6.02138">
        <ele>1956</ele>
        <time>2021-12-19T11:26:00Z</time>
      </trkpt>
      <trkpt lat="45.22707" lon="6.02135">
        <ele>1954.4</ele>
        <time>2021-12-19T11:26:01Z</time>
      </trkpt>
      <trkpt lat="45.22701" lon="6.02132">
        <ele>1953.4</ele>
        <time>2021-12-19T11:26:02Z</time>
      </trkpt>
      <trkpt lat="45.22695" lon="6.0213">
        <ele>1952.6</ele>
        <time>2021-12-19T11:26:03Z</time>
      </trkpt>
      <trkpt lat="45.22691" lon="6.02129">
        <ele>1951.2</ele>
        <time>2021-12-19T11:26:04Z</time>
      </trkpt>
      <trkpt lat="45.22689" lon="6.02132">
        <ele>1950</ele>
        <time>2021-12-19T11:26:05Z</time>
      </trkpt>
      <trkpt lat="45.22688" lon="6.02136">
        <ele>1949.4</ele>
        <time>2021-12-19T11:26:06Z</time>
      </trkpt>
      <trkpt lat="45.22687" lon="6.0214">
        <ele>1948.4</ele>
        <time>2021-12-19T11:26:07Z</time>
      </trkpt>
      <trkpt lat="45.22686" lon="6.02144">
        <ele>1947.4</ele>
        <time>2021-12-19T11:26:08Z</time>
      </trkpt>
      <trkpt lat="45.22689" lon="6.02147">
        <ele>1944.6</ele>
        <time>2021-12-19T11:26:09Z</time>
      </trkpt>
      <trkpt lat="45.22686" lon="6.02149">
        <ele>1943</ele>
        <time>2021-12-19T11:26:10Z</time>
      </trkpt>
      <trkpt lat="45.22682" lon="6.0215">
        <ele>1940</ele>
        <time>2021-12-19T11:26:11Z</time>
      </trkpt>
      <trkpt lat="45.22678" lon="6.02149">
        <ele>1937.4</ele>
        <time>2021-12-19T11:26:12Z</time>
      </trkpt>
      <trkpt lat="45.22675" lon="6.02148">
        <ele>1936</ele>
        <time>2021-12-19T11:26:13Z</time>
      </trkpt>
      <trkpt lat="45.22668" lon="6.02147">
        <ele>1934.8</ele>
        <time>2021-12-19T11:26:15Z</time>
      </trkpt>
      <trkpt lat="45.22665" lon="6.02146">
        <ele>1934.6</ele>
        <time>2021-12-19T11:26:16Z</time>
      </trkpt>
      <trkpt lat="45.22659" lon="6.02144">
        <ele>1933.6</ele>
        <time>2021-12-19T11:26:18Z</time>
      </trkpt>
      <trkpt lat="45.22651" lon="6.02142">
        <ele>1932.2</ele>
        <time>2021-12-19T11:26:20Z</time>
      </trkpt>
      <trkpt lat="45.22646" lon="6.0214">
        <ele>1930.6</ele>
        <time>2021-12-19T11:26:22Z</time>
      </trkpt>
      <trkpt lat="45.22645" lon="6.02138">
        <ele>1930</ele>
        <time>2021-12-19T11:26:25Z</time>
      </trkpt>
      <trkpt lat="45.22636" lon="6.02136">
        <ele>1929.4</ele>
        <time>2021-12-19T11:26:30Z</time>
      </trkpt>
      <trkpt lat="45.2263" lon="6.02132">
        <ele>1927.8</ele>
        <time>2021-12-19T11:26:32Z</time>
      </trkpt>
      <trkpt lat="45.22626" lon="6.02131">
        <ele>1926.8</ele>
        <time>2021-12-19T11:26:34Z</time>
      </trkpt>
      <trkpt lat="45.22624" lon="6.0213">
        <ele>1926.2</ele>
        <time>2021-12-19T11:26:35Z</time>
      </trkpt>
      <trkpt lat="45.22622" lon="6.02129">
        <ele>1925.8</ele>
        <time>2021-12-19T11:26:36Z</time>
      </trkpt>
      <trkpt lat="45.22617" lon="6.02125">
        <ele>1924.6</ele>
        <time>2021-12-19T11:26:39Z</time>
      </trkpt>
      <trkpt lat="45.22614" lon="6.02121">
        <ele>1924.4</ele>
        <time>2021-12-19T11:26:40Z</time>
      </trkpt>
      <trkpt lat="45.2261" lon="6.02112">
        <ele>1922.6</ele>
        <time>2021-12-19T11:26:42Z</time>
      </trkpt>
      <trkpt lat="45.22608" lon="6.02109">
        <ele>1921.4</ele>
        <time>2021-12-19T11:26:43Z</time>
      </trkpt>
      <trkpt lat="45.22603" lon="6.02116">
        <ele>1919.6</ele>
        <time>2021-12-19T11:26:45Z</time>
      </trkpt>
      <trkpt lat="45.22602" lon="6.02121">
        <ele>1918.6</ele>
        <time>2021-12-19T11:26:46Z</time>
      </trkpt>
      <trkpt lat="45.22602" lon="6.02129">
        <ele>1917.2</ele>
        <time>2021-12-19T11:26:47Z</time>
      </trkpt>
      <trkpt lat="45.22602" lon="6.02135">
        <ele>1915.8</ele>
        <time>2021-12-19T11:26:48Z</time>
      </trkpt>
      <trkpt lat="45.22599" lon="6.02137">
        <ele>1914</ele>
        <time>2021-12-19T11:26:49Z</time>
      </trkpt>
      <trkpt lat="45.22597" lon="6.02136">
        <ele>1912.4</ele>
        <time>2021-12-19T11:26:50Z</time>
      </trkpt>
      <trkpt lat="45.22594" lon="6.02134">
        <ele>1910.8</ele>
        <time>2021-12-19T11:26:51Z</time>
      </trkpt>
      <trkpt lat="45.22588" lon="6.02132">
        <ele>1909.2</ele>
        <time>2021-12-19T11:26:53Z</time>
      </trkpt>
      <trkpt lat="45.22586" lon="6.02137">
        <ele>1908.4</ele>
        <time>2021-12-19T11:26:54Z</time>
      </trkpt>
      <trkpt lat="45.22587" lon="6.02141">
        <ele>1907.6</ele>
        <time>2021-12-19T11:26:55Z</time>
      </trkpt>
      <trkpt lat="45.22588" lon="6.02145">
        <ele>1906.4</ele>
        <time>2021-12-19T11:26:56Z</time>
      </trkpt>
      <trkpt lat="45.22589" lon="6.02148">
        <ele>1905.4</ele>
        <time>2021-12-19T11:26:57Z</time>
      </trkpt>
      <trkpt lat="45.2259" lon="6.02151">
        <ele>1904.8</ele>
        <time>2021-12-19T11:26:58Z</time>
      </trkpt>
      <trkpt lat="45.22595" lon="6.02162">
        <ele>1904</ele>
        <time>2021-12-19T11:27:00Z</time>
      </trkpt>
      <trkpt lat="45.22596" lon="6.02166">
        <ele>1902.6</ele>
        <time>2021-12-19T11:27:01Z</time>
      </trkpt>
      <trkpt lat="45.22594" lon="6.0217">
        <ele>1900.8</ele>
        <time>2021-12-19T11:27:02Z</time>
      </trkpt>
      <trkpt lat="45.22591" lon="6.02171">
        <ele>1898.2</ele>
        <time>2021-12-19T11:27:03Z</time>
      </trkpt>
      <trkpt lat="45.22588" lon="6.02169">
        <ele>1895.8</ele>
        <time>2021-12-19T11:27:04Z</time>
      </trkpt>
      <trkpt lat="45.22586" lon="6.02168">
        <ele>1894.6</ele>
        <time>2021-12-19T11:27:05Z</time>
      </trkpt>
      <trkpt lat="45.22582" lon="6.02166">
        <ele>1893.2</ele>
        <time>2021-12-19T11:27:07Z</time>
      </trkpt>
      <trkpt lat="45.2258" lon="6.02167">
        <ele>1892.4</ele>
        <time>2021-12-19T11:27:08Z</time>
      </trkpt>
      <trkpt lat="45.22579" lon="6.02172">
        <ele>1892</ele>
        <time>2021-12-19T11:27:09Z</time>
      </trkpt>
      <trkpt lat="45.22579" lon="6.02177">
        <ele>1890.8</ele>
        <time>2021-12-19T11:27:10Z</time>
      </trkpt>
      <trkpt lat="45.2258" lon="6.02183">
        <ele>1888.8</ele>
        <time>2021-12-19T11:27:11Z</time>
      </trkpt>
      <trkpt lat="45.22578" lon="6.02188">
        <ele>1887.2</ele>
        <time>2021-12-19T11:27:12Z</time>
      </trkpt>
      <trkpt lat="45.22577" lon="6.02189">
        <ele>1886.4</ele>
        <time>2021-12-19T11:27:13Z</time>
      </trkpt>
      <trkpt lat="45.22576" lon="6.02186">
        <ele>1885.2</ele>
        <time>2021-12-19T11:27:14Z</time>
      </trkpt>
      <trkpt lat="45.22574" lon="6.02179">
        <ele>1883.6</ele>
        <time>2021-12-19T11:27:16Z</time>
      </trkpt>
      <trkpt lat="45.22572" lon="6.02176">
        <ele>1883.2</ele>
        <time>2021-12-19T11:27:18Z</time>
      </trkpt>
      <trkpt lat="45.22569" lon="6.02173">
        <ele>1882.8</ele>
        <time>2021-12-19T11:27:20Z</time>
      </trkpt>
      <trkpt lat="45.22567" lon="6.0217">
        <ele>1882</ele>
        <time>2021-12-19T11:27:21Z</time>
      </trkpt>
      <trkpt lat="45.22563" lon="6.02169">
        <ele>1881</ele>
        <time>2021-12-19T11:27:23Z</time>
      </trkpt>
      <trkpt lat="45.22563" lon="6.02172">
        <ele>1880.6</ele>
        <time>2021-12-19T11:27:24Z</time>
      </trkpt>
      <trkpt lat="45.22561" lon="6.02177">
        <ele>1879.2</ele>
        <time>2021-12-19T11:27:25Z</time>
      </trkpt>
      <trkpt lat="45.22559" lon="6.02183">
        <ele>1877.8</ele>
        <time>2021-12-19T11:27:26Z</time>
      </trkpt>
      <trkpt lat="45.22555" lon="6.02195">
        <ele>1875.8</ele>
        <time>2021-12-19T11:27:28Z</time>
      </trkpt>
      <trkpt lat="45.22554" lon="6.02198">
        <ele>1874.6</ele>
        <time>2021-12-19T11:27:29Z</time>
      </trkpt>
      <trkpt lat="45.22551" lon="6.02206">
        <ele>1873</ele>
        <time>2021-12-19T11:27:31Z</time>
      </trkpt>
      <trkpt lat="45.22549" lon="6.02208">
        <ele>1872.4</ele>
        <time>2021-12-19T11:27:32Z</time>
      </trkpt>
      <trkpt lat="45.22544" lon="6.02212">
        <ele>1871.6</ele>
        <time>2021-12-19T11:27:34Z</time>
      </trkpt>
      <trkpt lat="45.22541" lon="6.02212">
        <ele>1871.2</ele>
        <time>2021-12-19T11:27:35Z</time>
      </trkpt>
      <trkpt lat="45.22539" lon="6.0221">
        <ele>1868.8</ele>
        <time>2021-12-19T11:27:36Z</time>
      </trkpt>
      <trkpt lat="45.22537" lon="6.02209">
        <ele>1867.4</ele>
        <time>2021-12-19T11:27:37Z</time>
      </trkpt>
      <trkpt lat="45.22535" lon="6.0221">
        <ele>1866.2</ele>
        <time>2021-12-19T11:27:38Z</time>
      </trkpt>
      <trkpt lat="45.22533" lon="6.02212">
        <ele>1864.6</ele>
        <time>2021-12-19T11:27:39Z</time>
      </trkpt>
      <trkpt lat="45.22531" lon="6.02215">
        <ele>1863</ele>
        <time>2021-12-19T11:27:40Z</time>
      </trkpt>
      <trkpt lat="45.22528" lon="6.02218">
        <ele>1862</ele>
        <time>2021-12-19T11:27:41Z</time>
      </trkpt>
      <trkpt lat="45.22525" lon="6.02221">
        <ele>1861</ele>
        <time>2021-12-19T11:27:42Z</time>
      </trkpt>
      <trkpt lat="45.22523" lon="6.02224">
        <ele>1859.2</ele>
        <time>2021-12-19T11:27:43Z</time>
      </trkpt>
      <trkpt lat="45.22522" lon="6.02228">
        <ele>1857</ele>
        <time>2021-12-19T11:27:44Z</time>
      </trkpt>
      <trkpt lat="45.22521" lon="6.0223">
        <ele>1855.6</ele>
        <time>2021-12-19T11:27:45Z</time>
      </trkpt>
      <trkpt lat="45.22521" lon="6.02231">
        <ele>1854.6</ele>
        <time>2021-12-19T11:27:46Z</time>
      </trkpt>
      <trkpt lat="45.2252" lon="6.02229">
        <ele>1854.2</ele>
        <time>2021-12-19T11:27:47Z</time>
      </trkpt>
      <trkpt lat="45.22518" lon="6.02226">
        <ele>1852.8</ele>
        <time>2021-12-19T11:27:49Z</time>
      </trkpt>
      <trkpt lat="45.22518" lon="6.02225">
        <ele>1852</ele>
        <time>2021-12-19T11:27:50Z</time>
      </trkpt>
      <trkpt lat="45.22516" lon="6.02223">
        <ele>1851.4</ele>
        <time>2021-12-19T11:27:51Z</time>
      </trkpt>
      <trkpt lat="45.22514" lon="6.02221">
        <ele>1849.8</ele>
        <time>2021-12-19T11:27:53Z</time>
      </trkpt>
      <trkpt lat="45.22512" lon="6.02217">
        <ele>1848.4</ele>
        <time>2021-12-19T11:27:55Z</time>
      </trkpt>
      <trkpt lat="45.22509" lon="6.02217">
        <ele>1847.6</ele>
        <time>2021-12-19T11:27:56Z</time>
      </trkpt>
      <trkpt lat="45.22506" lon="6.02218">
        <ele>1846.4</ele>
        <time>2021-12-19T11:27:57Z</time>
      </trkpt>
      <trkpt lat="45.22504" lon="6.02221">
        <ele>1845.6</ele>
        <time>2021-12-19T11:27:58Z</time>
      </trkpt>
      <trkpt lat="45.22502" lon="6.02226">
        <ele>1844</ele>
        <time>2021-12-19T11:27:59Z</time>
      </trkpt>
      <trkpt lat="45.22501" lon="6.0223">
        <ele>1841.6</ele>
        <time>2021-12-19T11:28:00Z</time>
      </trkpt>
      <trkpt lat="45.22498" lon="6.02235">
        <ele>1839.6</ele>
        <time>2021-12-19T11:28:01Z</time>
      </trkpt>
      <trkpt lat="45.22495" lon="6.02236">
        <ele>1838</ele>
        <time>2021-12-19T11:28:02Z</time>
      </trkpt>
      <trkpt lat="45.22492" lon="6.02235">
        <ele>1836</ele>
        <time>2021-12-19T11:28:03Z</time>
      </trkpt>
      <trkpt lat="45.2249" lon="6.02235">
        <ele>1834</ele>
        <time>2021-12-19T11:28:04Z</time>
      </trkpt>
      <trkpt lat="45.22488" lon="6.02234">
        <ele>1832.8</ele>
        <time>2021-12-19T11:28:05Z</time>
      </trkpt>
      <trkpt lat="45.22487" lon="6.02232">
        <ele>1832</ele>
        <time>2021-12-19T11:28:06Z</time>
      </trkpt>
      <trkpt lat="45.22486" lon="6.02227">
        <ele>1831.2</ele>
        <time>2021-12-19T11:28:07Z</time>
      </trkpt>
      <trkpt lat="45.22485" lon="6.02215">
        <ele>1829.4</ele>
        <time>2021-12-19T11:28:09Z</time>
      </trkpt>
      <trkpt lat="45.22485" lon="6.02206">
        <ele>1827.2</ele>
        <time>2021-12-19T11:28:11Z</time>
      </trkpt>
      <trkpt lat="45.22484" lon="6.02204">
        <ele>1826.6</ele>
        <time>2021-12-19T11:28:12Z</time>
      </trkpt>
      <trkpt lat="45.22482" lon="6.02205">
        <ele>1826</ele>
        <time>2021-12-19T11:28:13Z</time>
      </trkpt>
      <trkpt lat="45.2248" lon="6.02208">
        <ele>1825.2</ele>
        <time>2021-12-19T11:28:14Z</time>
      </trkpt>
      <trkpt lat="45.22478" lon="6.02212">
        <ele>1824.2</ele>
        <time>2021-12-19T11:28:15Z</time>
      </trkpt>
      <trkpt lat="45.22477" lon="6.02217">
        <ele>1823.2</ele>
        <time>2021-12-19T11:28:16Z</time>
      </trkpt>
      <trkpt lat="45.22477" lon="6.02221">
        <ele>1822.6</ele>
        <time>2021-12-19T11:28:17Z</time>
      </trkpt>
      <trkpt lat="45.22476" lon="6.02223">
        <ele>1822.2</ele>
        <time>2021-12-19T11:28:18Z</time>
      </trkpt>
      <trkpt lat="45.22478" lon="6.02223">
        <ele>1821.8</ele>
        <time>2021-12-19T11:28:20Z</time>
      </trkpt>
      <trkpt lat="45.22475" lon="6.02223">
        <ele>1821.4</ele>
        <time>2021-12-19T11:28:24Z</time>
      </trkpt>
      <trkpt lat="45.22473" lon="6.02222">
        <ele>1821.4</ele>
        <time>2021-12-19T11:28:25Z</time>
      </trkpt>
      <trkpt lat="45.22472" lon="6.02219">
        <ele>1821</ele>
        <time>2021-12-19T11:28:26Z</time>
      </trkpt>
      <trkpt lat="45.2247" lon="6.02215">
        <ele>1819.4</ele>
        <time>2021-12-19T11:28:28Z</time>
      </trkpt>
      <trkpt lat="45.2247" lon="6.02213">
        <ele>1819</ele>
        <time>2021-12-19T11:28:30Z</time>
      </trkpt>
      <trkpt lat="45.22464" lon="6.02219">
        <ele>1817.6</ele>
        <time>2021-12-19T11:28:33Z</time>
      </trkpt>
      <trkpt lat="45.22463" lon="6.02223">
        <ele>1816.4</ele>
        <time>2021-12-19T11:28:36Z</time>
      </trkpt>
      <trkpt lat="45.22462" lon="6.02222">
        <ele>1816.2</ele>
        <time>2021-12-19T11:28:37Z</time>
      </trkpt>
      <trkpt lat="45.22462" lon="6.02222">
        <ele>1815.8</ele>
        <time>2021-12-19T11:28:38Z</time>
      </trkpt>
      <trkpt lat="45.22459" lon="6.02222">
        <ele>1815.2</ele>
        <time>2021-12-19T11:28:40Z</time>
      </trkpt>
      <trkpt lat="45.22455" lon="6.0222">
        <ele>1814.4</ele>
        <time>2021-12-19T11:28:42Z</time>
      </trkpt>
      <trkpt lat="45.22454" lon="6.02219">
        <ele>1813.6</ele>
        <time>2021-12-19T11:28:43Z</time>
      </trkpt>
      <trkpt lat="45.22452" lon="6.02219">
        <ele>1812.8</ele>
        <time>2021-12-19T11:28:44Z</time>
      </trkpt>
      <trkpt lat="45.2245" lon="6.0222">
        <ele>1812</ele>
        <time>2021-12-19T11:28:45Z</time>
      </trkpt>
      <trkpt lat="45.22449" lon="6.0222">
        <ele>1810.6</ele>
        <time>2021-12-19T11:28:46Z</time>
      </trkpt>
      <trkpt lat="45.22448" lon="6.02221">
        <ele>1809.6</ele>
        <time>2021-12-19T11:28:48Z</time>
      </trkpt>
      <trkpt lat="45.22447" lon="6.02221">
        <ele>1809.4</ele>
        <time>2021-12-19T11:28:49Z</time>
      </trkpt>
      <trkpt lat="45.22444" lon="6.02226">
        <ele>1808.2</ele>
        <time>2021-12-19T11:28:52Z</time>
      </trkpt>
      <trkpt lat="45.22443" lon="6.02227">
        <ele>1807.8</ele>
        <time>2021-12-19T11:28:53Z</time>
      </trkpt>
      <trkpt lat="45.22441" lon="6.02225">
        <ele>1807.2</ele>
        <time>2021-12-19T11:28:55Z</time>
      </trkpt>
      <trkpt lat="45.22437" lon="6.02223">
        <ele>1805.8</ele>
        <time>2021-12-19T11:28:57Z</time>
      </trkpt>
      <trkpt lat="45.22435" lon="6.02225">
        <ele>1804.8</ele>
        <time>2021-12-19T11:28:58Z</time>
      </trkpt>
      <trkpt lat="45.22433" lon="6.02228">
        <ele>1803.2</ele>
        <time>2021-12-19T11:28:59Z</time>
      </trkpt>
      <trkpt lat="45.22432" lon="6.0223">
        <ele>1802.2</ele>
        <time>2021-12-19T11:29:00Z</time>
      </trkpt>
      <trkpt lat="45.22431" lon="6.02231">
        <ele>1801.2</ele>
        <time>2021-12-19T11:29:01Z</time>
      </trkpt>
      <trkpt lat="45.22428" lon="6.02227">
        <ele>1799.2</ele>
        <time>2021-12-19T11:29:03Z</time>
      </trkpt>
      <trkpt lat="45.22427" lon="6.02224">
        <ele>1797.4</ele>
        <time>2021-12-19T11:29:04Z</time>
      </trkpt>
      <trkpt lat="45.22425" lon="6.02224">
        <ele>1796.2</ele>
        <time>2021-12-19T11:29:05Z</time>
      </trkpt>
      <trkpt lat="45.22424" lon="6.02227">
        <ele>1795</ele>
        <time>2021-12-19T11:29:06Z</time>
      </trkpt>
      <trkpt lat="45.22423" lon="6.02231">
        <ele>1793.8</ele>
        <time>2021-12-19T11:29:07Z</time>
      </trkpt>
      <trkpt lat="45.22418" lon="6.02235">
        <ele>1792.4</ele>
        <time>2021-12-19T11:29:09Z</time>
      </trkpt>
      <trkpt lat="45.22416" lon="6.02232">
        <ele>1790.8</ele>
        <time>2021-12-19T11:29:10Z</time>
      </trkpt>
      <trkpt lat="45.22415" lon="6.02228">
        <ele>1789.6</ele>
        <time>2021-12-19T11:29:11Z</time>
      </trkpt>
      <trkpt lat="45.22414" lon="6.02224">
        <ele>1788.6</ele>
        <time>2021-12-19T11:29:12Z</time>
      </trkpt>
      <trkpt lat="45.22413" lon="6.02221">
        <ele>1787.6</ele>
        <time>2021-12-19T11:29:13Z</time>
      </trkpt>
      <trkpt lat="45.22412" lon="6.02219">
        <ele>1786.8</ele>
        <time>2021-12-19T11:29:14Z</time>
      </trkpt>
      <trkpt lat="45.2241" lon="6.0222">
        <ele>1786</ele>
        <time>2021-12-19T11:29:15Z</time>
      </trkpt>
      <trkpt lat="45.22408" lon="6.02223">
        <ele>1784.6</ele>
        <time>2021-12-19T11:29:16Z</time>
      </trkpt>
      <trkpt lat="45.22407" lon="6.02227">
        <ele>1783.2</ele>
        <time>2021-12-19T11:29:17Z</time>
      </trkpt>
      <trkpt lat="45.22406" lon="6.0223">
        <ele>1782.4</ele>
        <time>2021-12-19T11:29:18Z</time>
      </trkpt>
      <trkpt lat="45.22405" lon="6.02234">
        <ele>1781.6</ele>
        <time>2021-12-19T11:29:19Z</time>
      </trkpt>
      <trkpt lat="45.22404" lon="6.02244">
        <ele>1780.4</ele>
        <time>2021-12-19T11:29:21Z</time>
      </trkpt>
      <trkpt lat="45.224" lon="6.02252">
        <ele>1779</ele>
        <time>2021-12-19T11:29:23Z</time>
      </trkpt>
      <trkpt lat="45.22398" lon="6.02253">
        <ele>1778.4</ele>
        <time>2021-12-19T11:29:24Z</time>
      </trkpt>
      <trkpt lat="45.22396" lon="6.0225">
        <ele>1777.8</ele>
        <time>2021-12-19T11:29:25Z</time>
      </trkpt>
      <trkpt lat="45.22395" lon="6.02244">
        <ele>1776</ele>
        <time>2021-12-19T11:29:26Z</time>
      </trkpt>
      <trkpt lat="45.22395" lon="6.02239">
        <ele>1774.4</ele>
        <time>2021-12-19T11:29:27Z</time>
      </trkpt>
      <trkpt lat="45.22395" lon="6.02228">
        <ele>1772.8</ele>
        <time>2021-12-19T11:29:29Z</time>
      </trkpt>
      <trkpt lat="45.22394" lon="6.02222">
        <ele>1771.6</ele>
        <time>2021-12-19T11:29:31Z</time>
      </trkpt>
      <trkpt lat="45.2239" lon="6.02225">
        <ele>1770.2</ele>
        <time>2021-12-19T11:29:33Z</time>
      </trkpt>
      <trkpt lat="45.22388" lon="6.02226">
        <ele>1769.4</ele>
        <time>2021-12-19T11:29:34Z</time>
      </trkpt>
      <trkpt lat="45.22386" lon="6.02224">
        <ele>1768.6</ele>
        <time>2021-12-19T11:29:35Z</time>
      </trkpt>
      <trkpt lat="45.22385" lon="6.02219">
        <ele>1767</ele>
        <time>2021-12-19T11:29:36Z</time>
      </trkpt>
      <trkpt lat="45.22384" lon="6.02214">
        <ele>1766</ele>
        <time>2021-12-19T11:29:37Z</time>
      </trkpt>
      <trkpt lat="45.22384" lon="6.02202">
        <ele>1764.2</ele>
        <time>2021-12-19T11:29:39Z</time>
      </trkpt>
      <trkpt lat="45.22383" lon="6.02191">
        <ele>1763</ele>
        <time>2021-12-19T11:29:41Z</time>
      </trkpt>
      <trkpt lat="45.22383" lon="6.02182">
        <ele>1761.4</ele>
        <time>2021-12-19T11:29:43Z</time>
      </trkpt>
      <trkpt lat="45.22382" lon="6.02179">
        <ele>1760.8</ele>
        <time>2021-12-19T11:29:44Z</time>
      </trkpt>
      <trkpt lat="45.2238" lon="6.02179">
        <ele>1760.4</ele>
        <time>2021-12-19T11:29:45Z</time>
      </trkpt>
      <trkpt lat="45.22378" lon="6.02181">
        <ele>1759.2</ele>
        <time>2021-12-19T11:29:46Z</time>
      </trkpt>
      <trkpt lat="45.22372" lon="6.0219">
        <ele>1757.8</ele>
        <time>2021-12-19T11:29:48Z</time>
      </trkpt>
      <trkpt lat="45.22369" lon="6.02192">
        <ele>1755.8</ele>
        <time>2021-12-19T11:29:49Z</time>
      </trkpt>
      <trkpt lat="45.22366" lon="6.02191">
        <ele>1754.4</ele>
        <time>2021-12-19T11:29:50Z</time>
      </trkpt>
      <trkpt lat="45.22363" lon="6.02189">
        <ele>1752.6</ele>
        <time>2021-12-19T11:29:51Z</time>
      </trkpt>
      <trkpt lat="45.2236" lon="6.02188">
        <ele>1751.4</ele>
        <time>2021-12-19T11:29:52Z</time>
      </trkpt>
      <trkpt lat="45.22356" lon="6.0219">
        <ele>1749.8</ele>
        <time>2021-12-19T11:29:53Z</time>
      </trkpt>
      <trkpt lat="45.2235" lon="6.02193">
        <ele>1748.4</ele>
        <time>2021-12-19T11:29:54Z</time>
      </trkpt>
      <trkpt lat="45.22345" lon="6.02193">
        <ele>1747</ele>
        <time>2021-12-19T11:29:55Z</time>
      </trkpt>
      <trkpt lat="45.22342" lon="6.02192">
        <ele>1745.8</ele>
        <time>2021-12-19T11:29:56Z</time>
      </trkpt>
      <trkpt lat="45.22339" lon="6.0219">
        <ele>1745.4</ele>
        <time>2021-12-19T11:29:57Z</time>
      </trkpt>
      <trkpt lat="45.22335" lon="6.02185">
        <ele>1744.6</ele>
        <time>2021-12-19T11:29:59Z</time>
      </trkpt>
      <trkpt lat="45.22326" lon="6.02173">
        <ele>1743.8</ele>
        <time>2021-12-19T11:30:03Z</time>
      </trkpt>
      <trkpt lat="45.2232" lon="6.02169">
        <ele>1743.4</ele>
        <time>2021-12-19T11:30:05Z</time>
      </trkpt>
      <trkpt lat="45.22317" lon="6.02165">
        <ele>1743</ele>
        <time>2021-12-19T11:30:08Z</time>
      </trkpt>
      <trkpt lat="45.22309" lon="6.02154">
        <ele>1742.4</ele>
        <time>2021-12-19T11:30:12Z</time>
      </trkpt>
      <trkpt lat="45.22307" lon="6.02153">
        <ele>1742</ele>
        <time>2021-12-19T11:30:13Z</time>
      </trkpt>
      <trkpt lat="45.22297" lon="6.02147">
        <ele>1741.2</ele>
        <time>2021-12-19T11:30:17Z</time>
      </trkpt>
      <trkpt lat="45.22295" lon="6.02144">
        <ele>1741.2</ele>
        <time>2021-12-19T11:30:18Z</time>
      </trkpt>
      <trkpt lat="45.22286" lon="6.02136">
        <ele>1739.8</ele>
        <time>2021-12-19T11:30:20Z</time>
      </trkpt>
      <trkpt lat="45.22283" lon="6.02131">
        <ele>1738.4</ele>
        <time>2021-12-19T11:30:21Z</time>
      </trkpt>
      <trkpt lat="45.2228" lon="6.02127">
        <ele>1737.4</ele>
        <time>2021-12-19T11:30:22Z</time>
      </trkpt>
      <trkpt lat="45.22274" lon="6.02118">
        <ele>1735.4</ele>
        <time>2021-12-19T11:30:24Z</time>
      </trkpt>
      <trkpt lat="45.22271" lon="6.02113">
        <ele>1734</ele>
        <time>2021-12-19T11:30:25Z</time>
      </trkpt>
      <trkpt lat="45.22269" lon="6.02107">
        <ele>1732.8</ele>
        <time>2021-12-19T11:30:26Z</time>
      </trkpt>
      <trkpt lat="45.22266" lon="6.02098">
        <ele>1731.4</ele>
        <time>2021-12-19T11:30:28Z</time>
      </trkpt>
      <trkpt lat="45.22263" lon="6.02086">
        <ele>1730</ele>
        <time>2021-12-19T11:30:30Z</time>
      </trkpt>
      <trkpt lat="45.22261" lon="6.0208">
        <ele>1728.8</ele>
        <time>2021-12-19T11:30:32Z</time>
      </trkpt>
      <trkpt lat="45.22253" lon="6.02077">
        <ele>1727.2</ele>
        <time>2021-12-19T11:30:35Z</time>
      </trkpt>
      <trkpt lat="45.22252" lon="6.02077">
        <ele>1727</ele>
        <time>2021-12-19T11:30:36Z</time>
      </trkpt>
      <trkpt lat="45.22252" lon="6.02079">
        <ele>1726.8</ele>
        <time>2021-12-19T11:30:41Z</time>
      </trkpt>
      <trkpt lat="45.22252" lon="6.02079">
        <ele>1726.8</ele>
        <time>2021-12-19T11:30:42Z</time>
      </trkpt>
      <trkpt lat="45.22257" lon="6.0207">
        <ele>1726.6</ele>
        <time>2021-12-19T11:30:46Z</time>
      </trkpt>
      <trkpt lat="45.22259" lon="6.02068">
        <ele>1726.2</ele>
        <time>2021-12-19T11:30:47Z</time>
      </trkpt>
      <trkpt lat="45.22262" lon="6.0206">
        <ele>1725.2</ele>
        <time>2021-12-19T11:30:49Z</time>
      </trkpt>
      <trkpt lat="45.22263" lon="6.0205">
        <ele>1724.4</ele>
        <time>2021-12-19T11:30:51Z</time>
      </trkpt>
      <trkpt lat="45.22264" lon="6.02045">
        <ele>1723.8</ele>
        <time>2021-12-19T11:30:52Z</time>
      </trkpt>
      <trkpt lat="45.22265" lon="6.02022">
        <ele>1722.6</ele>
        <time>2021-12-19T11:30:57Z</time>
      </trkpt>
      <trkpt lat="45.22266" lon="6.0201">
        <ele>1721.6</ele>
        <time>2021-12-19T11:31:02Z</time>
      </trkpt>
      <trkpt lat="45.22267" lon="6.02007">
        <ele>1721.6</ele>
        <time>2021-12-19T11:31:03Z</time>
      </trkpt>
      <trkpt lat="45.22266" lon="6.01999">
        <ele>1720.4</ele>
        <time>2021-12-19T11:31:06Z</time>
      </trkpt>
      <trkpt lat="45.22265" lon="6.01996">
        <ele>1719.8</ele>
        <time>2021-12-19T11:31:07Z</time>
      </trkpt>
      <trkpt lat="45.22265" lon="6.01991">
        <ele>1719.2</ele>
        <time>2021-12-19T11:31:08Z</time>
      </trkpt>
      <trkpt lat="45.22265" lon="6.01987">
        <ele>1717.4</ele>
        <time>2021-12-19T11:31:09Z</time>
      </trkpt>
      <trkpt lat="45.22265" lon="6.01978">
        <ele>1716</ele>
        <time>2021-12-19T11:31:11Z</time>
      </trkpt>
      <trkpt lat="45.22265" lon="6.01974">
        <ele>1715</ele>
        <time>2021-12-19T11:31:12Z</time>
      </trkpt>
      <trkpt lat="45.22265" lon="6.01965">
        <ele>1714.6</ele>
        <time>2021-12-19T11:31:13Z</time>
      </trkpt>
      <trkpt lat="45.22263" lon="6.01954">
        <ele>1713</ele>
        <time>2021-12-19T11:31:14Z</time>
      </trkpt>
      <trkpt lat="45.22261" lon="6.01947">
        <ele>1711.6</ele>
        <time>2021-12-19T11:31:15Z</time>
      </trkpt>
      <trkpt lat="45.22259" lon="6.01942">
        <ele>1710.8</ele>
        <time>2021-12-19T11:31:16Z</time>
      </trkpt>
      <trkpt lat="45.22257" lon="6.01936">
        <ele>1710</ele>
        <time>2021-12-19T11:31:17Z</time>
      </trkpt>
      <trkpt lat="45.22256" lon="6.01928">
        <ele>1709.6</ele>
        <time>2021-12-19T11:31:18Z</time>
      </trkpt>
      <trkpt lat="45.22257" lon="6.01912">
        <ele>1708.8</ele>
        <time>2021-12-19T11:31:20Z</time>
      </trkpt>
      <trkpt lat="45.22257" lon="6.01904">
        <ele>1708.4</ele>
        <time>2021-12-19T11:31:21Z</time>
      </trkpt>
      <trkpt lat="45.22256" lon="6.01895">
        <ele>1707.2</ele>
        <time>2021-12-19T11:31:22Z</time>
      </trkpt>
      <trkpt lat="45.22256" lon="6.01876">
        <ele>1705.4</ele>
        <time>2021-12-19T11:31:24Z</time>
      </trkpt>
      <trkpt lat="45.22257" lon="6.01859">
        <ele>1704.2</ele>
        <time>2021-12-19T11:31:26Z</time>
      </trkpt>
      <trkpt lat="45.22259" lon="6.01844">
        <ele>1703.4</ele>
        <time>2021-12-19T11:31:28Z</time>
      </trkpt>
      <trkpt lat="45.2226" lon="6.01838">
        <ele>1703.2</ele>
        <time>2021-12-19T11:31:29Z</time>
      </trkpt>
      <trkpt lat="45.22262" lon="6.01832">
        <ele>1702.6</ele>
        <time>2021-12-19T11:31:30Z</time>
      </trkpt>
      <trkpt lat="45.22266" lon="6.01823">
        <ele>1701.8</ele>
        <time>2021-12-19T11:31:32Z</time>
      </trkpt>
      <trkpt lat="45.2227" lon="6.0182">
        <ele>1701.2</ele>
        <time>2021-12-19T11:31:33Z</time>
      </trkpt>
      <trkpt lat="45.22273" lon="6.01817">
        <ele>1700.8</ele>
        <time>2021-12-19T11:31:34Z</time>
      </trkpt>
      <trkpt lat="45.22276" lon="6.01813">
        <ele>1699.6</ele>
        <time>2021-12-19T11:31:35Z</time>
      </trkpt>
      <trkpt lat="45.22279" lon="6.01805">
        <ele>1698.6</ele>
        <time>2021-12-19T11:31:37Z</time>
      </trkpt>
      <trkpt lat="45.2228" lon="6.01796">
        <ele>1697.6</ele>
        <time>2021-12-19T11:31:39Z</time>
      </trkpt>
      <trkpt lat="45.22278" lon="6.01792">
        <ele>1696.4</ele>
        <time>2021-12-19T11:31:40Z</time>
      </trkpt>
      <trkpt lat="45.22276" lon="6.01789">
        <ele>1695.6</ele>
        <time>2021-12-19T11:31:41Z</time>
      </trkpt>
      <trkpt lat="45.22273" lon="6.01781">
        <ele>1693.8</ele>
        <time>2021-12-19T11:31:42Z</time>
      </trkpt>
      <trkpt lat="45.22271" lon="6.01771">
        <ele>1691.6</ele>
        <time>2021-12-19T11:31:43Z</time>
      </trkpt>
      <trkpt lat="45.22272" lon="6.01758">
        <ele>1688.2</ele>
        <time>2021-12-19T11:31:44Z</time>
      </trkpt>
      <trkpt lat="45.22271" lon="6.01744">
        <ele>1685.6</ele>
        <time>2021-12-19T11:31:45Z</time>
      </trkpt>
      <trkpt lat="45.2227" lon="6.01733">
        <ele>1684.2</ele>
        <time>2021-12-19T11:31:46Z</time>
      </trkpt>
      <trkpt lat="45.2227" lon="6.01712">
        <ele>1683.2</ele>
        <time>2021-12-19T11:31:48Z</time>
      </trkpt>
      <trkpt lat="45.2227" lon="6.01704">
        <ele>1683.4</ele>
        <time>2021-12-19T11:31:49Z</time>
      </trkpt>
      <trkpt lat="45.22269" lon="6.01696">
        <ele>1683.4</ele>
        <time>2021-12-19T11:31:50Z</time>
      </trkpt>
      <trkpt lat="45.22268" lon="6.0169">
        <ele>1683.6</ele>
        <time>2021-12-19T11:31:51Z</time>
      </trkpt>
      <trkpt lat="45.22266" lon="6.01677">
        <ele>1684.2</ele>
        <time>2021-12-19T11:31:53Z</time>
      </trkpt>
      <trkpt lat="45.22266" lon="6.01669">
        <ele>1684.6</ele>
        <time>2021-12-19T11:31:55Z</time>
      </trkpt>
      <trkpt lat="45.22265" lon="6.01651">
        <ele>1685.2</ele>
        <time>2021-12-19T11:32:01Z</time>
      </trkpt>
      <trkpt lat="45.22265" lon="6.01648">
        <ele>1685.2</ele>
        <time>2021-12-19T11:32:03Z</time>
      </trkpt>
      <trkpt lat="45.22265" lon="6.01641">
        <ele>1685.8</ele>
        <time>2021-12-19T11:32:08Z</time>
      </trkpt>
      <trkpt lat="45.22264" lon="6.01639">
        <ele>1686</ele>
        <time>2021-12-19T11:32:09Z</time>
      </trkpt>
      <trkpt lat="45.22263" lon="6.01634">
        <ele>1686.4</ele>
        <time>2021-12-19T11:32:11Z</time>
      </trkpt>
      <trkpt lat="45.22262" lon="6.01622">
        <ele>1687</ele>
        <time>2021-12-19T11:32:16Z</time>
      </trkpt>
      <trkpt lat="45.22261" lon="6.0161">
        <ele>1687.4</ele>
        <time>2021-12-19T11:32:20Z</time>
      </trkpt>
      <trkpt lat="45.22261" lon="6.01606">
        <ele>1687.4</ele>
        <time>2021-12-19T11:32:21Z</time>
      </trkpt>
      <trkpt lat="45.22255" lon="6.01575">
        <ele>1687.2</ele>
        <time>2021-12-19T11:32:30Z</time>
      </trkpt>
      <trkpt lat="45.2225" lon="6.01542">
        <ele>1686.8</ele>
        <time>2021-12-19T11:32:38Z</time>
      </trkpt>
      <trkpt lat="45.22246" lon="6.01527">
        <ele>1686.4</ele>
        <time>2021-12-19T11:32:43Z</time>
      </trkpt>
      <trkpt lat="45.22246" lon="6.01524">
        <ele>1686.4</ele>
        <time>2021-12-19T11:32:44Z</time>
      </trkpt>
      <trkpt lat="45.22243" lon="6.01515">
        <ele>1686.2</ele>
        <time>2021-12-19T11:32:47Z</time>
      </trkpt>
      <trkpt lat="45.22242" lon="6.01512">
        <ele>1686.2</ele>
        <time>2021-12-19T11:32:48Z</time>
      </trkpt>
      <trkpt lat="45.22238" lon="6.01493">
        <ele>1686</ele>
        <time>2021-12-19T11:32:55Z</time>
      </trkpt>
      <trkpt lat="45.22235" lon="6.0147">
        <ele>1685.2</ele>
        <time>2021-12-19T11:33:01Z</time>
      </trkpt>
      <trkpt lat="45.22235" lon="6.01464">
        <ele>1685</ele>
        <time>2021-12-19T11:33:02Z</time>
      </trkpt>
      <trkpt lat="45.22232" lon="6.01453">
        <ele>1684.2</ele>
        <time>2021-12-19T11:33:04Z</time>
      </trkpt>
      <trkpt lat="45.22228" lon="6.01432">
        <ele>1683.2</ele>
        <time>2021-12-19T11:33:08Z</time>
      </trkpt>
      <trkpt lat="45.22229" lon="6.01417">
        <ele>1682.2</ele>
        <time>2021-12-19T11:33:12Z</time>
      </trkpt>
      <trkpt lat="45.22231" lon="6.01414">
        <ele>1681.8</ele>
        <time>2021-12-19T11:33:13Z</time>
      </trkpt>
      <trkpt lat="45.22236" lon="6.01398">
        <ele>1680.2</ele>
        <time>2021-12-19T11:33:15Z</time>
      </trkpt>
      <trkpt lat="45.22239" lon="6.01392">
        <ele>1679.2</ele>
        <time>2021-12-19T11:33:16Z</time>
      </trkpt>
      <trkpt lat="45.22242" lon="6.01389">
        <ele>1677.6</ele>
        <time>2021-12-19T11:33:17Z</time>
      </trkpt>
      <trkpt lat="45.22246" lon="6.01385">
        <ele>1676.4</ele>
        <time>2021-12-19T11:33:18Z</time>
      </trkpt>
      <trkpt lat="45.22249" lon="6.01384">
        <ele>1675.6</ele>
        <time>2021-12-19T11:33:19Z</time>
      </trkpt>
      <trkpt lat="45.22252" lon="6.01382">
        <ele>1674.8</ele>
        <time>2021-12-19T11:33:20Z</time>
      </trkpt>
      <trkpt lat="45.22259" lon="6.01378">
        <ele>1673.8</ele>
        <time>2021-12-19T11:33:22Z</time>
      </trkpt>
      <trkpt lat="45.22263" lon="6.01375">
        <ele>1672.8</ele>
        <time>2021-12-19T11:33:23Z</time>
      </trkpt>
      <trkpt lat="45.22268" lon="6.01373">
        <ele>1671.6</ele>
        <time>2021-12-19T11:33:24Z</time>
      </trkpt>
      <trkpt lat="45.22275" lon="6.01368">
        <ele>1669.8</ele>
        <time>2021-12-19T11:33:26Z</time>
      </trkpt>
      <trkpt lat="45.22277" lon="6.0136">
        <ele>1668.6</ele>
        <time>2021-12-19T11:33:28Z</time>
      </trkpt>
      <trkpt lat="45.22279" lon="6.01349">
        <ele>1667.8</ele>
        <time>2021-12-19T11:33:30Z</time>
      </trkpt>
      <trkpt lat="45.22282" lon="6.01338">
        <ele>1666.8</ele>
        <time>2021-12-19T11:33:32Z</time>
      </trkpt>
      <trkpt lat="45.22284" lon="6.01325">
        <ele>1665.2</ele>
        <time>2021-12-19T11:33:34Z</time>
      </trkpt>
      <trkpt lat="45.22286" lon="6.01313">
        <ele>1663.6</ele>
        <time>2021-12-19T11:33:36Z</time>
      </trkpt>
      <trkpt lat="45.22285" lon="6.01311">
        <ele>1662.8</ele>
        <time>2021-12-19T11:33:37Z</time>
      </trkpt>
      <trkpt lat="45.22283" lon="6.01309">
        <ele>1661.6</ele>
        <time>2021-12-19T11:33:38Z</time>
      </trkpt>
      <trkpt lat="45.22276" lon="6.01308">
        <ele>1660</ele>
        <time>2021-12-19T11:33:40Z</time>
      </trkpt>
      <trkpt lat="45.22271" lon="6.01307">
        <ele>1658.8</ele>
        <time>2021-12-19T11:33:42Z</time>
      </trkpt>
      <trkpt lat="45.22265" lon="6.01309">
        <ele>1657</ele>
        <time>2021-12-19T11:33:44Z</time>
      </trkpt>
      <trkpt lat="45.22262" lon="6.01311">
        <ele>1656.4</ele>
        <time>2021-12-19T11:33:45Z</time>
      </trkpt>
      <trkpt lat="45.22259" lon="6.0131">
        <ele>1655.8</ele>
        <time>2021-12-19T11:33:46Z</time>
      </trkpt>
      <trkpt lat="45.2225" lon="6.0131">
        <ele>1654.6</ele>
        <time>2021-12-19T11:33:48Z</time>
      </trkpt>
      <trkpt lat="45.22249" lon="6.01309">
        <ele>1654</ele>
        <time>2021-12-19T11:33:49Z</time>
      </trkpt>
      <trkpt lat="45.22246" lon="6.01307">
        <ele>1653.4</ele>
        <time>2021-12-19T11:33:50Z</time>
      </trkpt>
      <trkpt lat="45.22239" lon="6.01302">
        <ele>1651.8</ele>
        <time>2021-12-19T11:33:52Z</time>
      </trkpt>
      <trkpt lat="45.22235" lon="6.01298">
        <ele>1650.4</ele>
        <time>2021-12-19T11:33:54Z</time>
      </trkpt>
      <trkpt lat="45.22235" lon="6.01297">
        <ele>1649.4</ele>
        <time>2021-12-19T11:33:55Z</time>
      </trkpt>
      <trkpt lat="45.22233" lon="6.01292">
        <ele>1648.2</ele>
        <time>2021-12-19T11:33:57Z</time>
      </trkpt>
      <trkpt lat="45.22232" lon="6.01286">
        <ele>1647.2</ele>
        <time>2021-12-19T11:33:59Z</time>
      </trkpt>
      <trkpt lat="45.22231" lon="6.01284">
        <ele>1646.8</ele>
        <time>2021-12-19T11:34:00Z</time>
      </trkpt>
      <trkpt lat="45.22231" lon="6.01278">
        <ele>1646</ele>
        <time>2021-12-19T11:34:04Z</time>
      </trkpt>
      <trkpt lat="45.22231" lon="6.01274">
        <ele>1645.4</ele>
        <time>2021-12-19T11:34:06Z</time>
      </trkpt>
      <trkpt lat="45.2223" lon="6.01271">
        <ele>1644.8</ele>
        <time>2021-12-19T11:34:08Z</time>
      </trkpt>
      <trkpt lat="45.22233" lon="6.01263">
        <ele>1644</ele>
        <time>2021-12-19T11:34:11Z</time>
      </trkpt>
      <trkpt lat="45.22235" lon="6.01258">
        <ele>1643.4</ele>
        <time>2021-12-19T11:34:12Z</time>
      </trkpt>
      <trkpt lat="45.22236" lon="6.01252">
        <ele>1642</ele>
        <time>2021-12-19T11:34:13Z</time>
      </trkpt>
      <trkpt lat="45.22237" lon="6.01248">
        <ele>1640.8</ele>
        <time>2021-12-19T11:34:14Z</time>
      </trkpt>
      <trkpt lat="45.22238" lon="6.01245">
        <ele>1639.6</ele>
        <time>2021-12-19T11:34:15Z</time>
      </trkpt>
      <trkpt lat="45.22242" lon="6.01235">
        <ele>1637.8</ele>
        <time>2021-12-19T11:34:17Z</time>
      </trkpt>
      <trkpt lat="45.22245" lon="6.01227">
        <ele>1635.8</ele>
        <time>2021-12-19T11:34:19Z</time>
      </trkpt>
      <trkpt lat="45.22245" lon="6.01223">
        <ele>1635</ele>
        <time>2021-12-19T11:34:20Z</time>
      </trkpt>
      <trkpt lat="45.22245" lon="6.01219">
        <ele>1634</ele>
        <time>2021-12-19T11:34:21Z</time>
      </trkpt>
      <trkpt lat="45.22245" lon="6.01213">
        <ele>1632.8</ele>
        <time>2021-12-19T11:34:22Z</time>
      </trkpt>
      <trkpt lat="45.22244" lon="6.01208">
        <ele>1631.4</ele>
        <time>2021-12-19T11:34:23Z</time>
      </trkpt>
      <trkpt lat="45.22244" lon="6.01201">
        <ele>1629.8</ele>
        <time>2021-12-19T11:34:24Z</time>
      </trkpt>
      <trkpt lat="45.22243" lon="6.01192">
        <ele>1628.4</ele>
        <time>2021-12-19T11:34:25Z</time>
      </trkpt>
      <trkpt lat="45.22244" lon="6.01186">
        <ele>1626</ele>
        <time>2021-12-19T11:34:26Z</time>
      </trkpt>
      <trkpt lat="45.22244" lon="6.01178">
        <ele>1624.6</ele>
        <time>2021-12-19T11:34:27Z</time>
      </trkpt>
      <trkpt lat="45.22245" lon="6.01172">
        <ele>1623.6</ele>
        <time>2021-12-19T11:34:28Z</time>
      </trkpt>
      <trkpt lat="45.22244" lon="6.01162">
        <ele>1622.4</ele>
        <time>2021-12-19T11:34:30Z</time>
      </trkpt>
      <trkpt lat="45.22244" lon="6.0115">
        <ele>1621.4</ele>
        <time>2021-12-19T11:34:32Z</time>
      </trkpt>
      <trkpt lat="45.22244" lon="6.01139">
        <ele>1620.2</ele>
        <time>2021-12-19T11:34:34Z</time>
      </trkpt>
      <trkpt lat="45.22246" lon="6.01116">
        <ele>1619</ele>
        <time>2021-12-19T11:34:38Z</time>
      </trkpt>
      <trkpt lat="45.22247" lon="6.0111">
        <ele>1618.6</ele>
        <time>2021-12-19T11:34:39Z</time>
      </trkpt>
      <trkpt lat="45.22247" lon="6.011">
        <ele>1617.6</ele>
        <time>2021-12-19T11:34:41Z</time>
      </trkpt>
      <trkpt lat="45.22244" lon="6.01088">
        <ele>1615.8</ele>
        <time>2021-12-19T11:34:43Z</time>
      </trkpt>
      <trkpt lat="45.22244" lon="6.01083">
        <ele>1614.4</ele>
        <time>2021-12-19T11:34:44Z</time>
      </trkpt>
      <trkpt lat="45.22242" lon="6.01076">
        <ele>1613.4</ele>
        <time>2021-12-19T11:34:45Z</time>
      </trkpt>
      <trkpt lat="45.22241" lon="6.01071">
        <ele>1612.2</ele>
        <time>2021-12-19T11:34:46Z</time>
      </trkpt>
      <trkpt lat="45.22242" lon="6.01065">
        <ele>1611</ele>
        <time>2021-12-19T11:34:47Z</time>
      </trkpt>
      <trkpt lat="45.22242" lon="6.01061">
        <ele>1610</ele>
        <time>2021-12-19T11:34:48Z</time>
      </trkpt>
      <trkpt lat="45.22241" lon="6.01057">
        <ele>1609</ele>
        <time>2021-12-19T11:34:49Z</time>
      </trkpt>
      <trkpt lat="45.2224" lon="6.01051">
        <ele>1608</ele>
        <time>2021-12-19T11:34:50Z</time>
      </trkpt>
      <trkpt lat="45.22241" lon="6.01045">
        <ele>1607.2</ele>
        <time>2021-12-19T11:34:51Z</time>
      </trkpt>
      <trkpt lat="45.22242" lon="6.0104">
        <ele>1606.2</ele>
        <time>2021-12-19T11:34:52Z</time>
      </trkpt>
      <trkpt lat="45.22243" lon="6.01034">
        <ele>1605.4</ele>
        <time>2021-12-19T11:34:53Z</time>
      </trkpt>
      <trkpt lat="45.22242" lon="6.01029">
        <ele>1604.8</ele>
        <time>2021-12-19T11:34:54Z</time>
      </trkpt>
      <trkpt lat="45.22243" lon="6.01022">
        <ele>1603.8</ele>
        <time>2021-12-19T11:34:55Z</time>
      </trkpt>
      <trkpt lat="45.22243" lon="6.01015">
        <ele>1602.8</ele>
        <time>2021-12-19T11:34:56Z</time>
      </trkpt>
      <trkpt lat="45.22243" lon="6.0101">
        <ele>1601.8</ele>
        <time>2021-12-19T11:34:57Z</time>
      </trkpt>
      <trkpt lat="45.22241" lon="6.01005">
        <ele>1600.8</ele>
        <time>2021-12-19T11:34:58Z</time>
      </trkpt>
      <trkpt lat="45.22239" lon="6.01002">
        <ele>1599.8</ele>
        <time>2021-12-19T11:34:59Z</time>
      </trkpt>
      <trkpt lat="45.22237" lon="6.01">
        <ele>1599</ele>
        <time>2021-12-19T11:35:00Z</time>
      </trkpt>
      <trkpt lat="45.22234" lon="6.00996">
        <ele>1597.8</ele>
        <time>2021-12-19T11:35:04Z</time>
      </trkpt>
      <trkpt lat="45.22234" lon="6.00996">
        <ele>1597.6</ele>
        <time>2021-12-19T11:35:05Z</time>
      </trkpt>
      <trkpt lat="45.22233" lon="6.00994">
        <ele>1597.4</ele>
        <time>2021-12-19T11:35:07Z</time>
      </trkpt>
      <trkpt lat="45.22232" lon="6.00987">
        <ele>1596.8</ele>
        <time>2021-12-19T11:35:11Z</time>
      </trkpt>
      <trkpt lat="45.22232" lon="6.00985">
        <ele>1596.6</ele>
        <time>2021-12-19T11:35:12Z</time>
      </trkpt>
      <trkpt lat="45.22232" lon="6.0098">
        <ele>1595.4</ele>
        <time>2021-12-19T11:35:16Z</time>
      </trkpt>
      <trkpt lat="45.22232" lon="6.00979">
        <ele>1595.2</ele>
        <time>2021-12-19T11:35:17Z</time>
      </trkpt>
      <trkpt lat="45.22233" lon="6.00974">
        <ele>1594.4</ele>
        <time>2021-12-19T11:35:20Z</time>
      </trkpt>
      <trkpt lat="45.22233" lon="6.00966">
        <ele>1593</ele>
        <time>2021-12-19T11:35:23Z</time>
      </trkpt>
      <trkpt lat="45.22233" lon="6.00964">
        <ele>1592.4</ele>
        <time>2021-12-19T11:35:24Z</time>
      </trkpt>
      <trkpt lat="45.22233" lon="6.00961">
        <ele>1591.8</ele>
        <time>2021-12-19T11:35:26Z</time>
      </trkpt>
      <trkpt lat="45.22233" lon="6.00954">
        <ele>1590.6</ele>
        <time>2021-12-19T11:35:29Z</time>
      </trkpt>
      <trkpt lat="45.22233" lon="6.00951">
        <ele>1589.8</ele>
        <time>2021-12-19T11:35:31Z</time>
      </trkpt>
      <trkpt lat="45.22233" lon="6.00949">
        <ele>1589</ele>
        <time>2021-12-19T11:35:32Z</time>
      </trkpt>
      <trkpt lat="45.22231" lon="6.00942">
        <ele>1587.8</ele>
        <time>2021-12-19T11:35:34Z</time>
      </trkpt>
      <trkpt lat="45.22229" lon="6.00934">
        <ele>1586.4</ele>
        <time>2021-12-19T11:35:36Z</time>
      </trkpt>
      <trkpt lat="45.2223" lon="6.00933">
        <ele>1585.4</ele>
        <time>2021-12-19T11:35:37Z</time>
      </trkpt>
      <trkpt lat="45.22233" lon="6.00933">
        <ele>1584.2</ele>
        <time>2021-12-19T11:35:38Z</time>
      </trkpt>
      <trkpt lat="45.22239" lon="6.00932">
        <ele>1583.2</ele>
        <time>2021-12-19T11:35:40Z</time>
      </trkpt>
      <trkpt lat="45.22242" lon="6.0093">
        <ele>1582.2</ele>
        <time>2021-12-19T11:35:41Z</time>
      </trkpt>
      <trkpt lat="45.22243" lon="6.00926">
        <ele>1581.6</ele>
        <time>2021-12-19T11:35:42Z</time>
      </trkpt>
      <trkpt lat="45.22245" lon="6.00922">
        <ele>1580.6</ele>
        <time>2021-12-19T11:35:43Z</time>
      </trkpt>
      <trkpt lat="45.22248" lon="6.00918">
        <ele>1579.4</ele>
        <time>2021-12-19T11:35:44Z</time>
      </trkpt>
      <trkpt lat="45.2225" lon="6.00914">
        <ele>1578.2</ele>
        <time>2021-12-19T11:35:45Z</time>
      </trkpt>
      <trkpt lat="45.22251" lon="6.0091">
        <ele>1577.4</ele>
        <time>2021-12-19T11:35:46Z</time>
      </trkpt>
      <trkpt lat="45.22249" lon="6.00906">
        <ele>1576.2</ele>
        <time>2021-12-19T11:35:47Z</time>
      </trkpt>
      <trkpt lat="45.22248" lon="6.00902">
        <ele>1574.8</ele>
        <time>2021-12-19T11:35:48Z</time>
      </trkpt>
      <trkpt lat="45.22246" lon="6.00896">
        <ele>1573.6</ele>
        <time>2021-12-19T11:35:49Z</time>
      </trkpt>
      <trkpt lat="45.22245" lon="6.0089">
        <ele>1572.6</ele>
        <time>2021-12-19T11:35:50Z</time>
      </trkpt>
      <trkpt lat="45.22245" lon="6.00884">
        <ele>1571.2</ele>
        <time>2021-12-19T11:35:51Z</time>
      </trkpt>
      <trkpt lat="45.22245" lon="6.00879">
        <ele>1569.8</ele>
        <time>2021-12-19T11:35:52Z</time>
      </trkpt>
      <trkpt lat="45.22245" lon="6.00874">
        <ele>1568.6</ele>
        <time>2021-12-19T11:35:53Z</time>
      </trkpt>
      <trkpt lat="45.22245" lon="6.00873">
        <ele>1567.8</ele>
        <time>2021-12-19T11:35:54Z</time>
      </trkpt>
      <trkpt lat="45.22245" lon="6.00872">
        <ele>1567.4</ele>
        <time>2021-12-19T11:35:55Z</time>
      </trkpt>
      <trkpt lat="45.22241" lon="6.00868">
        <ele>1566.6</ele>
        <time>2021-12-19T11:36:01Z</time>
      </trkpt>
      <trkpt lat="45.22239" lon="6.00866">
        <ele>1566.2</ele>
        <time>2021-12-19T11:36:02Z</time>
      </trkpt>
      <trkpt lat="45.22237" lon="6.00862">
        <ele>1565</ele>
        <time>2021-12-19T11:36:04Z</time>
      </trkpt>
      <trkpt lat="45.22235" lon="6.00856">
        <ele>1564</ele>
        <time>2021-12-19T11:36:07Z</time>
      </trkpt>
      <trkpt lat="45.22231" lon="6.00845">
        <ele>1562.6</ele>
        <time>2021-12-19T11:36:11Z</time>
      </trkpt>
      <trkpt lat="45.22231" lon="6.00842">
        <ele>1562</ele>
        <time>2021-12-19T11:36:12Z</time>
      </trkpt>
      <trkpt lat="45.22232" lon="6.00838">
        <ele>1561.4</ele>
        <time>2021-12-19T11:36:14Z</time>
      </trkpt>
      <trkpt lat="45.22231" lon="6.00835">
        <ele>1561</ele>
        <time>2021-12-19T11:36:15Z</time>
      </trkpt>
      <trkpt lat="45.22229" lon="6.00832">
        <ele>1560.4</ele>
        <time>2021-12-19T11:36:16Z</time>
      </trkpt>
      <trkpt lat="45.22228" lon="6.00829">
        <ele>1559.8</ele>
        <time>2021-12-19T11:36:17Z</time>
      </trkpt>
      <trkpt lat="45.22229" lon="6.00822">
        <ele>1558</ele>
        <time>2021-12-19T11:36:19Z</time>
      </trkpt>
      <trkpt lat="45.2223" lon="6.00815">
        <ele>1556.4</ele>
        <time>2021-12-19T11:36:21Z</time>
      </trkpt>
      <trkpt lat="45.22229" lon="6.00812">
        <ele>1555.2</ele>
        <time>2021-12-19T11:36:23Z</time>
      </trkpt>
      <trkpt lat="45.22228" lon="6.0081">
        <ele>1554.6</ele>
        <time>2021-12-19T11:36:24Z</time>
      </trkpt>
      <trkpt lat="45.22229" lon="6.00809">
        <ele>1554.2</ele>
        <time>2021-12-19T11:36:25Z</time>
      </trkpt>
      <trkpt lat="45.2223" lon="6.00807">
        <ele>1553.8</ele>
        <time>2021-12-19T11:36:26Z</time>
      </trkpt>
      <trkpt lat="45.22232" lon="6.00802">
        <ele>1553</ele>
        <time>2021-12-19T11:36:28Z</time>
      </trkpt>
      <trkpt lat="45.22232" lon="6.008">
        <ele>1552.4</ele>
        <time>2021-12-19T11:36:29Z</time>
      </trkpt>
      <trkpt lat="45.22233" lon="6.00798">
        <ele>1552</ele>
        <time>2021-12-19T11:36:30Z</time>
      </trkpt>
      <trkpt lat="45.22234" lon="6.00794">
        <ele>1550.8</ele>
        <time>2021-12-19T11:36:32Z</time>
      </trkpt>
      <trkpt lat="45.22234" lon="6.00791">
        <ele>1549.2</ele>
        <time>2021-12-19T11:36:34Z</time>
      </trkpt>
      <trkpt lat="45.22234" lon="6.0079">
        <ele>1548.8</ele>
        <time>2021-12-19T11:36:35Z</time>
      </trkpt>
      <trkpt lat="45.22234" lon="6.00788">
        <ele>1548</ele>
        <time>2021-12-19T11:36:37Z</time>
      </trkpt>
      <trkpt lat="45.22234" lon="6.00785">
        <ele>1547.6</ele>
        <time>2021-12-19T11:36:39Z</time>
      </trkpt>
      <trkpt lat="45.22234" lon="6.00776">
        <ele>1547</ele>
        <time>2021-12-19T11:36:41Z</time>
      </trkpt>
      <trkpt lat="45.22236" lon="6.00771">
        <ele>1546.2</ele>
        <time>2021-12-19T11:36:42Z</time>
      </trkpt>
      <trkpt lat="45.22238" lon="6.00767">
        <ele>1545.6</ele>
        <time>2021-12-19T11:36:43Z</time>
      </trkpt>
      <trkpt lat="45.22242" lon="6.00746">
        <ele>1543.4</ele>
        <time>2021-12-19T11:36:46Z</time>
      </trkpt>
      <trkpt lat="45.22242" lon="6.00738">
        <ele>1542.6</ele>
        <time>2021-12-19T11:36:47Z</time>
      </trkpt>
      <trkpt lat="45.22242" lon="6.00727">
        <ele>1541.2</ele>
        <time>2021-12-19T11:36:48Z</time>
      </trkpt>
      <trkpt lat="45.22243" lon="6.00717">
        <ele>1539.8</ele>
        <time>2021-12-19T11:36:49Z</time>
      </trkpt>
      <trkpt lat="45.22244" lon="6.00707">
        <ele>1538.2</ele>
        <time>2021-12-19T11:36:50Z</time>
      </trkpt>
      <trkpt lat="45.22244" lon="6.00699">
        <ele>1537</ele>
        <time>2021-12-19T11:36:51Z</time>
      </trkpt>
      <trkpt lat="45.22245" lon="6.00691">
        <ele>1535.8</ele>
        <time>2021-12-19T11:36:52Z</time>
      </trkpt>
      <trkpt lat="45.22248" lon="6.00678">
        <ele>1534.4</ele>
        <time>2021-12-19T11:36:54Z</time>
      </trkpt>
      <trkpt lat="45.22254" lon="6.00661">
        <ele>1533.2</ele>
        <time>2021-12-19T11:36:57Z</time>
      </trkpt>
      <trkpt lat="45.22255" lon="6.00656">
        <ele>1532.8</ele>
        <time>2021-12-19T11:36:59Z</time>
      </trkpt>
      <trkpt lat="45.22257" lon="6.00655">
        <ele>1532.4</ele>
        <time>2021-12-19T11:37:03Z</time>
      </trkpt>
      <trkpt lat="45.22255" lon="6.0065">
        <ele>1532.2</ele>
        <time>2021-12-19T11:37:06Z</time>
      </trkpt>
      <trkpt lat="45.22254" lon="6.00647">
        <ele>1532</ele>
        <time>2021-12-19T11:37:13Z</time>
      </trkpt>
      <trkpt lat="45.22256" lon="6.00634">
        <ele>1531.2</ele>
        <time>2021-12-19T11:37:17Z</time>
      </trkpt>
      <trkpt lat="45.22256" lon="6.0063">
        <ele>1530.6</ele>
        <time>2021-12-19T11:37:18Z</time>
      </trkpt>
      <trkpt lat="45.22254" lon="6.00625">
        <ele>1529.6</ele>
        <time>2021-12-19T11:37:19Z</time>
      </trkpt>
      <trkpt lat="45.22252" lon="6.0062">
        <ele>1527.6</ele>
        <time>2021-12-19T11:37:20Z</time>
      </trkpt>
      <trkpt lat="45.22252" lon="6.00614">
        <ele>1526.4</ele>
        <time>2021-12-19T11:37:21Z</time>
      </trkpt>
      <trkpt lat="45.22251" lon="6.00609">
        <ele>1525.2</ele>
        <time>2021-12-19T11:37:22Z</time>
      </trkpt>
      <trkpt lat="45.22249" lon="6.00603">
        <ele>1524.2</ele>
        <time>2021-12-19T11:37:23Z</time>
      </trkpt>
      <trkpt lat="45.22247" lon="6.00599">
        <ele>1522.6</ele>
        <time>2021-12-19T11:37:24Z</time>
      </trkpt>
      <trkpt lat="45.22246" lon="6.00594">
        <ele>1520.6</ele>
        <time>2021-12-19T11:37:25Z</time>
      </trkpt>
      <trkpt lat="45.22246" lon="6.00589">
        <ele>1519.4</ele>
        <time>2021-12-19T11:37:26Z</time>
      </trkpt>
      <trkpt lat="45.22245" lon="6.00586">
        <ele>1518.2</ele>
        <time>2021-12-19T11:37:27Z</time>
      </trkpt>
      <trkpt lat="45.22242" lon="6.00581">
        <ele>1517.2</ele>
        <time>2021-12-19T11:37:28Z</time>
      </trkpt>
      <trkpt lat="45.22239" lon="6.00577">
        <ele>1516</ele>
        <time>2021-12-19T11:37:29Z</time>
      </trkpt>
      <trkpt lat="45.22236" lon="6.00572">
        <ele>1514.6</ele>
        <time>2021-12-19T11:37:30Z</time>
      </trkpt>
      <trkpt lat="45.2223" lon="6.00563">
        <ele>1512.2</ele>
        <time>2021-12-19T11:37:32Z</time>
      </trkpt>
      <trkpt lat="45.22227" lon="6.00558">
        <ele>1511</ele>
        <time>2021-12-19T11:37:33Z</time>
      </trkpt>
      <trkpt lat="45.22225" lon="6.00552">
        <ele>1510.2</ele>
        <time>2021-12-19T11:37:34Z</time>
      </trkpt>
      <trkpt lat="45.22226" lon="6.00548">
        <ele>1509.6</ele>
        <time>2021-12-19T11:37:35Z</time>
      </trkpt>
      <trkpt lat="45.22227" lon="6.00543">
        <ele>1508.6</ele>
        <time>2021-12-19T11:37:36Z</time>
      </trkpt>
      <trkpt lat="45.22225" lon="6.00537">
        <ele>1507.4</ele>
        <time>2021-12-19T11:37:37Z</time>
      </trkpt>
      <trkpt lat="45.22225" lon="6.00532">
        <ele>1506.2</ele>
        <time>2021-12-19T11:37:38Z</time>
      </trkpt>
      <trkpt lat="45.22227" lon="6.00526">
        <ele>1505</ele>
        <time>2021-12-19T11:37:39Z</time>
      </trkpt>
      <trkpt lat="45.22227" lon="6.00519">
        <ele>1503.6</ele>
        <time>2021-12-19T11:37:40Z</time>
      </trkpt>
      <trkpt lat="45.22227" lon="6.00514">
        <ele>1502</ele>
        <time>2021-12-19T11:37:41Z</time>
      </trkpt>
      <trkpt lat="45.22225" lon="6.00508">
        <ele>1500.2</ele>
        <time>2021-12-19T11:37:42Z</time>
      </trkpt>
      <trkpt lat="45.22222" lon="6.00502">
        <ele>1499</ele>
        <time>2021-12-19T11:37:43Z</time>
      </trkpt>
      <trkpt lat="45.2222" lon="6.00498">
        <ele>1498.2</ele>
        <time>2021-12-19T11:37:44Z</time>
      </trkpt>
      <trkpt lat="45.22218" lon="6.00493">
        <ele>1497.6</ele>
        <time>2021-12-19T11:37:45Z</time>
      </trkpt>
      <trkpt lat="45.22218" lon="6.00488">
        <ele>1497.2</ele>
        <time>2021-12-19T11:37:46Z</time>
      </trkpt>
      <trkpt lat="45.2222" lon="6.00485">
        <ele>1497</ele>
        <time>2021-12-19T11:37:47Z</time>
      </trkpt>
      <trkpt lat="45.22223" lon="6.00485">
        <ele>1496</ele>
        <time>2021-12-19T11:37:48Z</time>
      </trkpt>
      <trkpt lat="45.22225" lon="6.00485">
        <ele>1495</ele>
        <time>2021-12-19T11:37:49Z</time>
      </trkpt>
      <trkpt lat="45.22227" lon="6.00484">
        <ele>1494.2</ele>
        <time>2021-12-19T11:37:50Z</time>
      </trkpt>
      <trkpt lat="45.2223" lon="6.00482">
        <ele>1493.6</ele>
        <time>2021-12-19T11:37:51Z</time>
      </trkpt>
      <trkpt lat="45.22233" lon="6.00482">
        <ele>1492.4</ele>
        <time>2021-12-19T11:37:52Z</time>
      </trkpt>
      <trkpt lat="45.22235" lon="6.00481">
        <ele>1491.4</ele>
        <time>2021-12-19T11:37:53Z</time>
      </trkpt>
      <trkpt lat="45.22237" lon="6.00476">
        <ele>1490.4</ele>
        <time>2021-12-19T11:37:54Z</time>
      </trkpt>
      <trkpt lat="45.22239" lon="6.00474">
        <ele>1488.8</ele>
        <time>2021-12-19T11:37:55Z</time>
      </trkpt>
      <trkpt lat="45.22242" lon="6.00473">
        <ele>1487.4</ele>
        <time>2021-12-19T11:37:56Z</time>
      </trkpt>
      <trkpt lat="45.22244" lon="6.00471">
        <ele>1486.4</ele>
        <time>2021-12-19T11:37:57Z</time>
      </trkpt>
      <trkpt lat="45.22246" lon="6.00466">
        <ele>1485.4</ele>
        <time>2021-12-19T11:37:58Z</time>
      </trkpt>
      <trkpt lat="45.22248" lon="6.00462">
        <ele>1484</ele>
        <time>2021-12-19T11:37:59Z</time>
      </trkpt>
      <trkpt lat="45.2225" lon="6.00459">
        <ele>1482.4</ele>
        <time>2021-12-19T11:38:00Z</time>
      </trkpt>
      <trkpt lat="45.22251" lon="6.00456">
        <ele>1480.6</ele>
        <time>2021-12-19T11:38:01Z</time>
      </trkpt>
      <trkpt lat="45.22251" lon="6.00452">
        <ele>1479.4</ele>
        <time>2021-12-19T11:38:02Z</time>
      </trkpt>
      <trkpt lat="45.22252" lon="6.00448">
        <ele>1478.2</ele>
        <time>2021-12-19T11:38:03Z</time>
      </trkpt>
      <trkpt lat="45.22256" lon="6.00439">
        <ele>1475.8</ele>
        <time>2021-12-19T11:38:05Z</time>
      </trkpt>
      <trkpt lat="45.22258" lon="6.00438">
        <ele>1474.2</ele>
        <time>2021-12-19T11:38:06Z</time>
      </trkpt>
      <trkpt lat="45.2226" lon="6.00437">
        <ele>1473.2</ele>
        <time>2021-12-19T11:38:07Z</time>
      </trkpt>
      <trkpt lat="45.22261" lon="6.00435">
        <ele>1472.2</ele>
        <time>2021-12-19T11:38:08Z</time>
      </trkpt>
      <trkpt lat="45.22261" lon="6.00435">
        <ele>1471.8</ele>
        <time>2021-12-19T11:38:09Z</time>
      </trkpt>
      <trkpt lat="45.22261" lon="6.00434">
        <ele>1471.4</ele>
        <time>2021-12-19T11:38:10Z</time>
      </trkpt>
      <trkpt lat="45.22263" lon="6.00434">
        <ele>1471</ele>
        <time>2021-12-19T11:38:12Z</time>
      </trkpt>
      <trkpt lat="45.22269" lon="6.00434">
        <ele>1470.4</ele>
        <time>2021-12-19T11:38:14Z</time>
      </trkpt>
      <trkpt lat="45.22271" lon="6.00431">
        <ele>1469.6</ele>
        <time>2021-12-19T11:38:15Z</time>
      </trkpt>
      <trkpt lat="45.22271" lon="6.00427">
        <ele>1468.4</ele>
        <time>2021-12-19T11:38:16Z</time>
      </trkpt>
      <trkpt lat="45.22272" lon="6.00422">
        <ele>1467.4</ele>
        <time>2021-12-19T11:38:17Z</time>
      </trkpt>
      <trkpt lat="45.22274" lon="6.00419">
        <ele>1466.2</ele>
        <time>2021-12-19T11:38:18Z</time>
      </trkpt>
      <trkpt lat="45.22277" lon="6.00419">
        <ele>1464.8</ele>
        <time>2021-12-19T11:38:19Z</time>
      </trkpt>
      <trkpt lat="45.22283" lon="6.00411">
        <ele>1462.6</ele>
        <time>2021-12-19T11:38:21Z</time>
      </trkpt>
      <trkpt lat="45.22288" lon="6.00411">
        <ele>1461.2</ele>
        <time>2021-12-19T11:38:22Z</time>
      </trkpt>
      <trkpt lat="45.22291" lon="6.00409">
        <ele>1459.2</ele>
        <time>2021-12-19T11:38:23Z</time>
      </trkpt>
      <trkpt lat="45.22294" lon="6.00406">
        <ele>1458</ele>
        <time>2021-12-19T11:38:24Z</time>
      </trkpt>
      <trkpt lat="45.22296" lon="6.00394">
        <ele>1456.4</ele>
        <time>2021-12-19T11:38:26Z</time>
      </trkpt>
      <trkpt lat="45.22299" lon="6.0039">
        <ele>1455.2</ele>
        <time>2021-12-19T11:38:27Z</time>
      </trkpt>
      <trkpt lat="45.22303" lon="6.00387">
        <ele>1453.6</ele>
        <time>2021-12-19T11:38:28Z</time>
      </trkpt>
      <trkpt lat="45.22306" lon="6.00384">
        <ele>1452.6</ele>
        <time>2021-12-19T11:38:29Z</time>
      </trkpt>
      <trkpt lat="45.2231" lon="6.0038">
        <ele>1451.6</ele>
        <time>2021-12-19T11:38:30Z</time>
      </trkpt>
      <trkpt lat="45.22315" lon="6.00377">
        <ele>1450</ele>
        <time>2021-12-19T11:38:31Z</time>
      </trkpt>
      <trkpt lat="45.2232" lon="6.00376">
        <ele>1448.6</ele>
        <time>2021-12-19T11:38:32Z</time>
      </trkpt>
      <trkpt lat="45.22324" lon="6.00374">
        <ele>1447.6</ele>
        <time>2021-12-19T11:38:33Z</time>
      </trkpt>
      <trkpt lat="45.22328" lon="6.00371">
        <ele>1447</ele>
        <time>2021-12-19T11:38:34Z</time>
      </trkpt>
      <trkpt lat="45.22331" lon="6.00368">
        <ele>1446.6</ele>
        <time>2021-12-19T11:38:35Z</time>
      </trkpt>
      <trkpt lat="45.22333" lon="6.00362">
        <ele>1446</ele>
        <time>2021-12-19T11:38:36Z</time>
      </trkpt>
      <trkpt lat="45.22334" lon="6.00356">
        <ele>1445</ele>
        <time>2021-12-19T11:38:37Z</time>
      </trkpt>
      <trkpt lat="45.22333" lon="6.00349">
        <ele>1444</ele>
        <time>2021-12-19T11:38:38Z</time>
      </trkpt>
      <trkpt lat="45.22332" lon="6.00341">
        <ele>1442.8</ele>
        <time>2021-12-19T11:38:39Z</time>
      </trkpt>
      <trkpt lat="45.22332" lon="6.00333">
        <ele>1441.4</ele>
        <time>2021-12-19T11:38:40Z</time>
      </trkpt>
      <trkpt lat="45.22331" lon="6.00327">
        <ele>1440.6</ele>
        <time>2021-12-19T11:38:41Z</time>
      </trkpt>
      <trkpt lat="45.2233" lon="6.00321">
        <ele>1439.8</ele>
        <time>2021-12-19T11:38:42Z</time>
      </trkpt>
      <trkpt lat="45.22328" lon="6.00315">
        <ele>1439.2</ele>
        <time>2021-12-19T11:38:43Z</time>
      </trkpt>
      <trkpt lat="45.22326" lon="6.0031">
        <ele>1438.2</ele>
        <time>2021-12-19T11:38:44Z</time>
      </trkpt>
      <trkpt lat="45.22323" lon="6.00297">
        <ele>1436.8</ele>
        <time>2021-12-19T11:38:46Z</time>
      </trkpt>
      <trkpt lat="45.22324" lon="6.00292">
        <ele>1436.2</ele>
        <time>2021-12-19T11:38:47Z</time>
      </trkpt>
      <trkpt lat="45.22324" lon="6.00282">
        <ele>1435.4</ele>
        <time>2021-12-19T11:38:49Z</time>
      </trkpt>
      <trkpt lat="45.22322" lon="6.0027">
        <ele>1434.2</ele>
        <time>2021-12-19T11:38:51Z</time>
      </trkpt>
      <trkpt lat="45.22321" lon="6.00266">
        <ele>1433.4</ele>
        <time>2021-12-19T11:38:52Z</time>
      </trkpt>
      <trkpt lat="45.2232" lon="6.00264">
        <ele>1432.8</ele>
        <time>2021-12-19T11:38:53Z</time>
      </trkpt>
      <trkpt lat="45.22318" lon="6.00263">
        <ele>1432</ele>
        <time>2021-12-19T11:38:54Z</time>
      </trkpt>
      <trkpt lat="45.22317" lon="6.00263">
        <ele>1431.6</ele>
        <time>2021-12-19T11:38:55Z</time>
      </trkpt>
      <trkpt lat="45.22316" lon="6.00262">
        <ele>1431</ele>
        <time>2021-12-19T11:38:56Z</time>
      </trkpt>
      <trkpt lat="45.22313" lon="6.00258">
        <ele>1430.4</ele>
        <time>2021-12-19T11:38:58Z</time>
      </trkpt>
      <trkpt lat="45.22312" lon="6.00255">
        <ele>1430</ele>
        <time>2021-12-19T11:38:59Z</time>
      </trkpt>
      <trkpt lat="45.2231" lon="6.0025">
        <ele>1429</ele>
        <time>2021-12-19T11:39:00Z</time>
      </trkpt>
      <trkpt lat="45.22309" lon="6.00245">
        <ele>1427.4</ele>
        <time>2021-12-19T11:39:02Z</time>
      </trkpt>
      <trkpt lat="45.22307" lon="6.00243">
        <ele>1426.4</ele>
        <time>2021-12-19T11:39:04Z</time>
      </trkpt>
      <trkpt lat="45.22306" lon="6.0024">
        <ele>1426</ele>
        <time>2021-12-19T11:39:05Z</time>
      </trkpt>
      <trkpt lat="45.22306" lon="6.00228">
        <ele>1424.8</ele>
        <time>2021-12-19T11:39:07Z</time>
      </trkpt>
      <trkpt lat="45.22308" lon="6.00221">
        <ele>1424.2</ele>
        <time>2021-12-19T11:39:08Z</time>
      </trkpt>
      <trkpt lat="45.22314" lon="6.00215">
        <ele>1421.8</ele>
        <time>2021-12-19T11:39:09Z</time>
      </trkpt>
      <trkpt lat="45.22322" lon="6.0021">
        <ele>1419.8</ele>
        <time>2021-12-19T11:39:10Z</time>
      </trkpt>
      <trkpt lat="45.22328" lon="6.00204">
        <ele>1418.4</ele>
        <time>2021-12-19T11:39:11Z</time>
      </trkpt>
      <trkpt lat="45.22334" lon="6.00199">
        <ele>1417</ele>
        <time>2021-12-19T11:39:12Z</time>
      </trkpt>
      <trkpt lat="45.22338" lon="6.00194">
        <ele>1415.4</ele>
        <time>2021-12-19T11:39:13Z</time>
      </trkpt>
      <trkpt lat="45.22342" lon="6.00188">
        <ele>1414.4</ele>
        <time>2021-12-19T11:39:14Z</time>
      </trkpt>
      <trkpt lat="45.2235" lon="6.00176">
        <ele>1413.2</ele>
        <time>2021-12-19T11:39:16Z</time>
      </trkpt>
      <trkpt lat="45.22358" lon="6.00166">
        <ele>1411.8</ele>
        <time>2021-12-19T11:39:18Z</time>
      </trkpt>
      <trkpt lat="45.22366" lon="6.00157">
        <ele>1410.6</ele>
        <time>2021-12-19T11:39:20Z</time>
      </trkpt>
      <trkpt lat="45.2237" lon="6.00153">
        <ele>1410</ele>
        <time>2021-12-19T11:39:21Z</time>
      </trkpt>
      <trkpt lat="45.22375" lon="6.0015">
        <ele>1409.6</ele>
        <time>2021-12-19T11:39:22Z</time>
      </trkpt>
      <trkpt lat="45.22383" lon="6.00144">
        <ele>1409</ele>
        <time>2021-12-19T11:39:24Z</time>
      </trkpt>
      <trkpt lat="45.22388" lon="6.00142">
        <ele>1408.4</ele>
        <time>2021-12-19T11:39:25Z</time>
      </trkpt>
      <trkpt lat="45.22393" lon="6.00141">
        <ele>1408</ele>
        <time>2021-12-19T11:39:26Z</time>
      </trkpt>
      <trkpt lat="45.22404" lon="6.0014">
        <ele>1407.6</ele>
        <time>2021-12-19T11:39:28Z</time>
      </trkpt>
      <trkpt lat="45.22409" lon="6.00139">
        <ele>1407.2</ele>
        <time>2021-12-19T11:39:29Z</time>
      </trkpt>
      <trkpt lat="45.22413" lon="6.00135">
        <ele>1406.2</ele>
        <time>2021-12-19T11:39:30Z</time>
      </trkpt>
      <trkpt lat="45.22416" lon="6.0013">
        <ele>1405.2</ele>
        <time>2021-12-19T11:39:31Z</time>
      </trkpt>
      <trkpt lat="45.2242" lon="6.00126">
        <ele>1404.6</ele>
        <time>2021-12-19T11:39:32Z</time>
      </trkpt>
      <trkpt lat="45.22424" lon="6.00122">
        <ele>1403.4</ele>
        <time>2021-12-19T11:39:33Z</time>
      </trkpt>
      <trkpt lat="45.22429" lon="6.00117">
        <ele>1402.8</ele>
        <time>2021-12-19T11:39:34Z</time>
      </trkpt>
      <trkpt lat="45.22432" lon="6.00112">
        <ele>1402.2</ele>
        <time>2021-12-19T11:39:35Z</time>
      </trkpt>
      <trkpt lat="45.22436" lon="6.00106">
        <ele>1401.8</ele>
        <time>2021-12-19T11:39:36Z</time>
      </trkpt>
      <trkpt lat="45.2244" lon="6.00099">
        <ele>1400.8</ele>
        <time>2021-12-19T11:39:37Z</time>
      </trkpt>
      <trkpt lat="45.22443" lon="6.00091">
        <ele>1400</ele>
        <time>2021-12-19T11:39:38Z</time>
      </trkpt>
      <trkpt lat="45.22447" lon="6.00084">
        <ele>1398.8</ele>
        <time>2021-12-19T11:39:39Z</time>
      </trkpt>
      <trkpt lat="45.22452" lon="6.00078">
        <ele>1397.8</ele>
        <time>2021-12-19T11:39:40Z</time>
      </trkpt>
      <trkpt lat="45.22456" lon="6.00072">
        <ele>1397.4</ele>
        <time>2021-12-19T11:39:41Z</time>
      </trkpt>
      <trkpt lat="45.22465" lon="6.0006">
        <ele>1395.8</ele>
        <time>2021-12-19T11:39:43Z</time>
      </trkpt>
      <trkpt lat="45.22469" lon="6.00055">
        <ele>1395</ele>
        <time>2021-12-19T11:39:44Z</time>
      </trkpt>
      <trkpt lat="45.22472" lon="6.00049">
        <ele>1394.2</ele>
        <time>2021-12-19T11:39:45Z</time>
      </trkpt>
      <trkpt lat="45.22476" lon="6.00041">
        <ele>1393</ele>
        <time>2021-12-19T11:39:46Z</time>
      </trkpt>
      <trkpt lat="45.22479" lon="6.00035">
        <ele>1392.2</ele>
        <time>2021-12-19T11:39:47Z</time>
      </trkpt>
      <trkpt lat="45.22482" lon="6.00029">
        <ele>1390.8</ele>
        <time>2021-12-19T11:39:48Z</time>
      </trkpt>
      <trkpt lat="45.22485" lon="6.00024">
        <ele>1389.8</ele>
        <time>2021-12-19T11:39:49Z</time>
      </trkpt>
      <trkpt lat="45.22488" lon="6.00019">
        <ele>1388.8</ele>
        <time>2021-12-19T11:39:50Z</time>
      </trkpt>
      <trkpt lat="45.2249" lon="6.00012">
        <ele>1388.2</ele>
        <time>2021-12-19T11:39:51Z</time>
      </trkpt>
      <trkpt lat="45.22496" lon="5.99997">
        <ele>1387</ele>
        <time>2021-12-19T11:39:53Z</time>
      </trkpt>
      <trkpt lat="45.22499" lon="5.99988">
        <ele>1386</ele>
        <time>2021-12-19T11:39:54Z</time>
      </trkpt>
      <trkpt lat="45.22501" lon="5.99982">
        <ele>1385.4</ele>
        <time>2021-12-19T11:39:55Z</time>
      </trkpt>
      <trkpt lat="45.22505" lon="5.99964">
        <ele>1383.6</ele>
        <time>2021-12-19T11:39:57Z</time>
      </trkpt>
      <trkpt lat="45.22507" lon="5.99956">
        <ele>1382.8</ele>
        <time>2021-12-19T11:39:58Z</time>
      </trkpt>
      <trkpt lat="45.22508" lon="5.99948">
        <ele>1381.8</ele>
        <time>2021-12-19T11:39:59Z</time>
      </trkpt>
      <trkpt lat="45.2251" lon="5.99931">
        <ele>1379.2</ele>
        <time>2021-12-19T11:40:01Z</time>
      </trkpt>
      <trkpt lat="45.22512" lon="5.99924">
        <ele>1377.6</ele>
        <time>2021-12-19T11:40:02Z</time>
      </trkpt>
      <trkpt lat="45.22514" lon="5.99907">
        <ele>1376</ele>
        <time>2021-12-19T11:40:04Z</time>
      </trkpt>
      <trkpt lat="45.22514" lon="5.99889">
        <ele>1375</ele>
        <time>2021-12-19T11:40:06Z</time>
      </trkpt>
      <trkpt lat="45.22517" lon="5.99869">
        <ele>1372.6</ele>
        <time>2021-12-19T11:40:08Z</time>
      </trkpt>
      <trkpt lat="45.22522" lon="5.99849">
        <ele>1370.8</ele>
        <time>2021-12-19T11:40:10Z</time>
      </trkpt>
      <trkpt lat="45.22524" lon="5.99841">
        <ele>1370.2</ele>
        <time>2021-12-19T11:40:11Z</time>
      </trkpt>
      <trkpt lat="45.22527" lon="5.99833">
        <ele>1369.6</ele>
        <time>2021-12-19T11:40:12Z</time>
      </trkpt>
      <trkpt lat="45.22529" lon="5.99825">
        <ele>1368.6</ele>
        <time>2021-12-19T11:40:13Z</time>
      </trkpt>
      <trkpt lat="45.22533" lon="5.9981">
        <ele>1367.2</ele>
        <time>2021-12-19T11:40:15Z</time>
      </trkpt>
      <trkpt lat="45.22534" lon="5.99804">
        <ele>1366.4</ele>
        <time>2021-12-19T11:40:16Z</time>
      </trkpt>
      <trkpt lat="45.22535" lon="5.99797">
        <ele>1365.6</ele>
        <time>2021-12-19T11:40:17Z</time>
      </trkpt>
      <trkpt lat="45.22536" lon="5.99789">
        <ele>1364.4</ele>
        <time>2021-12-19T11:40:18Z</time>
      </trkpt>
      <trkpt lat="45.22534" lon="5.99782">
        <ele>1363.8</ele>
        <time>2021-12-19T11:40:19Z</time>
      </trkpt>
      <trkpt lat="45.22531" lon="5.99778">
        <ele>1363</ele>
        <time>2021-12-19T11:40:20Z</time>
      </trkpt>
      <trkpt lat="45.22529" lon="5.99776">
        <ele>1362.4</ele>
        <time>2021-12-19T11:40:21Z</time>
      </trkpt>
      <trkpt lat="45.22528" lon="5.99777">
        <ele>1361.6</ele>
        <time>2021-12-19T11:40:22Z</time>
      </trkpt>
      <trkpt lat="45.22526" lon="5.99779">
        <ele>1361</ele>
        <time>2021-12-19T11:40:23Z</time>
      </trkpt>
      <trkpt lat="45.22524" lon="5.99789">
        <ele>1360.2</ele>
        <time>2021-12-19T11:40:25Z</time>
      </trkpt>
      <trkpt lat="45.22521" lon="5.99804">
        <ele>1359.6</ele>
        <time>2021-12-19T11:40:27Z</time>
      </trkpt>
      <trkpt lat="45.22519" lon="5.99811">
        <ele>1359.2</ele>
        <time>2021-12-19T11:40:28Z</time>
      </trkpt>
      <trkpt lat="45.2251" lon="5.9983">
        <ele>1358</ele>
        <time>2021-12-19T11:40:31Z</time>
      </trkpt>
      <trkpt lat="45.22503" lon="5.99842">
        <ele>1357.4</ele>
        <time>2021-12-19T11:40:33Z</time>
      </trkpt>
      <trkpt lat="45.22498" lon="5.99847">
        <ele>1356.8</ele>
        <time>2021-12-19T11:40:34Z</time>
      </trkpt>
      <trkpt lat="45.22488" lon="5.99863">
        <ele>1355.8</ele>
        <time>2021-12-19T11:40:37Z</time>
      </trkpt>
      <trkpt lat="45.22486" lon="5.99867">
        <ele>1355.6</ele>
        <time>2021-12-19T11:40:38Z</time>
      </trkpt>
      <trkpt lat="45.2248" lon="5.99877">
        <ele>1354.6</ele>
        <time>2021-12-19T11:40:40Z</time>
      </trkpt>
      <trkpt lat="45.22477" lon="5.99881">
        <ele>1354.4</ele>
        <time>2021-12-19T11:40:41Z</time>
      </trkpt>
      <trkpt lat="45.22468" lon="5.99888">
        <ele>1353.6</ele>
        <time>2021-12-19T11:40:43Z</time>
      </trkpt>
      <trkpt lat="45.22461" lon="5.99889">
        <ele>1352.4</ele>
        <time>2021-12-19T11:40:45Z</time>
      </trkpt>
      <trkpt lat="45.22449" lon="5.99875">
        <ele>1351.8</ele>
        <time>2021-12-19T11:40:48Z</time>
      </trkpt>
      <trkpt lat="45.22448" lon="5.99868">
        <ele>1351.2</ele>
        <time>2021-12-19T11:40:49Z</time>
      </trkpt>
      <trkpt lat="45.22449" lon="5.99855">
        <ele>1350.8</ele>
        <time>2021-12-19T11:40:51Z</time>
      </trkpt>
      <trkpt lat="45.22454" lon="5.99844">
        <ele>1350</ele>
        <time>2021-12-19T11:40:53Z</time>
      </trkpt>
      <trkpt lat="45.22457" lon="5.9984">
        <ele>1349.8</ele>
        <time>2021-12-19T11:40:54Z</time>
      </trkpt>
      <trkpt lat="45.22461" lon="5.99839">
        <ele>1349.4</ele>
        <time>2021-12-19T11:40:55Z</time>
      </trkpt>
      <trkpt lat="45.22464" lon="5.99837">
        <ele>1349.2</ele>
        <time>2021-12-19T11:40:56Z</time>
      </trkpt>
      <trkpt lat="45.22472" lon="5.99834">
        <ele>1348.4</ele>
        <time>2021-12-19T11:40:58Z</time>
      </trkpt>
      <trkpt lat="45.22482" lon="5.99831">
        <ele>1347.8</ele>
        <time>2021-12-19T11:41:00Z</time>
      </trkpt>
      <trkpt lat="45.2249" lon="5.99822">
        <ele>1347.4</ele>
        <time>2021-12-19T11:41:02Z</time>
      </trkpt>
      <trkpt lat="45.22498" lon="5.99808">
        <ele>1346.8</ele>
        <time>2021-12-19T11:41:04Z</time>
      </trkpt>
      <trkpt lat="45.22499" lon="5.99802">
        <ele>1346.2</ele>
        <time>2021-12-19T11:41:05Z</time>
      </trkpt>
      <trkpt lat="45.22501" lon="5.99793">
        <ele>1345.8</ele>
        <time>2021-12-19T11:41:06Z</time>
      </trkpt>
      <trkpt lat="45.22502" lon="5.9978">
        <ele>1345</ele>
        <time>2021-12-19T11:41:08Z</time>
      </trkpt>
      <trkpt lat="45.22502" lon="5.99751">
        <ele>1344</ele>
        <time>2021-12-19T11:41:12Z</time>
      </trkpt>
      <trkpt lat="45.22503" lon="5.99733">
        <ele>1343.4</ele>
        <time>2021-12-19T11:41:14Z</time>
      </trkpt>
      <trkpt lat="45.22504" lon="5.99724">
        <ele>1343</ele>
        <time>2021-12-19T11:41:15Z</time>
      </trkpt>
      <trkpt lat="45.22508" lon="5.997">
        <ele>1341.6</ele>
        <time>2021-12-19T11:41:18Z</time>
      </trkpt>
      <trkpt lat="45.22509" lon="5.99691">
        <ele>1341.2</ele>
        <time>2021-12-19T11:41:19Z</time>
      </trkpt>
      <trkpt lat="45.22509" lon="5.99675">
        <ele>1340.4</ele>
        <time>2021-12-19T11:41:21Z</time>
      </trkpt>
      <trkpt lat="45.22508" lon="5.99653">
        <ele>1339.4</ele>
        <time>2021-12-19T11:41:23Z</time>
      </trkpt>
      <trkpt lat="45.22507" lon="5.99644">
        <ele>1338.8</ele>
        <time>2021-12-19T11:41:24Z</time>
      </trkpt>
      <trkpt lat="45.22505" lon="5.99634">
        <ele>1338.2</ele>
        <time>2021-12-19T11:41:25Z</time>
      </trkpt>
      <trkpt lat="45.22505" lon="5.99626">
        <ele>1337.6</ele>
        <time>2021-12-19T11:41:26Z</time>
      </trkpt>
      <trkpt lat="45.2251" lon="5.99604">
        <ele>1336.8</ele>
        <time>2021-12-19T11:41:28Z</time>
      </trkpt>
      <trkpt lat="45.22512" lon="5.99593">
        <ele>1335.8</ele>
        <time>2021-12-19T11:41:29Z</time>
      </trkpt>
      <trkpt lat="45.22515" lon="5.99583">
        <ele>1335</ele>
        <time>2021-12-19T11:41:30Z</time>
      </trkpt>
      <trkpt lat="45.22519" lon="5.99575">
        <ele>1334.4</ele>
        <time>2021-12-19T11:41:31Z</time>
      </trkpt>
      <trkpt lat="45.22524" lon="5.99568">
        <ele>1334</ele>
        <time>2021-12-19T11:41:32Z</time>
      </trkpt>
      <trkpt lat="45.22535" lon="5.99551">
        <ele>1332.8</ele>
        <time>2021-12-19T11:41:34Z</time>
      </trkpt>
      <trkpt lat="45.22546" lon="5.99538">
        <ele>1331.2</ele>
        <time>2021-12-19T11:41:36Z</time>
      </trkpt>
      <trkpt lat="45.22554" lon="5.9953">
        <ele>1330.8</ele>
        <time>2021-12-19T11:41:37Z</time>
      </trkpt>
      <trkpt lat="45.2256" lon="5.99522">
        <ele>1329.8</ele>
        <time>2021-12-19T11:41:38Z</time>
      </trkpt>
      <trkpt lat="45.22567" lon="5.99517">
        <ele>1329</ele>
        <time>2021-12-19T11:41:39Z</time>
      </trkpt>
      <trkpt lat="45.22573" lon="5.99513">
        <ele>1328.4</ele>
        <time>2021-12-19T11:41:40Z</time>
      </trkpt>
      <trkpt lat="45.22588" lon="5.99499">
        <ele>1327</ele>
        <time>2021-12-19T11:41:42Z</time>
      </trkpt>
      <trkpt lat="45.22596" lon="5.9949">
        <ele>1325.8</ele>
        <time>2021-12-19T11:41:43Z</time>
      </trkpt>
      <trkpt lat="45.22602" lon="5.99484">
        <ele>1324.4</ele>
        <time>2021-12-19T11:41:44Z</time>
      </trkpt>
      <trkpt lat="45.22614" lon="5.99464">
        <ele>1322.8</ele>
        <time>2021-12-19T11:41:46Z</time>
      </trkpt>
      <trkpt lat="45.22626" lon="5.99446">
        <ele>1321.6</ele>
        <time>2021-12-19T11:41:48Z</time>
      </trkpt>
      <trkpt lat="45.22632" lon="5.99439">
        <ele>1321</ele>
        <time>2021-12-19T11:41:49Z</time>
      </trkpt>
      <trkpt lat="45.22639" lon="5.99433">
        <ele>1320.6</ele>
        <time>2021-12-19T11:41:50Z</time>
      </trkpt>
      <trkpt lat="45.22646" lon="5.99428">
        <ele>1320.2</ele>
        <time>2021-12-19T11:41:51Z</time>
      </trkpt>
      <trkpt lat="45.22654" lon="5.99423">
        <ele>1318.4</ele>
        <time>2021-12-19T11:41:52Z</time>
      </trkpt>
      <trkpt lat="45.22662" lon="5.99418">
        <ele>1316.8</ele>
        <time>2021-12-19T11:41:53Z</time>
      </trkpt>
      <trkpt lat="45.2267" lon="5.99414">
        <ele>1315.8</ele>
        <time>2021-12-19T11:41:54Z</time>
      </trkpt>
      <trkpt lat="45.22686" lon="5.99404">
        <ele>1314</ele>
        <time>2021-12-19T11:41:56Z</time>
      </trkpt>
      <trkpt lat="45.22693" lon="5.99399">
        <ele>1313</ele>
        <time>2021-12-19T11:41:57Z</time>
      </trkpt>
      <trkpt lat="45.227" lon="5.99394">
        <ele>1312.4</ele>
        <time>2021-12-19T11:41:58Z</time>
      </trkpt>
      <trkpt lat="45.22707" lon="5.99389">
        <ele>1311.2</ele>
        <time>2021-12-19T11:41:59Z</time>
      </trkpt>
      <trkpt lat="45.22714" lon="5.99383">
        <ele>1310</ele>
        <time>2021-12-19T11:42:00Z</time>
      </trkpt>
      <trkpt lat="45.22728" lon="5.99373">
        <ele>1308</ele>
        <time>2021-12-19T11:42:02Z</time>
      </trkpt>
      <trkpt lat="45.22734" lon="5.99365">
        <ele>1307.2</ele>
        <time>2021-12-19T11:42:03Z</time>
      </trkpt>
      <trkpt lat="45.2274" lon="5.99358">
        <ele>1306.4</ele>
        <time>2021-12-19T11:42:04Z</time>
      </trkpt>
      <trkpt lat="45.22752" lon="5.99343">
        <ele>1305</ele>
        <time>2021-12-19T11:42:06Z</time>
      </trkpt>
      <trkpt lat="45.22757" lon="5.99336">
        <ele>1304</ele>
        <time>2021-12-19T11:42:07Z</time>
      </trkpt>
      <trkpt lat="45.22763" lon="5.99329">
        <ele>1303.6</ele>
        <time>2021-12-19T11:42:08Z</time>
      </trkpt>
      <trkpt lat="45.22775" lon="5.99316">
        <ele>1302.4</ele>
        <time>2021-12-19T11:42:10Z</time>
      </trkpt>
      <trkpt lat="45.22787" lon="5.99304">
        <ele>1300.4</ele>
        <time>2021-12-19T11:42:12Z</time>
      </trkpt>
      <trkpt lat="45.22793" lon="5.99299">
        <ele>1299.2</ele>
        <time>2021-12-19T11:42:13Z</time>
      </trkpt>
      <trkpt lat="45.22807" lon="5.99289">
        <ele>1297.2</ele>
        <time>2021-12-19T11:42:15Z</time>
      </trkpt>
      <trkpt lat="45.22828" lon="5.99272">
        <ele>1296.2</ele>
        <time>2021-12-19T11:42:18Z</time>
      </trkpt>
      <trkpt lat="45.22841" lon="5.99261">
        <ele>1295</ele>
        <time>2021-12-19T11:42:20Z</time>
      </trkpt>
      <trkpt lat="45.22847" lon="5.99254">
        <ele>1294.4</ele>
        <time>2021-12-19T11:42:21Z</time>
      </trkpt>
      <trkpt lat="45.22853" lon="5.99246">
        <ele>1293</ele>
        <time>2021-12-19T11:42:22Z</time>
      </trkpt>
      <trkpt lat="45.22859" lon="5.99239">
        <ele>1291.8</ele>
        <time>2021-12-19T11:42:23Z</time>
      </trkpt>
      <trkpt lat="45.22866" lon="5.99231">
        <ele>1290.8</ele>
        <time>2021-12-19T11:42:24Z</time>
      </trkpt>
      <trkpt lat="45.22872" lon="5.99225">
        <ele>1289.8</ele>
        <time>2021-12-19T11:42:25Z</time>
      </trkpt>
      <trkpt lat="45.22885" lon="5.99213">
        <ele>1288.4</ele>
        <time>2021-12-19T11:42:27Z</time>
      </trkpt>
      <trkpt lat="45.22892" lon="5.99204">
        <ele>1286.8</ele>
        <time>2021-12-19T11:42:28Z</time>
      </trkpt>
      <trkpt lat="45.22901" lon="5.9919">
        <ele>1285</ele>
        <time>2021-12-19T11:42:30Z</time>
      </trkpt>
      <trkpt lat="45.22911" lon="5.99176">
        <ele>1283.8</ele>
        <time>2021-12-19T11:42:32Z</time>
      </trkpt>
      <trkpt lat="45.22917" lon="5.99169">
        <ele>1283.4</ele>
        <time>2021-12-19T11:42:33Z</time>
      </trkpt>
      <trkpt lat="45.2293" lon="5.9916">
        <ele>1282.6</ele>
        <time>2021-12-19T11:42:35Z</time>
      </trkpt>
      <trkpt lat="45.22945" lon="5.99159">
        <ele>1281</ele>
        <time>2021-12-19T11:42:37Z</time>
      </trkpt>
      <trkpt lat="45.22954" lon="5.9916">
        <ele>1279.4</ele>
        <time>2021-12-19T11:42:38Z</time>
      </trkpt>
      <trkpt lat="45.22969" lon="5.99159">
        <ele>1277.8</ele>
        <time>2021-12-19T11:42:40Z</time>
      </trkpt>
      <trkpt lat="45.22975" lon="5.99157">
        <ele>1277.2</ele>
        <time>2021-12-19T11:42:41Z</time>
      </trkpt>
      <trkpt lat="45.22982" lon="5.99153">
        <ele>1276.6</ele>
        <time>2021-12-19T11:42:42Z</time>
      </trkpt>
      <trkpt lat="45.22989" lon="5.99148">
        <ele>1275.4</ele>
        <time>2021-12-19T11:42:43Z</time>
      </trkpt>
      <trkpt lat="45.22996" lon="5.99143">
        <ele>1274.4</ele>
        <time>2021-12-19T11:42:44Z</time>
      </trkpt>
      <trkpt lat="45.23005" lon="5.9914">
        <ele>1273.8</ele>
        <time>2021-12-19T11:42:45Z</time>
      </trkpt>
      <trkpt lat="45.23011" lon="5.99138">
        <ele>1272.2</ele>
        <time>2021-12-19T11:42:46Z</time>
      </trkpt>
      <trkpt lat="45.23019" lon="5.99136">
        <ele>1271.2</ele>
        <time>2021-12-19T11:42:47Z</time>
      </trkpt>
      <trkpt lat="45.23029" lon="5.99133">
        <ele>1270</ele>
        <time>2021-12-19T11:42:48Z</time>
      </trkpt>
      <trkpt lat="45.23045" lon="5.99125">
        <ele>1268.8</ele>
        <time>2021-12-19T11:42:50Z</time>
      </trkpt>
      <trkpt lat="45.23067" lon="5.99115">
        <ele>1267.6</ele>
        <time>2021-12-19T11:42:53Z</time>
      </trkpt>
      <trkpt lat="45.23077" lon="5.99112">
        <ele>1266.2</ele>
        <time>2021-12-19T11:42:54Z</time>
      </trkpt>
      <trkpt lat="45.23093" lon="5.99103">
        <ele>1264.4</ele>
        <time>2021-12-19T11:42:56Z</time>
      </trkpt>
      <trkpt lat="45.23109" lon="5.99093">
        <ele>1263.4</ele>
        <time>2021-12-19T11:42:58Z</time>
      </trkpt>
      <trkpt lat="45.23116" lon="5.99088">
        <ele>1261.2</ele>
        <time>2021-12-19T11:42:59Z</time>
      </trkpt>
      <trkpt lat="45.23124" lon="5.99082">
        <ele>1260.2</ele>
        <time>2021-12-19T11:43:00Z</time>
      </trkpt>
      <trkpt lat="45.2313" lon="5.99074">
        <ele>1259</ele>
        <time>2021-12-19T11:43:01Z</time>
      </trkpt>
      <trkpt lat="45.23135" lon="5.99067">
        <ele>1258.2</ele>
        <time>2021-12-19T11:43:02Z</time>
      </trkpt>
      <trkpt lat="45.23141" lon="5.99055">
        <ele>1257.4</ele>
        <time>2021-12-19T11:43:03Z</time>
      </trkpt>
      <trkpt lat="45.23144" lon="5.99043">
        <ele>1256.4</ele>
        <time>2021-12-19T11:43:04Z</time>
      </trkpt>
      <trkpt lat="45.23147" lon="5.99034">
        <ele>1255.6</ele>
        <time>2021-12-19T11:43:05Z</time>
      </trkpt>
      <trkpt lat="45.2315" lon="5.99023">
        <ele>1254</ele>
        <time>2021-12-19T11:43:06Z</time>
      </trkpt>
      <trkpt lat="45.23156" lon="5.99">
        <ele>1252.2</ele>
        <time>2021-12-19T11:43:08Z</time>
      </trkpt>
      <trkpt lat="45.23165" lon="5.98978">
        <ele>1251</ele>
        <time>2021-12-19T11:43:10Z</time>
      </trkpt>
      <trkpt lat="45.2317" lon="5.98973">
        <ele>1249.4</ele>
        <time>2021-12-19T11:43:11Z</time>
      </trkpt>
      <trkpt lat="45.23176" lon="5.98965">
        <ele>1247.8</ele>
        <time>2021-12-19T11:43:12Z</time>
      </trkpt>
      <trkpt lat="45.23181" lon="5.98956">
        <ele>1246.8</ele>
        <time>2021-12-19T11:43:13Z</time>
      </trkpt>
      <trkpt lat="45.23191" lon="5.98935">
        <ele>1245</ele>
        <time>2021-12-19T11:43:15Z</time>
      </trkpt>
      <trkpt lat="45.23197" lon="5.98919">
        <ele>1243.4</ele>
        <time>2021-12-19T11:43:17Z</time>
      </trkpt>
      <trkpt lat="45.23202" lon="5.98906">
        <ele>1244</ele>
        <time>2021-12-19T11:43:19Z</time>
      </trkpt>
      <trkpt lat="45.23205" lon="5.98901">
        <ele>1242</ele>
        <time>2021-12-19T11:43:20Z</time>
      </trkpt>
      <trkpt lat="45.23208" lon="5.98896">
        <ele>1240</ele>
        <time>2021-12-19T11:43:21Z</time>
      </trkpt>
      <trkpt lat="45.23211" lon="5.98895">
        <ele>1239</ele>
        <time>2021-12-19T11:43:22Z</time>
      </trkpt>
      <trkpt lat="45.23214" lon="5.98895">
        <ele>1238</ele>
        <time>2021-12-19T11:43:23Z</time>
      </trkpt>
      <trkpt lat="45.23216" lon="5.98896">
        <ele>1237.4</ele>
        <time>2021-12-19T11:43:24Z</time>
      </trkpt>
      <trkpt lat="45.23221" lon="5.98892">
        <ele>1236.8</ele>
        <time>2021-12-19T11:43:27Z</time>
      </trkpt>
      <trkpt lat="45.23222" lon="5.98891">
        <ele>1236.2</ele>
        <time>2021-12-19T11:43:28Z</time>
      </trkpt>
      <trkpt lat="45.23226" lon="5.98889">
        <ele>1235.6</ele>
        <time>2021-12-19T11:43:32Z</time>
      </trkpt>
      <trkpt lat="45.23228" lon="5.98889">
        <ele>1235.6</ele>
        <time>2021-12-19T11:43:34Z</time>
      </trkpt>
      <trkpt lat="45.23234" lon="5.98887">
        <ele>1235.6</ele>
        <time>2021-12-19T11:43:38Z</time>
      </trkpt>
      <trkpt lat="45.23239" lon="5.98884">
        <ele>1235</ele>
        <time>2021-12-19T11:43:41Z</time>
      </trkpt>
      <trkpt lat="45.23248" lon="5.98882">
        <ele>1234</ele>
        <time>2021-12-19T11:43:45Z</time>
      </trkpt>
      <trkpt lat="45.23258" lon="5.98883">
        <ele>1232.6</ele>
        <time>2021-12-19T11:43:48Z</time>
      </trkpt>
      <trkpt lat="45.23262" lon="5.98885">
        <ele>1232</ele>
        <time>2021-12-19T11:43:50Z</time>
      </trkpt>
      <trkpt lat="45.23262" lon="5.98883">
        <ele>1231.8</ele>
        <time>2021-12-19T11:43:53Z</time>
      </trkpt>
      <trkpt lat="45.23263" lon="5.98883">
        <ele>1231.6</ele>
        <time>2021-12-19T11:43:56Z</time>
      </trkpt>
      <trkpt lat="45.23269" lon="5.98879">
        <ele>1231.2</ele>
        <time>2021-12-19T11:43:59Z</time>
      </trkpt>
      <trkpt lat="45.23277" lon="5.98872">
        <ele>1230.4</ele>
        <time>2021-12-19T11:44:02Z</time>
      </trkpt>
      <trkpt lat="45.2329" lon="5.98866">
        <ele>1229.6</ele>
        <time>2021-12-19T11:44:06Z</time>
      </trkpt>
      <trkpt lat="45.23293" lon="5.98864">
        <ele>1229.2</ele>
        <time>2021-12-19T11:44:07Z</time>
      </trkpt>
      <trkpt lat="45.23303" lon="5.98855">
        <ele>1228</ele>
        <time>2021-12-19T11:44:10Z</time>
      </trkpt>
      <trkpt lat="45.23309" lon="5.98849">
        <ele>1226.8</ele>
        <time>2021-12-19T11:44:12Z</time>
      </trkpt>
      <trkpt lat="45.23322" lon="5.98838">
        <ele>1225.8</ele>
        <time>2021-12-19T11:44:15Z</time>
      </trkpt>
      <trkpt lat="45.23331" lon="5.98831">
        <ele>1224.8</ele>
        <time>2021-12-19T11:44:17Z</time>
      </trkpt>
      <trkpt lat="45.23336" lon="5.98828">
        <ele>1224.4</ele>
        <time>2021-12-19T11:44:18Z</time>
      </trkpt>
      <trkpt lat="45.23345" lon="5.98821">
        <ele>1223</ele>
        <time>2021-12-19T11:44:20Z</time>
      </trkpt>
      <trkpt lat="45.23354" lon="5.98815">
        <ele>1221.6</ele>
        <time>2021-12-19T11:44:22Z</time>
      </trkpt>
      <trkpt lat="45.2336" lon="5.9881">
        <ele>1221</ele>
        <time>2021-12-19T11:44:23Z</time>
      </trkpt>
      <trkpt lat="45.23369" lon="5.98804">
        <ele>1220.2</ele>
        <time>2021-12-19T11:44:25Z</time>
      </trkpt>
      <trkpt lat="45.23373" lon="5.98801">
        <ele>1219.8</ele>
        <time>2021-12-19T11:44:26Z</time>
      </trkpt>
      <trkpt lat="45.23378" lon="5.98797">
        <ele>1219.2</ele>
        <time>2021-12-19T11:44:27Z</time>
      </trkpt>
      <trkpt lat="45.23382" lon="5.98794">
        <ele>1218.8</ele>
        <time>2021-12-19T11:44:28Z</time>
      </trkpt>
      <trkpt lat="45.2339" lon="5.98787">
        <ele>1217.4</ele>
        <time>2021-12-19T11:44:30Z</time>
      </trkpt>
      <trkpt lat="45.23394" lon="5.98784">
        <ele>1217</ele>
        <time>2021-12-19T11:44:31Z</time>
      </trkpt>
      <trkpt lat="45.23397" lon="5.98781">
        <ele>1216.2</ele>
        <time>2021-12-19T11:44:32Z</time>
      </trkpt>
      <trkpt lat="45.234" lon="5.98779">
        <ele>1215.6</ele>
        <time>2021-12-19T11:44:33Z</time>
      </trkpt>
      <trkpt lat="45.23406" lon="5.98771">
        <ele>1215</ele>
        <time>2021-12-19T11:44:35Z</time>
      </trkpt>
      <trkpt lat="45.23417" lon="5.98764">
        <ele>1213.4</ele>
        <time>2021-12-19T11:44:38Z</time>
      </trkpt>
      <trkpt lat="45.2342" lon="5.98761">
        <ele>1212.8</ele>
        <time>2021-12-19T11:44:39Z</time>
      </trkpt>
      <trkpt lat="45.23424" lon="5.98758">
        <ele>1212.2</ele>
        <time>2021-12-19T11:44:40Z</time>
      </trkpt>
      <trkpt lat="45.23433" lon="5.98747">
        <ele>1211.2</ele>
        <time>2021-12-19T11:44:43Z</time>
      </trkpt>
      <trkpt lat="45.23435" lon="5.98744">
        <ele>1210.8</ele>
        <time>2021-12-19T11:44:44Z</time>
      </trkpt>
      <trkpt lat="45.23442" lon="5.98733">
        <ele>1210</ele>
        <time>2021-12-19T11:44:47Z</time>
      </trkpt>
      <trkpt lat="45.23445" lon="5.98723">
        <ele>1208.8</ele>
        <time>2021-12-19T11:44:49Z</time>
      </trkpt>
      <trkpt lat="45.23449" lon="5.98714">
        <ele>1207.8</ele>
        <time>2021-12-19T11:44:51Z</time>
      </trkpt>
      <trkpt lat="45.23455" lon="5.98704">
        <ele>1206.8</ele>
        <time>2021-12-19T11:44:54Z</time>
      </trkpt>
      <trkpt lat="45.23457" lon="5.987">
        <ele>1206.6</ele>
        <time>2021-12-19T11:44:55Z</time>
      </trkpt>
      <trkpt lat="45.23462" lon="5.98689">
        <ele>1205.4</ele>
        <time>2021-12-19T11:44:59Z</time>
      </trkpt>
      <trkpt lat="45.23463" lon="5.98686">
        <ele>1204.8</ele>
        <time>2021-12-19T11:45:01Z</time>
      </trkpt>
      <trkpt lat="45.23464" lon="5.98686">
        <ele>1204.6</ele>
        <time>2021-12-19T11:45:02Z</time>
      </trkpt>
      <trkpt lat="45.23465" lon="5.98686">
        <ele>1204.6</ele>
        <time>2021-12-19T11:45:04Z</time>
      </trkpt>
      <trkpt lat="45.23465" lon="5.98686">
        <ele>1204.4</ele>
        <time>2021-12-19T11:45:05Z</time>
      </trkpt>
      <trkpt lat="45.23465" lon="5.98686">
        <ele>1203.8</ele>
        <time>2021-12-19T11:45:10Z</time>
      </trkpt>
      <trkpt lat="45.23464" lon="5.98685">
        <ele>1204</ele>
        <time>2021-12-19T11:45:25Z</time>
      </trkpt>
      <trkpt lat="45.23464" lon="5.98685">
        <ele>1203.8</ele>
        <time>2021-12-19T11:45:37Z</time>
      </trkpt>
      <trkpt lat="45.23467" lon="5.98679">
        <ele>1203.6</ele>
        <time>2021-12-19T11:45:52Z</time>
      </trkpt>
      <trkpt lat="45.23468" lon="5.98676">
        <ele>1203.2</ele>
        <time>2021-12-19T11:45:54Z</time>
      </trkpt>
      <trkpt lat="45.23472" lon="5.98672">
        <ele>1203</ele>
        <time>2021-12-19T11:45:59Z</time>
      </trkpt>
      <trkpt lat="45.23473" lon="5.9867">
        <ele>1202.8</ele>
        <time>2021-12-19T11:46:02Z</time>
      </trkpt>
      <trkpt lat="45.23477" lon="5.98663">
        <ele>1202.2</ele>
        <time>2021-12-19T11:46:09Z</time>
      </trkpt>
      <trkpt lat="45.23485" lon="5.98652">
        <ele>1201.2</ele>
        <time>2021-12-19T11:46:19Z</time>
      </trkpt>
      <trkpt lat="45.23485" lon="5.98651">
        <ele>1201</ele>
        <time>2021-12-19T11:46:20Z</time>
      </trkpt>
      <trkpt lat="45.23488" lon="5.98648">
        <ele>1200.6</ele>
        <time>2021-12-19T11:46:23Z</time>
      </trkpt>
      <trkpt lat="45.23491" lon="5.98643">
        <ele>1200</ele>
        <time>2021-12-19T11:46:28Z</time>
      </trkpt>
      <trkpt lat="45.23492" lon="5.98643">
        <ele>1200</ele>
        <time>2021-12-19T11:46:29Z</time>
      </trkpt>
      <trkpt lat="45.23496" lon="5.98635">
        <ele>1199.2</ele>
        <time>2021-12-19T11:46:36Z</time>
      </trkpt>
      <trkpt lat="45.23497" lon="5.98633">
        <ele>1199</ele>
        <time>2021-12-19T11:46:38Z</time>
      </trkpt>
      <trkpt lat="45.23502" lon="5.98627">
        <ele>1198.2</ele>
        <time>2021-12-19T11:46:44Z</time>
      </trkpt>
      <trkpt lat="45.23503" lon="5.98626">
        <ele>1197.8</ele>
        <time>2021-12-19T11:46:46Z</time>
      </trkpt>
      <trkpt lat="45.23505" lon="5.98624">
        <ele>1197.4</ele>
        <time>2021-12-19T11:46:50Z</time>
      </trkpt>
      <trkpt lat="45.23507" lon="5.98623">
        <ele>1197.2</ele>
        <time>2021-12-19T11:46:52Z</time>
      </trkpt>
      <trkpt lat="45.23509" lon="5.98619">
        <ele>1196.8</ele>
        <time>2021-12-19T11:46:56Z</time>
      </trkpt>
      <trkpt lat="45.23512" lon="5.98614">
        <ele>1196.2</ele>
        <time>2021-12-19T11:47:00Z</time>
      </trkpt>
      <trkpt lat="45.23513" lon="5.98612">
        <ele>1195.8</ele>
        <time>2021-12-19T11:47:02Z</time>
      </trkpt>
      <trkpt lat="45.23514" lon="5.98611">
        <ele>1195.6</ele>
        <time>2021-12-19T11:47:03Z</time>
      </trkpt>
      <trkpt lat="45.23516" lon="5.98606">
        <ele>1195.2</ele>
        <time>2021-12-19T11:47:07Z</time>
      </trkpt>
      <trkpt lat="45.23517" lon="5.98604">
        <ele>1195</ele>
        <time>2021-12-19T11:47:08Z</time>
      </trkpt>
      <trkpt lat="45.23519" lon="5.98602">
        <ele>1194.8</ele>
        <time>2021-12-19T11:47:11Z</time>
      </trkpt>
      <trkpt lat="45.23521" lon="5.986">
        <ele>1194.6</ele>
        <time>2021-12-19T11:47:13Z</time>
      </trkpt>
      <trkpt lat="45.23522" lon="5.98598">
        <ele>1194.4</ele>
        <time>2021-12-19T11:47:14Z</time>
      </trkpt>
      <trkpt lat="45.23525" lon="5.98593">
        <ele>1193.8</ele>
        <time>2021-12-19T11:47:19Z</time>
      </trkpt>
      <trkpt lat="45.23526" lon="5.9859">
        <ele>1193.6</ele>
        <time>2021-12-19T11:47:22Z</time>
      </trkpt>
      <trkpt lat="45.23526" lon="5.98589">
        <ele>1193.6</ele>
        <time>2021-12-19T11:47:23Z</time>
      </trkpt>
      <trkpt lat="45.23525" lon="5.98586">
        <ele>1193.2</ele>
        <time>2021-12-19T11:47:27Z</time>
      </trkpt>
    </trkseg>
  </trk>
</gpx>